<?xml version="1.0" encoding="UTF-8" standalone="no" ?>
<gpx xmlns="http://www.topografix.com/GPX/1/1" xmlns:xsi="http://www.w3.org/2001/XMLSchema-instance" xsi:schemaLocation="http://www.topografix.com/GPX/1/1 http://www.topografix.com/GPX/1/1/gpx.xsd" version="1.1" creator="VisuGPX - https://www.visugpx.com">
  <metadata>
    <name>Rando de 38 km autour de Pignan</name>
    <desc><![CDATA[Un parcours type enchainant piste, monotraces, pour les costaud du mollet (922m de D ), les techniciens, les amateurs de sensations fortes et d\'esthétisme. Bref, du pur bonheur de VTTiste !!!]]]></desc>
  </metadata>
  <trk>
    <name><![CDATA[2011-01-16-01]]></name>
    <trkseg>
      <trkpt lat="43.58477" lon="3.75747">
        <ele>77.800003</ele>
        <time>2011-01-16T08:01:52Z</time>
      </trkpt>
      <trkpt lat="43.58481" lon="3.75736">
        <ele>58.906177</ele>
        <time>2011-01-16T08:04:21Z</time>
      </trkpt>
      <trkpt lat="43.58481" lon="3.75736">
        <ele>59.204635</ele>
        <time>2011-01-16T08:04:22Z</time>
      </trkpt>
      <trkpt lat="43.58478" lon="3.75749">
        <ele>62</ele>
        <time>2011-01-16T08:06:56Z</time>
      </trkpt>
      <trkpt lat="43.58468" lon="3.75755">
        <ele>60.8</ele>
        <time>2011-01-16T08:07:00Z</time>
      </trkpt>
      <trkpt lat="43.58461" lon="3.75751">
        <ele>60.3</ele>
        <time>2011-01-16T08:07:02Z</time>
      </trkpt>
      <trkpt lat="43.58456" lon="3.75743">
        <ele>60.1</ele>
        <time>2011-01-16T08:07:04Z</time>
      </trkpt>
      <trkpt lat="43.58452" lon="3.75735">
        <ele>60.1</ele>
        <time>2011-01-16T08:07:06Z</time>
      </trkpt>
      <trkpt lat="43.5845" lon="3.7573">
        <ele>60.2</ele>
        <time>2011-01-16T08:07:07Z</time>
      </trkpt>
      <trkpt lat="43.58445" lon="3.75716">
        <ele>60.3</ele>
        <time>2011-01-16T08:07:10Z</time>
      </trkpt>
      <trkpt lat="43.58441" lon="3.75707">
        <ele>60.7</ele>
        <time>2011-01-16T08:07:12Z</time>
      </trkpt>
      <trkpt lat="43.58436" lon="3.75697">
        <ele>61.1</ele>
        <time>2011-01-16T08:07:14Z</time>
      </trkpt>
      <trkpt lat="43.58432" lon="3.75687">
        <ele>61.5</ele>
        <time>2011-01-16T08:07:16Z</time>
      </trkpt>
      <trkpt lat="43.58427" lon="3.75678">
        <ele>61.8</ele>
        <time>2011-01-16T08:07:18Z</time>
      </trkpt>
      <trkpt lat="43.58422" lon="3.75667">
        <ele>62.1</ele>
        <time>2011-01-16T08:07:20Z</time>
      </trkpt>
      <trkpt lat="43.58418" lon="3.75657">
        <ele>62.3</ele>
        <time>2011-01-16T08:07:22Z</time>
      </trkpt>
      <trkpt lat="43.58413" lon="3.75646">
        <ele>62.5</ele>
        <time>2011-01-16T08:07:24Z</time>
      </trkpt>
      <trkpt lat="43.58409" lon="3.75636">
        <ele>62.7</ele>
        <time>2011-01-16T08:07:26Z</time>
      </trkpt>
      <trkpt lat="43.58404" lon="3.75625">
        <ele>62.8</ele>
        <time>2011-01-16T08:07:28Z</time>
      </trkpt>
      <trkpt lat="43.58402" lon="3.7562">
        <ele>62.8</ele>
        <time>2011-01-16T08:07:29Z</time>
      </trkpt>
      <trkpt lat="43.584" lon="3.75614">
        <ele>62.8</ele>
        <time>2011-01-16T08:07:30Z</time>
      </trkpt>
      <trkpt lat="43.58397" lon="3.75609">
        <ele>62.8</ele>
        <time>2011-01-16T08:07:31Z</time>
      </trkpt>
      <trkpt lat="43.58395" lon="3.75603">
        <ele>62.8</ele>
        <time>2011-01-16T08:07:32Z</time>
      </trkpt>
      <trkpt lat="43.58393" lon="3.75597">
        <ele>62.8</ele>
        <time>2011-01-16T08:07:33Z</time>
      </trkpt>
      <trkpt lat="43.5839" lon="3.75592">
        <ele>62.9</ele>
        <time>2011-01-16T08:07:34Z</time>
      </trkpt>
      <trkpt lat="43.58388" lon="3.75586">
        <ele>62.9</ele>
        <time>2011-01-16T08:07:35Z</time>
      </trkpt>
      <trkpt lat="43.58385" lon="3.7558">
        <ele>62.9</ele>
        <time>2011-01-16T08:07:36Z</time>
      </trkpt>
      <trkpt lat="43.58383" lon="3.75574">
        <ele>62.9</ele>
        <time>2011-01-16T08:07:37Z</time>
      </trkpt>
      <trkpt lat="43.5838" lon="3.75568">
        <ele>62.9</ele>
        <time>2011-01-16T08:07:38Z</time>
      </trkpt>
      <trkpt lat="43.58377" lon="3.75563">
        <ele>62.9</ele>
        <time>2011-01-16T08:07:39Z</time>
      </trkpt>
      <trkpt lat="43.58374" lon="3.75557">
        <ele>62.9</ele>
        <time>2011-01-16T08:07:40Z</time>
      </trkpt>
      <trkpt lat="43.58371" lon="3.75552">
        <ele>62.8</ele>
        <time>2011-01-16T08:07:41Z</time>
      </trkpt>
      <trkpt lat="43.58368" lon="3.75546">
        <ele>62.8</ele>
        <time>2011-01-16T08:07:42Z</time>
      </trkpt>
      <trkpt lat="43.58365" lon="3.7554">
        <ele>62.8</ele>
        <time>2011-01-16T08:07:43Z</time>
      </trkpt>
      <trkpt lat="43.58363" lon="3.75534">
        <ele>62.7</ele>
        <time>2011-01-16T08:07:44Z</time>
      </trkpt>
      <trkpt lat="43.5836" lon="3.75528">
        <ele>62.7</ele>
        <time>2011-01-16T08:07:45Z</time>
      </trkpt>
      <trkpt lat="43.58358" lon="3.75522">
        <ele>62.6</ele>
        <time>2011-01-16T08:07:46Z</time>
      </trkpt>
      <trkpt lat="43.58354" lon="3.75516">
        <ele>62.5</ele>
        <time>2011-01-16T08:07:47Z</time>
      </trkpt>
      <trkpt lat="43.58352" lon="3.7551">
        <ele>62.5</ele>
        <time>2011-01-16T08:07:48Z</time>
      </trkpt>
      <trkpt lat="43.58349" lon="3.75503">
        <ele>62.4</ele>
        <time>2011-01-16T08:07:49Z</time>
      </trkpt>
      <trkpt lat="43.58346" lon="3.75497">
        <ele>62.4</ele>
        <time>2011-01-16T08:07:50Z</time>
      </trkpt>
      <trkpt lat="43.58344" lon="3.75491">
        <ele>62.4</ele>
        <time>2011-01-16T08:07:51Z</time>
      </trkpt>
      <trkpt lat="43.58341" lon="3.75484">
        <ele>62.3</ele>
        <time>2011-01-16T08:07:52Z</time>
      </trkpt>
      <trkpt lat="43.58338" lon="3.75478">
        <ele>62.3</ele>
        <time>2011-01-16T08:07:53Z</time>
      </trkpt>
      <trkpt lat="43.58335" lon="3.75472">
        <ele>62.3</ele>
        <time>2011-01-16T08:07:54Z</time>
      </trkpt>
      <trkpt lat="43.58333" lon="3.75466">
        <ele>62.3</ele>
        <time>2011-01-16T08:07:55Z</time>
      </trkpt>
      <trkpt lat="43.5833" lon="3.7546">
        <ele>62.2</ele>
        <time>2011-01-16T08:07:56Z</time>
      </trkpt>
      <trkpt lat="43.58327" lon="3.75454">
        <ele>62.2</ele>
        <time>2011-01-16T08:07:57Z</time>
      </trkpt>
      <trkpt lat="43.58325" lon="3.75448">
        <ele>62.2</ele>
        <time>2011-01-16T08:07:58Z</time>
      </trkpt>
      <trkpt lat="43.58322" lon="3.75442">
        <ele>62.1</ele>
        <time>2011-01-16T08:07:59Z</time>
      </trkpt>
      <trkpt lat="43.58319" lon="3.75436">
        <ele>62.1</ele>
        <time>2011-01-16T08:08:00Z</time>
      </trkpt>
      <trkpt lat="43.58317" lon="3.7543">
        <ele>62</ele>
        <time>2011-01-16T08:08:01Z</time>
      </trkpt>
      <trkpt lat="43.58314" lon="3.75424">
        <ele>62</ele>
        <time>2011-01-16T08:08:02Z</time>
      </trkpt>
      <trkpt lat="43.58311" lon="3.75417">
        <ele>61.9</ele>
        <time>2011-01-16T08:08:03Z</time>
      </trkpt>
      <trkpt lat="43.58308" lon="3.75411">
        <ele>61.9</ele>
        <time>2011-01-16T08:08:04Z</time>
      </trkpt>
      <trkpt lat="43.58306" lon="3.75405">
        <ele>61.9</ele>
        <time>2011-01-16T08:08:05Z</time>
      </trkpt>
      <trkpt lat="43.58303" lon="3.75399">
        <ele>62</ele>
        <time>2011-01-16T08:08:06Z</time>
      </trkpt>
      <trkpt lat="43.583" lon="3.75393">
        <ele>62</ele>
        <time>2011-01-16T08:08:07Z</time>
      </trkpt>
      <trkpt lat="43.58298" lon="3.75387">
        <ele>62</ele>
        <time>2011-01-16T08:08:08Z</time>
      </trkpt>
      <trkpt lat="43.58295" lon="3.75381">
        <ele>62</ele>
        <time>2011-01-16T08:08:09Z</time>
      </trkpt>
      <trkpt lat="43.58292" lon="3.75375">
        <ele>62</ele>
        <time>2011-01-16T08:08:10Z</time>
      </trkpt>
      <trkpt lat="43.5829" lon="3.75369">
        <ele>62</ele>
        <time>2011-01-16T08:08:11Z</time>
      </trkpt>
      <trkpt lat="43.58287" lon="3.75363">
        <ele>62.1</ele>
        <time>2011-01-16T08:08:12Z</time>
      </trkpt>
      <trkpt lat="43.58284" lon="3.75357">
        <ele>62.1</ele>
        <time>2011-01-16T08:08:13Z</time>
      </trkpt>
      <trkpt lat="43.58282" lon="3.75351">
        <ele>62.2</ele>
        <time>2011-01-16T08:08:14Z</time>
      </trkpt>
      <trkpt lat="43.58279" lon="3.75345">
        <ele>62.3</ele>
        <time>2011-01-16T08:08:15Z</time>
      </trkpt>
      <trkpt lat="43.58277" lon="3.75339">
        <ele>62.4</ele>
        <time>2011-01-16T08:08:16Z</time>
      </trkpt>
      <trkpt lat="43.58274" lon="3.75333">
        <ele>62.5</ele>
        <time>2011-01-16T08:08:17Z</time>
      </trkpt>
      <trkpt lat="43.58271" lon="3.75327">
        <ele>62.5</ele>
        <time>2011-01-16T08:08:18Z</time>
      </trkpt>
      <trkpt lat="43.58269" lon="3.75321">
        <ele>62.6</ele>
        <time>2011-01-16T08:08:19Z</time>
      </trkpt>
      <trkpt lat="43.58266" lon="3.75315">
        <ele>62.7</ele>
        <time>2011-01-16T08:08:20Z</time>
      </trkpt>
      <trkpt lat="43.58263" lon="3.75309">
        <ele>62.8</ele>
        <time>2011-01-16T08:08:21Z</time>
      </trkpt>
      <trkpt lat="43.58261" lon="3.75303">
        <ele>62.9</ele>
        <time>2011-01-16T08:08:22Z</time>
      </trkpt>
      <trkpt lat="43.58258" lon="3.75297">
        <ele>63</ele>
        <time>2011-01-16T08:08:23Z</time>
      </trkpt>
      <trkpt lat="43.58255" lon="3.75291">
        <ele>63.1</ele>
        <time>2011-01-16T08:08:24Z</time>
      </trkpt>
      <trkpt lat="43.58253" lon="3.75285">
        <ele>63.1</ele>
        <time>2011-01-16T08:08:25Z</time>
      </trkpt>
      <trkpt lat="43.5825" lon="3.7528">
        <ele>63.2</ele>
        <time>2011-01-16T08:08:26Z</time>
      </trkpt>
      <trkpt lat="43.58248" lon="3.75274">
        <ele>63.3</ele>
        <time>2011-01-16T08:08:27Z</time>
      </trkpt>
      <trkpt lat="43.58245" lon="3.75268">
        <ele>63.4</ele>
        <time>2011-01-16T08:08:28Z</time>
      </trkpt>
      <trkpt lat="43.58243" lon="3.75262">
        <ele>63.4</ele>
        <time>2011-01-16T08:08:29Z</time>
      </trkpt>
      <trkpt lat="43.5824" lon="3.75256">
        <ele>63.5</ele>
        <time>2011-01-16T08:08:30Z</time>
      </trkpt>
      <trkpt lat="43.58237" lon="3.75251">
        <ele>63.6</ele>
        <time>2011-01-16T08:08:31Z</time>
      </trkpt>
      <trkpt lat="43.58235" lon="3.75245">
        <ele>63.7</ele>
        <time>2011-01-16T08:08:32Z</time>
      </trkpt>
      <trkpt lat="43.58233" lon="3.7524">
        <ele>63.8</ele>
        <time>2011-01-16T08:08:33Z</time>
      </trkpt>
      <trkpt lat="43.5823" lon="3.75234">
        <ele>63.9</ele>
        <time>2011-01-16T08:08:34Z</time>
      </trkpt>
      <trkpt lat="43.58228" lon="3.75229">
        <ele>64</ele>
        <time>2011-01-16T08:08:35Z</time>
      </trkpt>
      <trkpt lat="43.58225" lon="3.75223">
        <ele>64.1</ele>
        <time>2011-01-16T08:08:36Z</time>
      </trkpt>
      <trkpt lat="43.58223" lon="3.75217">
        <ele>64.2</ele>
        <time>2011-01-16T08:08:37Z</time>
      </trkpt>
      <trkpt lat="43.5822" lon="3.75212">
        <ele>64.3</ele>
        <time>2011-01-16T08:08:38Z</time>
      </trkpt>
      <trkpt lat="43.58218" lon="3.75206">
        <ele>64.4</ele>
        <time>2011-01-16T08:08:39Z</time>
      </trkpt>
      <trkpt lat="43.58215" lon="3.752">
        <ele>64.5</ele>
        <time>2011-01-16T08:08:40Z</time>
      </trkpt>
      <trkpt lat="43.58213" lon="3.75195">
        <ele>64.5</ele>
        <time>2011-01-16T08:08:41Z</time>
      </trkpt>
      <trkpt lat="43.5821" lon="3.75189">
        <ele>64.6</ele>
        <time>2011-01-16T08:08:42Z</time>
      </trkpt>
      <trkpt lat="43.58208" lon="3.75183">
        <ele>64.7</ele>
        <time>2011-01-16T08:08:43Z</time>
      </trkpt>
      <trkpt lat="43.58205" lon="3.75178">
        <ele>64.8</ele>
        <time>2011-01-16T08:08:44Z</time>
      </trkpt>
      <trkpt lat="43.58203" lon="3.75172">
        <ele>64.8</ele>
        <time>2011-01-16T08:08:45Z</time>
      </trkpt>
      <trkpt lat="43.582" lon="3.75166">
        <ele>64.9</ele>
        <time>2011-01-16T08:08:46Z</time>
      </trkpt>
      <trkpt lat="43.58198" lon="3.75161">
        <ele>65</ele>
        <time>2011-01-16T08:08:47Z</time>
      </trkpt>
      <trkpt lat="43.58195" lon="3.75155">
        <ele>65</ele>
        <time>2011-01-16T08:08:48Z</time>
      </trkpt>
      <trkpt lat="43.58193" lon="3.75149">
        <ele>65.1</ele>
        <time>2011-01-16T08:08:49Z</time>
      </trkpt>
      <trkpt lat="43.5819" lon="3.75143">
        <ele>65.2</ele>
        <time>2011-01-16T08:08:50Z</time>
      </trkpt>
      <trkpt lat="43.58188" lon="3.75138">
        <ele>65.2</ele>
        <time>2011-01-16T08:08:51Z</time>
      </trkpt>
      <trkpt lat="43.58185" lon="3.75132">
        <ele>65.3</ele>
        <time>2011-01-16T08:08:52Z</time>
      </trkpt>
      <trkpt lat="43.58182" lon="3.75126">
        <ele>65.4</ele>
        <time>2011-01-16T08:08:53Z</time>
      </trkpt>
      <trkpt lat="43.5818" lon="3.7512">
        <ele>65.5</ele>
        <time>2011-01-16T08:08:54Z</time>
      </trkpt>
      <trkpt lat="43.58177" lon="3.75114">
        <ele>65.6</ele>
        <time>2011-01-16T08:08:55Z</time>
      </trkpt>
      <trkpt lat="43.58175" lon="3.75109">
        <ele>65.7</ele>
        <time>2011-01-16T08:08:56Z</time>
      </trkpt>
      <trkpt lat="43.58172" lon="3.75103">
        <ele>65.8</ele>
        <time>2011-01-16T08:08:57Z</time>
      </trkpt>
      <trkpt lat="43.5817" lon="3.75097">
        <ele>65.9</ele>
        <time>2011-01-16T08:08:58Z</time>
      </trkpt>
      <trkpt lat="43.58167" lon="3.75092">
        <ele>66.1</ele>
        <time>2011-01-16T08:08:59Z</time>
      </trkpt>
      <trkpt lat="43.58165" lon="3.75086">
        <ele>66.2</ele>
        <time>2011-01-16T08:09:00Z</time>
      </trkpt>
      <trkpt lat="43.58162" lon="3.7508">
        <ele>66.5</ele>
        <time>2011-01-16T08:09:01Z</time>
      </trkpt>
      <trkpt lat="43.5816" lon="3.75075">
        <ele>66.7</ele>
        <time>2011-01-16T08:09:02Z</time>
      </trkpt>
      <trkpt lat="43.58157" lon="3.75069">
        <ele>66.9</ele>
        <time>2011-01-16T08:09:03Z</time>
      </trkpt>
      <trkpt lat="43.58155" lon="3.75063">
        <ele>67</ele>
        <time>2011-01-16T08:09:04Z</time>
      </trkpt>
      <trkpt lat="43.58152" lon="3.75058">
        <ele>67.2</ele>
        <time>2011-01-16T08:09:05Z</time>
      </trkpt>
      <trkpt lat="43.5815" lon="3.75052">
        <ele>67.4</ele>
        <time>2011-01-16T08:09:06Z</time>
      </trkpt>
      <trkpt lat="43.58147" lon="3.75047">
        <ele>67.5</ele>
        <time>2011-01-16T08:09:07Z</time>
      </trkpt>
      <trkpt lat="43.58145" lon="3.75041">
        <ele>67.6</ele>
        <time>2011-01-16T08:09:08Z</time>
      </trkpt>
      <trkpt lat="43.58143" lon="3.75036">
        <ele>67.7</ele>
        <time>2011-01-16T08:09:09Z</time>
      </trkpt>
      <trkpt lat="43.5814" lon="3.7503">
        <ele>67.8</ele>
        <time>2011-01-16T08:09:10Z</time>
      </trkpt>
      <trkpt lat="43.58138" lon="3.75025">
        <ele>67.9</ele>
        <time>2011-01-16T08:09:11Z</time>
      </trkpt>
      <trkpt lat="43.58135" lon="3.75019">
        <ele>68</ele>
        <time>2011-01-16T08:09:12Z</time>
      </trkpt>
      <trkpt lat="43.58132" lon="3.75014">
        <ele>68</ele>
        <time>2011-01-16T08:09:13Z</time>
      </trkpt>
      <trkpt lat="43.5813" lon="3.75008">
        <ele>68</ele>
        <time>2011-01-16T08:09:14Z</time>
      </trkpt>
      <trkpt lat="43.58127" lon="3.75002">
        <ele>68</ele>
        <time>2011-01-16T08:09:15Z</time>
      </trkpt>
      <trkpt lat="43.58124" lon="3.74996">
        <ele>68</ele>
        <time>2011-01-16T08:09:16Z</time>
      </trkpt>
      <trkpt lat="43.58121" lon="3.7499">
        <ele>67.9</ele>
        <time>2011-01-16T08:09:17Z</time>
      </trkpt>
      <trkpt lat="43.58119" lon="3.74985">
        <ele>67.8</ele>
        <time>2011-01-16T08:09:18Z</time>
      </trkpt>
      <trkpt lat="43.58116" lon="3.74979">
        <ele>67.7</ele>
        <time>2011-01-16T08:09:19Z</time>
      </trkpt>
      <trkpt lat="43.58113" lon="3.74973">
        <ele>67.7</ele>
        <time>2011-01-16T08:09:20Z</time>
      </trkpt>
      <trkpt lat="43.5811" lon="3.74967">
        <ele>67.6</ele>
        <time>2011-01-16T08:09:21Z</time>
      </trkpt>
      <trkpt lat="43.58108" lon="3.74962">
        <ele>67.5</ele>
        <time>2011-01-16T08:09:22Z</time>
      </trkpt>
      <trkpt lat="43.58105" lon="3.74956">
        <ele>67.5</ele>
        <time>2011-01-16T08:09:23Z</time>
      </trkpt>
      <trkpt lat="43.58103" lon="3.74951">
        <ele>67.4</ele>
        <time>2011-01-16T08:09:24Z</time>
      </trkpt>
      <trkpt lat="43.581" lon="3.74945">
        <ele>67.4</ele>
        <time>2011-01-16T08:09:25Z</time>
      </trkpt>
      <trkpt lat="43.58097" lon="3.7494">
        <ele>67.3</ele>
        <time>2011-01-16T08:09:26Z</time>
      </trkpt>
      <trkpt lat="43.58095" lon="3.74934">
        <ele>67.3</ele>
        <time>2011-01-16T08:09:27Z</time>
      </trkpt>
      <trkpt lat="43.58092" lon="3.74928">
        <ele>67.3</ele>
        <time>2011-01-16T08:09:28Z</time>
      </trkpt>
      <trkpt lat="43.5809" lon="3.74923">
        <ele>67.3</ele>
        <time>2011-01-16T08:09:29Z</time>
      </trkpt>
      <trkpt lat="43.58087" lon="3.74917">
        <ele>67.3</ele>
        <time>2011-01-16T08:09:30Z</time>
      </trkpt>
      <trkpt lat="43.58085" lon="3.74911">
        <ele>67.3</ele>
        <time>2011-01-16T08:09:31Z</time>
      </trkpt>
      <trkpt lat="43.58083" lon="3.74906">
        <ele>67.3</ele>
        <time>2011-01-16T08:09:32Z</time>
      </trkpt>
      <trkpt lat="43.58081" lon="3.749">
        <ele>67.3</ele>
        <time>2011-01-16T08:09:33Z</time>
      </trkpt>
      <trkpt lat="43.58078" lon="3.74894">
        <ele>67.3</ele>
        <time>2011-01-16T08:09:34Z</time>
      </trkpt>
      <trkpt lat="43.58075" lon="3.7489">
        <ele>67.3</ele>
        <time>2011-01-16T08:09:35Z</time>
      </trkpt>
      <trkpt lat="43.58072" lon="3.74885">
        <ele>67.3</ele>
        <time>2011-01-16T08:09:36Z</time>
      </trkpt>
      <trkpt lat="43.58069" lon="3.7488">
        <ele>67.3</ele>
        <time>2011-01-16T08:09:37Z</time>
      </trkpt>
      <trkpt lat="43.58066" lon="3.74874">
        <ele>67.4</ele>
        <time>2011-01-16T08:09:38Z</time>
      </trkpt>
      <trkpt lat="43.58063" lon="3.74869">
        <ele>67.4</ele>
        <time>2011-01-16T08:09:39Z</time>
      </trkpt>
      <trkpt lat="43.5806" lon="3.74863">
        <ele>67.4</ele>
        <time>2011-01-16T08:09:40Z</time>
      </trkpt>
      <trkpt lat="43.58058" lon="3.74858">
        <ele>67.4</ele>
        <time>2011-01-16T08:09:41Z</time>
      </trkpt>
      <trkpt lat="43.58055" lon="3.74853">
        <ele>67.4</ele>
        <time>2011-01-16T08:09:42Z</time>
      </trkpt>
      <trkpt lat="43.58052" lon="3.74847">
        <ele>67.4</ele>
        <time>2011-01-16T08:09:43Z</time>
      </trkpt>
      <trkpt lat="43.5805" lon="3.74842">
        <ele>67.4</ele>
        <time>2011-01-16T08:09:44Z</time>
      </trkpt>
      <trkpt lat="43.58047" lon="3.74837">
        <ele>67.4</ele>
        <time>2011-01-16T08:09:45Z</time>
      </trkpt>
      <trkpt lat="43.58045" lon="3.74832">
        <ele>67.5</ele>
        <time>2011-01-16T08:09:46Z</time>
      </trkpt>
      <trkpt lat="43.5804" lon="3.74822">
        <ele>67.5</ele>
        <time>2011-01-16T08:09:48Z</time>
      </trkpt>
      <trkpt lat="43.58035" lon="3.74812">
        <ele>67.6</ele>
        <time>2011-01-16T08:09:50Z</time>
      </trkpt>
      <trkpt lat="43.58032" lon="3.74807">
        <ele>67.6</ele>
        <time>2011-01-16T08:09:51Z</time>
      </trkpt>
      <trkpt lat="43.5803" lon="3.74801">
        <ele>67.6</ele>
        <time>2011-01-16T08:09:52Z</time>
      </trkpt>
      <trkpt lat="43.58027" lon="3.74796">
        <ele>67.6</ele>
        <time>2011-01-16T08:09:53Z</time>
      </trkpt>
      <trkpt lat="43.58025" lon="3.74791">
        <ele>67.6</ele>
        <time>2011-01-16T08:09:54Z</time>
      </trkpt>
      <trkpt lat="43.58022" lon="3.74786">
        <ele>67.6</ele>
        <time>2011-01-16T08:09:55Z</time>
      </trkpt>
      <trkpt lat="43.5802" lon="3.7478">
        <ele>67.6</ele>
        <time>2011-01-16T08:09:56Z</time>
      </trkpt>
      <trkpt lat="43.58017" lon="3.74775">
        <ele>67.6</ele>
        <time>2011-01-16T08:09:57Z</time>
      </trkpt>
      <trkpt lat="43.58015" lon="3.74769">
        <ele>67.5</ele>
        <time>2011-01-16T08:09:58Z</time>
      </trkpt>
      <trkpt lat="43.58013" lon="3.74764">
        <ele>67.5</ele>
        <time>2011-01-16T08:09:59Z</time>
      </trkpt>
      <trkpt lat="43.5801" lon="3.74758">
        <ele>67.4</ele>
        <time>2011-01-16T08:10:00Z</time>
      </trkpt>
      <trkpt lat="43.58008" lon="3.74752">
        <ele>67.4</ele>
        <time>2011-01-16T08:10:01Z</time>
      </trkpt>
      <trkpt lat="43.58005" lon="3.74747">
        <ele>67.4</ele>
        <time>2011-01-16T08:10:02Z</time>
      </trkpt>
      <trkpt lat="43.58003" lon="3.74742">
        <ele>67.3</ele>
        <time>2011-01-16T08:10:03Z</time>
      </trkpt>
      <trkpt lat="43.58" lon="3.74736">
        <ele>67.3</ele>
        <time>2011-01-16T08:10:04Z</time>
      </trkpt>
      <trkpt lat="43.57997" lon="3.74731">
        <ele>67.3</ele>
        <time>2011-01-16T08:10:05Z</time>
      </trkpt>
      <trkpt lat="43.57995" lon="3.74726">
        <ele>67.3</ele>
        <time>2011-01-16T08:10:06Z</time>
      </trkpt>
      <trkpt lat="43.57992" lon="3.7472">
        <ele>67.3</ele>
        <time>2011-01-16T08:10:07Z</time>
      </trkpt>
      <trkpt lat="43.57989" lon="3.74715">
        <ele>67.3</ele>
        <time>2011-01-16T08:10:08Z</time>
      </trkpt>
      <trkpt lat="43.57986" lon="3.74709">
        <ele>67.3</ele>
        <time>2011-01-16T08:10:09Z</time>
      </trkpt>
      <trkpt lat="43.57984" lon="3.74703">
        <ele>67.4</ele>
        <time>2011-01-16T08:10:10Z</time>
      </trkpt>
      <trkpt lat="43.57981" lon="3.74698">
        <ele>67.4</ele>
        <time>2011-01-16T08:10:11Z</time>
      </trkpt>
      <trkpt lat="43.57978" lon="3.74692">
        <ele>67.4</ele>
        <time>2011-01-16T08:10:12Z</time>
      </trkpt>
      <trkpt lat="43.57976" lon="3.74687">
        <ele>67.4</ele>
        <time>2011-01-16T08:10:13Z</time>
      </trkpt>
      <trkpt lat="43.57973" lon="3.74681">
        <ele>67.4</ele>
        <time>2011-01-16T08:10:14Z</time>
      </trkpt>
      <trkpt lat="43.5797" lon="3.74676">
        <ele>67.5</ele>
        <time>2011-01-16T08:10:15Z</time>
      </trkpt>
      <trkpt lat="43.57968" lon="3.7467">
        <ele>67.5</ele>
        <time>2011-01-16T08:10:16Z</time>
      </trkpt>
      <trkpt lat="43.57965" lon="3.74665">
        <ele>67.5</ele>
        <time>2011-01-16T08:10:17Z</time>
      </trkpt>
      <trkpt lat="43.57963" lon="3.74659">
        <ele>67.6</ele>
        <time>2011-01-16T08:10:18Z</time>
      </trkpt>
      <trkpt lat="43.57961" lon="3.74654">
        <ele>67.6</ele>
        <time>2011-01-16T08:10:19Z</time>
      </trkpt>
      <trkpt lat="43.57958" lon="3.74648">
        <ele>67.7</ele>
        <time>2011-01-16T08:10:20Z</time>
      </trkpt>
      <trkpt lat="43.57953" lon="3.74638">
        <ele>67.8</ele>
        <time>2011-01-16T08:10:22Z</time>
      </trkpt>
      <trkpt lat="43.57948" lon="3.74628">
        <ele>67.9</ele>
        <time>2011-01-16T08:10:24Z</time>
      </trkpt>
      <trkpt lat="43.57944" lon="3.74618">
        <ele>68</ele>
        <time>2011-01-16T08:10:26Z</time>
      </trkpt>
      <trkpt lat="43.57939" lon="3.74608">
        <ele>68.1</ele>
        <time>2011-01-16T08:10:28Z</time>
      </trkpt>
      <trkpt lat="43.57937" lon="3.74603">
        <ele>68.1</ele>
        <time>2011-01-16T08:10:29Z</time>
      </trkpt>
      <trkpt lat="43.57934" lon="3.74597">
        <ele>68.1</ele>
        <time>2011-01-16T08:10:30Z</time>
      </trkpt>
      <trkpt lat="43.57932" lon="3.74592">
        <ele>68.2</ele>
        <time>2011-01-16T08:10:31Z</time>
      </trkpt>
      <trkpt lat="43.5793" lon="3.74586">
        <ele>68.2</ele>
        <time>2011-01-16T08:10:32Z</time>
      </trkpt>
      <trkpt lat="43.57928" lon="3.7458">
        <ele>68.3</ele>
        <time>2011-01-16T08:10:33Z</time>
      </trkpt>
      <trkpt lat="43.57925" lon="3.74569">
        <ele>68.5</ele>
        <time>2011-01-16T08:10:35Z</time>
      </trkpt>
      <trkpt lat="43.57922" lon="3.74558">
        <ele>68.9</ele>
        <time>2011-01-16T08:10:37Z</time>
      </trkpt>
      <trkpt lat="43.5792" lon="3.74548">
        <ele>69.4</ele>
        <time>2011-01-16T08:10:39Z</time>
      </trkpt>
      <trkpt lat="43.57918" lon="3.74538">
        <ele>69.9</ele>
        <time>2011-01-16T08:10:41Z</time>
      </trkpt>
      <trkpt lat="43.57916" lon="3.74529">
        <ele>70.4</ele>
        <time>2011-01-16T08:10:43Z</time>
      </trkpt>
      <trkpt lat="43.57915" lon="3.7452">
        <ele>70.9</ele>
        <time>2011-01-16T08:10:45Z</time>
      </trkpt>
      <trkpt lat="43.57912" lon="3.74513">
        <ele>71.3</ele>
        <time>2011-01-16T08:10:47Z</time>
      </trkpt>
      <trkpt lat="43.57908" lon="3.74505">
        <ele>71.5</ele>
        <time>2011-01-16T08:10:49Z</time>
      </trkpt>
      <trkpt lat="43.57905" lon="3.74498">
        <ele>71.8</ele>
        <time>2011-01-16T08:10:51Z</time>
      </trkpt>
      <trkpt lat="43.57901" lon="3.74489">
        <ele>72.1</ele>
        <time>2011-01-16T08:10:53Z</time>
      </trkpt>
      <trkpt lat="43.57898" lon="3.74481">
        <ele>72.5</ele>
        <time>2011-01-16T08:10:55Z</time>
      </trkpt>
      <trkpt lat="43.57894" lon="3.74473">
        <ele>72.5</ele>
        <time>2011-01-16T08:10:57Z</time>
      </trkpt>
      <trkpt lat="43.5789" lon="3.74465">
        <ele>72.5</ele>
        <time>2011-01-16T08:10:59Z</time>
      </trkpt>
      <trkpt lat="43.57888" lon="3.74461">
        <ele>72.9</ele>
        <time>2011-01-16T08:11:00Z</time>
      </trkpt>
      <trkpt lat="43.57883" lon="3.7445">
        <ele>73.4</ele>
        <time>2011-01-16T08:11:03Z</time>
      </trkpt>
      <trkpt lat="43.57879" lon="3.74442">
        <ele>73.4</ele>
        <time>2011-01-16T08:11:05Z</time>
      </trkpt>
      <trkpt lat="43.57876" lon="3.74434">
        <ele>73.9</ele>
        <time>2011-01-16T08:11:07Z</time>
      </trkpt>
      <trkpt lat="43.57872" lon="3.74426">
        <ele>74.4</ele>
        <time>2011-01-16T08:11:09Z</time>
      </trkpt>
      <trkpt lat="43.57867" lon="3.74418">
        <ele>74.8</ele>
        <time>2011-01-16T08:11:11Z</time>
      </trkpt>
      <trkpt lat="43.57866" lon="3.74409">
        <ele>75.4</ele>
        <time>2011-01-16T08:11:13Z</time>
      </trkpt>
      <trkpt lat="43.57868" lon="3.74401">
        <ele>76</ele>
        <time>2011-01-16T08:11:15Z</time>
      </trkpt>
      <trkpt lat="43.5787" lon="3.74392">
        <ele>75.9</ele>
        <time>2011-01-16T08:11:17Z</time>
      </trkpt>
      <trkpt lat="43.57874" lon="3.74382">
        <ele>76.4</ele>
        <time>2011-01-16T08:11:20Z</time>
      </trkpt>
      <trkpt lat="43.57879" lon="3.74373">
        <ele>78.2</ele>
        <time>2011-01-16T08:11:23Z</time>
      </trkpt>
      <trkpt lat="43.57885" lon="3.74365">
        <ele>79.1</ele>
        <time>2011-01-16T08:11:26Z</time>
      </trkpt>
      <trkpt lat="43.57891" lon="3.74359">
        <ele>79.5</ele>
        <time>2011-01-16T08:11:29Z</time>
      </trkpt>
      <trkpt lat="43.57898" lon="3.74353">
        <ele>79.9</ele>
        <time>2011-01-16T08:11:32Z</time>
      </trkpt>
      <trkpt lat="43.57905" lon="3.74348">
        <ele>80.7</ele>
        <time>2011-01-16T08:11:35Z</time>
      </trkpt>
      <trkpt lat="43.57913" lon="3.74347">
        <ele>81.5</ele>
        <time>2011-01-16T08:11:38Z</time>
      </trkpt>
      <trkpt lat="43.5792" lon="3.74341">
        <ele>82.3</ele>
        <time>2011-01-16T08:11:41Z</time>
      </trkpt>
      <trkpt lat="43.57921" lon="3.74332">
        <ele>83.5</ele>
        <time>2011-01-16T08:11:44Z</time>
      </trkpt>
      <trkpt lat="43.57919" lon="3.74321">
        <ele>84.3</ele>
        <time>2011-01-16T08:11:47Z</time>
      </trkpt>
      <trkpt lat="43.57917" lon="3.7431">
        <ele>83.7</ele>
        <time>2011-01-16T08:11:51Z</time>
      </trkpt>
      <trkpt lat="43.57917" lon="3.74298">
        <ele>83.8</ele>
        <time>2011-01-16T08:11:55Z</time>
      </trkpt>
      <trkpt lat="43.57915" lon="3.74286">
        <ele>83.7</ele>
        <time>2011-01-16T08:11:58Z</time>
      </trkpt>
      <trkpt lat="43.57912" lon="3.74277">
        <ele>83.1</ele>
        <time>2011-01-16T08:12:00Z</time>
      </trkpt>
      <trkpt lat="43.5791" lon="3.74272">
        <ele>82.8</ele>
        <time>2011-01-16T08:12:01Z</time>
      </trkpt>
      <trkpt lat="43.57904" lon="3.74264">
        <ele>82.6</ele>
        <time>2011-01-16T08:12:03Z</time>
      </trkpt>
      <trkpt lat="43.579" lon="3.7426">
        <ele>82.7</ele>
        <time>2011-01-16T08:12:04Z</time>
      </trkpt>
      <trkpt lat="43.57896" lon="3.74257">
        <ele>82.8</ele>
        <time>2011-01-16T08:12:05Z</time>
      </trkpt>
      <trkpt lat="43.57891" lon="3.74254">
        <ele>82.8</ele>
        <time>2011-01-16T08:12:06Z</time>
      </trkpt>
      <trkpt lat="43.57885" lon="3.74251">
        <ele>82.3</ele>
        <time>2011-01-16T08:12:07Z</time>
      </trkpt>
      <trkpt lat="43.5788" lon="3.74248">
        <ele>81.9</ele>
        <time>2011-01-16T08:12:08Z</time>
      </trkpt>
      <trkpt lat="43.57874" lon="3.74246">
        <ele>81.6</ele>
        <time>2011-01-16T08:12:09Z</time>
      </trkpt>
      <trkpt lat="43.57868" lon="3.74243">
        <ele>80.8</ele>
        <time>2011-01-16T08:12:10Z</time>
      </trkpt>
      <trkpt lat="43.57863" lon="3.74238">
        <ele>80.2</ele>
        <time>2011-01-16T08:12:11Z</time>
      </trkpt>
      <trkpt lat="43.57859" lon="3.74232">
        <ele>79.7</ele>
        <time>2011-01-16T08:12:12Z</time>
      </trkpt>
      <trkpt lat="43.57856" lon="3.74225">
        <ele>79.5</ele>
        <time>2011-01-16T08:12:13Z</time>
      </trkpt>
      <trkpt lat="43.57853" lon="3.74217">
        <ele>79.4</ele>
        <time>2011-01-16T08:12:14Z</time>
      </trkpt>
      <trkpt lat="43.57852" lon="3.74209">
        <ele>79.2</ele>
        <time>2011-01-16T08:12:15Z</time>
      </trkpt>
      <trkpt lat="43.5785" lon="3.74202">
        <ele>79.1</ele>
        <time>2011-01-16T08:12:16Z</time>
      </trkpt>
      <trkpt lat="43.57848" lon="3.74195">
        <ele>78.9</ele>
        <time>2011-01-16T08:12:17Z</time>
      </trkpt>
      <trkpt lat="43.57846" lon="3.74183">
        <ele>78.7</ele>
        <time>2011-01-16T08:12:19Z</time>
      </trkpt>
      <trkpt lat="43.57844" lon="3.74173">
        <ele>78.5</ele>
        <time>2011-01-16T08:12:21Z</time>
      </trkpt>
      <trkpt lat="43.57841" lon="3.74164">
        <ele>78.6</ele>
        <time>2011-01-16T08:12:23Z</time>
      </trkpt>
      <trkpt lat="43.5784" lon="3.74154">
        <ele>78.7</ele>
        <time>2011-01-16T08:12:25Z</time>
      </trkpt>
      <trkpt lat="43.5784" lon="3.74144">
        <ele>79.3</ele>
        <time>2011-01-16T08:12:27Z</time>
      </trkpt>
      <trkpt lat="43.57841" lon="3.74135">
        <ele>79.5</ele>
        <time>2011-01-16T08:12:29Z</time>
      </trkpt>
      <trkpt lat="43.57844" lon="3.74126">
        <ele>79.4</ele>
        <time>2011-01-16T08:12:31Z</time>
      </trkpt>
      <trkpt lat="43.57847" lon="3.74118">
        <ele>79.6</ele>
        <time>2011-01-16T08:12:33Z</time>
      </trkpt>
      <trkpt lat="43.57851" lon="3.74111">
        <ele>80.2</ele>
        <time>2011-01-16T08:12:35Z</time>
      </trkpt>
      <trkpt lat="43.57856" lon="3.74105">
        <ele>80.9</ele>
        <time>2011-01-16T08:12:37Z</time>
      </trkpt>
      <trkpt lat="43.57861" lon="3.74101">
        <ele>80.3</ele>
        <time>2011-01-16T08:12:39Z</time>
      </trkpt>
      <trkpt lat="43.57869" lon="3.74099">
        <ele>80.4</ele>
        <time>2011-01-16T08:12:42Z</time>
      </trkpt>
      <trkpt lat="43.57877" lon="3.74101">
        <ele>81.5</ele>
        <time>2011-01-16T08:12:45Z</time>
      </trkpt>
      <trkpt lat="43.57883" lon="3.74106">
        <ele>82.2</ele>
        <time>2011-01-16T08:12:48Z</time>
      </trkpt>
      <trkpt lat="43.5789" lon="3.7411">
        <ele>82.8</ele>
        <time>2011-01-16T08:12:51Z</time>
      </trkpt>
      <trkpt lat="43.57897" lon="3.74114">
        <ele>83.2</ele>
        <time>2011-01-16T08:12:54Z</time>
      </trkpt>
      <trkpt lat="43.57905" lon="3.74116">
        <ele>83.4</ele>
        <time>2011-01-16T08:12:57Z</time>
      </trkpt>
      <trkpt lat="43.57912" lon="3.74117">
        <ele>84.1</ele>
        <time>2011-01-16T08:13:00Z</time>
      </trkpt>
      <trkpt lat="43.5792" lon="3.74117">
        <ele>84.4</ele>
        <time>2011-01-16T08:13:03Z</time>
      </trkpt>
      <trkpt lat="43.57923" lon="3.74117">
        <ele>84.5</ele>
        <time>2011-01-16T08:13:04Z</time>
      </trkpt>
      <trkpt lat="43.57936" lon="3.74116">
        <ele>86.1</ele>
        <time>2011-01-16T08:13:09Z</time>
      </trkpt>
      <trkpt lat="43.57943" lon="3.74114">
        <ele>86.7</ele>
        <time>2011-01-16T08:13:12Z</time>
      </trkpt>
      <trkpt lat="43.57951" lon="3.74113">
        <ele>86.9</ele>
        <time>2011-01-16T08:13:15Z</time>
      </trkpt>
      <trkpt lat="43.57959" lon="3.74112">
        <ele>87.6</ele>
        <time>2011-01-16T08:13:18Z</time>
      </trkpt>
      <trkpt lat="43.57967" lon="3.74116">
        <ele>88.3</ele>
        <time>2011-01-16T08:13:21Z</time>
      </trkpt>
      <trkpt lat="43.57973" lon="3.74124">
        <ele>89.9</ele>
        <time>2011-01-16T08:13:24Z</time>
      </trkpt>
      <trkpt lat="43.57977" lon="3.74132">
        <ele>90.4</ele>
        <time>2011-01-16T08:13:27Z</time>
      </trkpt>
      <trkpt lat="43.57982" lon="3.74139">
        <ele>90.9</ele>
        <time>2011-01-16T08:13:30Z</time>
      </trkpt>
      <trkpt lat="43.57988" lon="3.74146">
        <ele>91.6</ele>
        <time>2011-01-16T08:13:33Z</time>
      </trkpt>
      <trkpt lat="43.57994" lon="3.74152">
        <ele>92.5</ele>
        <time>2011-01-16T08:13:36Z</time>
      </trkpt>
      <trkpt lat="43.58001" lon="3.74158">
        <ele>93.1</ele>
        <time>2011-01-16T08:13:39Z</time>
      </trkpt>
      <trkpt lat="43.58008" lon="3.74163">
        <ele>93.7</ele>
        <time>2011-01-16T08:13:42Z</time>
      </trkpt>
      <trkpt lat="43.58015" lon="3.74167">
        <ele>94.1</ele>
        <time>2011-01-16T08:13:45Z</time>
      </trkpt>
      <trkpt lat="43.58023" lon="3.74171">
        <ele>94.7</ele>
        <time>2011-01-16T08:13:48Z</time>
      </trkpt>
      <trkpt lat="43.58031" lon="3.74175">
        <ele>95.4</ele>
        <time>2011-01-16T08:13:51Z</time>
      </trkpt>
      <trkpt lat="43.58039" lon="3.74178">
        <ele>95.7</ele>
        <time>2011-01-16T08:13:54Z</time>
      </trkpt>
      <trkpt lat="43.58047" lon="3.74182">
        <ele>96</ele>
        <time>2011-01-16T08:13:57Z</time>
      </trkpt>
      <trkpt lat="43.58052" lon="3.74185">
        <ele>95.7</ele>
        <time>2011-01-16T08:13:59Z</time>
      </trkpt>
      <trkpt lat="43.58059" lon="3.74189">
        <ele>95.5</ele>
        <time>2011-01-16T08:14:01Z</time>
      </trkpt>
      <trkpt lat="43.58064" lon="3.74194">
        <ele>95.2</ele>
        <time>2011-01-16T08:14:03Z</time>
      </trkpt>
      <trkpt lat="43.58069" lon="3.742">
        <ele>95.6</ele>
        <time>2011-01-16T08:14:05Z</time>
      </trkpt>
      <trkpt lat="43.58071" lon="3.74204">
        <ele>95.8</ele>
        <time>2011-01-16T08:14:06Z</time>
      </trkpt>
      <trkpt lat="43.5808" lon="3.7421">
        <ele>95.6</ele>
        <time>2011-01-16T08:14:09Z</time>
      </trkpt>
      <trkpt lat="43.58088" lon="3.74211">
        <ele>96</ele>
        <time>2011-01-16T08:14:12Z</time>
      </trkpt>
      <trkpt lat="43.58096" lon="3.74214">
        <ele>96.9</ele>
        <time>2011-01-16T08:14:15Z</time>
      </trkpt>
      <trkpt lat="43.58102" lon="3.74219">
        <ele>97.7</ele>
        <time>2011-01-16T08:14:18Z</time>
      </trkpt>
      <trkpt lat="43.58109" lon="3.74225">
        <ele>98.8</ele>
        <time>2011-01-16T08:14:21Z</time>
      </trkpt>
      <trkpt lat="43.58116" lon="3.74227">
        <ele>99.6</ele>
        <time>2011-01-16T08:14:24Z</time>
      </trkpt>
      <trkpt lat="43.58122" lon="3.74229">
        <ele>100.1</ele>
        <time>2011-01-16T08:14:27Z</time>
      </trkpt>
      <trkpt lat="43.58128" lon="3.74237">
        <ele>100.5</ele>
        <time>2011-01-16T08:14:30Z</time>
      </trkpt>
      <trkpt lat="43.58136" lon="3.74243">
        <ele>101.1</ele>
        <time>2011-01-16T08:14:33Z</time>
      </trkpt>
      <trkpt lat="43.58144" lon="3.74245">
        <ele>101.2</ele>
        <time>2011-01-16T08:14:36Z</time>
      </trkpt>
      <trkpt lat="43.58152" lon="3.74247">
        <ele>101</ele>
        <time>2011-01-16T08:14:39Z</time>
      </trkpt>
      <trkpt lat="43.58161" lon="3.74248">
        <ele>100.7</ele>
        <time>2011-01-16T08:14:42Z</time>
      </trkpt>
      <trkpt lat="43.58169" lon="3.74247">
        <ele>100.5</ele>
        <time>2011-01-16T08:14:45Z</time>
      </trkpt>
      <trkpt lat="43.58176" lon="3.74243">
        <ele>100.7</ele>
        <time>2011-01-16T08:14:48Z</time>
      </trkpt>
      <trkpt lat="43.58184" lon="3.74243">
        <ele>101.8</ele>
        <time>2011-01-16T08:14:51Z</time>
      </trkpt>
      <trkpt lat="43.5819" lon="3.74246">
        <ele>101.7</ele>
        <time>2011-01-16T08:14:53Z</time>
      </trkpt>
      <trkpt lat="43.58194" lon="3.74252">
        <ele>101.6</ele>
        <time>2011-01-16T08:14:55Z</time>
      </trkpt>
      <trkpt lat="43.58199" lon="3.7426">
        <ele>101.5</ele>
        <time>2011-01-16T08:14:57Z</time>
      </trkpt>
      <trkpt lat="43.58204" lon="3.74265">
        <ele>101.2</ele>
        <time>2011-01-16T08:14:59Z</time>
      </trkpt>
      <trkpt lat="43.5821" lon="3.74262">
        <ele>100.9</ele>
        <time>2011-01-16T08:15:01Z</time>
      </trkpt>
      <trkpt lat="43.58215" lon="3.74256">
        <ele>100.7</ele>
        <time>2011-01-16T08:15:03Z</time>
      </trkpt>
      <trkpt lat="43.58219" lon="3.7425">
        <ele>100.7</ele>
        <time>2011-01-16T08:15:05Z</time>
      </trkpt>
      <trkpt lat="43.58224" lon="3.74243">
        <ele>100.9</ele>
        <time>2011-01-16T08:15:07Z</time>
      </trkpt>
      <trkpt lat="43.58226" lon="3.7424">
        <ele>101.1</ele>
        <time>2011-01-16T08:15:08Z</time>
      </trkpt>
      <trkpt lat="43.58233" lon="3.74231">
        <ele>101.9</ele>
        <time>2011-01-16T08:15:11Z</time>
      </trkpt>
      <trkpt lat="43.5824" lon="3.74223">
        <ele>102.9</ele>
        <time>2011-01-16T08:15:14Z</time>
      </trkpt>
      <trkpt lat="43.58244" lon="3.74217">
        <ele>103.4</ele>
        <time>2011-01-16T08:15:16Z</time>
      </trkpt>
      <trkpt lat="43.58251" lon="3.74208">
        <ele>103.8</ele>
        <time>2011-01-16T08:15:19Z</time>
      </trkpt>
      <trkpt lat="43.58255" lon="3.74203">
        <ele>103.9</ele>
        <time>2011-01-16T08:15:21Z</time>
      </trkpt>
      <trkpt lat="43.58259" lon="3.74197">
        <ele>104</ele>
        <time>2011-01-16T08:15:23Z</time>
      </trkpt>
      <trkpt lat="43.58266" lon="3.74189">
        <ele>105</ele>
        <time>2011-01-16T08:15:26Z</time>
      </trkpt>
      <trkpt lat="43.58273" lon="3.74182">
        <ele>105.6</ele>
        <time>2011-01-16T08:15:29Z</time>
      </trkpt>
      <trkpt lat="43.58277" lon="3.74174">
        <ele>106.4</ele>
        <time>2011-01-16T08:15:32Z</time>
      </trkpt>
      <trkpt lat="43.58281" lon="3.74164">
        <ele>107.1</ele>
        <time>2011-01-16T08:15:36Z</time>
      </trkpt>
      <trkpt lat="43.58286" lon="3.74153">
        <ele>107.9</ele>
        <time>2011-01-16T08:15:40Z</time>
      </trkpt>
      <trkpt lat="43.58289" lon="3.74145">
        <ele>108</ele>
        <time>2011-01-16T08:15:43Z</time>
      </trkpt>
      <trkpt lat="43.58293" lon="3.74133">
        <ele>108.5</ele>
        <time>2011-01-16T08:15:47Z</time>
      </trkpt>
      <trkpt lat="43.58294" lon="3.74122">
        <ele>109.3</ele>
        <time>2011-01-16T08:15:51Z</time>
      </trkpt>
      <trkpt lat="43.58299" lon="3.74114">
        <ele>109.9</ele>
        <time>2011-01-16T08:16:05Z</time>
      </trkpt>
      <trkpt lat="43.583" lon="3.74103">
        <ele>110.3</ele>
        <time>2011-01-16T08:16:12Z</time>
      </trkpt>
      <trkpt lat="43.583" lon="3.74101">
        <ele>110.4</ele>
        <time>2011-01-16T08:16:13Z</time>
      </trkpt>
      <trkpt lat="43.58309" lon="3.74084">
        <ele>110.4</ele>
        <time>2011-01-16T08:16:21Z</time>
      </trkpt>
      <trkpt lat="43.58311" lon="3.74073">
        <ele>110.3</ele>
        <time>2011-01-16T08:16:25Z</time>
      </trkpt>
      <trkpt lat="43.58314" lon="3.74061">
        <ele>109.8</ele>
        <time>2011-01-16T08:16:29Z</time>
      </trkpt>
      <trkpt lat="43.58308" lon="3.74056">
        <ele>108.4</ele>
        <time>2011-01-16T08:16:32Z</time>
      </trkpt>
      <trkpt lat="43.58302" lon="3.74051">
        <ele>107.2</ele>
        <time>2011-01-16T08:16:35Z</time>
      </trkpt>
      <trkpt lat="43.58295" lon="3.74045">
        <ele>106.6</ele>
        <time>2011-01-16T08:16:38Z</time>
      </trkpt>
      <trkpt lat="43.5829" lon="3.74041">
        <ele>106.5</ele>
        <time>2011-01-16T08:16:40Z</time>
      </trkpt>
      <trkpt lat="43.58285" lon="3.74036">
        <ele>106.5</ele>
        <time>2011-01-16T08:16:42Z</time>
      </trkpt>
      <trkpt lat="43.58278" lon="3.7403">
        <ele>106</ele>
        <time>2011-01-16T08:16:44Z</time>
      </trkpt>
      <trkpt lat="43.58271" lon="3.74024">
        <ele>105.7</ele>
        <time>2011-01-16T08:16:46Z</time>
      </trkpt>
      <trkpt lat="43.58268" lon="3.74013">
        <ele>104.7</ele>
        <time>2011-01-16T08:16:50Z</time>
      </trkpt>
      <trkpt lat="43.58271" lon="3.74008">
        <ele>104.4</ele>
        <time>2011-01-16T08:16:51Z</time>
      </trkpt>
      <trkpt lat="43.58275" lon="3.74001">
        <ele>104.1</ele>
        <time>2011-01-16T08:16:52Z</time>
      </trkpt>
      <trkpt lat="43.58278" lon="3.73995">
        <ele>103</ele>
        <time>2011-01-16T08:16:53Z</time>
      </trkpt>
      <trkpt lat="43.58281" lon="3.73989">
        <ele>102.2</ele>
        <time>2011-01-16T08:16:54Z</time>
      </trkpt>
      <trkpt lat="43.58283" lon="3.73977">
        <ele>99.9</ele>
        <time>2011-01-16T08:16:56Z</time>
      </trkpt>
      <trkpt lat="43.58287" lon="3.73966">
        <ele>97.8</ele>
        <time>2011-01-16T08:16:58Z</time>
      </trkpt>
      <trkpt lat="43.58289" lon="3.73961">
        <ele>96.9</ele>
        <time>2011-01-16T08:16:59Z</time>
      </trkpt>
      <trkpt lat="43.58292" lon="3.73955">
        <ele>96.3</ele>
        <time>2011-01-16T08:17:00Z</time>
      </trkpt>
      <trkpt lat="43.58294" lon="3.7395">
        <ele>95.8</ele>
        <time>2011-01-16T08:17:01Z</time>
      </trkpt>
      <trkpt lat="43.58298" lon="3.73939">
        <ele>94.9</ele>
        <time>2011-01-16T08:17:03Z</time>
      </trkpt>
      <trkpt lat="43.58297" lon="3.73929">
        <ele>94.2</ele>
        <time>2011-01-16T08:17:05Z</time>
      </trkpt>
      <trkpt lat="43.58293" lon="3.73922">
        <ele>93.5</ele>
        <time>2011-01-16T08:17:07Z</time>
      </trkpt>
      <trkpt lat="43.58286" lon="3.73918">
        <ele>92.9</ele>
        <time>2011-01-16T08:17:09Z</time>
      </trkpt>
      <trkpt lat="43.58278" lon="3.73915">
        <ele>92.5</ele>
        <time>2011-01-16T08:17:11Z</time>
      </trkpt>
      <trkpt lat="43.58269" lon="3.73913">
        <ele>92.4</ele>
        <time>2011-01-16T08:17:13Z</time>
      </trkpt>
      <trkpt lat="43.58265" lon="3.7391">
        <ele>92.4</ele>
        <time>2011-01-16T08:17:14Z</time>
      </trkpt>
      <trkpt lat="43.58261" lon="3.73905">
        <ele>92</ele>
        <time>2011-01-16T08:17:15Z</time>
      </trkpt>
      <trkpt lat="43.58257" lon="3.739">
        <ele>91.6</ele>
        <time>2011-01-16T08:17:16Z</time>
      </trkpt>
      <trkpt lat="43.58254" lon="3.73895">
        <ele>91.3</ele>
        <time>2011-01-16T08:17:17Z</time>
      </trkpt>
      <trkpt lat="43.58249" lon="3.73887">
        <ele>89.8</ele>
        <time>2011-01-16T08:17:19Z</time>
      </trkpt>
      <trkpt lat="43.58244" lon="3.73883">
        <ele>89.1</ele>
        <time>2011-01-16T08:17:21Z</time>
      </trkpt>
      <trkpt lat="43.58239" lon="3.73874">
        <ele>88.8</ele>
        <time>2011-01-16T08:17:23Z</time>
      </trkpt>
      <trkpt lat="43.58237" lon="3.73868">
        <ele>88.5</ele>
        <time>2011-01-16T08:17:24Z</time>
      </trkpt>
      <trkpt lat="43.58235" lon="3.73863">
        <ele>88.2</ele>
        <time>2011-01-16T08:17:25Z</time>
      </trkpt>
      <trkpt lat="43.58232" lon="3.73857">
        <ele>88</ele>
        <time>2011-01-16T08:17:26Z</time>
      </trkpt>
      <trkpt lat="43.58228" lon="3.73852">
        <ele>87.9</ele>
        <time>2011-01-16T08:17:27Z</time>
      </trkpt>
      <trkpt lat="43.58225" lon="3.73848">
        <ele>87.2</ele>
        <time>2011-01-16T08:17:28Z</time>
      </trkpt>
      <trkpt lat="43.58221" lon="3.73844">
        <ele>86.6</ele>
        <time>2011-01-16T08:17:29Z</time>
      </trkpt>
      <trkpt lat="43.58217" lon="3.73839">
        <ele>86.2</ele>
        <time>2011-01-16T08:17:30Z</time>
      </trkpt>
      <trkpt lat="43.58211" lon="3.73831">
        <ele>84.9</ele>
        <time>2011-01-16T08:17:32Z</time>
      </trkpt>
      <trkpt lat="43.58206" lon="3.73821">
        <ele>83.8</ele>
        <time>2011-01-16T08:17:35Z</time>
      </trkpt>
      <trkpt lat="43.58205" lon="3.73809">
        <ele>82</ele>
        <time>2011-01-16T08:17:38Z</time>
      </trkpt>
      <trkpt lat="43.58206" lon="3.73798">
        <ele>81.4</ele>
        <time>2011-01-16T08:17:41Z</time>
      </trkpt>
      <trkpt lat="43.58211" lon="3.73789">
        <ele>81.4</ele>
        <time>2011-01-16T08:17:44Z</time>
      </trkpt>
      <trkpt lat="43.58216" lon="3.73782">
        <ele>81.3</ele>
        <time>2011-01-16T08:17:47Z</time>
      </trkpt>
      <trkpt lat="43.58221" lon="3.73774">
        <ele>80.9</ele>
        <time>2011-01-16T08:17:50Z</time>
      </trkpt>
      <trkpt lat="43.58226" lon="3.73768">
        <ele>80.6</ele>
        <time>2011-01-16T08:17:52Z</time>
      </trkpt>
      <trkpt lat="43.58233" lon="3.7376">
        <ele>81</ele>
        <time>2011-01-16T08:17:54Z</time>
      </trkpt>
      <trkpt lat="43.5824" lon="3.73752">
        <ele>80.6</ele>
        <time>2011-01-16T08:17:56Z</time>
      </trkpt>
      <trkpt lat="43.58246" lon="3.73744">
        <ele>80</ele>
        <time>2011-01-16T08:17:58Z</time>
      </trkpt>
      <trkpt lat="43.58249" lon="3.73735">
        <ele>79.8</ele>
        <time>2011-01-16T08:18:00Z</time>
      </trkpt>
      <trkpt lat="43.58246" lon="3.73726">
        <ele>79.6</ele>
        <time>2011-01-16T08:18:02Z</time>
      </trkpt>
      <trkpt lat="43.58242" lon="3.73717">
        <ele>78.8</ele>
        <time>2011-01-16T08:18:04Z</time>
      </trkpt>
      <trkpt lat="43.5824" lon="3.73707">
        <ele>78.3</ele>
        <time>2011-01-16T08:18:06Z</time>
      </trkpt>
      <trkpt lat="43.58234" lon="3.73701">
        <ele>77.6</ele>
        <time>2011-01-16T08:18:10Z</time>
      </trkpt>
      <trkpt lat="43.58225" lon="3.73704">
        <ele>76.4</ele>
        <time>2011-01-16T08:18:15Z</time>
      </trkpt>
      <trkpt lat="43.58224" lon="3.73705">
        <ele>76.1</ele>
        <time>2011-01-16T08:18:16Z</time>
      </trkpt>
      <trkpt lat="43.58212" lon="3.73712">
        <ele>76.5</ele>
        <time>2011-01-16T08:18:23Z</time>
      </trkpt>
      <trkpt lat="43.58205" lon="3.73716">
        <ele>76.6</ele>
        <time>2011-01-16T08:18:26Z</time>
      </trkpt>
      <trkpt lat="43.58196" lon="3.73719">
        <ele>75.8</ele>
        <time>2011-01-16T08:18:30Z</time>
      </trkpt>
      <trkpt lat="43.5819" lon="3.73726">
        <ele>76.2</ele>
        <time>2011-01-16T08:19:07Z</time>
      </trkpt>
      <trkpt lat="43.58183" lon="3.73731">
        <ele>76.2</ele>
        <time>2011-01-16T08:19:10Z</time>
      </trkpt>
      <trkpt lat="43.58177" lon="3.73735">
        <ele>76.3</ele>
        <time>2011-01-16T08:19:12Z</time>
      </trkpt>
      <trkpt lat="43.58172" lon="3.73739">
        <ele>75.4</ele>
        <time>2011-01-16T08:19:14Z</time>
      </trkpt>
      <trkpt lat="43.58166" lon="3.73742">
        <ele>74.9</ele>
        <time>2011-01-16T08:19:16Z</time>
      </trkpt>
      <trkpt lat="43.58163" lon="3.73743">
        <ele>74.8</ele>
        <time>2011-01-16T08:19:17Z</time>
      </trkpt>
      <trkpt lat="43.58151" lon="3.73749">
        <ele>75.1</ele>
        <time>2011-01-16T08:19:22Z</time>
      </trkpt>
      <trkpt lat="43.58143" lon="3.73752">
        <ele>75.3</ele>
        <time>2011-01-16T08:19:25Z</time>
      </trkpt>
      <trkpt lat="43.58136" lon="3.73754">
        <ele>75.6</ele>
        <time>2011-01-16T08:19:28Z</time>
      </trkpt>
      <trkpt lat="43.58129" lon="3.73756">
        <ele>74.6</ele>
        <time>2011-01-16T08:19:31Z</time>
      </trkpt>
      <trkpt lat="43.58122" lon="3.73757">
        <ele>75.5</ele>
        <time>2011-01-16T08:19:34Z</time>
      </trkpt>
      <trkpt lat="43.58114" lon="3.73759">
        <ele>75.3</ele>
        <time>2011-01-16T08:19:37Z</time>
      </trkpt>
      <trkpt lat="43.58106" lon="3.7376">
        <ele>74.5</ele>
        <time>2011-01-16T08:19:40Z</time>
      </trkpt>
      <trkpt lat="43.58098" lon="3.73762">
        <ele>75</ele>
        <time>2011-01-16T08:19:43Z</time>
      </trkpt>
      <trkpt lat="43.58091" lon="3.73763">
        <ele>74.7</ele>
        <time>2011-01-16T08:19:46Z</time>
      </trkpt>
      <trkpt lat="43.58084" lon="3.73764">
        <ele>74.8</ele>
        <time>2011-01-16T08:19:49Z</time>
      </trkpt>
      <trkpt lat="43.58076" lon="3.73768">
        <ele>74.5</ele>
        <time>2011-01-16T08:19:52Z</time>
      </trkpt>
      <trkpt lat="43.58071" lon="3.73775">
        <ele>74.2</ele>
        <time>2011-01-16T08:19:55Z</time>
      </trkpt>
      <trkpt lat="43.58067" lon="3.73785">
        <ele>74.2</ele>
        <time>2011-01-16T08:19:58Z</time>
      </trkpt>
      <trkpt lat="43.58061" lon="3.73792">
        <ele>74.2</ele>
        <time>2011-01-16T08:20:01Z</time>
      </trkpt>
      <trkpt lat="43.58054" lon="3.73795">
        <ele>74.3</ele>
        <time>2011-01-16T08:20:03Z</time>
      </trkpt>
      <trkpt lat="43.58046" lon="3.73799">
        <ele>73.7</ele>
        <time>2011-01-16T08:20:05Z</time>
      </trkpt>
      <trkpt lat="43.58039" lon="3.73807">
        <ele>73.1</ele>
        <time>2011-01-16T08:20:07Z</time>
      </trkpt>
      <trkpt lat="43.58033" lon="3.73814">
        <ele>72.5</ele>
        <time>2011-01-16T08:20:09Z</time>
      </trkpt>
      <trkpt lat="43.58028" lon="3.73823">
        <ele>71.7</ele>
        <time>2011-01-16T08:20:12Z</time>
      </trkpt>
      <trkpt lat="43.58022" lon="3.73831">
        <ele>71.9</ele>
        <time>2011-01-16T08:20:15Z</time>
      </trkpt>
      <trkpt lat="43.58018" lon="3.7384">
        <ele>71.6</ele>
        <time>2011-01-16T08:20:19Z</time>
      </trkpt>
      <trkpt lat="43.58016" lon="3.73843">
        <ele>71.7</ele>
        <time>2011-01-16T08:20:20Z</time>
      </trkpt>
      <trkpt lat="43.5801" lon="3.73859">
        <ele>71.1</ele>
        <time>2011-01-16T08:20:25Z</time>
      </trkpt>
      <trkpt lat="43.58006" lon="3.73869">
        <ele>70.3</ele>
        <time>2011-01-16T08:20:28Z</time>
      </trkpt>
      <trkpt lat="43.58001" lon="3.73879">
        <ele>70.5</ele>
        <time>2011-01-16T08:20:31Z</time>
      </trkpt>
      <trkpt lat="43.57997" lon="3.73888">
        <ele>70.7</ele>
        <time>2011-01-16T08:20:34Z</time>
      </trkpt>
      <trkpt lat="43.57992" lon="3.73896">
        <ele>70.3</ele>
        <time>2011-01-16T08:20:37Z</time>
      </trkpt>
      <trkpt lat="43.57988" lon="3.73907">
        <ele>70.2</ele>
        <time>2011-01-16T08:20:40Z</time>
      </trkpt>
      <trkpt lat="43.57984" lon="3.73917">
        <ele>70</ele>
        <time>2011-01-16T08:20:43Z</time>
      </trkpt>
      <trkpt lat="43.5798" lon="3.73928">
        <ele>70.4</ele>
        <time>2011-01-16T08:20:46Z</time>
      </trkpt>
      <trkpt lat="43.57977" lon="3.73935">
        <ele>70.6</ele>
        <time>2011-01-16T08:20:48Z</time>
      </trkpt>
      <trkpt lat="43.57974" lon="3.73942">
        <ele>70.4</ele>
        <time>2011-01-16T08:20:50Z</time>
      </trkpt>
      <trkpt lat="43.5797" lon="3.73949">
        <ele>70.1</ele>
        <time>2011-01-16T08:20:52Z</time>
      </trkpt>
      <trkpt lat="43.57966" lon="3.73956">
        <ele>69.8</ele>
        <time>2011-01-16T08:20:54Z</time>
      </trkpt>
      <trkpt lat="43.57961" lon="3.73966">
        <ele>70.2</ele>
        <time>2011-01-16T08:20:57Z</time>
      </trkpt>
      <trkpt lat="43.57953" lon="3.73968">
        <ele>69.4</ele>
        <time>2011-01-16T08:22:27Z</time>
      </trkpt>
      <trkpt lat="43.57951" lon="3.73968">
        <ele>69.8</ele>
        <time>2011-01-16T08:22:28Z</time>
      </trkpt>
      <trkpt lat="43.57937" lon="3.73968">
        <ele>72</ele>
        <time>2011-01-16T08:22:34Z</time>
      </trkpt>
      <trkpt lat="43.57931" lon="3.73963">
        <ele>73.2</ele>
        <time>2011-01-16T08:22:37Z</time>
      </trkpt>
      <trkpt lat="43.57927" lon="3.73955">
        <ele>74.6</ele>
        <time>2011-01-16T08:22:40Z</time>
      </trkpt>
      <trkpt lat="43.57922" lon="3.73948">
        <ele>75.3</ele>
        <time>2011-01-16T08:22:43Z</time>
      </trkpt>
      <trkpt lat="43.57918" lon="3.73941">
        <ele>75.2</ele>
        <time>2011-01-16T08:22:46Z</time>
      </trkpt>
      <trkpt lat="43.57912" lon="3.73932">
        <ele>76.4</ele>
        <time>2011-01-16T08:22:50Z</time>
      </trkpt>
      <trkpt lat="43.57908" lon="3.73924">
        <ele>76.7</ele>
        <time>2011-01-16T08:22:53Z</time>
      </trkpt>
      <trkpt lat="43.57905" lon="3.73915">
        <ele>77</ele>
        <time>2011-01-16T08:22:56Z</time>
      </trkpt>
      <trkpt lat="43.57901" lon="3.73906">
        <ele>77.5</ele>
        <time>2011-01-16T08:22:59Z</time>
      </trkpt>
      <trkpt lat="43.57899" lon="3.73896">
        <ele>77.4</ele>
        <time>2011-01-16T08:23:02Z</time>
      </trkpt>
      <trkpt lat="43.57897" lon="3.73886">
        <ele>78.4</ele>
        <time>2011-01-16T08:23:06Z</time>
      </trkpt>
      <trkpt lat="43.57895" lon="3.73876">
        <ele>79.5</ele>
        <time>2011-01-16T08:23:09Z</time>
      </trkpt>
      <trkpt lat="43.57894" lon="3.73865">
        <ele>80.2</ele>
        <time>2011-01-16T08:23:13Z</time>
      </trkpt>
      <trkpt lat="43.5789" lon="3.73854">
        <ele>82.6</ele>
        <time>2011-01-16T08:23:18Z</time>
      </trkpt>
      <trkpt lat="43.57887" lon="3.73845">
        <ele>83.4</ele>
        <time>2011-01-16T08:23:22Z</time>
      </trkpt>
      <trkpt lat="43.5788" lon="3.73839">
        <ele>85.7</ele>
        <time>2011-01-16T08:23:26Z</time>
      </trkpt>
      <trkpt lat="43.57874" lon="3.7383">
        <ele>86.1</ele>
        <time>2011-01-16T08:23:30Z</time>
      </trkpt>
      <trkpt lat="43.57872" lon="3.73828">
        <ele>86.7</ele>
        <time>2011-01-16T08:23:31Z</time>
      </trkpt>
      <trkpt lat="43.57861" lon="3.73814">
        <ele>87.2</ele>
        <time>2011-01-16T08:23:39Z</time>
      </trkpt>
      <trkpt lat="43.57854" lon="3.73808">
        <ele>88.7</ele>
        <time>2011-01-16T08:23:44Z</time>
      </trkpt>
      <trkpt lat="43.57846" lon="3.73802">
        <ele>90.7</ele>
        <time>2011-01-16T08:23:49Z</time>
      </trkpt>
      <trkpt lat="43.5784" lon="3.73795">
        <ele>90.5</ele>
        <time>2011-01-16T08:23:53Z</time>
      </trkpt>
      <trkpt lat="43.57833" lon="3.73788">
        <ele>92.3</ele>
        <time>2011-01-16T08:23:58Z</time>
      </trkpt>
      <trkpt lat="43.57826" lon="3.73784">
        <ele>95.3</ele>
        <time>2011-01-16T08:24:05Z</time>
      </trkpt>
      <trkpt lat="43.57817" lon="3.73781">
        <ele>95.1</ele>
        <time>2011-01-16T08:24:10Z</time>
      </trkpt>
      <trkpt lat="43.5781" lon="3.73776">
        <ele>95.7</ele>
        <time>2011-01-16T08:24:14Z</time>
      </trkpt>
      <trkpt lat="43.57803" lon="3.73771">
        <ele>97</ele>
        <time>2011-01-16T08:24:18Z</time>
      </trkpt>
      <trkpt lat="43.57797" lon="3.73764">
        <ele>97.5</ele>
        <time>2011-01-16T08:24:22Z</time>
      </trkpt>
      <trkpt lat="43.57792" lon="3.73755">
        <ele>98.2</ele>
        <time>2011-01-16T08:24:26Z</time>
      </trkpt>
      <trkpt lat="43.57788" lon="3.73745">
        <ele>99</ele>
        <time>2011-01-16T08:24:30Z</time>
      </trkpt>
      <trkpt lat="43.57781" lon="3.73738">
        <ele>99.4</ele>
        <time>2011-01-16T08:24:34Z</time>
      </trkpt>
      <trkpt lat="43.57779" lon="3.73736">
        <ele>99.5</ele>
        <time>2011-01-16T08:24:35Z</time>
      </trkpt>
      <trkpt lat="43.57767" lon="3.73724">
        <ele>100</ele>
        <time>2011-01-16T08:24:42Z</time>
      </trkpt>
      <trkpt lat="43.57761" lon="3.73719">
        <ele>99.8</ele>
        <time>2011-01-16T08:24:45Z</time>
      </trkpt>
      <trkpt lat="43.57755" lon="3.7371">
        <ele>99.5</ele>
        <time>2011-01-16T08:24:48Z</time>
      </trkpt>
      <trkpt lat="43.57751" lon="3.737">
        <ele>98.7</ele>
        <time>2011-01-16T08:24:53Z</time>
      </trkpt>
      <trkpt lat="43.57752" lon="3.7369">
        <ele>98.9</ele>
        <time>2011-01-16T08:24:58Z</time>
      </trkpt>
      <trkpt lat="43.57754" lon="3.73678">
        <ele>98.3</ele>
        <time>2011-01-16T08:25:04Z</time>
      </trkpt>
      <trkpt lat="43.57755" lon="3.73666">
        <ele>99.3</ele>
        <time>2011-01-16T08:26:03Z</time>
      </trkpt>
      <trkpt lat="43.57756" lon="3.73663">
        <ele>99.2</ele>
        <time>2011-01-16T08:26:04Z</time>
      </trkpt>
      <trkpt lat="43.5776" lon="3.73646">
        <ele>99.5</ele>
        <time>2011-01-16T08:26:10Z</time>
      </trkpt>
      <trkpt lat="43.57763" lon="3.73635">
        <ele>100.6</ele>
        <time>2011-01-16T08:26:14Z</time>
      </trkpt>
      <trkpt lat="43.57766" lon="3.73624">
        <ele>100.8</ele>
        <time>2011-01-16T08:26:18Z</time>
      </trkpt>
      <trkpt lat="43.57769" lon="3.73612">
        <ele>101.5</ele>
        <time>2011-01-16T08:26:22Z</time>
      </trkpt>
      <trkpt lat="43.57771" lon="3.73603">
        <ele>101.8</ele>
        <time>2011-01-16T08:26:25Z</time>
      </trkpt>
      <trkpt lat="43.57772" lon="3.73593">
        <ele>102.5</ele>
        <time>2011-01-16T08:26:28Z</time>
      </trkpt>
      <trkpt lat="43.57774" lon="3.73583">
        <ele>103.5</ele>
        <time>2011-01-16T08:26:31Z</time>
      </trkpt>
      <trkpt lat="43.57777" lon="3.73575">
        <ele>103.9</ele>
        <time>2011-01-16T08:26:34Z</time>
      </trkpt>
      <trkpt lat="43.57778" lon="3.73563">
        <ele>103.8</ele>
        <time>2011-01-16T08:26:39Z</time>
      </trkpt>
      <trkpt lat="43.57774" lon="3.73556">
        <ele>104</ele>
        <time>2011-01-16T08:26:42Z</time>
      </trkpt>
      <trkpt lat="43.57768" lon="3.73551">
        <ele>103.8</ele>
        <time>2011-01-16T08:26:44Z</time>
      </trkpt>
      <trkpt lat="43.57763" lon="3.73543">
        <ele>103.4</ele>
        <time>2011-01-16T08:26:46Z</time>
      </trkpt>
      <trkpt lat="43.57758" lon="3.73533">
        <ele>102.9</ele>
        <time>2011-01-16T08:26:48Z</time>
      </trkpt>
      <trkpt lat="43.57752" lon="3.73524">
        <ele>102.6</ele>
        <time>2011-01-16T08:26:50Z</time>
      </trkpt>
      <trkpt lat="43.57746" lon="3.73517">
        <ele>102.2</ele>
        <time>2011-01-16T08:26:52Z</time>
      </trkpt>
      <trkpt lat="43.5774" lon="3.73512">
        <ele>101.7</ele>
        <time>2011-01-16T08:26:54Z</time>
      </trkpt>
      <trkpt lat="43.57734" lon="3.73508">
        <ele>102.6</ele>
        <time>2011-01-16T08:26:56Z</time>
      </trkpt>
      <trkpt lat="43.57728" lon="3.73506">
        <ele>103.5</ele>
        <time>2011-01-16T08:26:58Z</time>
      </trkpt>
      <trkpt lat="43.57722" lon="3.73503">
        <ele>104.3</ele>
        <time>2011-01-16T08:27:00Z</time>
      </trkpt>
      <trkpt lat="43.57716" lon="3.73501">
        <ele>104.7</ele>
        <time>2011-01-16T08:27:02Z</time>
      </trkpt>
      <trkpt lat="43.5771" lon="3.73498">
        <ele>104.9</ele>
        <time>2011-01-16T08:27:04Z</time>
      </trkpt>
      <trkpt lat="43.57707" lon="3.73497">
        <ele>105.1</ele>
        <time>2011-01-16T08:27:05Z</time>
      </trkpt>
      <trkpt lat="43.57698" lon="3.73493">
        <ele>105.1</ele>
        <time>2011-01-16T08:27:08Z</time>
      </trkpt>
      <trkpt lat="43.57692" lon="3.73485">
        <ele>105.1</ele>
        <time>2011-01-16T08:27:11Z</time>
      </trkpt>
      <trkpt lat="43.57687" lon="3.73477">
        <ele>105.6</ele>
        <time>2011-01-16T08:27:14Z</time>
      </trkpt>
      <trkpt lat="43.57682" lon="3.73467">
        <ele>105.6</ele>
        <time>2011-01-16T08:27:17Z</time>
      </trkpt>
      <trkpt lat="43.57678" lon="3.73458">
        <ele>105.6</ele>
        <time>2011-01-16T08:27:20Z</time>
      </trkpt>
      <trkpt lat="43.57677" lon="3.73448">
        <ele>107.1</ele>
        <time>2011-01-16T08:27:23Z</time>
      </trkpt>
      <trkpt lat="43.57677" lon="3.73437">
        <ele>107.2</ele>
        <time>2011-01-16T08:27:26Z</time>
      </trkpt>
      <trkpt lat="43.57678" lon="3.73428">
        <ele>108.1</ele>
        <time>2011-01-16T08:27:29Z</time>
      </trkpt>
      <trkpt lat="43.5768" lon="3.73418">
        <ele>108.5</ele>
        <time>2011-01-16T08:27:32Z</time>
      </trkpt>
      <trkpt lat="43.57684" lon="3.73409">
        <ele>109.6</ele>
        <time>2011-01-16T08:27:35Z</time>
      </trkpt>
      <trkpt lat="43.5769" lon="3.73401">
        <ele>109.9</ele>
        <time>2011-01-16T08:27:38Z</time>
      </trkpt>
      <trkpt lat="43.57693" lon="3.73391">
        <ele>110.4</ele>
        <time>2011-01-16T08:27:41Z</time>
      </trkpt>
      <trkpt lat="43.57692" lon="3.7338">
        <ele>110.7</ele>
        <time>2011-01-16T08:27:44Z</time>
      </trkpt>
      <trkpt lat="43.57689" lon="3.7337">
        <ele>111.4</ele>
        <time>2011-01-16T08:27:47Z</time>
      </trkpt>
      <trkpt lat="43.57685" lon="3.7336">
        <ele>112</ele>
        <time>2011-01-16T08:27:50Z</time>
      </trkpt>
      <trkpt lat="43.57683" lon="3.73349">
        <ele>111.6</ele>
        <time>2011-01-16T08:27:53Z</time>
      </trkpt>
      <trkpt lat="43.57681" lon="3.73341">
        <ele>111.3</ele>
        <time>2011-01-16T08:27:55Z</time>
      </trkpt>
      <trkpt lat="43.57679" lon="3.73333">
        <ele>111.7</ele>
        <time>2011-01-16T08:27:57Z</time>
      </trkpt>
      <trkpt lat="43.57677" lon="3.73325">
        <ele>111.7</ele>
        <time>2011-01-16T08:27:59Z</time>
      </trkpt>
      <trkpt lat="43.57678" lon="3.73316">
        <ele>111.5</ele>
        <time>2011-01-16T08:28:01Z</time>
      </trkpt>
      <trkpt lat="43.57681" lon="3.73309">
        <ele>111.4</ele>
        <time>2011-01-16T08:28:03Z</time>
      </trkpt>
      <trkpt lat="43.57687" lon="3.73299">
        <ele>111.6</ele>
        <time>2011-01-16T08:28:06Z</time>
      </trkpt>
      <trkpt lat="43.57689" lon="3.73296">
        <ele>111.7</ele>
        <time>2011-01-16T08:28:07Z</time>
      </trkpt>
      <trkpt lat="43.57697" lon="3.73284">
        <ele>112.4</ele>
        <time>2011-01-16T08:28:11Z</time>
      </trkpt>
      <trkpt lat="43.57701" lon="3.73277">
        <ele>112.8</ele>
        <time>2011-01-16T08:28:13Z</time>
      </trkpt>
      <trkpt lat="43.57705" lon="3.7327">
        <ele>113</ele>
        <time>2011-01-16T08:28:15Z</time>
      </trkpt>
      <trkpt lat="43.57709" lon="3.73263">
        <ele>112.9</ele>
        <time>2011-01-16T08:28:17Z</time>
      </trkpt>
      <trkpt lat="43.57714" lon="3.73257">
        <ele>113.1</ele>
        <time>2011-01-16T08:28:19Z</time>
      </trkpt>
      <trkpt lat="43.57719" lon="3.7325">
        <ele>112.9</ele>
        <time>2011-01-16T08:28:21Z</time>
      </trkpt>
      <trkpt lat="43.57725" lon="3.73243">
        <ele>112.7</ele>
        <time>2011-01-16T08:28:23Z</time>
      </trkpt>
      <trkpt lat="43.57731" lon="3.73236">
        <ele>112.2</ele>
        <time>2011-01-16T08:28:25Z</time>
      </trkpt>
      <trkpt lat="43.57738" lon="3.7323">
        <ele>111.9</ele>
        <time>2011-01-16T08:28:27Z</time>
      </trkpt>
      <trkpt lat="43.57744" lon="3.73223">
        <ele>111.2</ele>
        <time>2011-01-16T08:28:29Z</time>
      </trkpt>
      <trkpt lat="43.5775" lon="3.73216">
        <ele>110.6</ele>
        <time>2011-01-16T08:28:31Z</time>
      </trkpt>
      <trkpt lat="43.57754" lon="3.73212">
        <ele>110.3</ele>
        <time>2011-01-16T08:28:32Z</time>
      </trkpt>
      <trkpt lat="43.57757" lon="3.73207">
        <ele>110.1</ele>
        <time>2011-01-16T08:28:33Z</time>
      </trkpt>
      <trkpt lat="43.5776" lon="3.73203">
        <ele>110</ele>
        <time>2011-01-16T08:28:34Z</time>
      </trkpt>
      <trkpt lat="43.57764" lon="3.73199">
        <ele>110</ele>
        <time>2011-01-16T08:28:35Z</time>
      </trkpt>
      <trkpt lat="43.57768" lon="3.73196">
        <ele>109.9</ele>
        <time>2011-01-16T08:28:36Z</time>
      </trkpt>
      <trkpt lat="43.57772" lon="3.73193">
        <ele>110</ele>
        <time>2011-01-16T08:28:37Z</time>
      </trkpt>
      <trkpt lat="43.57776" lon="3.73189">
        <ele>110</ele>
        <time>2011-01-16T08:28:38Z</time>
      </trkpt>
      <trkpt lat="43.57779" lon="3.73185">
        <ele>110</ele>
        <time>2011-01-16T08:28:39Z</time>
      </trkpt>
      <trkpt lat="43.57782" lon="3.7318">
        <ele>109.4</ele>
        <time>2011-01-16T08:28:40Z</time>
      </trkpt>
      <trkpt lat="43.57785" lon="3.73174">
        <ele>109</ele>
        <time>2011-01-16T08:28:41Z</time>
      </trkpt>
      <trkpt lat="43.57788" lon="3.73169">
        <ele>108.6</ele>
        <time>2011-01-16T08:28:42Z</time>
      </trkpt>
      <trkpt lat="43.57791" lon="3.73164">
        <ele>108.4</ele>
        <time>2011-01-16T08:28:43Z</time>
      </trkpt>
      <trkpt lat="43.57793" lon="3.73158">
        <ele>108.2</ele>
        <time>2011-01-16T08:28:44Z</time>
      </trkpt>
      <trkpt lat="43.57797" lon="3.73148">
        <ele>108</ele>
        <time>2011-01-16T08:28:46Z</time>
      </trkpt>
      <trkpt lat="43.57795" lon="3.73139">
        <ele>107.5</ele>
        <time>2011-01-16T08:28:48Z</time>
      </trkpt>
      <trkpt lat="43.57792" lon="3.7313">
        <ele>107.1</ele>
        <time>2011-01-16T08:28:50Z</time>
      </trkpt>
      <trkpt lat="43.5779" lon="3.73118">
        <ele>106.7</ele>
        <time>2011-01-16T08:28:52Z</time>
      </trkpt>
      <trkpt lat="43.57789" lon="3.73112">
        <ele>106.5</ele>
        <time>2011-01-16T08:28:53Z</time>
      </trkpt>
      <trkpt lat="43.57788" lon="3.73105">
        <ele>106.3</ele>
        <time>2011-01-16T08:28:54Z</time>
      </trkpt>
      <trkpt lat="43.57788" lon="3.73097">
        <ele>106.2</ele>
        <time>2011-01-16T08:28:55Z</time>
      </trkpt>
      <trkpt lat="43.57787" lon="3.7309">
        <ele>105.9</ele>
        <time>2011-01-16T08:28:56Z</time>
      </trkpt>
      <trkpt lat="43.57786" lon="3.73082">
        <ele>105.8</ele>
        <time>2011-01-16T08:28:57Z</time>
      </trkpt>
      <trkpt lat="43.57786" lon="3.73074">
        <ele>105.6</ele>
        <time>2011-01-16T08:28:58Z</time>
      </trkpt>
      <trkpt lat="43.57785" lon="3.73066">
        <ele>105.3</ele>
        <time>2011-01-16T08:28:59Z</time>
      </trkpt>
      <trkpt lat="43.57783" lon="3.73058">
        <ele>105</ele>
        <time>2011-01-16T08:29:00Z</time>
      </trkpt>
      <trkpt lat="43.5778" lon="3.73051">
        <ele>104.8</ele>
        <time>2011-01-16T08:29:01Z</time>
      </trkpt>
      <trkpt lat="43.57776" lon="3.73045">
        <ele>104.6</ele>
        <time>2011-01-16T08:29:02Z</time>
      </trkpt>
      <trkpt lat="43.57773" lon="3.7304">
        <ele>104.5</ele>
        <time>2011-01-16T08:29:03Z</time>
      </trkpt>
      <trkpt lat="43.57769" lon="3.73036">
        <ele>104.3</ele>
        <time>2011-01-16T08:29:04Z</time>
      </trkpt>
      <trkpt lat="43.57765" lon="3.73031">
        <ele>104.3</ele>
        <time>2011-01-16T08:29:05Z</time>
      </trkpt>
      <trkpt lat="43.57761" lon="3.7302">
        <ele>104.3</ele>
        <time>2011-01-16T08:29:07Z</time>
      </trkpt>
      <trkpt lat="43.57759" lon="3.73015">
        <ele>104.3</ele>
        <time>2011-01-16T08:29:08Z</time>
      </trkpt>
      <trkpt lat="43.57755" lon="3.73011">
        <ele>104</ele>
        <time>2011-01-16T08:29:09Z</time>
      </trkpt>
      <trkpt lat="43.57751" lon="3.73007">
        <ele>103.8</ele>
        <time>2011-01-16T08:29:10Z</time>
      </trkpt>
      <trkpt lat="43.57748" lon="3.73003">
        <ele>103.6</ele>
        <time>2011-01-16T08:29:11Z</time>
      </trkpt>
      <trkpt lat="43.57744" lon="3.72999">
        <ele>103.4</ele>
        <time>2011-01-16T08:29:12Z</time>
      </trkpt>
      <trkpt lat="43.57739" lon="3.72994">
        <ele>103.2</ele>
        <time>2011-01-16T08:29:13Z</time>
      </trkpt>
      <trkpt lat="43.57735" lon="3.7299">
        <ele>103.1</ele>
        <time>2011-01-16T08:29:14Z</time>
      </trkpt>
      <trkpt lat="43.57731" lon="3.72985">
        <ele>103.3</ele>
        <time>2011-01-16T08:29:15Z</time>
      </trkpt>
      <trkpt lat="43.57727" lon="3.72981">
        <ele>103.5</ele>
        <time>2011-01-16T08:29:16Z</time>
      </trkpt>
      <trkpt lat="43.57723" lon="3.72975">
        <ele>103.6</ele>
        <time>2011-01-16T08:29:17Z</time>
      </trkpt>
      <trkpt lat="43.5772" lon="3.7297">
        <ele>103.7</ele>
        <time>2011-01-16T08:29:18Z</time>
      </trkpt>
      <trkpt lat="43.57717" lon="3.72964">
        <ele>103.7</ele>
        <time>2011-01-16T08:29:19Z</time>
      </trkpt>
      <trkpt lat="43.57713" lon="3.72958">
        <ele>103.7</ele>
        <time>2011-01-16T08:29:20Z</time>
      </trkpt>
      <trkpt lat="43.5771" lon="3.72952">
        <ele>103.7</ele>
        <time>2011-01-16T08:29:21Z</time>
      </trkpt>
      <trkpt lat="43.57707" lon="3.72946">
        <ele>103.7</ele>
        <time>2011-01-16T08:29:22Z</time>
      </trkpt>
      <trkpt lat="43.57703" lon="3.72941">
        <ele>103.7</ele>
        <time>2011-01-16T08:29:23Z</time>
      </trkpt>
      <trkpt lat="43.577" lon="3.72935">
        <ele>103.7</ele>
        <time>2011-01-16T08:29:24Z</time>
      </trkpt>
      <trkpt lat="43.57696" lon="3.72929">
        <ele>103.6</ele>
        <time>2011-01-16T08:29:25Z</time>
      </trkpt>
      <trkpt lat="43.57691" lon="3.72924">
        <ele>103.5</ele>
        <time>2011-01-16T08:29:26Z</time>
      </trkpt>
      <trkpt lat="43.57687" lon="3.7292">
        <ele>103.4</ele>
        <time>2011-01-16T08:29:27Z</time>
      </trkpt>
      <trkpt lat="43.57682" lon="3.72916">
        <ele>102.8</ele>
        <time>2011-01-16T08:29:28Z</time>
      </trkpt>
      <trkpt lat="43.57677" lon="3.72912">
        <ele>102.4</ele>
        <time>2011-01-16T08:29:29Z</time>
      </trkpt>
      <trkpt lat="43.57672" lon="3.72908">
        <ele>102.1</ele>
        <time>2011-01-16T08:29:30Z</time>
      </trkpt>
      <trkpt lat="43.57667" lon="3.72903">
        <ele>101.7</ele>
        <time>2011-01-16T08:29:31Z</time>
      </trkpt>
      <trkpt lat="43.57663" lon="3.72898">
        <ele>101.3</ele>
        <time>2011-01-16T08:29:32Z</time>
      </trkpt>
      <trkpt lat="43.57658" lon="3.72892">
        <ele>101.1</ele>
        <time>2011-01-16T08:29:33Z</time>
      </trkpt>
      <trkpt lat="43.57654" lon="3.72886">
        <ele>100.4</ele>
        <time>2011-01-16T08:29:34Z</time>
      </trkpt>
      <trkpt lat="43.5765" lon="3.72879">
        <ele>99.9</ele>
        <time>2011-01-16T08:29:35Z</time>
      </trkpt>
      <trkpt lat="43.57646" lon="3.72873">
        <ele>99.5</ele>
        <time>2011-01-16T08:29:36Z</time>
      </trkpt>
      <trkpt lat="43.57643" lon="3.72867">
        <ele>99.2</ele>
        <time>2011-01-16T08:29:37Z</time>
      </trkpt>
      <trkpt lat="43.5764" lon="3.72856">
        <ele>98.8</ele>
        <time>2011-01-16T08:29:39Z</time>
      </trkpt>
      <trkpt lat="43.5764" lon="3.72846">
        <ele>97.4</ele>
        <time>2011-01-16T08:29:41Z</time>
      </trkpt>
      <trkpt lat="43.5764" lon="3.72839">
        <ele>96.4</ele>
        <time>2011-01-16T08:29:42Z</time>
      </trkpt>
      <trkpt lat="43.5764" lon="3.72832">
        <ele>95.7</ele>
        <time>2011-01-16T08:29:43Z</time>
      </trkpt>
      <trkpt lat="43.57636" lon="3.72823">
        <ele>93.8</ele>
        <time>2011-01-16T08:29:45Z</time>
      </trkpt>
      <trkpt lat="43.57632" lon="3.72818">
        <ele>93.1</ele>
        <time>2011-01-16T08:29:46Z</time>
      </trkpt>
      <trkpt lat="43.57628" lon="3.72813">
        <ele>92.1</ele>
        <time>2011-01-16T08:29:47Z</time>
      </trkpt>
      <trkpt lat="43.57624" lon="3.72808">
        <ele>91.4</ele>
        <time>2011-01-16T08:29:48Z</time>
      </trkpt>
      <trkpt lat="43.57621" lon="3.72803">
        <ele>90.9</ele>
        <time>2011-01-16T08:29:49Z</time>
      </trkpt>
      <trkpt lat="43.57616" lon="3.72796">
        <ele>89.4</ele>
        <time>2011-01-16T08:29:50Z</time>
      </trkpt>
      <trkpt lat="43.57611" lon="3.7279">
        <ele>88.3</ele>
        <time>2011-01-16T08:29:51Z</time>
      </trkpt>
      <trkpt lat="43.57604" lon="3.72786">
        <ele>87.5</ele>
        <time>2011-01-16T08:29:52Z</time>
      </trkpt>
      <trkpt lat="43.57597" lon="3.72782">
        <ele>86.7</ele>
        <time>2011-01-16T08:29:53Z</time>
      </trkpt>
      <trkpt lat="43.57591" lon="3.72778">
        <ele>86</ele>
        <time>2011-01-16T08:29:54Z</time>
      </trkpt>
      <trkpt lat="43.57585" lon="3.72773">
        <ele>85.6</ele>
        <time>2011-01-16T08:29:55Z</time>
      </trkpt>
      <trkpt lat="43.5758" lon="3.72768">
        <ele>85.2</ele>
        <time>2011-01-16T08:29:56Z</time>
      </trkpt>
      <trkpt lat="43.57574" lon="3.72762">
        <ele>85</ele>
        <time>2011-01-16T08:29:57Z</time>
      </trkpt>
      <trkpt lat="43.57568" lon="3.72757">
        <ele>84.8</ele>
        <time>2011-01-16T08:29:58Z</time>
      </trkpt>
      <trkpt lat="43.57562" lon="3.72753">
        <ele>84.7</ele>
        <time>2011-01-16T08:29:59Z</time>
      </trkpt>
      <trkpt lat="43.57556" lon="3.72748">
        <ele>83.9</ele>
        <time>2011-01-16T08:30:00Z</time>
      </trkpt>
      <trkpt lat="43.5755" lon="3.72743">
        <ele>83.3</ele>
        <time>2011-01-16T08:30:01Z</time>
      </trkpt>
      <trkpt lat="43.57545" lon="3.72738">
        <ele>82.9</ele>
        <time>2011-01-16T08:30:02Z</time>
      </trkpt>
      <trkpt lat="43.57542" lon="3.72732">
        <ele>82.2</ele>
        <time>2011-01-16T08:30:03Z</time>
      </trkpt>
      <trkpt lat="43.57536" lon="3.72723">
        <ele>81.4</ele>
        <time>2011-01-16T08:30:05Z</time>
      </trkpt>
      <trkpt lat="43.57529" lon="3.72721">
        <ele>80.6</ele>
        <time>2011-01-16T08:30:07Z</time>
      </trkpt>
      <trkpt lat="43.57524" lon="3.72713">
        <ele>80.6</ele>
        <time>2011-01-16T08:30:10Z</time>
      </trkpt>
      <trkpt lat="43.57524" lon="3.7271">
        <ele>80.7</ele>
        <time>2011-01-16T08:30:11Z</time>
      </trkpt>
      <trkpt lat="43.57523" lon="3.727">
        <ele>80.3</ele>
        <time>2011-01-16T08:31:58Z</time>
      </trkpt>
      <trkpt lat="43.57522" lon="3.72682">
        <ele>80.4</ele>
        <time>2011-01-16T08:32:03Z</time>
      </trkpt>
      <trkpt lat="43.5752" lon="3.72671">
        <ele>81.2</ele>
        <time>2011-01-16T08:32:06Z</time>
      </trkpt>
      <trkpt lat="43.57518" lon="3.72663">
        <ele>80.7</ele>
        <time>2011-01-16T08:32:08Z</time>
      </trkpt>
      <trkpt lat="43.57517" lon="3.72655">
        <ele>80.8</ele>
        <time>2011-01-16T08:32:10Z</time>
      </trkpt>
      <trkpt lat="43.57515" lon="3.72647">
        <ele>81.1</ele>
        <time>2011-01-16T08:32:12Z</time>
      </trkpt>
      <trkpt lat="43.57514" lon="3.72638">
        <ele>82.1</ele>
        <time>2011-01-16T08:32:14Z</time>
      </trkpt>
      <trkpt lat="43.57512" lon="3.7263">
        <ele>82.6</ele>
        <time>2011-01-16T08:32:16Z</time>
      </trkpt>
      <trkpt lat="43.5751" lon="3.72621">
        <ele>82.7</ele>
        <time>2011-01-16T08:32:18Z</time>
      </trkpt>
      <trkpt lat="43.57508" lon="3.72613">
        <ele>83.1</ele>
        <time>2011-01-16T08:32:20Z</time>
      </trkpt>
      <trkpt lat="43.57505" lon="3.72605">
        <ele>83.4</ele>
        <time>2011-01-16T08:32:22Z</time>
      </trkpt>
      <trkpt lat="43.57502" lon="3.72597">
        <ele>83.6</ele>
        <time>2011-01-16T08:32:24Z</time>
      </trkpt>
      <trkpt lat="43.57499" lon="3.72589">
        <ele>83.7</ele>
        <time>2011-01-16T08:32:26Z</time>
      </trkpt>
      <trkpt lat="43.57495" lon="3.72582">
        <ele>83.8</ele>
        <time>2011-01-16T08:32:28Z</time>
      </trkpt>
      <trkpt lat="43.57491" lon="3.72575">
        <ele>83.8</ele>
        <time>2011-01-16T08:32:30Z</time>
      </trkpt>
      <trkpt lat="43.57488" lon="3.72568">
        <ele>83.8</ele>
        <time>2011-01-16T08:32:32Z</time>
      </trkpt>
      <trkpt lat="43.57485" lon="3.72561">
        <ele>83.9</ele>
        <time>2011-01-16T08:32:34Z</time>
      </trkpt>
      <trkpt lat="43.57481" lon="3.72553">
        <ele>84.5</ele>
        <time>2011-01-16T08:32:36Z</time>
      </trkpt>
      <trkpt lat="43.57478" lon="3.72545">
        <ele>85.1</ele>
        <time>2011-01-16T08:32:38Z</time>
      </trkpt>
      <trkpt lat="43.57473" lon="3.72539">
        <ele>85.5</ele>
        <time>2011-01-16T08:32:40Z</time>
      </trkpt>
      <trkpt lat="43.57468" lon="3.72535">
        <ele>85.8</ele>
        <time>2011-01-16T08:32:42Z</time>
      </trkpt>
      <trkpt lat="43.57464" lon="3.72527">
        <ele>86.1</ele>
        <time>2011-01-16T08:32:44Z</time>
      </trkpt>
      <trkpt lat="43.5746" lon="3.72519">
        <ele>86.5</ele>
        <time>2011-01-16T08:32:46Z</time>
      </trkpt>
      <trkpt lat="43.57455" lon="3.72513">
        <ele>87.3</ele>
        <time>2011-01-16T08:32:48Z</time>
      </trkpt>
      <trkpt lat="43.5745" lon="3.72508">
        <ele>88.2</ele>
        <time>2011-01-16T08:32:50Z</time>
      </trkpt>
      <trkpt lat="43.57446" lon="3.72501">
        <ele>88.8</ele>
        <time>2011-01-16T08:32:52Z</time>
      </trkpt>
      <trkpt lat="43.5744" lon="3.72492">
        <ele>89.5</ele>
        <time>2011-01-16T08:32:55Z</time>
      </trkpt>
      <trkpt lat="43.57435" lon="3.72483">
        <ele>90.3</ele>
        <time>2011-01-16T08:32:58Z</time>
      </trkpt>
      <trkpt lat="43.57433" lon="3.7248">
        <ele>90.7</ele>
        <time>2011-01-16T08:32:59Z</time>
      </trkpt>
      <trkpt lat="43.57424" lon="3.72466">
        <ele>91.5</ele>
        <time>2011-01-16T08:33:04Z</time>
      </trkpt>
      <trkpt lat="43.57419" lon="3.72458">
        <ele>91.7</ele>
        <time>2011-01-16T08:33:07Z</time>
      </trkpt>
      <trkpt lat="43.57413" lon="3.72449">
        <ele>92.5</ele>
        <time>2011-01-16T08:33:10Z</time>
      </trkpt>
      <trkpt lat="43.57409" lon="3.7244">
        <ele>93.1</ele>
        <time>2011-01-16T08:33:13Z</time>
      </trkpt>
      <trkpt lat="43.57405" lon="3.7243">
        <ele>93.6</ele>
        <time>2011-01-16T08:33:16Z</time>
      </trkpt>
      <trkpt lat="43.57399" lon="3.72421">
        <ele>94.7</ele>
        <time>2011-01-16T08:33:19Z</time>
      </trkpt>
      <trkpt lat="43.57396" lon="3.72412">
        <ele>94.7</ele>
        <time>2011-01-16T08:33:22Z</time>
      </trkpt>
      <trkpt lat="43.57392" lon="3.72403">
        <ele>96.2</ele>
        <time>2011-01-16T08:33:25Z</time>
      </trkpt>
      <trkpt lat="43.57388" lon="3.72395">
        <ele>96.4</ele>
        <time>2011-01-16T08:33:28Z</time>
      </trkpt>
      <trkpt lat="43.57385" lon="3.72385">
        <ele>96.9</ele>
        <time>2011-01-16T08:33:31Z</time>
      </trkpt>
      <trkpt lat="43.57382" lon="3.72376">
        <ele>97.3</ele>
        <time>2011-01-16T08:33:34Z</time>
      </trkpt>
      <trkpt lat="43.5738" lon="3.72366">
        <ele>97.1</ele>
        <time>2011-01-16T08:33:37Z</time>
      </trkpt>
      <trkpt lat="43.57376" lon="3.72357">
        <ele>97.2</ele>
        <time>2011-01-16T08:33:40Z</time>
      </trkpt>
      <trkpt lat="43.5737" lon="3.72348">
        <ele>97.6</ele>
        <time>2011-01-16T08:33:43Z</time>
      </trkpt>
      <trkpt lat="43.57365" lon="3.7234">
        <ele>97.8</ele>
        <time>2011-01-16T08:33:46Z</time>
      </trkpt>
      <trkpt lat="43.57359" lon="3.72332">
        <ele>98.4</ele>
        <time>2011-01-16T08:33:49Z</time>
      </trkpt>
      <trkpt lat="43.57353" lon="3.72324">
        <ele>99.2</ele>
        <time>2011-01-16T08:33:52Z</time>
      </trkpt>
      <trkpt lat="43.57347" lon="3.72317">
        <ele>99.5</ele>
        <time>2011-01-16T08:33:55Z</time>
      </trkpt>
      <trkpt lat="43.5734" lon="3.72309">
        <ele>99.5</ele>
        <time>2011-01-16T08:33:58Z</time>
      </trkpt>
      <trkpt lat="43.57335" lon="3.723">
        <ele>99.6</ele>
        <time>2011-01-16T08:34:01Z</time>
      </trkpt>
      <trkpt lat="43.57333" lon="3.72297">
        <ele>100</ele>
        <time>2011-01-16T08:34:02Z</time>
      </trkpt>
      <trkpt lat="43.57328" lon="3.72287">
        <ele>101</ele>
        <time>2011-01-16T08:34:05Z</time>
      </trkpt>
      <trkpt lat="43.57325" lon="3.72279">
        <ele>101.6</ele>
        <time>2011-01-16T08:34:07Z</time>
      </trkpt>
      <trkpt lat="43.57321" lon="3.72272">
        <ele>101.5</ele>
        <time>2011-01-16T08:34:09Z</time>
      </trkpt>
      <trkpt lat="43.57317" lon="3.72265">
        <ele>101.5</ele>
        <time>2011-01-16T08:34:11Z</time>
      </trkpt>
      <trkpt lat="43.57313" lon="3.72257">
        <ele>101.5</ele>
        <time>2011-01-16T08:34:13Z</time>
      </trkpt>
      <trkpt lat="43.57309" lon="3.72248">
        <ele>101.6</ele>
        <time>2011-01-16T08:34:15Z</time>
      </trkpt>
      <trkpt lat="43.57305" lon="3.72239">
        <ele>101.6</ele>
        <time>2011-01-16T08:34:17Z</time>
      </trkpt>
      <trkpt lat="43.57301" lon="3.7223">
        <ele>101.8</ele>
        <time>2011-01-16T08:34:19Z</time>
      </trkpt>
      <trkpt lat="43.57297" lon="3.72222">
        <ele>102.2</ele>
        <time>2011-01-16T08:34:21Z</time>
      </trkpt>
      <trkpt lat="43.57291" lon="3.72207">
        <ele>102</ele>
        <time>2011-01-16T08:34:24Z</time>
      </trkpt>
      <trkpt lat="43.57283" lon="3.72192">
        <ele>101</ele>
        <time>2011-01-16T08:34:28Z</time>
      </trkpt>
      <trkpt lat="43.57272" lon="3.72182">
        <ele>102</ele>
        <time>2011-01-16T08:34:32Z</time>
      </trkpt>
      <trkpt lat="43.57261" lon="3.72176">
        <ele>103</ele>
        <time>2011-01-16T08:34:36Z</time>
      </trkpt>
      <trkpt lat="43.57254" lon="3.72163">
        <ele>104</ele>
        <time>2011-01-16T08:34:40Z</time>
      </trkpt>
      <trkpt lat="43.5725" lon="3.72155">
        <ele>105.3</ele>
        <time>2011-01-16T08:34:43Z</time>
      </trkpt>
      <trkpt lat="43.57246" lon="3.72148">
        <ele>106.3</ele>
        <time>2011-01-16T08:34:45Z</time>
      </trkpt>
      <trkpt lat="43.57242" lon="3.72142">
        <ele>106.6</ele>
        <time>2011-01-16T08:34:47Z</time>
      </trkpt>
      <trkpt lat="43.57237" lon="3.72135">
        <ele>106.8</ele>
        <time>2011-01-16T08:34:49Z</time>
      </trkpt>
      <trkpt lat="43.57232" lon="3.72128">
        <ele>107.2</ele>
        <time>2011-01-16T08:34:51Z</time>
      </trkpt>
      <trkpt lat="43.57228" lon="3.7212">
        <ele>107.4</ele>
        <time>2011-01-16T08:34:53Z</time>
      </trkpt>
      <trkpt lat="43.57225" lon="3.72112">
        <ele>107.6</ele>
        <time>2011-01-16T08:34:55Z</time>
      </trkpt>
      <trkpt lat="43.57223" lon="3.72102">
        <ele>107.5</ele>
        <time>2011-01-16T08:34:57Z</time>
      </trkpt>
      <trkpt lat="43.57221" lon="3.72092">
        <ele>107.7</ele>
        <time>2011-01-16T08:34:59Z</time>
      </trkpt>
      <trkpt lat="43.57218" lon="3.72082">
        <ele>108</ele>
        <time>2011-01-16T08:35:01Z</time>
      </trkpt>
      <trkpt lat="43.57215" lon="3.72073">
        <ele>107.5</ele>
        <time>2011-01-16T08:35:03Z</time>
      </trkpt>
      <trkpt lat="43.57214" lon="3.72068">
        <ele>107.3</ele>
        <time>2011-01-16T08:35:04Z</time>
      </trkpt>
      <trkpt lat="43.5721" lon="3.72052">
        <ele>107.1</ele>
        <time>2011-01-16T08:35:07Z</time>
      </trkpt>
      <trkpt lat="43.57207" lon="3.72042">
        <ele>107.1</ele>
        <time>2011-01-16T08:35:09Z</time>
      </trkpt>
      <trkpt lat="43.57203" lon="3.72033">
        <ele>107.2</ele>
        <time>2011-01-16T08:35:11Z</time>
      </trkpt>
      <trkpt lat="43.57199" lon="3.72022">
        <ele>107.5</ele>
        <time>2011-01-16T08:35:13Z</time>
      </trkpt>
      <trkpt lat="43.57199" lon="3.72011">
        <ele>107.5</ele>
        <time>2011-01-16T08:35:15Z</time>
      </trkpt>
      <trkpt lat="43.57197" lon="3.72001">
        <ele>106.9</ele>
        <time>2011-01-16T08:35:19Z</time>
      </trkpt>
      <trkpt lat="43.57192" lon="3.71994">
        <ele>106.4</ele>
        <time>2011-01-16T08:35:22Z</time>
      </trkpt>
      <trkpt lat="43.57184" lon="3.71989">
        <ele>106.3</ele>
        <time>2011-01-16T08:35:25Z</time>
      </trkpt>
      <trkpt lat="43.57178" lon="3.71987">
        <ele>106.6</ele>
        <time>2011-01-16T08:35:27Z</time>
      </trkpt>
      <trkpt lat="43.57171" lon="3.71984">
        <ele>106.3</ele>
        <time>2011-01-16T08:35:29Z</time>
      </trkpt>
      <trkpt lat="43.57164" lon="3.71976">
        <ele>106</ele>
        <time>2011-01-16T08:35:31Z</time>
      </trkpt>
      <trkpt lat="43.5716" lon="3.71966">
        <ele>105.7</ele>
        <time>2011-01-16T08:35:33Z</time>
      </trkpt>
      <trkpt lat="43.57156" lon="3.71956">
        <ele>105.1</ele>
        <time>2011-01-16T08:35:35Z</time>
      </trkpt>
      <trkpt lat="43.5715" lon="3.71946">
        <ele>104.6</ele>
        <time>2011-01-16T08:35:39Z</time>
      </trkpt>
      <trkpt lat="43.57144" lon="3.71939">
        <ele>103.9</ele>
        <time>2011-01-16T08:35:45Z</time>
      </trkpt>
      <trkpt lat="43.57137" lon="3.71933">
        <ele>104.1</ele>
        <time>2011-01-16T08:35:50Z</time>
      </trkpt>
      <trkpt lat="43.57131" lon="3.71928">
        <ele>103.7</ele>
        <time>2011-01-16T08:35:54Z</time>
      </trkpt>
      <trkpt lat="43.57124" lon="3.71923">
        <ele>103.4</ele>
        <time>2011-01-16T08:35:58Z</time>
      </trkpt>
      <trkpt lat="43.57116" lon="3.71918">
        <ele>103.5</ele>
        <time>2011-01-16T08:36:02Z</time>
      </trkpt>
      <trkpt lat="43.5711" lon="3.71914">
        <ele>102.8</ele>
        <time>2011-01-16T08:36:05Z</time>
      </trkpt>
      <trkpt lat="43.57108" lon="3.71913">
        <ele>102.8</ele>
        <time>2011-01-16T08:36:06Z</time>
      </trkpt>
      <trkpt lat="43.57095" lon="3.71903">
        <ele>103.2</ele>
        <time>2011-01-16T08:36:11Z</time>
      </trkpt>
      <trkpt lat="43.57091" lon="3.71895">
        <ele>103.2</ele>
        <time>2011-01-16T08:36:13Z</time>
      </trkpt>
      <trkpt lat="43.57089" lon="3.71886">
        <ele>103.1</ele>
        <time>2011-01-16T08:36:15Z</time>
      </trkpt>
      <trkpt lat="43.57083" lon="3.71879">
        <ele>102.9</ele>
        <time>2011-01-16T08:36:18Z</time>
      </trkpt>
      <trkpt lat="43.57076" lon="3.71876">
        <ele>101.2</ele>
        <time>2011-01-16T08:36:20Z</time>
      </trkpt>
      <trkpt lat="43.57068" lon="3.71871">
        <ele>100.4</ele>
        <time>2011-01-16T08:36:22Z</time>
      </trkpt>
      <trkpt lat="43.57062" lon="3.71862">
        <ele>100.1</ele>
        <time>2011-01-16T08:36:24Z</time>
      </trkpt>
      <trkpt lat="43.57058" lon="3.71858">
        <ele>99.6</ele>
        <time>2011-01-16T08:36:25Z</time>
      </trkpt>
      <trkpt lat="43.57054" lon="3.71856">
        <ele>99.1</ele>
        <time>2011-01-16T08:36:26Z</time>
      </trkpt>
      <trkpt lat="43.57048" lon="3.71854">
        <ele>98.8</ele>
        <time>2011-01-16T08:36:27Z</time>
      </trkpt>
      <trkpt lat="43.57044" lon="3.71852">
        <ele>98.6</ele>
        <time>2011-01-16T08:36:28Z</time>
      </trkpt>
      <trkpt lat="43.57037" lon="3.71845">
        <ele>97.1</ele>
        <time>2011-01-16T08:36:30Z</time>
      </trkpt>
      <trkpt lat="43.57033" lon="3.71841">
        <ele>96.6</ele>
        <time>2011-01-16T08:36:31Z</time>
      </trkpt>
      <trkpt lat="43.57028" lon="3.71839">
        <ele>95.9</ele>
        <time>2011-01-16T08:36:32Z</time>
      </trkpt>
      <trkpt lat="43.57023" lon="3.71838">
        <ele>95.3</ele>
        <time>2011-01-16T08:36:33Z</time>
      </trkpt>
      <trkpt lat="43.57019" lon="3.71836">
        <ele>94.9</ele>
        <time>2011-01-16T08:36:34Z</time>
      </trkpt>
      <trkpt lat="43.57014" lon="3.71834">
        <ele>94.7</ele>
        <time>2011-01-16T08:36:35Z</time>
      </trkpt>
      <trkpt lat="43.57009" lon="3.71832">
        <ele>94.5</ele>
        <time>2011-01-16T08:36:36Z</time>
      </trkpt>
      <trkpt lat="43.57004" lon="3.71831">
        <ele>94.4</ele>
        <time>2011-01-16T08:36:37Z</time>
      </trkpt>
      <trkpt lat="43.56999" lon="3.7183">
        <ele>93.7</ele>
        <time>2011-01-16T08:36:38Z</time>
      </trkpt>
      <trkpt lat="43.56994" lon="3.71827">
        <ele>93.1</ele>
        <time>2011-01-16T08:36:39Z</time>
      </trkpt>
      <trkpt lat="43.56989" lon="3.71825">
        <ele>92.7</ele>
        <time>2011-01-16T08:36:40Z</time>
      </trkpt>
      <trkpt lat="43.56984" lon="3.71823">
        <ele>92.3</ele>
        <time>2011-01-16T08:36:41Z</time>
      </trkpt>
      <trkpt lat="43.5698" lon="3.7182">
        <ele>92</ele>
        <time>2011-01-16T08:36:42Z</time>
      </trkpt>
      <trkpt lat="43.56975" lon="3.71816">
        <ele>91.8</ele>
        <time>2011-01-16T08:36:43Z</time>
      </trkpt>
      <trkpt lat="43.56971" lon="3.71812">
        <ele>91.7</ele>
        <time>2011-01-16T08:36:44Z</time>
      </trkpt>
      <trkpt lat="43.56967" lon="3.71807">
        <ele>91.7</ele>
        <time>2011-01-16T08:36:45Z</time>
      </trkpt>
      <trkpt lat="43.56962" lon="3.71802">
        <ele>91.7</ele>
        <time>2011-01-16T08:36:46Z</time>
      </trkpt>
      <trkpt lat="43.56958" lon="3.71797">
        <ele>91.7</ele>
        <time>2011-01-16T08:36:47Z</time>
      </trkpt>
      <trkpt lat="43.56953" lon="3.71792">
        <ele>91.2</ele>
        <time>2011-01-16T08:36:48Z</time>
      </trkpt>
      <trkpt lat="43.56948" lon="3.71785">
        <ele>90.7</ele>
        <time>2011-01-16T08:36:49Z</time>
      </trkpt>
      <trkpt lat="43.56944" lon="3.71779">
        <ele>90.4</ele>
        <time>2011-01-16T08:36:50Z</time>
      </trkpt>
      <trkpt lat="43.56939" lon="3.71772">
        <ele>90.3</ele>
        <time>2011-01-16T08:36:51Z</time>
      </trkpt>
      <trkpt lat="43.56935" lon="3.71764">
        <ele>90.2</ele>
        <time>2011-01-16T08:36:52Z</time>
      </trkpt>
      <trkpt lat="43.56931" lon="3.71757">
        <ele>90.1</ele>
        <time>2011-01-16T08:36:53Z</time>
      </trkpt>
      <trkpt lat="43.56926" lon="3.71751">
        <ele>89.8</ele>
        <time>2011-01-16T08:36:54Z</time>
      </trkpt>
      <trkpt lat="43.56922" lon="3.71745">
        <ele>89.6</ele>
        <time>2011-01-16T08:36:55Z</time>
      </trkpt>
      <trkpt lat="43.56919" lon="3.71738">
        <ele>89.5</ele>
        <time>2011-01-16T08:36:56Z</time>
      </trkpt>
      <trkpt lat="43.56917" lon="3.71731">
        <ele>89.1</ele>
        <time>2011-01-16T08:36:57Z</time>
      </trkpt>
      <trkpt lat="43.56915" lon="3.71725">
        <ele>88.9</ele>
        <time>2011-01-16T08:36:58Z</time>
      </trkpt>
      <trkpt lat="43.56914" lon="3.71719">
        <ele>88.7</ele>
        <time>2011-01-16T08:36:59Z</time>
      </trkpt>
      <trkpt lat="43.56911" lon="3.71714">
        <ele>88.5</ele>
        <time>2011-01-16T08:37:00Z</time>
      </trkpt>
      <trkpt lat="43.56909" lon="3.71708">
        <ele>88.6</ele>
        <time>2011-01-16T08:37:01Z</time>
      </trkpt>
      <trkpt lat="43.56907" lon="3.71702">
        <ele>88.6</ele>
        <time>2011-01-16T08:37:02Z</time>
      </trkpt>
      <trkpt lat="43.56904" lon="3.71696">
        <ele>88.7</ele>
        <time>2011-01-16T08:37:03Z</time>
      </trkpt>
      <trkpt lat="43.56901" lon="3.7169">
        <ele>89</ele>
        <time>2011-01-16T08:37:04Z</time>
      </trkpt>
      <trkpt lat="43.56895" lon="3.71681">
        <ele>89.5</ele>
        <time>2011-01-16T08:37:06Z</time>
      </trkpt>
      <trkpt lat="43.56893" lon="3.71677">
        <ele>90.2</ele>
        <time>2011-01-16T08:37:07Z</time>
      </trkpt>
      <trkpt lat="43.56885" lon="3.71667">
        <ele>92.7</ele>
        <time>2011-01-16T08:37:11Z</time>
      </trkpt>
      <trkpt lat="43.56879" lon="3.71659">
        <ele>93.8</ele>
        <time>2011-01-16T08:37:14Z</time>
      </trkpt>
      <trkpt lat="43.56873" lon="3.71651">
        <ele>94.9</ele>
        <time>2011-01-16T08:37:17Z</time>
      </trkpt>
      <trkpt lat="43.56867" lon="3.71645">
        <ele>97.3</ele>
        <time>2011-01-16T08:38:35Z</time>
      </trkpt>
      <trkpt lat="43.56865" lon="3.71643">
        <ele>97</ele>
        <time>2011-01-16T08:38:36Z</time>
      </trkpt>
      <trkpt lat="43.56857" lon="3.71634">
        <ele>95.9</ele>
        <time>2011-01-16T08:38:40Z</time>
      </trkpt>
      <trkpt lat="43.5685" lon="3.71629">
        <ele>95.5</ele>
        <time>2011-01-16T08:38:42Z</time>
      </trkpt>
      <trkpt lat="43.56842" lon="3.71624">
        <ele>94.9</ele>
        <time>2011-01-16T08:38:44Z</time>
      </trkpt>
      <trkpt lat="43.56837" lon="3.71621">
        <ele>94.7</ele>
        <time>2011-01-16T08:38:45Z</time>
      </trkpt>
      <trkpt lat="43.5683" lon="3.71617">
        <ele>92.8</ele>
        <time>2011-01-16T08:38:46Z</time>
      </trkpt>
      <trkpt lat="43.56822" lon="3.71612">
        <ele>91.4</ele>
        <time>2011-01-16T08:38:47Z</time>
      </trkpt>
      <trkpt lat="43.56815" lon="3.71608">
        <ele>90.3</ele>
        <time>2011-01-16T08:38:48Z</time>
      </trkpt>
      <trkpt lat="43.56808" lon="3.71606">
        <ele>88.8</ele>
        <time>2011-01-16T08:38:49Z</time>
      </trkpt>
      <trkpt lat="43.56803" lon="3.71607">
        <ele>87.7</ele>
        <time>2011-01-16T08:38:50Z</time>
      </trkpt>
      <trkpt lat="43.56798" lon="3.7161">
        <ele>86.9</ele>
        <time>2011-01-16T08:38:51Z</time>
      </trkpt>
      <trkpt lat="43.56794" lon="3.71613">
        <ele>85.8</ele>
        <time>2011-01-16T08:38:52Z</time>
      </trkpt>
      <trkpt lat="43.56785" lon="3.71615">
        <ele>84.4</ele>
        <time>2011-01-16T08:38:54Z</time>
      </trkpt>
      <trkpt lat="43.56778" lon="3.71612">
        <ele>83.8</ele>
        <time>2011-01-16T08:38:56Z</time>
      </trkpt>
      <trkpt lat="43.5677" lon="3.71607">
        <ele>83.5</ele>
        <time>2011-01-16T08:38:58Z</time>
      </trkpt>
      <trkpt lat="43.56763" lon="3.71607">
        <ele>82.9</ele>
        <time>2011-01-16T08:39:00Z</time>
      </trkpt>
      <trkpt lat="43.56757" lon="3.71613">
        <ele>82.5</ele>
        <time>2011-01-16T08:39:02Z</time>
      </trkpt>
      <trkpt lat="43.5675" lon="3.71618">
        <ele>82.2</ele>
        <time>2011-01-16T08:39:04Z</time>
      </trkpt>
      <trkpt lat="43.56745" lon="3.71621">
        <ele>81.7</ele>
        <time>2011-01-16T08:39:05Z</time>
      </trkpt>
      <trkpt lat="43.5674" lon="3.71624">
        <ele>81.3</ele>
        <time>2011-01-16T08:39:06Z</time>
      </trkpt>
      <trkpt lat="43.56736" lon="3.71627">
        <ele>81</ele>
        <time>2011-01-16T08:39:07Z</time>
      </trkpt>
      <trkpt lat="43.56731" lon="3.71633">
        <ele>80.4</ele>
        <time>2011-01-16T08:39:08Z</time>
      </trkpt>
      <trkpt lat="43.56727" lon="3.71638">
        <ele>80</ele>
        <time>2011-01-16T08:39:09Z</time>
      </trkpt>
      <trkpt lat="43.56722" lon="3.71644">
        <ele>79.6</ele>
        <time>2011-01-16T08:39:10Z</time>
      </trkpt>
      <trkpt lat="43.56717" lon="3.71647">
        <ele>78.9</ele>
        <time>2011-01-16T08:39:11Z</time>
      </trkpt>
      <trkpt lat="43.56712" lon="3.71647">
        <ele>78.4</ele>
        <time>2011-01-16T08:39:12Z</time>
      </trkpt>
      <trkpt lat="43.56708" lon="3.71647">
        <ele>78</ele>
        <time>2011-01-16T08:39:13Z</time>
      </trkpt>
      <trkpt lat="43.56699" lon="3.71645">
        <ele>77.2</ele>
        <time>2011-01-16T08:39:15Z</time>
      </trkpt>
      <trkpt lat="43.5669" lon="3.71643">
        <ele>76.5</ele>
        <time>2011-01-16T08:39:17Z</time>
      </trkpt>
      <trkpt lat="43.56682" lon="3.71647">
        <ele>75.5</ele>
        <time>2011-01-16T08:39:19Z</time>
      </trkpt>
      <trkpt lat="43.56675" lon="3.71655">
        <ele>75.3</ele>
        <time>2011-01-16T08:39:21Z</time>
      </trkpt>
      <trkpt lat="43.56667" lon="3.7166">
        <ele>75.3</ele>
        <time>2011-01-16T08:39:23Z</time>
      </trkpt>
      <trkpt lat="43.5666" lon="3.71661">
        <ele>75.6</ele>
        <time>2011-01-16T08:39:25Z</time>
      </trkpt>
      <trkpt lat="43.56656" lon="3.71653">
        <ele>76.7</ele>
        <time>2011-01-16T08:39:28Z</time>
      </trkpt>
      <trkpt lat="43.56649" lon="3.71647">
        <ele>76.7</ele>
        <time>2011-01-16T08:39:31Z</time>
      </trkpt>
      <trkpt lat="43.56644" lon="3.71641">
        <ele>76.5</ele>
        <time>2011-01-16T08:39:33Z</time>
      </trkpt>
      <trkpt lat="43.56637" lon="3.71633">
        <ele>76.1</ele>
        <time>2011-01-16T08:39:36Z</time>
      </trkpt>
      <trkpt lat="43.56636" lon="3.71629">
        <ele>76.5</ele>
        <time>2011-01-16T08:39:37Z</time>
      </trkpt>
      <trkpt lat="43.56629" lon="3.71615">
        <ele>76.3</ele>
        <time>2011-01-16T08:39:41Z</time>
      </trkpt>
      <trkpt lat="43.56625" lon="3.71607">
        <ele>76</ele>
        <time>2011-01-16T08:39:43Z</time>
      </trkpt>
      <trkpt lat="43.56621" lon="3.71601">
        <ele>75.8</ele>
        <time>2011-01-16T08:39:45Z</time>
      </trkpt>
      <trkpt lat="43.56616" lon="3.71595">
        <ele>76</ele>
        <time>2011-01-16T08:39:47Z</time>
      </trkpt>
      <trkpt lat="43.56611" lon="3.71587">
        <ele>76.1</ele>
        <time>2011-01-16T08:39:49Z</time>
      </trkpt>
      <trkpt lat="43.56604" lon="3.71581">
        <ele>75.7</ele>
        <time>2011-01-16T08:39:51Z</time>
      </trkpt>
      <trkpt lat="43.56601" lon="3.71577">
        <ele>75.6</ele>
        <time>2011-01-16T08:39:52Z</time>
      </trkpt>
      <trkpt lat="43.56597" lon="3.71573">
        <ele>75.4</ele>
        <time>2011-01-16T08:39:53Z</time>
      </trkpt>
      <trkpt lat="43.56593" lon="3.7157">
        <ele>75.3</ele>
        <time>2011-01-16T08:39:54Z</time>
      </trkpt>
      <trkpt lat="43.56589" lon="3.71565">
        <ele>75.2</ele>
        <time>2011-01-16T08:39:55Z</time>
      </trkpt>
      <trkpt lat="43.56584" lon="3.71561">
        <ele>74.4</ele>
        <time>2011-01-16T08:39:56Z</time>
      </trkpt>
      <trkpt lat="43.56578" lon="3.71554">
        <ele>73.5</ele>
        <time>2011-01-16T08:39:58Z</time>
      </trkpt>
      <trkpt lat="43.56574" lon="3.71548">
        <ele>73.2</ele>
        <time>2011-01-16T08:40:00Z</time>
      </trkpt>
      <trkpt lat="43.56568" lon="3.71542">
        <ele>73.1</ele>
        <time>2011-01-16T08:40:02Z</time>
      </trkpt>
      <trkpt lat="43.56562" lon="3.71537">
        <ele>73.1</ele>
        <time>2011-01-16T08:40:04Z</time>
      </trkpt>
      <trkpt lat="43.56554" lon="3.71534">
        <ele>73</ele>
        <time>2011-01-16T08:40:06Z</time>
      </trkpt>
      <trkpt lat="43.56546" lon="3.71531">
        <ele>72.8</ele>
        <time>2011-01-16T08:40:08Z</time>
      </trkpt>
      <trkpt lat="43.56539" lon="3.71527">
        <ele>72.1</ele>
        <time>2011-01-16T08:40:10Z</time>
      </trkpt>
      <trkpt lat="43.56533" lon="3.71521">
        <ele>71.4</ele>
        <time>2011-01-16T08:40:12Z</time>
      </trkpt>
      <trkpt lat="43.56528" lon="3.71515">
        <ele>70.8</ele>
        <time>2011-01-16T08:40:14Z</time>
      </trkpt>
      <trkpt lat="43.56524" lon="3.71508">
        <ele>70.2</ele>
        <time>2011-01-16T08:40:16Z</time>
      </trkpt>
      <trkpt lat="43.56518" lon="3.71503">
        <ele>69.3</ele>
        <time>2011-01-16T08:40:18Z</time>
      </trkpt>
      <trkpt lat="43.56512" lon="3.71496">
        <ele>67.9</ele>
        <time>2011-01-16T08:40:21Z</time>
      </trkpt>
      <trkpt lat="43.56507" lon="3.71489">
        <ele>66.8</ele>
        <time>2011-01-16T08:40:24Z</time>
      </trkpt>
      <trkpt lat="43.56501" lon="3.71481">
        <ele>67.2</ele>
        <time>2011-01-16T08:40:32Z</time>
      </trkpt>
      <trkpt lat="43.56495" lon="3.71474">
        <ele>67.3</ele>
        <time>2011-01-16T08:40:37Z</time>
      </trkpt>
      <trkpt lat="43.56494" lon="3.71474">
        <ele>67.5</ele>
        <time>2011-01-16T08:40:38Z</time>
      </trkpt>
      <trkpt lat="43.56483" lon="3.7146">
        <ele>69.5</ele>
        <time>2011-01-16T08:40:50Z</time>
      </trkpt>
      <trkpt lat="43.56475" lon="3.71458">
        <ele>70.1</ele>
        <time>2011-01-16T08:41:00Z</time>
      </trkpt>
      <trkpt lat="43.56467" lon="3.71452">
        <ele>71.5</ele>
        <time>2011-01-16T08:41:05Z</time>
      </trkpt>
      <trkpt lat="43.56461" lon="3.71448">
        <ele>71.8</ele>
        <time>2011-01-16T08:41:08Z</time>
      </trkpt>
      <trkpt lat="43.56453" lon="3.71443">
        <ele>71.5</ele>
        <time>2011-01-16T08:41:12Z</time>
      </trkpt>
      <trkpt lat="43.56445" lon="3.71439">
        <ele>72.1</ele>
        <time>2011-01-16T08:41:16Z</time>
      </trkpt>
      <trkpt lat="43.56437" lon="3.7144">
        <ele>72.2</ele>
        <time>2011-01-16T08:44:58Z</time>
      </trkpt>
      <trkpt lat="43.56435" lon="3.71439">
        <ele>72.2</ele>
        <time>2011-01-16T08:44:59Z</time>
      </trkpt>
      <trkpt lat="43.56423" lon="3.71431">
        <ele>72.4</ele>
        <time>2011-01-16T08:45:05Z</time>
      </trkpt>
      <trkpt lat="43.56417" lon="3.71427">
        <ele>72.2</ele>
        <time>2011-01-16T08:45:07Z</time>
      </trkpt>
      <trkpt lat="43.5641" lon="3.71422">
        <ele>71.6</ele>
        <time>2011-01-16T08:45:09Z</time>
      </trkpt>
      <trkpt lat="43.56403" lon="3.71418">
        <ele>71</ele>
        <time>2011-01-16T08:45:11Z</time>
      </trkpt>
      <trkpt lat="43.56395" lon="3.71412">
        <ele>70.8</ele>
        <time>2011-01-16T08:45:13Z</time>
      </trkpt>
      <trkpt lat="43.56391" lon="3.71408">
        <ele>70.8</ele>
        <time>2011-01-16T08:45:14Z</time>
      </trkpt>
      <trkpt lat="43.56387" lon="3.71405">
        <ele>70.7</ele>
        <time>2011-01-16T08:45:15Z</time>
      </trkpt>
      <trkpt lat="43.56383" lon="3.71401">
        <ele>70.7</ele>
        <time>2011-01-16T08:45:16Z</time>
      </trkpt>
      <trkpt lat="43.56379" lon="3.71398">
        <ele>70.6</ele>
        <time>2011-01-16T08:45:17Z</time>
      </trkpt>
      <trkpt lat="43.56375" lon="3.71395">
        <ele>70.1</ele>
        <time>2011-01-16T08:45:18Z</time>
      </trkpt>
      <trkpt lat="43.56366" lon="3.71395">
        <ele>69.3</ele>
        <time>2011-01-16T08:45:20Z</time>
      </trkpt>
      <trkpt lat="43.56358" lon="3.71396">
        <ele>69</ele>
        <time>2011-01-16T08:45:22Z</time>
      </trkpt>
      <trkpt lat="43.5635" lon="3.71391">
        <ele>68.8</ele>
        <time>2011-01-16T08:45:24Z</time>
      </trkpt>
      <trkpt lat="43.56345" lon="3.71389">
        <ele>68.5</ele>
        <time>2011-01-16T08:45:25Z</time>
      </trkpt>
      <trkpt lat="43.56339" lon="3.71389">
        <ele>68.3</ele>
        <time>2011-01-16T08:45:26Z</time>
      </trkpt>
      <trkpt lat="43.56334" lon="3.7139">
        <ele>68.1</ele>
        <time>2011-01-16T08:45:27Z</time>
      </trkpt>
      <trkpt lat="43.56328" lon="3.7139">
        <ele>67.8</ele>
        <time>2011-01-16T08:45:28Z</time>
      </trkpt>
      <trkpt lat="43.56323" lon="3.71392">
        <ele>67.6</ele>
        <time>2011-01-16T08:45:29Z</time>
      </trkpt>
      <trkpt lat="43.56318" lon="3.71395">
        <ele>67.5</ele>
        <time>2011-01-16T08:45:30Z</time>
      </trkpt>
      <trkpt lat="43.56314" lon="3.71396">
        <ele>67.3</ele>
        <time>2011-01-16T08:45:31Z</time>
      </trkpt>
      <trkpt lat="43.56305" lon="3.714">
        <ele>67.1</ele>
        <time>2011-01-16T08:45:33Z</time>
      </trkpt>
      <trkpt lat="43.56301" lon="3.71403">
        <ele>67</ele>
        <time>2011-01-16T08:45:34Z</time>
      </trkpt>
      <trkpt lat="43.56297" lon="3.71406">
        <ele>67</ele>
        <time>2011-01-16T08:45:35Z</time>
      </trkpt>
      <trkpt lat="43.56293" lon="3.71409">
        <ele>66.9</ele>
        <time>2011-01-16T08:45:36Z</time>
      </trkpt>
      <trkpt lat="43.56289" lon="3.71412">
        <ele>66.8</ele>
        <time>2011-01-16T08:45:37Z</time>
      </trkpt>
      <trkpt lat="43.56285" lon="3.71416">
        <ele>66.4</ele>
        <time>2011-01-16T08:45:38Z</time>
      </trkpt>
      <trkpt lat="43.56281" lon="3.7142">
        <ele>66.1</ele>
        <time>2011-01-16T08:45:39Z</time>
      </trkpt>
      <trkpt lat="43.56277" lon="3.71423">
        <ele>65.9</ele>
        <time>2011-01-16T08:45:40Z</time>
      </trkpt>
      <trkpt lat="43.56272" lon="3.71426">
        <ele>65.8</ele>
        <time>2011-01-16T08:45:41Z</time>
      </trkpt>
      <trkpt lat="43.56268" lon="3.71429">
        <ele>65.8</ele>
        <time>2011-01-16T08:45:42Z</time>
      </trkpt>
      <trkpt lat="43.56263" lon="3.71432">
        <ele>65.7</ele>
        <time>2011-01-16T08:45:43Z</time>
      </trkpt>
      <trkpt lat="43.56259" lon="3.71436">
        <ele>65.4</ele>
        <time>2011-01-16T08:45:44Z</time>
      </trkpt>
      <trkpt lat="43.56254" lon="3.7144">
        <ele>65.3</ele>
        <time>2011-01-16T08:45:45Z</time>
      </trkpt>
      <trkpt lat="43.5625" lon="3.71444">
        <ele>65.1</ele>
        <time>2011-01-16T08:45:46Z</time>
      </trkpt>
      <trkpt lat="43.56246" lon="3.71447">
        <ele>64.6</ele>
        <time>2011-01-16T08:45:47Z</time>
      </trkpt>
      <trkpt lat="43.56241" lon="3.71452">
        <ele>64.2</ele>
        <time>2011-01-16T08:45:48Z</time>
      </trkpt>
      <trkpt lat="43.56237" lon="3.71456">
        <ele>63.9</ele>
        <time>2011-01-16T08:45:49Z</time>
      </trkpt>
      <trkpt lat="43.56232" lon="3.7146">
        <ele>64.2</ele>
        <time>2011-01-16T08:45:50Z</time>
      </trkpt>
      <trkpt lat="43.56228" lon="3.71464">
        <ele>64.4</ele>
        <time>2011-01-16T08:45:51Z</time>
      </trkpt>
      <trkpt lat="43.56225" lon="3.71469">
        <ele>64.6</ele>
        <time>2011-01-16T08:45:52Z</time>
      </trkpt>
      <trkpt lat="43.5622" lon="3.71478">
        <ele>63.6</ele>
        <time>2011-01-16T08:45:54Z</time>
      </trkpt>
      <trkpt lat="43.56215" lon="3.71488">
        <ele>62.7</ele>
        <time>2011-01-16T08:45:57Z</time>
      </trkpt>
      <trkpt lat="43.56207" lon="3.71493">
        <ele>61.9</ele>
        <time>2011-01-16T08:46:00Z</time>
      </trkpt>
      <trkpt lat="43.56204" lon="3.71493">
        <ele>61.5</ele>
        <time>2011-01-16T08:46:01Z</time>
      </trkpt>
      <trkpt lat="43.56203" lon="3.71475">
        <ele>58.7</ele>
        <time>2011-01-16T08:46:07Z</time>
      </trkpt>
      <trkpt lat="43.56206" lon="3.71466">
        <ele>58.4</ele>
        <time>2011-01-16T08:46:09Z</time>
      </trkpt>
      <trkpt lat="43.56208" lon="3.71457">
        <ele>58.2</ele>
        <time>2011-01-16T08:46:11Z</time>
      </trkpt>
      <trkpt lat="43.56212" lon="3.71447">
        <ele>57.9</ele>
        <time>2011-01-16T08:46:13Z</time>
      </trkpt>
      <trkpt lat="43.56218" lon="3.7144">
        <ele>57.5</ele>
        <time>2011-01-16T08:46:15Z</time>
      </trkpt>
      <trkpt lat="43.56223" lon="3.71432">
        <ele>57.9</ele>
        <time>2011-01-16T08:46:17Z</time>
      </trkpt>
      <trkpt lat="43.56228" lon="3.71424">
        <ele>57.8</ele>
        <time>2011-01-16T08:46:19Z</time>
      </trkpt>
      <trkpt lat="43.56232" lon="3.71414">
        <ele>57.6</ele>
        <time>2011-01-16T08:46:21Z</time>
      </trkpt>
      <trkpt lat="43.56235" lon="3.71408">
        <ele>57.3</ele>
        <time>2011-01-16T08:46:22Z</time>
      </trkpt>
      <trkpt lat="43.56238" lon="3.71403">
        <ele>57.1</ele>
        <time>2011-01-16T08:46:23Z</time>
      </trkpt>
      <trkpt lat="43.56242" lon="3.71399">
        <ele>57</ele>
        <time>2011-01-16T08:46:24Z</time>
      </trkpt>
      <trkpt lat="43.56246" lon="3.71395">
        <ele>56.5</ele>
        <time>2011-01-16T08:46:25Z</time>
      </trkpt>
      <trkpt lat="43.5625" lon="3.71391">
        <ele>56.1</ele>
        <time>2011-01-16T08:46:26Z</time>
      </trkpt>
      <trkpt lat="43.56254" lon="3.71387">
        <ele>55.8</ele>
        <time>2011-01-16T08:46:27Z</time>
      </trkpt>
      <trkpt lat="43.56258" lon="3.71383">
        <ele>55.3</ele>
        <time>2011-01-16T08:46:28Z</time>
      </trkpt>
      <trkpt lat="43.56262" lon="3.71378">
        <ele>54.9</ele>
        <time>2011-01-16T08:46:29Z</time>
      </trkpt>
      <trkpt lat="43.56265" lon="3.71367">
        <ele>53.8</ele>
        <time>2011-01-16T08:46:32Z</time>
      </trkpt>
      <trkpt lat="43.56269" lon="3.7136">
        <ele>53.1</ele>
        <time>2011-01-16T08:46:34Z</time>
      </trkpt>
      <trkpt lat="43.56276" lon="3.71357">
        <ele>51.8</ele>
        <time>2011-01-16T08:46:36Z</time>
      </trkpt>
      <trkpt lat="43.56283" lon="3.71355">
        <ele>51.3</ele>
        <time>2011-01-16T08:46:38Z</time>
      </trkpt>
      <trkpt lat="43.56291" lon="3.71353">
        <ele>51.1</ele>
        <time>2011-01-16T08:46:40Z</time>
      </trkpt>
      <trkpt lat="43.56298" lon="3.71351">
        <ele>50.3</ele>
        <time>2011-01-16T08:46:42Z</time>
      </trkpt>
      <trkpt lat="43.56306" lon="3.71349">
        <ele>50.1</ele>
        <time>2011-01-16T08:46:44Z</time>
      </trkpt>
      <trkpt lat="43.56313" lon="3.71345">
        <ele>50.3</ele>
        <time>2011-01-16T08:46:46Z</time>
      </trkpt>
      <trkpt lat="43.56319" lon="3.71339">
        <ele>50.3</ele>
        <time>2011-01-16T08:46:48Z</time>
      </trkpt>
      <trkpt lat="43.56326" lon="3.71331">
        <ele>50.4</ele>
        <time>2011-01-16T08:46:50Z</time>
      </trkpt>
      <trkpt lat="43.56333" lon="3.71323">
        <ele>50.2</ele>
        <time>2011-01-16T08:46:52Z</time>
      </trkpt>
      <trkpt lat="43.56339" lon="3.71317">
        <ele>50.1</ele>
        <time>2011-01-16T08:46:54Z</time>
      </trkpt>
      <trkpt lat="43.56346" lon="3.71313">
        <ele>50</ele>
        <time>2011-01-16T08:46:56Z</time>
      </trkpt>
      <trkpt lat="43.56354" lon="3.71311">
        <ele>49.8</ele>
        <time>2011-01-16T08:46:58Z</time>
      </trkpt>
      <trkpt lat="43.56361" lon="3.71309">
        <ele>50.1</ele>
        <time>2011-01-16T08:47:00Z</time>
      </trkpt>
      <trkpt lat="43.56368" lon="3.71309">
        <ele>50.7</ele>
        <time>2011-01-16T08:47:02Z</time>
      </trkpt>
      <trkpt lat="43.56371" lon="3.71309">
        <ele>51</ele>
        <time>2011-01-16T08:47:03Z</time>
      </trkpt>
      <trkpt lat="43.56382" lon="3.71308">
        <ele>51.5</ele>
        <time>2011-01-16T08:47:06Z</time>
      </trkpt>
      <trkpt lat="43.56388" lon="3.71306">
        <ele>51.6</ele>
        <time>2011-01-16T08:47:08Z</time>
      </trkpt>
      <trkpt lat="43.56394" lon="3.71304">
        <ele>52.2</ele>
        <time>2011-01-16T08:47:10Z</time>
      </trkpt>
      <trkpt lat="43.56402" lon="3.713">
        <ele>54</ele>
        <time>2011-01-16T08:47:13Z</time>
      </trkpt>
      <trkpt lat="43.5641" lon="3.71296">
        <ele>55.3</ele>
        <time>2011-01-16T08:47:16Z</time>
      </trkpt>
      <trkpt lat="43.56418" lon="3.71295">
        <ele>55.4</ele>
        <time>2011-01-16T08:47:19Z</time>
      </trkpt>
      <trkpt lat="43.56424" lon="3.71293">
        <ele>55.7</ele>
        <time>2011-01-16T08:47:21Z</time>
      </trkpt>
      <trkpt lat="43.56431" lon="3.71293">
        <ele>56</ele>
        <time>2011-01-16T08:47:23Z</time>
      </trkpt>
      <trkpt lat="43.56439" lon="3.71293">
        <ele>56.3</ele>
        <time>2011-01-16T08:47:26Z</time>
      </trkpt>
      <trkpt lat="43.56448" lon="3.71292">
        <ele>56.4</ele>
        <time>2011-01-16T08:47:29Z</time>
      </trkpt>
      <trkpt lat="43.56456" lon="3.71292">
        <ele>56.3</ele>
        <time>2011-01-16T08:47:32Z</time>
      </trkpt>
      <trkpt lat="43.56465" lon="3.71292">
        <ele>56.2</ele>
        <time>2011-01-16T08:47:35Z</time>
      </trkpt>
      <trkpt lat="43.56471" lon="3.71291">
        <ele>56.1</ele>
        <time>2011-01-16T08:47:37Z</time>
      </trkpt>
      <trkpt lat="43.56476" lon="3.71288">
        <ele>56.5</ele>
        <time>2011-01-16T08:47:39Z</time>
      </trkpt>
      <trkpt lat="43.56482" lon="3.71284">
        <ele>56.9</ele>
        <time>2011-01-16T08:47:41Z</time>
      </trkpt>
      <trkpt lat="43.56487" lon="3.71278">
        <ele>57.3</ele>
        <time>2011-01-16T08:47:43Z</time>
      </trkpt>
      <trkpt lat="43.56493" lon="3.71271">
        <ele>57.2</ele>
        <time>2011-01-16T08:47:46Z</time>
      </trkpt>
      <trkpt lat="43.565" lon="3.71266">
        <ele>58.6</ele>
        <time>2011-01-16T08:47:49Z</time>
      </trkpt>
      <trkpt lat="43.56507" lon="3.7126">
        <ele>58.9</ele>
        <time>2011-01-16T08:47:53Z</time>
      </trkpt>
      <trkpt lat="43.56513" lon="3.71253">
        <ele>58.6</ele>
        <time>2011-01-16T08:47:57Z</time>
      </trkpt>
      <trkpt lat="43.56518" lon="3.71244">
        <ele>58.6</ele>
        <time>2011-01-16T08:48:01Z</time>
      </trkpt>
      <trkpt lat="43.56523" lon="3.71237">
        <ele>58.5</ele>
        <time>2011-01-16T08:48:04Z</time>
      </trkpt>
      <trkpt lat="43.56524" lon="3.71234">
        <ele>58.4</ele>
        <time>2011-01-16T08:48:05Z</time>
      </trkpt>
      <trkpt lat="43.56531" lon="3.71221">
        <ele>58</ele>
        <time>2011-01-16T08:48:10Z</time>
      </trkpt>
      <trkpt lat="43.56535" lon="3.71213">
        <ele>58.1</ele>
        <time>2011-01-16T08:48:13Z</time>
      </trkpt>
      <trkpt lat="43.56539" lon="3.71205">
        <ele>58.8</ele>
        <time>2011-01-16T08:48:16Z</time>
      </trkpt>
      <trkpt lat="43.56543" lon="3.71196">
        <ele>59.6</ele>
        <time>2011-01-16T08:48:19Z</time>
      </trkpt>
      <trkpt lat="43.56547" lon="3.71187">
        <ele>60.4</ele>
        <time>2011-01-16T08:48:22Z</time>
      </trkpt>
      <trkpt lat="43.56552" lon="3.71179">
        <ele>60.3</ele>
        <time>2011-01-16T08:48:26Z</time>
      </trkpt>
      <trkpt lat="43.56559" lon="3.71171">
        <ele>60</ele>
        <time>2011-01-16T08:48:30Z</time>
      </trkpt>
      <trkpt lat="43.56565" lon="3.71164">
        <ele>59.8</ele>
        <time>2011-01-16T08:48:33Z</time>
      </trkpt>
      <trkpt lat="43.5657" lon="3.71157">
        <ele>59.6</ele>
        <time>2011-01-16T08:48:36Z</time>
      </trkpt>
      <trkpt lat="43.56576" lon="3.7115">
        <ele>59.7</ele>
        <time>2011-01-16T08:48:39Z</time>
      </trkpt>
      <trkpt lat="43.56582" lon="3.71144">
        <ele>60.5</ele>
        <time>2011-01-16T08:48:42Z</time>
      </trkpt>
      <trkpt lat="43.56589" lon="3.71138">
        <ele>61.4</ele>
        <time>2011-01-16T08:48:45Z</time>
      </trkpt>
      <trkpt lat="43.56595" lon="3.71133">
        <ele>61.2</ele>
        <time>2011-01-16T08:48:47Z</time>
      </trkpt>
      <trkpt lat="43.56601" lon="3.71128">
        <ele>61.4</ele>
        <time>2011-01-16T08:48:49Z</time>
      </trkpt>
      <trkpt lat="43.56606" lon="3.71124">
        <ele>61.3</ele>
        <time>2011-01-16T08:48:51Z</time>
      </trkpt>
      <trkpt lat="43.56614" lon="3.71118">
        <ele>61.1</ele>
        <time>2011-01-16T08:48:54Z</time>
      </trkpt>
      <trkpt lat="43.56619" lon="3.71112">
        <ele>61.3</ele>
        <time>2011-01-16T08:48:56Z</time>
      </trkpt>
      <trkpt lat="43.56625" lon="3.71107">
        <ele>61.1</ele>
        <time>2011-01-16T08:48:58Z</time>
      </trkpt>
      <trkpt lat="43.5663" lon="3.71102">
        <ele>60.6</ele>
        <time>2011-01-16T08:49:00Z</time>
      </trkpt>
      <trkpt lat="43.56636" lon="3.71096">
        <ele>60.5</ele>
        <time>2011-01-16T08:49:02Z</time>
      </trkpt>
      <trkpt lat="43.56642" lon="3.7109">
        <ele>60.6</ele>
        <time>2011-01-16T08:49:04Z</time>
      </trkpt>
      <trkpt lat="43.56647" lon="3.71085">
        <ele>60.9</ele>
        <time>2011-01-16T08:49:06Z</time>
      </trkpt>
      <trkpt lat="43.56651" lon="3.71082">
        <ele>60.9</ele>
        <time>2011-01-16T08:49:07Z</time>
      </trkpt>
      <trkpt lat="43.56659" lon="3.71075">
        <ele>61.4</ele>
        <time>2011-01-16T08:49:10Z</time>
      </trkpt>
      <trkpt lat="43.56664" lon="3.7107">
        <ele>61.8</ele>
        <time>2011-01-16T08:49:12Z</time>
      </trkpt>
      <trkpt lat="43.5667" lon="3.71064">
        <ele>61.7</ele>
        <time>2011-01-16T08:49:14Z</time>
      </trkpt>
      <trkpt lat="43.56675" lon="3.71058">
        <ele>61.7</ele>
        <time>2011-01-16T08:49:16Z</time>
      </trkpt>
      <trkpt lat="43.5668" lon="3.71053">
        <ele>62</ele>
        <time>2011-01-16T08:49:18Z</time>
      </trkpt>
      <trkpt lat="43.56684" lon="3.71046">
        <ele>62.4</ele>
        <time>2011-01-16T08:49:20Z</time>
      </trkpt>
      <trkpt lat="43.56691" lon="3.71041">
        <ele>62.9</ele>
        <time>2011-01-16T08:49:22Z</time>
      </trkpt>
      <trkpt lat="43.56697" lon="3.71036">
        <ele>62.6</ele>
        <time>2011-01-16T08:49:24Z</time>
      </trkpt>
      <trkpt lat="43.56703" lon="3.71031">
        <ele>62.8</ele>
        <time>2011-01-16T08:49:26Z</time>
      </trkpt>
      <trkpt lat="43.56709" lon="3.71026">
        <ele>63.1</ele>
        <time>2011-01-16T08:49:28Z</time>
      </trkpt>
      <trkpt lat="43.56715" lon="3.71021">
        <ele>63.2</ele>
        <time>2011-01-16T08:49:30Z</time>
      </trkpt>
      <trkpt lat="43.56721" lon="3.71015">
        <ele>63.3</ele>
        <time>2011-01-16T08:49:32Z</time>
      </trkpt>
      <trkpt lat="43.56727" lon="3.7101">
        <ele>63.5</ele>
        <time>2011-01-16T08:49:34Z</time>
      </trkpt>
      <trkpt lat="43.56732" lon="3.71005">
        <ele>63.2</ele>
        <time>2011-01-16T08:49:36Z</time>
      </trkpt>
      <trkpt lat="43.56738" lon="3.70999">
        <ele>62.8</ele>
        <time>2011-01-16T08:49:38Z</time>
      </trkpt>
      <trkpt lat="43.56743" lon="3.70994">
        <ele>62.5</ele>
        <time>2011-01-16T08:49:40Z</time>
      </trkpt>
      <trkpt lat="43.56749" lon="3.70988">
        <ele>62.5</ele>
        <time>2011-01-16T08:49:42Z</time>
      </trkpt>
      <trkpt lat="43.56754" lon="3.70983">
        <ele>62.6</ele>
        <time>2011-01-16T08:49:44Z</time>
      </trkpt>
      <trkpt lat="43.5676" lon="3.70978">
        <ele>63.3</ele>
        <time>2011-01-16T08:49:46Z</time>
      </trkpt>
      <trkpt lat="43.56765" lon="3.70972">
        <ele>63.5</ele>
        <time>2011-01-16T08:49:48Z</time>
      </trkpt>
      <trkpt lat="43.56771" lon="3.70967">
        <ele>63.5</ele>
        <time>2011-01-16T08:49:50Z</time>
      </trkpt>
      <trkpt lat="43.56776" lon="3.70961">
        <ele>63.7</ele>
        <time>2011-01-16T08:49:52Z</time>
      </trkpt>
      <trkpt lat="43.56781" lon="3.70955">
        <ele>64.1</ele>
        <time>2011-01-16T08:49:54Z</time>
      </trkpt>
      <trkpt lat="43.56787" lon="3.70949">
        <ele>64.4</ele>
        <time>2011-01-16T08:49:56Z</time>
      </trkpt>
      <trkpt lat="43.56792" lon="3.70944">
        <ele>64.3</ele>
        <time>2011-01-16T08:49:58Z</time>
      </trkpt>
      <trkpt lat="43.56797" lon="3.70938">
        <ele>64</ele>
        <time>2011-01-16T08:50:00Z</time>
      </trkpt>
      <trkpt lat="43.56802" lon="3.70931">
        <ele>64.2</ele>
        <time>2011-01-16T08:50:02Z</time>
      </trkpt>
      <trkpt lat="43.56807" lon="3.70925">
        <ele>64.3</ele>
        <time>2011-01-16T08:50:04Z</time>
      </trkpt>
      <trkpt lat="43.56812" lon="3.70919">
        <ele>64.3</ele>
        <time>2011-01-16T08:50:06Z</time>
      </trkpt>
      <trkpt lat="43.56817" lon="3.70912">
        <ele>64.5</ele>
        <time>2011-01-16T08:50:08Z</time>
      </trkpt>
      <trkpt lat="43.5682" lon="3.70908">
        <ele>64.5</ele>
        <time>2011-01-16T08:50:09Z</time>
      </trkpt>
      <trkpt lat="43.56827" lon="3.70899">
        <ele>64.6</ele>
        <time>2011-01-16T08:50:12Z</time>
      </trkpt>
      <trkpt lat="43.56832" lon="3.70892">
        <ele>64.7</ele>
        <time>2011-01-16T08:50:14Z</time>
      </trkpt>
      <trkpt lat="43.56838" lon="3.70886">
        <ele>64.8</ele>
        <time>2011-01-16T08:50:16Z</time>
      </trkpt>
      <trkpt lat="43.56843" lon="3.70879">
        <ele>65.3</ele>
        <time>2011-01-16T08:50:18Z</time>
      </trkpt>
      <trkpt lat="43.56848" lon="3.70873">
        <ele>65.7</ele>
        <time>2011-01-16T08:50:20Z</time>
      </trkpt>
      <trkpt lat="43.56853" lon="3.70866">
        <ele>66.1</ele>
        <time>2011-01-16T08:50:22Z</time>
      </trkpt>
      <trkpt lat="43.56858" lon="3.70859">
        <ele>65.6</ele>
        <time>2011-01-16T08:50:24Z</time>
      </trkpt>
      <trkpt lat="43.56863" lon="3.70853">
        <ele>65.3</ele>
        <time>2011-01-16T08:50:26Z</time>
      </trkpt>
      <trkpt lat="43.56868" lon="3.70847">
        <ele>65.2</ele>
        <time>2011-01-16T08:50:28Z</time>
      </trkpt>
      <trkpt lat="43.56873" lon="3.70841">
        <ele>65.6</ele>
        <time>2011-01-16T08:50:30Z</time>
      </trkpt>
      <trkpt lat="43.56878" lon="3.70835">
        <ele>66.2</ele>
        <time>2011-01-16T08:50:32Z</time>
      </trkpt>
      <trkpt lat="43.56883" lon="3.7083">
        <ele>66.5</ele>
        <time>2011-01-16T08:50:34Z</time>
      </trkpt>
      <trkpt lat="43.56889" lon="3.70825">
        <ele>66.6</ele>
        <time>2011-01-16T08:50:36Z</time>
      </trkpt>
      <trkpt lat="43.56895" lon="3.7082">
        <ele>66.6</ele>
        <time>2011-01-16T08:50:38Z</time>
      </trkpt>
      <trkpt lat="43.56902" lon="3.70816">
        <ele>67.3</ele>
        <time>2011-01-16T08:50:40Z</time>
      </trkpt>
      <trkpt lat="43.56908" lon="3.70812">
        <ele>67.2</ele>
        <time>2011-01-16T08:50:42Z</time>
      </trkpt>
      <trkpt lat="43.56914" lon="3.70807">
        <ele>66.7</ele>
        <time>2011-01-16T08:50:44Z</time>
      </trkpt>
      <trkpt lat="43.5692" lon="3.70802">
        <ele>66.9</ele>
        <time>2011-01-16T08:50:46Z</time>
      </trkpt>
      <trkpt lat="43.56926" lon="3.70798">
        <ele>67</ele>
        <time>2011-01-16T08:50:48Z</time>
      </trkpt>
      <trkpt lat="43.56932" lon="3.70794">
        <ele>66.5</ele>
        <time>2011-01-16T08:50:50Z</time>
      </trkpt>
      <trkpt lat="43.56939" lon="3.70789">
        <ele>67.3</ele>
        <time>2011-01-16T08:50:53Z</time>
      </trkpt>
      <trkpt lat="43.56947" lon="3.70783">
        <ele>67.2</ele>
        <time>2011-01-16T08:50:58Z</time>
      </trkpt>
      <trkpt lat="43.56953" lon="3.70777">
        <ele>69.1</ele>
        <time>2011-01-16T08:51:19Z</time>
      </trkpt>
      <trkpt lat="43.56955" lon="3.70776">
        <ele>69.1</ele>
        <time>2011-01-16T08:51:20Z</time>
      </trkpt>
      <trkpt lat="43.56967" lon="3.70766">
        <ele>68</ele>
        <time>2011-01-16T08:51:27Z</time>
      </trkpt>
      <trkpt lat="43.56974" lon="3.70758">
        <ele>68.6</ele>
        <time>2011-01-16T08:51:31Z</time>
      </trkpt>
      <trkpt lat="43.56981" lon="3.70751">
        <ele>69.7</ele>
        <time>2011-01-16T08:51:35Z</time>
      </trkpt>
      <trkpt lat="43.56988" lon="3.70743">
        <ele>70.9</ele>
        <time>2011-01-16T08:51:39Z</time>
      </trkpt>
      <trkpt lat="43.56995" lon="3.70735">
        <ele>70.9</ele>
        <time>2011-01-16T08:51:43Z</time>
      </trkpt>
      <trkpt lat="43.57001" lon="3.70728">
        <ele>71.2</ele>
        <time>2011-01-16T08:51:47Z</time>
      </trkpt>
      <trkpt lat="43.57007" lon="3.70721">
        <ele>71.6</ele>
        <time>2011-01-16T08:51:51Z</time>
      </trkpt>
      <trkpt lat="43.57012" lon="3.70713">
        <ele>72.5</ele>
        <time>2011-01-16T08:51:55Z</time>
      </trkpt>
      <trkpt lat="43.57018" lon="3.70706">
        <ele>73.6</ele>
        <time>2011-01-16T08:51:59Z</time>
      </trkpt>
      <trkpt lat="43.57024" lon="3.707">
        <ele>73.8</ele>
        <time>2011-01-16T08:52:03Z</time>
      </trkpt>
      <trkpt lat="43.57031" lon="3.70693">
        <ele>73.3</ele>
        <time>2011-01-16T08:52:07Z</time>
      </trkpt>
      <trkpt lat="43.57038" lon="3.70686">
        <ele>74.2</ele>
        <time>2011-01-16T08:52:11Z</time>
      </trkpt>
      <trkpt lat="43.57045" lon="3.70679">
        <ele>75.4</ele>
        <time>2011-01-16T08:52:16Z</time>
      </trkpt>
      <trkpt lat="43.57052" lon="3.70672">
        <ele>76.1</ele>
        <time>2011-01-16T08:52:22Z</time>
      </trkpt>
      <trkpt lat="43.57055" lon="3.7067">
        <ele>76</ele>
        <time>2011-01-16T08:52:23Z</time>
      </trkpt>
      <trkpt lat="43.57067" lon="3.7066">
        <ele>75.6</ele>
        <time>2011-01-16T08:52:29Z</time>
      </trkpt>
      <trkpt lat="43.57073" lon="3.70654">
        <ele>77.1</ele>
        <time>2011-01-16T08:52:34Z</time>
      </trkpt>
      <trkpt lat="43.5708" lon="3.70648">
        <ele>78.9</ele>
        <time>2011-01-16T08:52:39Z</time>
      </trkpt>
      <trkpt lat="43.57084" lon="3.7064">
        <ele>79.7</ele>
        <time>2011-01-16T08:52:44Z</time>
      </trkpt>
      <trkpt lat="43.57089" lon="3.70632">
        <ele>81.2</ele>
        <time>2011-01-16T08:52:49Z</time>
      </trkpt>
      <trkpt lat="43.57092" lon="3.7062">
        <ele>81.9</ele>
        <time>2011-01-16T08:52:55Z</time>
      </trkpt>
      <trkpt lat="43.57094" lon="3.70609">
        <ele>84.1</ele>
        <time>2011-01-16T08:53:01Z</time>
      </trkpt>
      <trkpt lat="43.57099" lon="3.706">
        <ele>84.7</ele>
        <time>2011-01-16T08:53:36Z</time>
      </trkpt>
      <trkpt lat="43.571" lon="3.70599">
        <ele>84.9</ele>
        <time>2011-01-16T08:53:37Z</time>
      </trkpt>
      <trkpt lat="43.57106" lon="3.70578">
        <ele>86.5</ele>
        <time>2011-01-16T08:53:47Z</time>
      </trkpt>
      <trkpt lat="43.57109" lon="3.70567">
        <ele>89.5</ele>
        <time>2011-01-16T08:54:00Z</time>
      </trkpt>
      <trkpt lat="43.5711" lon="3.70556">
        <ele>90.3</ele>
        <time>2011-01-16T08:54:10Z</time>
      </trkpt>
      <trkpt lat="43.57115" lon="3.70548">
        <ele>91.3</ele>
        <time>2011-01-16T08:54:15Z</time>
      </trkpt>
      <trkpt lat="43.57119" lon="3.70538">
        <ele>92.8</ele>
        <time>2011-01-16T08:54:20Z</time>
      </trkpt>
      <trkpt lat="43.57121" lon="3.70527">
        <ele>94</ele>
        <time>2011-01-16T08:54:25Z</time>
      </trkpt>
      <trkpt lat="43.57125" lon="3.70516">
        <ele>95.2</ele>
        <time>2011-01-16T08:54:30Z</time>
      </trkpt>
      <trkpt lat="43.57128" lon="3.70505">
        <ele>96.7</ele>
        <time>2011-01-16T08:54:36Z</time>
      </trkpt>
      <trkpt lat="43.57131" lon="3.70493">
        <ele>97.2</ele>
        <time>2011-01-16T08:54:42Z</time>
      </trkpt>
      <trkpt lat="43.57132" lon="3.70491">
        <ele>97.4</ele>
        <time>2011-01-16T08:54:43Z</time>
      </trkpt>
      <trkpt lat="43.57137" lon="3.70472">
        <ele>101.8</ele>
        <time>2011-01-16T08:54:58Z</time>
      </trkpt>
      <trkpt lat="43.57142" lon="3.70463">
        <ele>102.9</ele>
        <time>2011-01-16T08:55:08Z</time>
      </trkpt>
      <trkpt lat="43.57142" lon="3.70451">
        <ele>104.7</ele>
        <time>2011-01-16T08:55:13Z</time>
      </trkpt>
      <trkpt lat="43.5714" lon="3.7044">
        <ele>105.9</ele>
        <time>2011-01-16T08:55:18Z</time>
      </trkpt>
      <trkpt lat="43.57136" lon="3.70431">
        <ele>107</ele>
        <time>2011-01-16T08:55:23Z</time>
      </trkpt>
      <trkpt lat="43.57129" lon="3.70424">
        <ele>107</ele>
        <time>2011-01-16T08:57:29Z</time>
      </trkpt>
      <trkpt lat="43.57129" lon="3.70424">
        <ele>106.9</ele>
        <time>2011-01-16T08:57:30Z</time>
      </trkpt>
      <trkpt lat="43.57121" lon="3.70405">
        <ele>107.4</ele>
        <time>2011-01-16T08:58:00Z</time>
      </trkpt>
      <trkpt lat="43.57118" lon="3.70397">
        <ele>107.4</ele>
        <time>2011-01-16T08:58:02Z</time>
      </trkpt>
      <trkpt lat="43.57114" lon="3.70389">
        <ele>106.8</ele>
        <time>2011-01-16T08:58:04Z</time>
      </trkpt>
      <trkpt lat="43.57111" lon="3.70385">
        <ele>106.4</ele>
        <time>2011-01-16T08:58:05Z</time>
      </trkpt>
      <trkpt lat="43.57108" lon="3.70379">
        <ele>106.1</ele>
        <time>2011-01-16T08:58:06Z</time>
      </trkpt>
      <trkpt lat="43.57105" lon="3.70373">
        <ele>105.6</ele>
        <time>2011-01-16T08:58:07Z</time>
      </trkpt>
      <trkpt lat="43.57101" lon="3.70367">
        <ele>105.2</ele>
        <time>2011-01-16T08:58:08Z</time>
      </trkpt>
      <trkpt lat="43.57096" lon="3.7036">
        <ele>104.9</ele>
        <time>2011-01-16T08:58:09Z</time>
      </trkpt>
      <trkpt lat="43.57092" lon="3.70352">
        <ele>104.7</ele>
        <time>2011-01-16T08:58:10Z</time>
      </trkpt>
      <trkpt lat="43.57087" lon="3.70343">
        <ele>104.1</ele>
        <time>2011-01-16T08:58:11Z</time>
      </trkpt>
      <trkpt lat="43.57082" lon="3.70335">
        <ele>103.6</ele>
        <time>2011-01-16T08:58:12Z</time>
      </trkpt>
      <trkpt lat="43.57076" lon="3.70326">
        <ele>103.2</ele>
        <time>2011-01-16T08:58:13Z</time>
      </trkpt>
      <trkpt lat="43.57071" lon="3.70318">
        <ele>102</ele>
        <time>2011-01-16T08:58:14Z</time>
      </trkpt>
      <trkpt lat="43.57065" lon="3.70308">
        <ele>101.1</ele>
        <time>2011-01-16T08:58:15Z</time>
      </trkpt>
      <trkpt lat="43.57059" lon="3.70298">
        <ele>100.4</ele>
        <time>2011-01-16T08:58:16Z</time>
      </trkpt>
      <trkpt lat="43.57055" lon="3.70291">
        <ele>98.3</ele>
        <time>2011-01-16T08:58:17Z</time>
      </trkpt>
      <trkpt lat="43.57051" lon="3.70285">
        <ele>96.7</ele>
        <time>2011-01-16T08:58:18Z</time>
      </trkpt>
      <trkpt lat="43.57047" lon="3.70275">
        <ele>94.2</ele>
        <time>2011-01-16T08:58:20Z</time>
      </trkpt>
      <trkpt lat="43.57041" lon="3.70267">
        <ele>92.4</ele>
        <time>2011-01-16T08:58:22Z</time>
      </trkpt>
      <trkpt lat="43.57036" lon="3.70258">
        <ele>91.7</ele>
        <time>2011-01-16T08:58:24Z</time>
      </trkpt>
      <trkpt lat="43.57033" lon="3.70251">
        <ele>91.2</ele>
        <time>2011-01-16T08:58:26Z</time>
      </trkpt>
      <trkpt lat="43.57028" lon="3.70242">
        <ele>91.1</ele>
        <time>2011-01-16T08:58:29Z</time>
      </trkpt>
      <trkpt lat="43.57022" lon="3.70233">
        <ele>92.6</ele>
        <time>2011-01-16T08:58:33Z</time>
      </trkpt>
      <trkpt lat="43.5702" lon="3.70231">
        <ele>93.1</ele>
        <time>2011-01-16T08:58:34Z</time>
      </trkpt>
      <trkpt lat="43.57008" lon="3.7022">
        <ele>96.7</ele>
        <time>2011-01-16T08:58:42Z</time>
      </trkpt>
      <trkpt lat="43.57004" lon="3.70212">
        <ele>98.6</ele>
        <time>2011-01-16T08:58:47Z</time>
      </trkpt>
      <trkpt lat="43.57001" lon="3.70202">
        <ele>99.3</ele>
        <time>2011-01-16T08:58:51Z</time>
      </trkpt>
      <trkpt lat="43.56999" lon="3.70191">
        <ele>101.2</ele>
        <time>2011-01-16T08:58:56Z</time>
      </trkpt>
      <trkpt lat="43.56997" lon="3.70181">
        <ele>102.5</ele>
        <time>2011-01-16T08:59:00Z</time>
      </trkpt>
      <trkpt lat="43.56993" lon="3.7017">
        <ele>103.1</ele>
        <time>2011-01-16T08:59:05Z</time>
      </trkpt>
      <trkpt lat="43.56988" lon="3.70161">
        <ele>103.9</ele>
        <time>2011-01-16T08:59:10Z</time>
      </trkpt>
      <trkpt lat="43.56983" lon="3.70152">
        <ele>103.9</ele>
        <time>2011-01-16T08:59:15Z</time>
      </trkpt>
      <trkpt lat="43.56978" lon="3.70143">
        <ele>104.2</ele>
        <time>2011-01-16T08:59:19Z</time>
      </trkpt>
      <trkpt lat="43.56971" lon="3.70138">
        <ele>104.8</ele>
        <time>2011-01-16T08:59:23Z</time>
      </trkpt>
      <trkpt lat="43.56964" lon="3.70133">
        <ele>106.7</ele>
        <time>2011-01-16T08:59:27Z</time>
      </trkpt>
      <trkpt lat="43.56959" lon="3.70123">
        <ele>106.3</ele>
        <time>2011-01-16T08:59:31Z</time>
      </trkpt>
      <trkpt lat="43.56957" lon="3.70113">
        <ele>106.2</ele>
        <time>2011-01-16T08:59:34Z</time>
      </trkpt>
      <trkpt lat="43.56957" lon="3.70109">
        <ele>106.4</ele>
        <time>2011-01-16T08:59:35Z</time>
      </trkpt>
      <trkpt lat="43.56954" lon="3.70092">
        <ele>106.5</ele>
        <time>2011-01-16T08:59:39Z</time>
      </trkpt>
      <trkpt lat="43.56951" lon="3.70083">
        <ele>105.8</ele>
        <time>2011-01-16T08:59:41Z</time>
      </trkpt>
      <trkpt lat="43.5695" lon="3.70077">
        <ele>105.5</ele>
        <time>2011-01-16T08:59:42Z</time>
      </trkpt>
      <trkpt lat="43.56948" lon="3.70071">
        <ele>104.9</ele>
        <time>2011-01-16T08:59:43Z</time>
      </trkpt>
      <trkpt lat="43.56946" lon="3.70064">
        <ele>104.4</ele>
        <time>2011-01-16T08:59:44Z</time>
      </trkpt>
      <trkpt lat="43.56945" lon="3.70056">
        <ele>104.1</ele>
        <time>2011-01-16T08:59:45Z</time>
      </trkpt>
      <trkpt lat="43.56944" lon="3.70049">
        <ele>103.4</ele>
        <time>2011-01-16T08:59:46Z</time>
      </trkpt>
      <trkpt lat="43.56944" lon="3.70041">
        <ele>102.9</ele>
        <time>2011-01-16T08:59:47Z</time>
      </trkpt>
      <trkpt lat="43.56944" lon="3.70032">
        <ele>102.6</ele>
        <time>2011-01-16T08:59:48Z</time>
      </trkpt>
      <trkpt lat="43.56944" lon="3.70023">
        <ele>102.3</ele>
        <time>2011-01-16T08:59:49Z</time>
      </trkpt>
      <trkpt lat="43.56944" lon="3.70015">
        <ele>101.7</ele>
        <time>2011-01-16T08:59:50Z</time>
      </trkpt>
      <trkpt lat="43.56945" lon="3.70006">
        <ele>101.2</ele>
        <time>2011-01-16T08:59:51Z</time>
      </trkpt>
      <trkpt lat="43.56946" lon="3.69997">
        <ele>100.8</ele>
        <time>2011-01-16T08:59:52Z</time>
      </trkpt>
      <trkpt lat="43.56946" lon="3.69989">
        <ele>100.4</ele>
        <time>2011-01-16T08:59:53Z</time>
      </trkpt>
      <trkpt lat="43.56945" lon="3.69981">
        <ele>100.1</ele>
        <time>2011-01-16T08:59:54Z</time>
      </trkpt>
      <trkpt lat="43.56945" lon="3.69973">
        <ele>99.8</ele>
        <time>2011-01-16T08:59:55Z</time>
      </trkpt>
      <trkpt lat="43.56945" lon="3.69965">
        <ele>99.4</ele>
        <time>2011-01-16T08:59:56Z</time>
      </trkpt>
      <trkpt lat="43.56945" lon="3.69958">
        <ele>99.1</ele>
        <time>2011-01-16T08:59:57Z</time>
      </trkpt>
      <trkpt lat="43.56945" lon="3.69951">
        <ele>98.9</ele>
        <time>2011-01-16T08:59:58Z</time>
      </trkpt>
      <trkpt lat="43.56944" lon="3.6994">
        <ele>99</ele>
        <time>2011-01-16T09:00:00Z</time>
      </trkpt>
      <trkpt lat="43.56941" lon="3.69932">
        <ele>99.3</ele>
        <time>2011-01-16T09:00:02Z</time>
      </trkpt>
      <trkpt lat="43.56939" lon="3.69921">
        <ele>99.6</ele>
        <time>2011-01-16T09:00:05Z</time>
      </trkpt>
      <trkpt lat="43.56941" lon="3.6991">
        <ele>100.1</ele>
        <time>2011-01-16T09:00:08Z</time>
      </trkpt>
      <trkpt lat="43.56945" lon="3.69899">
        <ele>100.7</ele>
        <time>2011-01-16T09:00:11Z</time>
      </trkpt>
      <trkpt lat="43.56949" lon="3.69888">
        <ele>100.1</ele>
        <time>2011-01-16T09:00:14Z</time>
      </trkpt>
      <trkpt lat="43.56951" lon="3.6988">
        <ele>100.3</ele>
        <time>2011-01-16T09:00:16Z</time>
      </trkpt>
      <trkpt lat="43.56953" lon="3.69872">
        <ele>100.3</ele>
        <time>2011-01-16T09:00:18Z</time>
      </trkpt>
      <trkpt lat="43.56954" lon="3.69864">
        <ele>100.2</ele>
        <time>2011-01-16T09:00:20Z</time>
      </trkpt>
      <trkpt lat="43.56954" lon="3.69855">
        <ele>100.7</ele>
        <time>2011-01-16T09:00:22Z</time>
      </trkpt>
      <trkpt lat="43.56954" lon="3.69846">
        <ele>101</ele>
        <time>2011-01-16T09:00:24Z</time>
      </trkpt>
      <trkpt lat="43.56955" lon="3.69837">
        <ele>100.9</ele>
        <time>2011-01-16T09:00:26Z</time>
      </trkpt>
      <trkpt lat="43.56956" lon="3.69828">
        <ele>101.1</ele>
        <time>2011-01-16T09:00:28Z</time>
      </trkpt>
      <trkpt lat="43.56958" lon="3.6982">
        <ele>101.4</ele>
        <time>2011-01-16T09:00:30Z</time>
      </trkpt>
      <trkpt lat="43.5696" lon="3.69812">
        <ele>101.5</ele>
        <time>2011-01-16T09:00:32Z</time>
      </trkpt>
      <trkpt lat="43.56962" lon="3.69803">
        <ele>101.7</ele>
        <time>2011-01-16T09:00:34Z</time>
      </trkpt>
      <trkpt lat="43.56963" lon="3.69791">
        <ele>101.9</ele>
        <time>2011-01-16T09:00:37Z</time>
      </trkpt>
      <trkpt lat="43.56964" lon="3.69788">
        <ele>101.8</ele>
        <time>2011-01-16T09:00:38Z</time>
      </trkpt>
      <trkpt lat="43.56968" lon="3.69769">
        <ele>102.1</ele>
        <time>2011-01-16T09:00:43Z</time>
      </trkpt>
      <trkpt lat="43.5697" lon="3.69758">
        <ele>102.1</ele>
        <time>2011-01-16T09:00:46Z</time>
      </trkpt>
      <trkpt lat="43.56972" lon="3.69746">
        <ele>102.6</ele>
        <time>2011-01-16T09:00:49Z</time>
      </trkpt>
      <trkpt lat="43.56975" lon="3.69734">
        <ele>102.7</ele>
        <time>2011-01-16T09:00:52Z</time>
      </trkpt>
      <trkpt lat="43.56976" lon="3.69726">
        <ele>103.3</ele>
        <time>2011-01-16T09:00:54Z</time>
      </trkpt>
      <trkpt lat="43.56976" lon="3.69716">
        <ele>103.6</ele>
        <time>2011-01-16T09:00:56Z</time>
      </trkpt>
      <trkpt lat="43.56977" lon="3.69706">
        <ele>103.6</ele>
        <time>2011-01-16T09:00:58Z</time>
      </trkpt>
      <trkpt lat="43.5698" lon="3.69696">
        <ele>103.4</ele>
        <time>2011-01-16T09:01:00Z</time>
      </trkpt>
      <trkpt lat="43.56983" lon="3.69686">
        <ele>103.3</ele>
        <time>2011-01-16T09:01:02Z</time>
      </trkpt>
      <trkpt lat="43.56986" lon="3.69676">
        <ele>103</ele>
        <time>2011-01-16T09:01:04Z</time>
      </trkpt>
      <trkpt lat="43.56988" lon="3.69666">
        <ele>102.8</ele>
        <time>2011-01-16T09:01:06Z</time>
      </trkpt>
      <trkpt lat="43.56988" lon="3.69656">
        <ele>102.7</ele>
        <time>2011-01-16T09:01:08Z</time>
      </trkpt>
      <trkpt lat="43.5699" lon="3.69646">
        <ele>102.8</ele>
        <time>2011-01-16T09:01:10Z</time>
      </trkpt>
      <trkpt lat="43.5699" lon="3.69637">
        <ele>103.1</ele>
        <time>2011-01-16T09:01:12Z</time>
      </trkpt>
      <trkpt lat="43.5699" lon="3.69628">
        <ele>103.5</ele>
        <time>2011-01-16T09:01:14Z</time>
      </trkpt>
      <trkpt lat="43.56989" lon="3.69619">
        <ele>103.5</ele>
        <time>2011-01-16T09:01:16Z</time>
      </trkpt>
      <trkpt lat="43.56986" lon="3.69608">
        <ele>104.1</ele>
        <time>2011-01-16T09:01:23Z</time>
      </trkpt>
      <trkpt lat="43.56985" lon="3.69596">
        <ele>104.1</ele>
        <time>2011-01-16T09:01:27Z</time>
      </trkpt>
      <trkpt lat="43.56984" lon="3.69586">
        <ele>105</ele>
        <time>2011-01-16T09:01:30Z</time>
      </trkpt>
      <trkpt lat="43.56991" lon="3.69578">
        <ele>105.1</ele>
        <time>2011-01-16T09:01:36Z</time>
      </trkpt>
      <trkpt lat="43.56997" lon="3.69582">
        <ele>104.9</ele>
        <time>2011-01-16T09:01:38Z</time>
      </trkpt>
      <trkpt lat="43.5699" lon="3.69577">
        <ele>105.8</ele>
        <time>2011-01-16T09:01:53Z</time>
      </trkpt>
      <trkpt lat="43.56987" lon="3.69576">
        <ele>105.7</ele>
        <time>2011-01-16T09:01:54Z</time>
      </trkpt>
      <trkpt lat="43.56977" lon="3.69565">
        <ele>105.7</ele>
        <time>2011-01-16T09:01:59Z</time>
      </trkpt>
      <trkpt lat="43.56971" lon="3.69559">
        <ele>106.6</ele>
        <time>2011-01-16T09:02:02Z</time>
      </trkpt>
      <trkpt lat="43.56964" lon="3.69553">
        <ele>107.3</ele>
        <time>2011-01-16T09:02:06Z</time>
      </trkpt>
      <trkpt lat="43.56964" lon="3.69542">
        <ele>108</ele>
        <time>2011-01-16T09:02:10Z</time>
      </trkpt>
      <trkpt lat="43.56967" lon="3.69531">
        <ele>108.4</ele>
        <time>2011-01-16T09:02:14Z</time>
      </trkpt>
      <trkpt lat="43.56968" lon="3.69521">
        <ele>109.7</ele>
        <time>2011-01-16T09:02:18Z</time>
      </trkpt>
      <trkpt lat="43.56967" lon="3.69511">
        <ele>109</ele>
        <time>2011-01-16T09:02:22Z</time>
      </trkpt>
      <trkpt lat="43.5697" lon="3.695">
        <ele>110.3</ele>
        <time>2011-01-16T09:02:27Z</time>
      </trkpt>
      <trkpt lat="43.56973" lon="3.69488">
        <ele>112.8</ele>
        <time>2011-01-16T09:03:05Z</time>
      </trkpt>
      <trkpt lat="43.56974" lon="3.69488">
        <ele>112.6</ele>
        <time>2011-01-16T09:03:06Z</time>
      </trkpt>
      <trkpt lat="43.56988" lon="3.69478">
        <ele>112.1</ele>
        <time>2011-01-16T09:03:25Z</time>
      </trkpt>
      <trkpt lat="43.56993" lon="3.69469">
        <ele>111.8</ele>
        <time>2011-01-16T09:05:18Z</time>
      </trkpt>
      <trkpt lat="43.56995" lon="3.69466">
        <ele>111.8</ele>
        <time>2011-01-16T09:05:19Z</time>
      </trkpt>
      <trkpt lat="43.57004" lon="3.69453">
        <ele>111.8</ele>
        <time>2011-01-16T09:05:23Z</time>
      </trkpt>
      <trkpt lat="43.57011" lon="3.69446">
        <ele>111</ele>
        <time>2011-01-16T09:05:25Z</time>
      </trkpt>
      <trkpt lat="43.57017" lon="3.6944">
        <ele>110.3</ele>
        <time>2011-01-16T09:05:27Z</time>
      </trkpt>
      <trkpt lat="43.57023" lon="3.69433">
        <ele>109.8</ele>
        <time>2011-01-16T09:05:29Z</time>
      </trkpt>
      <trkpt lat="43.5703" lon="3.69427">
        <ele>110</ele>
        <time>2011-01-16T09:05:31Z</time>
      </trkpt>
      <trkpt lat="43.57036" lon="3.69421">
        <ele>109.9</ele>
        <time>2011-01-16T09:05:33Z</time>
      </trkpt>
      <trkpt lat="43.57041" lon="3.69415">
        <ele>109.7</ele>
        <time>2011-01-16T09:05:35Z</time>
      </trkpt>
      <trkpt lat="43.57048" lon="3.69409">
        <ele>109.8</ele>
        <time>2011-01-16T09:05:37Z</time>
      </trkpt>
      <trkpt lat="43.57056" lon="3.69406">
        <ele>109.8</ele>
        <time>2011-01-16T09:05:39Z</time>
      </trkpt>
      <trkpt lat="43.57063" lon="3.69405">
        <ele>110.1</ele>
        <time>2011-01-16T09:05:41Z</time>
      </trkpt>
      <trkpt lat="43.57071" lon="3.69404">
        <ele>110</ele>
        <time>2011-01-16T09:05:43Z</time>
      </trkpt>
      <trkpt lat="43.57078" lon="3.694">
        <ele>109.8</ele>
        <time>2011-01-16T09:05:45Z</time>
      </trkpt>
      <trkpt lat="43.57083" lon="3.69394">
        <ele>110.3</ele>
        <time>2011-01-16T09:05:47Z</time>
      </trkpt>
      <trkpt lat="43.57088" lon="3.69387">
        <ele>110.6</ele>
        <time>2011-01-16T09:05:49Z</time>
      </trkpt>
      <trkpt lat="43.57093" lon="3.69381">
        <ele>110.8</ele>
        <time>2011-01-16T09:05:51Z</time>
      </trkpt>
      <trkpt lat="43.57097" lon="3.69375">
        <ele>110.7</ele>
        <time>2011-01-16T09:05:53Z</time>
      </trkpt>
      <trkpt lat="43.57102" lon="3.69368">
        <ele>110.7</ele>
        <time>2011-01-16T09:05:55Z</time>
      </trkpt>
      <trkpt lat="43.57106" lon="3.69362">
        <ele>110.9</ele>
        <time>2011-01-16T09:05:57Z</time>
      </trkpt>
      <trkpt lat="43.57111" lon="3.69355">
        <ele>111.2</ele>
        <time>2011-01-16T09:05:59Z</time>
      </trkpt>
      <trkpt lat="43.57115" lon="3.69347">
        <ele>111.6</ele>
        <time>2011-01-16T09:06:01Z</time>
      </trkpt>
      <trkpt lat="43.57118" lon="3.6934">
        <ele>111.9</ele>
        <time>2011-01-16T09:06:03Z</time>
      </trkpt>
      <trkpt lat="43.57122" lon="3.69332">
        <ele>111.9</ele>
        <time>2011-01-16T09:06:05Z</time>
      </trkpt>
      <trkpt lat="43.57126" lon="3.69325">
        <ele>111.7</ele>
        <time>2011-01-16T09:06:07Z</time>
      </trkpt>
      <trkpt lat="43.5713" lon="3.69317">
        <ele>111.8</ele>
        <time>2011-01-16T09:06:09Z</time>
      </trkpt>
      <trkpt lat="43.57135" lon="3.69311">
        <ele>112</ele>
        <time>2011-01-16T09:06:11Z</time>
      </trkpt>
      <trkpt lat="43.5714" lon="3.69305">
        <ele>112.2</ele>
        <time>2011-01-16T09:06:13Z</time>
      </trkpt>
      <trkpt lat="43.57146" lon="3.69301">
        <ele>112.5</ele>
        <time>2011-01-16T09:06:15Z</time>
      </trkpt>
      <trkpt lat="43.57153" lon="3.69298">
        <ele>112.7</ele>
        <time>2011-01-16T09:06:17Z</time>
      </trkpt>
      <trkpt lat="43.57161" lon="3.69296">
        <ele>112.7</ele>
        <time>2011-01-16T09:06:19Z</time>
      </trkpt>
      <trkpt lat="43.57164" lon="3.69295">
        <ele>112.6</ele>
        <time>2011-01-16T09:06:20Z</time>
      </trkpt>
      <trkpt lat="43.57174" lon="3.69288">
        <ele>112.3</ele>
        <time>2011-01-16T09:06:23Z</time>
      </trkpt>
      <trkpt lat="43.5718" lon="3.69283">
        <ele>112.2</ele>
        <time>2011-01-16T09:06:25Z</time>
      </trkpt>
      <trkpt lat="43.57186" lon="3.69279">
        <ele>112.3</ele>
        <time>2011-01-16T09:06:27Z</time>
      </trkpt>
      <trkpt lat="43.57192" lon="3.69273">
        <ele>112.5</ele>
        <time>2011-01-16T09:06:29Z</time>
      </trkpt>
      <trkpt lat="43.57197" lon="3.69265">
        <ele>112.9</ele>
        <time>2011-01-16T09:06:31Z</time>
      </trkpt>
      <trkpt lat="43.57202" lon="3.69257">
        <ele>113.1</ele>
        <time>2011-01-16T09:06:33Z</time>
      </trkpt>
      <trkpt lat="43.57205" lon="3.69248">
        <ele>113.3</ele>
        <time>2011-01-16T09:06:35Z</time>
      </trkpt>
      <trkpt lat="43.57209" lon="3.69239">
        <ele>114</ele>
        <time>2011-01-16T09:06:37Z</time>
      </trkpt>
      <trkpt lat="43.57214" lon="3.69232">
        <ele>114.7</ele>
        <time>2011-01-16T09:06:39Z</time>
      </trkpt>
      <trkpt lat="43.57218" lon="3.69226">
        <ele>114.6</ele>
        <time>2011-01-16T09:06:41Z</time>
      </trkpt>
      <trkpt lat="43.57222" lon="3.6922">
        <ele>114.9</ele>
        <time>2011-01-16T09:06:43Z</time>
      </trkpt>
      <trkpt lat="43.57227" lon="3.69214">
        <ele>115.4</ele>
        <time>2011-01-16T09:06:45Z</time>
      </trkpt>
      <trkpt lat="43.57232" lon="3.69208">
        <ele>115.7</ele>
        <time>2011-01-16T09:06:47Z</time>
      </trkpt>
      <trkpt lat="43.57237" lon="3.69203">
        <ele>116.3</ele>
        <time>2011-01-16T09:06:49Z</time>
      </trkpt>
      <trkpt lat="43.57242" lon="3.69198">
        <ele>116.9</ele>
        <time>2011-01-16T09:06:51Z</time>
      </trkpt>
      <trkpt lat="43.5725" lon="3.69192">
        <ele>118</ele>
        <time>2011-01-16T09:06:54Z</time>
      </trkpt>
      <trkpt lat="43.57257" lon="3.69186">
        <ele>118.8</ele>
        <time>2011-01-16T09:06:57Z</time>
      </trkpt>
      <trkpt lat="43.57264" lon="3.69181">
        <ele>119.5</ele>
        <time>2011-01-16T09:07:00Z</time>
      </trkpt>
      <trkpt lat="43.57271" lon="3.69178">
        <ele>120.4</ele>
        <time>2011-01-16T09:07:03Z</time>
      </trkpt>
      <trkpt lat="43.5728" lon="3.69175">
        <ele>121.7</ele>
        <time>2011-01-16T09:07:07Z</time>
      </trkpt>
      <trkpt lat="43.57286" lon="3.69172">
        <ele>122.6</ele>
        <time>2011-01-16T09:07:10Z</time>
      </trkpt>
      <trkpt lat="43.57292" lon="3.69167">
        <ele>123</ele>
        <time>2011-01-16T09:07:13Z</time>
      </trkpt>
      <trkpt lat="43.573" lon="3.69162">
        <ele>124.6</ele>
        <time>2011-01-16T09:07:17Z</time>
      </trkpt>
      <trkpt lat="43.57308" lon="3.69158">
        <ele>126</ele>
        <time>2011-01-16T09:07:21Z</time>
      </trkpt>
      <trkpt lat="43.57309" lon="3.69157">
        <ele>126.4</ele>
        <time>2011-01-16T09:07:22Z</time>
      </trkpt>
      <trkpt lat="43.57322" lon="3.69149">
        <ele>127.7</ele>
        <time>2011-01-16T09:07:29Z</time>
      </trkpt>
      <trkpt lat="43.57328" lon="3.69142">
        <ele>128.8</ele>
        <time>2011-01-16T09:07:33Z</time>
      </trkpt>
      <trkpt lat="43.57334" lon="3.69136">
        <ele>128.8</ele>
        <time>2011-01-16T09:07:36Z</time>
      </trkpt>
      <trkpt lat="43.57339" lon="3.6913">
        <ele>129.1</ele>
        <time>2011-01-16T09:07:39Z</time>
      </trkpt>
      <trkpt lat="43.57345" lon="3.69125">
        <ele>129.9</ele>
        <time>2011-01-16T09:07:42Z</time>
      </trkpt>
      <trkpt lat="43.57352" lon="3.69117">
        <ele>130.8</ele>
        <time>2011-01-16T09:07:46Z</time>
      </trkpt>
      <trkpt lat="43.57357" lon="3.6911">
        <ele>131.1</ele>
        <time>2011-01-16T09:07:49Z</time>
      </trkpt>
      <trkpt lat="43.57363" lon="3.69103">
        <ele>131.5</ele>
        <time>2011-01-16T09:07:52Z</time>
      </trkpt>
      <trkpt lat="43.57368" lon="3.69094">
        <ele>131.6</ele>
        <time>2011-01-16T09:07:55Z</time>
      </trkpt>
      <trkpt lat="43.57375" lon="3.69086">
        <ele>131.9</ele>
        <time>2011-01-16T09:07:58Z</time>
      </trkpt>
      <trkpt lat="43.57382" lon="3.6908">
        <ele>132.1</ele>
        <time>2011-01-16T09:08:01Z</time>
      </trkpt>
      <trkpt lat="43.57387" lon="3.69075">
        <ele>132.5</ele>
        <time>2011-01-16T09:08:03Z</time>
      </trkpt>
      <trkpt lat="43.57392" lon="3.69071">
        <ele>132.7</ele>
        <time>2011-01-16T09:08:05Z</time>
      </trkpt>
      <trkpt lat="43.57398" lon="3.69067">
        <ele>132.3</ele>
        <time>2011-01-16T09:08:07Z</time>
      </trkpt>
      <trkpt lat="43.57403" lon="3.69063">
        <ele>132.3</ele>
        <time>2011-01-16T09:08:09Z</time>
      </trkpt>
      <trkpt lat="43.57408" lon="3.69058">
        <ele>132.5</ele>
        <time>2011-01-16T09:08:11Z</time>
      </trkpt>
      <trkpt lat="43.57414" lon="3.69053">
        <ele>133.1</ele>
        <time>2011-01-16T09:08:13Z</time>
      </trkpt>
      <trkpt lat="43.57419" lon="3.69048">
        <ele>133.4</ele>
        <time>2011-01-16T09:08:15Z</time>
      </trkpt>
      <trkpt lat="43.57424" lon="3.69043">
        <ele>133.5</ele>
        <time>2011-01-16T09:08:17Z</time>
      </trkpt>
      <trkpt lat="43.57429" lon="3.69038">
        <ele>134.1</ele>
        <time>2011-01-16T09:08:19Z</time>
      </trkpt>
      <trkpt lat="43.57434" lon="3.69033">
        <ele>134.5</ele>
        <time>2011-01-16T09:08:21Z</time>
      </trkpt>
      <trkpt lat="43.5744" lon="3.69028">
        <ele>134.6</ele>
        <time>2011-01-16T09:08:23Z</time>
      </trkpt>
      <trkpt lat="43.57443" lon="3.69026">
        <ele>134.6</ele>
        <time>2011-01-16T09:08:24Z</time>
      </trkpt>
      <trkpt lat="43.57451" lon="3.69019">
        <ele>134.6</ele>
        <time>2011-01-16T09:08:27Z</time>
      </trkpt>
      <trkpt lat="43.57457" lon="3.69016">
        <ele>135.1</ele>
        <time>2011-01-16T09:08:29Z</time>
      </trkpt>
      <trkpt lat="43.57463" lon="3.69013">
        <ele>135.2</ele>
        <time>2011-01-16T09:08:31Z</time>
      </trkpt>
      <trkpt lat="43.57471" lon="3.69011">
        <ele>135.2</ele>
        <time>2011-01-16T09:08:33Z</time>
      </trkpt>
      <trkpt lat="43.57478" lon="3.69008">
        <ele>134.6</ele>
        <time>2011-01-16T09:08:35Z</time>
      </trkpt>
      <trkpt lat="43.57485" lon="3.69006">
        <ele>134.7</ele>
        <time>2011-01-16T09:08:37Z</time>
      </trkpt>
      <trkpt lat="43.57492" lon="3.69003">
        <ele>135.1</ele>
        <time>2011-01-16T09:08:39Z</time>
      </trkpt>
      <trkpt lat="43.57498" lon="3.68996">
        <ele>135.9</ele>
        <time>2011-01-16T09:08:42Z</time>
      </trkpt>
      <trkpt lat="43.57497" lon="3.68984">
        <ele>135.5</ele>
        <time>2011-01-16T09:09:09Z</time>
      </trkpt>
      <trkpt lat="43.57497" lon="3.68971">
        <ele>135.4</ele>
        <time>2011-01-16T09:10:05Z</time>
      </trkpt>
      <trkpt lat="43.57497" lon="3.68969">
        <ele>135.3</ele>
        <time>2011-01-16T09:10:06Z</time>
      </trkpt>
      <trkpt lat="43.57497" lon="3.68951">
        <ele>135</ele>
        <time>2011-01-16T09:10:11Z</time>
      </trkpt>
      <trkpt lat="43.57496" lon="3.68942">
        <ele>135.2</ele>
        <time>2011-01-16T09:10:13Z</time>
      </trkpt>
      <trkpt lat="43.57495" lon="3.68932">
        <ele>135.6</ele>
        <time>2011-01-16T09:10:15Z</time>
      </trkpt>
      <trkpt lat="43.57495" lon="3.68921">
        <ele>135.3</ele>
        <time>2011-01-16T09:10:17Z</time>
      </trkpt>
      <trkpt lat="43.57494" lon="3.68909">
        <ele>135.2</ele>
        <time>2011-01-16T09:10:19Z</time>
      </trkpt>
      <trkpt lat="43.57494" lon="3.68901">
        <ele>135.1</ele>
        <time>2011-01-16T09:10:20Z</time>
      </trkpt>
      <trkpt lat="43.57494" lon="3.68894">
        <ele>135</ele>
        <time>2011-01-16T09:10:21Z</time>
      </trkpt>
      <trkpt lat="43.57494" lon="3.68887">
        <ele>134</ele>
        <time>2011-01-16T09:10:22Z</time>
      </trkpt>
      <trkpt lat="43.57494" lon="3.6888">
        <ele>133.2</ele>
        <time>2011-01-16T09:10:23Z</time>
      </trkpt>
      <trkpt lat="43.57494" lon="3.68868">
        <ele>132.1</ele>
        <time>2011-01-16T09:10:25Z</time>
      </trkpt>
      <trkpt lat="43.57492" lon="3.68859">
        <ele>131.3</ele>
        <time>2011-01-16T09:10:27Z</time>
      </trkpt>
      <trkpt lat="43.57489" lon="3.68849">
        <ele>129.7</ele>
        <time>2011-01-16T09:10:29Z</time>
      </trkpt>
      <trkpt lat="43.57486" lon="3.68838">
        <ele>127.8</ele>
        <time>2011-01-16T09:10:31Z</time>
      </trkpt>
      <trkpt lat="43.57485" lon="3.68826">
        <ele>126.8</ele>
        <time>2011-01-16T09:10:33Z</time>
      </trkpt>
      <trkpt lat="43.57485" lon="3.68814">
        <ele>126.3</ele>
        <time>2011-01-16T09:10:35Z</time>
      </trkpt>
      <trkpt lat="43.57484" lon="3.68805">
        <ele>126</ele>
        <time>2011-01-16T09:10:37Z</time>
      </trkpt>
      <trkpt lat="43.57483" lon="3.68794">
        <ele>127.1</ele>
        <time>2011-01-16T09:10:40Z</time>
      </trkpt>
      <trkpt lat="43.57482" lon="3.68784">
        <ele>128.5</ele>
        <time>2011-01-16T09:10:43Z</time>
      </trkpt>
      <trkpt lat="43.57481" lon="3.68774">
        <ele>129</ele>
        <time>2011-01-16T09:10:46Z</time>
      </trkpt>
      <trkpt lat="43.57481" lon="3.68764">
        <ele>130.3</ele>
        <time>2011-01-16T09:10:50Z</time>
      </trkpt>
      <trkpt lat="43.57483" lon="3.68753">
        <ele>131.9</ele>
        <time>2011-01-16T09:11:14Z</time>
      </trkpt>
      <trkpt lat="43.57483" lon="3.6875">
        <ele>131.8</ele>
        <time>2011-01-16T09:11:15Z</time>
      </trkpt>
      <trkpt lat="43.57483" lon="3.68732">
        <ele>133.5</ele>
        <time>2011-01-16T09:11:22Z</time>
      </trkpt>
      <trkpt lat="43.57484" lon="3.6872">
        <ele>133.8</ele>
        <time>2011-01-16T09:11:27Z</time>
      </trkpt>
      <trkpt lat="43.57483" lon="3.6871">
        <ele>135.6</ele>
        <time>2011-01-16T09:11:35Z</time>
      </trkpt>
      <trkpt lat="43.57483" lon="3.68698">
        <ele>136.2</ele>
        <time>2011-01-16T09:11:39Z</time>
      </trkpt>
      <trkpt lat="43.57481" lon="3.68687">
        <ele>136.3</ele>
        <time>2011-01-16T09:11:43Z</time>
      </trkpt>
      <trkpt lat="43.5748" lon="3.68676">
        <ele>137.5</ele>
        <time>2011-01-16T09:11:48Z</time>
      </trkpt>
      <trkpt lat="43.57478" lon="3.68665">
        <ele>139.7</ele>
        <time>2011-01-16T09:11:53Z</time>
      </trkpt>
      <trkpt lat="43.57478" lon="3.68654">
        <ele>140.6</ele>
        <time>2011-01-16T09:11:57Z</time>
      </trkpt>
      <trkpt lat="43.57481" lon="3.68644">
        <ele>141.6</ele>
        <time>2011-01-16T09:12:01Z</time>
      </trkpt>
      <trkpt lat="43.57484" lon="3.68635">
        <ele>142.3</ele>
        <time>2011-01-16T09:12:05Z</time>
      </trkpt>
      <trkpt lat="43.57489" lon="3.68627">
        <ele>142.6</ele>
        <time>2011-01-16T09:12:09Z</time>
      </trkpt>
      <trkpt lat="43.57495" lon="3.6862">
        <ele>143.1</ele>
        <time>2011-01-16T09:12:12Z</time>
      </trkpt>
      <trkpt lat="43.57499" lon="3.6861">
        <ele>143.1</ele>
        <time>2011-01-16T09:12:15Z</time>
      </trkpt>
      <trkpt lat="43.57503" lon="3.68601">
        <ele>143.1</ele>
        <time>2011-01-16T09:12:18Z</time>
      </trkpt>
      <trkpt lat="43.57504" lon="3.68599">
        <ele>143.1</ele>
        <time>2011-01-16T09:12:19Z</time>
      </trkpt>
      <trkpt lat="43.57509" lon="3.6858">
        <ele>143.5</ele>
        <time>2011-01-16T09:12:26Z</time>
      </trkpt>
      <trkpt lat="43.57512" lon="3.6857">
        <ele>144.1</ele>
        <time>2011-01-16T09:12:30Z</time>
      </trkpt>
      <trkpt lat="43.57515" lon="3.6856">
        <ele>144.2</ele>
        <time>2011-01-16T09:12:34Z</time>
      </trkpt>
      <trkpt lat="43.57516" lon="3.68549">
        <ele>144.5</ele>
        <time>2011-01-16T09:12:38Z</time>
      </trkpt>
      <trkpt lat="43.57517" lon="3.68537">
        <ele>144.8</ele>
        <time>2011-01-16T09:12:42Z</time>
      </trkpt>
      <trkpt lat="43.57517" lon="3.68528">
        <ele>144.9</ele>
        <time>2011-01-16T09:12:45Z</time>
      </trkpt>
      <trkpt lat="43.57516" lon="3.68517">
        <ele>145.2</ele>
        <time>2011-01-16T09:12:48Z</time>
      </trkpt>
      <trkpt lat="43.57513" lon="3.68506">
        <ele>144.2</ele>
        <time>2011-01-16T09:12:51Z</time>
      </trkpt>
      <trkpt lat="43.57508" lon="3.68496">
        <ele>144.8</ele>
        <time>2011-01-16T09:12:54Z</time>
      </trkpt>
      <trkpt lat="43.57505" lon="3.68489">
        <ele>144.5</ele>
        <time>2011-01-16T09:12:56Z</time>
      </trkpt>
      <trkpt lat="43.575" lon="3.68479">
        <ele>144.6</ele>
        <time>2011-01-16T09:12:59Z</time>
      </trkpt>
      <trkpt lat="43.57497" lon="3.68468">
        <ele>144.6</ele>
        <time>2011-01-16T09:13:02Z</time>
      </trkpt>
      <trkpt lat="43.57493" lon="3.68461">
        <ele>144.6</ele>
        <time>2011-01-16T09:13:04Z</time>
      </trkpt>
      <trkpt lat="43.5749" lon="3.68454">
        <ele>144.7</ele>
        <time>2011-01-16T09:13:06Z</time>
      </trkpt>
      <trkpt lat="43.57486" lon="3.68447">
        <ele>144.3</ele>
        <time>2011-01-16T09:13:08Z</time>
      </trkpt>
      <trkpt lat="43.57483" lon="3.68438">
        <ele>143.8</ele>
        <time>2011-01-16T09:13:10Z</time>
      </trkpt>
      <trkpt lat="43.57481" lon="3.68428">
        <ele>143.7</ele>
        <time>2011-01-16T09:13:12Z</time>
      </trkpt>
      <trkpt lat="43.57479" lon="3.68417">
        <ele>143.1</ele>
        <time>2011-01-16T09:13:14Z</time>
      </trkpt>
      <trkpt lat="43.57479" lon="3.68404">
        <ele>142.4</ele>
        <time>2011-01-16T09:13:16Z</time>
      </trkpt>
      <trkpt lat="43.5748" lon="3.68398">
        <ele>142.2</ele>
        <time>2011-01-16T09:13:17Z</time>
      </trkpt>
      <trkpt lat="43.57481" lon="3.68391">
        <ele>142.1</ele>
        <time>2011-01-16T09:13:18Z</time>
      </trkpt>
      <trkpt lat="43.57482" lon="3.68384">
        <ele>142</ele>
        <time>2011-01-16T09:13:19Z</time>
      </trkpt>
      <trkpt lat="43.57483" lon="3.68377">
        <ele>141.9</ele>
        <time>2011-01-16T09:13:20Z</time>
      </trkpt>
      <trkpt lat="43.57482" lon="3.6837">
        <ele>141.3</ele>
        <time>2011-01-16T09:13:21Z</time>
      </trkpt>
      <trkpt lat="43.5748" lon="3.68364">
        <ele>140.9</ele>
        <time>2011-01-16T09:13:22Z</time>
      </trkpt>
      <trkpt lat="43.57476" lon="3.68355">
        <ele>140.6</ele>
        <time>2011-01-16T09:13:24Z</time>
      </trkpt>
      <trkpt lat="43.57469" lon="3.68348">
        <ele>140.7</ele>
        <time>2011-01-16T09:13:26Z</time>
      </trkpt>
      <trkpt lat="43.57463" lon="3.6834">
        <ele>140.9</ele>
        <time>2011-01-16T09:13:28Z</time>
      </trkpt>
      <trkpt lat="43.57457" lon="3.68333">
        <ele>140.9</ele>
        <time>2011-01-16T09:13:30Z</time>
      </trkpt>
      <trkpt lat="43.57451" lon="3.68325">
        <ele>140.9</ele>
        <time>2011-01-16T09:13:32Z</time>
      </trkpt>
      <trkpt lat="43.57445" lon="3.68316">
        <ele>141.4</ele>
        <time>2011-01-16T09:13:34Z</time>
      </trkpt>
      <trkpt lat="43.57438" lon="3.68309">
        <ele>141.5</ele>
        <time>2011-01-16T09:13:36Z</time>
      </trkpt>
      <trkpt lat="43.57432" lon="3.68301">
        <ele>141.5</ele>
        <time>2011-01-16T09:13:38Z</time>
      </trkpt>
      <trkpt lat="43.57425" lon="3.68294">
        <ele>141.6</ele>
        <time>2011-01-16T09:13:40Z</time>
      </trkpt>
      <trkpt lat="43.57417" lon="3.68289">
        <ele>141.8</ele>
        <time>2011-01-16T09:13:42Z</time>
      </trkpt>
      <trkpt lat="43.5741" lon="3.68284">
        <ele>141.9</ele>
        <time>2011-01-16T09:13:44Z</time>
      </trkpt>
      <trkpt lat="43.57405" lon="3.68282">
        <ele>142</ele>
        <time>2011-01-16T09:13:45Z</time>
      </trkpt>
      <trkpt lat="43.57401" lon="3.6828">
        <ele>141.9</ele>
        <time>2011-01-16T09:13:46Z</time>
      </trkpt>
      <trkpt lat="43.57396" lon="3.68281">
        <ele>141.9</ele>
        <time>2011-01-16T09:13:47Z</time>
      </trkpt>
      <trkpt lat="43.57387" lon="3.68281">
        <ele>141.5</ele>
        <time>2011-01-16T09:13:49Z</time>
      </trkpt>
      <trkpt lat="43.57379" lon="3.68281">
        <ele>141</ele>
        <time>2011-01-16T09:13:51Z</time>
      </trkpt>
      <trkpt lat="43.57374" lon="3.68279">
        <ele>140.9</ele>
        <time>2011-01-16T09:13:52Z</time>
      </trkpt>
      <trkpt lat="43.5737" lon="3.68275">
        <ele>140.8</ele>
        <time>2011-01-16T09:13:53Z</time>
      </trkpt>
      <trkpt lat="43.57366" lon="3.68271">
        <ele>140.7</ele>
        <time>2011-01-16T09:13:54Z</time>
      </trkpt>
      <trkpt lat="43.57363" lon="3.68268">
        <ele>140.7</ele>
        <time>2011-01-16T09:13:55Z</time>
      </trkpt>
      <trkpt lat="43.57359" lon="3.68264">
        <ele>140.8</ele>
        <time>2011-01-16T09:13:56Z</time>
      </trkpt>
      <trkpt lat="43.57355" lon="3.6826">
        <ele>140.9</ele>
        <time>2011-01-16T09:13:57Z</time>
      </trkpt>
      <trkpt lat="43.57348" lon="3.68253">
        <ele>141.2</ele>
        <time>2011-01-16T09:13:59Z</time>
      </trkpt>
      <trkpt lat="43.57345" lon="3.68249">
        <ele>141.4</ele>
        <time>2011-01-16T09:14:00Z</time>
      </trkpt>
      <trkpt lat="43.5734" lon="3.68246">
        <ele>141.6</ele>
        <time>2011-01-16T09:14:01Z</time>
      </trkpt>
      <trkpt lat="43.57336" lon="3.68244">
        <ele>141.6</ele>
        <time>2011-01-16T09:14:02Z</time>
      </trkpt>
      <trkpt lat="43.57331" lon="3.68243">
        <ele>141.6</ele>
        <time>2011-01-16T09:14:03Z</time>
      </trkpt>
      <trkpt lat="43.57327" lon="3.68241">
        <ele>141.6</ele>
        <time>2011-01-16T09:14:04Z</time>
      </trkpt>
      <trkpt lat="43.57319" lon="3.68234">
        <ele>141.3</ele>
        <time>2011-01-16T09:14:06Z</time>
      </trkpt>
      <trkpt lat="43.57314" lon="3.68226">
        <ele>141.3</ele>
        <time>2011-01-16T09:14:08Z</time>
      </trkpt>
      <trkpt lat="43.57308" lon="3.6822">
        <ele>141.4</ele>
        <time>2011-01-16T09:14:10Z</time>
      </trkpt>
      <trkpt lat="43.573" lon="3.68216">
        <ele>141.3</ele>
        <time>2011-01-16T09:14:12Z</time>
      </trkpt>
      <trkpt lat="43.57291" lon="3.68214">
        <ele>141</ele>
        <time>2011-01-16T09:14:14Z</time>
      </trkpt>
      <trkpt lat="43.57284" lon="3.68209">
        <ele>140.6</ele>
        <time>2011-01-16T09:14:16Z</time>
      </trkpt>
      <trkpt lat="43.57277" lon="3.68203">
        <ele>140.5</ele>
        <time>2011-01-16T09:14:18Z</time>
      </trkpt>
      <trkpt lat="43.57271" lon="3.68197">
        <ele>140.6</ele>
        <time>2011-01-16T09:14:20Z</time>
      </trkpt>
      <trkpt lat="43.57263" lon="3.68192">
        <ele>140.8</ele>
        <time>2011-01-16T09:14:22Z</time>
      </trkpt>
      <trkpt lat="43.5726" lon="3.68189">
        <ele>140.9</ele>
        <time>2011-01-16T09:14:23Z</time>
      </trkpt>
      <trkpt lat="43.57249" lon="3.68182">
        <ele>140.6</ele>
        <time>2011-01-16T09:14:26Z</time>
      </trkpt>
      <trkpt lat="43.57242" lon="3.68178">
        <ele>140.6</ele>
        <time>2011-01-16T09:14:28Z</time>
      </trkpt>
      <trkpt lat="43.57234" lon="3.68177">
        <ele>140.5</ele>
        <time>2011-01-16T09:14:30Z</time>
      </trkpt>
      <trkpt lat="43.57225" lon="3.68176">
        <ele>141.6</ele>
        <time>2011-01-16T09:14:34Z</time>
      </trkpt>
      <trkpt lat="43.57218" lon="3.68176">
        <ele>141.6</ele>
        <time>2011-01-16T09:14:42Z</time>
      </trkpt>
      <trkpt lat="43.57209" lon="3.68179">
        <ele>141.1</ele>
        <time>2011-01-16T09:14:46Z</time>
      </trkpt>
      <trkpt lat="43.57204" lon="3.68183">
        <ele>141.4</ele>
        <time>2011-01-16T09:14:48Z</time>
      </trkpt>
      <trkpt lat="43.57198" lon="3.68192">
        <ele>141</ele>
        <time>2011-01-16T09:14:51Z</time>
      </trkpt>
      <trkpt lat="43.57192" lon="3.68199">
        <ele>140.5</ele>
        <time>2011-01-16T09:14:54Z</time>
      </trkpt>
      <trkpt lat="43.57183" lon="3.68198">
        <ele>140.4</ele>
        <time>2011-01-16T09:14:57Z</time>
      </trkpt>
      <trkpt lat="43.57177" lon="3.68197">
        <ele>140.1</ele>
        <time>2011-01-16T09:14:59Z</time>
      </trkpt>
      <trkpt lat="43.57171" lon="3.68194">
        <ele>139.6</ele>
        <time>2011-01-16T09:15:01Z</time>
      </trkpt>
      <trkpt lat="43.57166" lon="3.68187">
        <ele>139.9</ele>
        <time>2011-01-16T09:15:03Z</time>
      </trkpt>
      <trkpt lat="43.57161" lon="3.6818">
        <ele>140.4</ele>
        <time>2011-01-16T09:15:05Z</time>
      </trkpt>
      <trkpt lat="43.57156" lon="3.68174">
        <ele>140.5</ele>
        <time>2011-01-16T09:15:07Z</time>
      </trkpt>
      <trkpt lat="43.5715" lon="3.68169">
        <ele>141</ele>
        <time>2011-01-16T09:15:09Z</time>
      </trkpt>
      <trkpt lat="43.57143" lon="3.68166">
        <ele>141.6</ele>
        <time>2011-01-16T09:15:11Z</time>
      </trkpt>
      <trkpt lat="43.57136" lon="3.68166">
        <ele>140.9</ele>
        <time>2011-01-16T09:15:13Z</time>
      </trkpt>
      <trkpt lat="43.57129" lon="3.68166">
        <ele>140.4</ele>
        <time>2011-01-16T09:15:15Z</time>
      </trkpt>
      <trkpt lat="43.57122" lon="3.68164">
        <ele>140.1</ele>
        <time>2011-01-16T09:15:17Z</time>
      </trkpt>
      <trkpt lat="43.57116" lon="3.68162">
        <ele>139.8</ele>
        <time>2011-01-16T09:15:19Z</time>
      </trkpt>
      <trkpt lat="43.57109" lon="3.68157">
        <ele>139.6</ele>
        <time>2011-01-16T09:15:21Z</time>
      </trkpt>
      <trkpt lat="43.57103" lon="3.68153">
        <ele>139.5</ele>
        <time>2011-01-16T09:15:23Z</time>
      </trkpt>
      <trkpt lat="43.571" lon="3.6815">
        <ele>139.4</ele>
        <time>2011-01-16T09:15:24Z</time>
      </trkpt>
      <trkpt lat="43.57089" lon="3.68146">
        <ele>140</ele>
        <time>2011-01-16T09:15:28Z</time>
      </trkpt>
      <trkpt lat="43.57081" lon="3.68146">
        <ele>140.1</ele>
        <time>2011-01-16T09:15:31Z</time>
      </trkpt>
      <trkpt lat="43.57073" lon="3.68143">
        <ele>140.3</ele>
        <time>2011-01-16T09:15:34Z</time>
      </trkpt>
      <trkpt lat="43.57065" lon="3.68139">
        <ele>141.3</ele>
        <time>2011-01-16T09:15:37Z</time>
      </trkpt>
      <trkpt lat="43.57056" lon="3.68136">
        <ele>141.9</ele>
        <time>2011-01-16T09:15:40Z</time>
      </trkpt>
      <trkpt lat="43.57049" lon="3.6813">
        <ele>143</ele>
        <time>2011-01-16T09:15:43Z</time>
      </trkpt>
      <trkpt lat="43.57041" lon="3.68126">
        <ele>143.2</ele>
        <time>2011-01-16T09:15:46Z</time>
      </trkpt>
      <trkpt lat="43.57033" lon="3.68123">
        <ele>144</ele>
        <time>2011-01-16T09:15:49Z</time>
      </trkpt>
      <trkpt lat="43.57025" lon="3.6812">
        <ele>144.3</ele>
        <time>2011-01-16T09:15:52Z</time>
      </trkpt>
      <trkpt lat="43.57017" lon="3.68118">
        <ele>144.8</ele>
        <time>2011-01-16T09:15:55Z</time>
      </trkpt>
      <trkpt lat="43.57008" lon="3.68122">
        <ele>145.3</ele>
        <time>2011-01-16T09:15:58Z</time>
      </trkpt>
      <trkpt lat="43.57004" lon="3.68128">
        <ele>145.8</ele>
        <time>2011-01-16T09:16:00Z</time>
      </trkpt>
      <trkpt lat="43.56997" lon="3.68136">
        <ele>146.9</ele>
        <time>2011-01-16T09:16:03Z</time>
      </trkpt>
      <trkpt lat="43.56992" lon="3.6814">
        <ele>147.6</ele>
        <time>2011-01-16T09:16:05Z</time>
      </trkpt>
      <trkpt lat="43.56983" lon="3.68142">
        <ele>148</ele>
        <time>2011-01-16T09:16:08Z</time>
      </trkpt>
      <trkpt lat="43.56974" lon="3.68139">
        <ele>148.1</ele>
        <time>2011-01-16T09:16:11Z</time>
      </trkpt>
      <trkpt lat="43.56966" lon="3.68135">
        <ele>148.8</ele>
        <time>2011-01-16T09:16:14Z</time>
      </trkpt>
      <trkpt lat="43.56961" lon="3.68132">
        <ele>149.2</ele>
        <time>2011-01-16T09:16:16Z</time>
      </trkpt>
      <trkpt lat="43.56955" lon="3.68129">
        <ele>149.4</ele>
        <time>2011-01-16T09:16:18Z</time>
      </trkpt>
      <trkpt lat="43.56949" lon="3.68126">
        <ele>149.3</ele>
        <time>2011-01-16T09:16:20Z</time>
      </trkpt>
      <trkpt lat="43.56943" lon="3.68122">
        <ele>149.5</ele>
        <time>2011-01-16T09:16:22Z</time>
      </trkpt>
      <trkpt lat="43.56937" lon="3.68119">
        <ele>149.8</ele>
        <time>2011-01-16T09:16:24Z</time>
      </trkpt>
      <trkpt lat="43.56931" lon="3.68116">
        <ele>149.9</ele>
        <time>2011-01-16T09:16:26Z</time>
      </trkpt>
      <trkpt lat="43.56928" lon="3.68114">
        <ele>150</ele>
        <time>2011-01-16T09:16:27Z</time>
      </trkpt>
      <trkpt lat="43.56918" lon="3.68108">
        <ele>150.1</ele>
        <time>2011-01-16T09:16:30Z</time>
      </trkpt>
      <trkpt lat="43.5691" lon="3.68105">
        <ele>150.4</ele>
        <time>2011-01-16T09:16:32Z</time>
      </trkpt>
      <trkpt lat="43.56904" lon="3.68101">
        <ele>150.8</ele>
        <time>2011-01-16T09:16:34Z</time>
      </trkpt>
      <trkpt lat="43.56897" lon="3.68098">
        <ele>150.1</ele>
        <time>2011-01-16T09:16:36Z</time>
      </trkpt>
      <trkpt lat="43.56891" lon="3.68094">
        <ele>150.1</ele>
        <time>2011-01-16T09:16:38Z</time>
      </trkpt>
      <trkpt lat="43.56886" lon="3.68087">
        <ele>150.4</ele>
        <time>2011-01-16T09:16:40Z</time>
      </trkpt>
      <trkpt lat="43.56883" lon="3.6808">
        <ele>150.2</ele>
        <time>2011-01-16T09:16:42Z</time>
      </trkpt>
      <trkpt lat="43.56879" lon="3.68072">
        <ele>149.8</ele>
        <time>2011-01-16T09:16:44Z</time>
      </trkpt>
      <trkpt lat="43.56875" lon="3.68064">
        <ele>149.6</ele>
        <time>2011-01-16T09:16:46Z</time>
      </trkpt>
      <trkpt lat="43.56872" lon="3.68055">
        <ele>149.3</ele>
        <time>2011-01-16T09:16:48Z</time>
      </trkpt>
      <trkpt lat="43.5687" lon="3.68046">
        <ele>149.1</ele>
        <time>2011-01-16T09:16:50Z</time>
      </trkpt>
      <trkpt lat="43.56868" lon="3.68037">
        <ele>149.1</ele>
        <time>2011-01-16T09:16:52Z</time>
      </trkpt>
      <trkpt lat="43.56866" lon="3.68025">
        <ele>148.5</ele>
        <time>2011-01-16T09:16:55Z</time>
      </trkpt>
      <trkpt lat="43.56866" lon="3.68016">
        <ele>148.6</ele>
        <time>2011-01-16T09:16:58Z</time>
      </trkpt>
      <trkpt lat="43.56869" lon="3.68005">
        <ele>148.9</ele>
        <time>2011-01-16T09:17:02Z</time>
      </trkpt>
      <trkpt lat="43.56872" lon="3.67997">
        <ele>149.5</ele>
        <time>2011-01-16T09:17:05Z</time>
      </trkpt>
      <trkpt lat="43.56877" lon="3.67988">
        <ele>149.7</ele>
        <time>2011-01-16T09:17:08Z</time>
      </trkpt>
      <trkpt lat="43.5688" lon="3.67981">
        <ele>149.9</ele>
        <time>2011-01-16T09:17:10Z</time>
      </trkpt>
      <trkpt lat="43.56885" lon="3.67974">
        <ele>150.2</ele>
        <time>2011-01-16T09:17:12Z</time>
      </trkpt>
      <trkpt lat="43.56889" lon="3.67966">
        <ele>150.2</ele>
        <time>2011-01-16T09:17:14Z</time>
      </trkpt>
      <trkpt lat="43.56893" lon="3.67959">
        <ele>150.3</ele>
        <time>2011-01-16T09:17:16Z</time>
      </trkpt>
      <trkpt lat="43.56897" lon="3.67951">
        <ele>149.7</ele>
        <time>2011-01-16T09:17:18Z</time>
      </trkpt>
      <trkpt lat="43.56902" lon="3.67944">
        <ele>149.7</ele>
        <time>2011-01-16T09:17:20Z</time>
      </trkpt>
      <trkpt lat="43.56906" lon="3.67937">
        <ele>149.8</ele>
        <time>2011-01-16T09:17:22Z</time>
      </trkpt>
      <trkpt lat="43.56911" lon="3.6793">
        <ele>149.3</ele>
        <time>2011-01-16T09:17:24Z</time>
      </trkpt>
      <trkpt lat="43.56915" lon="3.67921">
        <ele>149.3</ele>
        <time>2011-01-16T09:17:26Z</time>
      </trkpt>
      <trkpt lat="43.5692" lon="3.67914">
        <ele>149.4</ele>
        <time>2011-01-16T09:17:28Z</time>
      </trkpt>
      <trkpt lat="43.56922" lon="3.6791">
        <ele>149.3</ele>
        <time>2011-01-16T09:17:29Z</time>
      </trkpt>
      <trkpt lat="43.56929" lon="3.67898">
        <ele>149.4</ele>
        <time>2011-01-16T09:17:33Z</time>
      </trkpt>
      <trkpt lat="43.56937" lon="3.67894">
        <ele>151</ele>
        <time>2011-01-16T09:19:27Z</time>
      </trkpt>
      <trkpt lat="43.56939" lon="3.67893">
        <ele>150.9</ele>
        <time>2011-01-16T09:19:28Z</time>
      </trkpt>
      <trkpt lat="43.5695" lon="3.67884">
        <ele>150.8</ele>
        <time>2011-01-16T09:19:33Z</time>
      </trkpt>
      <trkpt lat="43.56954" lon="3.67878">
        <ele>150.9</ele>
        <time>2011-01-16T09:19:35Z</time>
      </trkpt>
      <trkpt lat="43.56958" lon="3.67872">
        <ele>150.9</ele>
        <time>2011-01-16T09:19:37Z</time>
      </trkpt>
      <trkpt lat="43.56961" lon="3.67864">
        <ele>150.7</ele>
        <time>2011-01-16T09:19:39Z</time>
      </trkpt>
      <trkpt lat="43.56963" lon="3.67854">
        <ele>150.5</ele>
        <time>2011-01-16T09:19:41Z</time>
      </trkpt>
      <trkpt lat="43.56965" lon="3.67843">
        <ele>150.2</ele>
        <time>2011-01-16T09:19:43Z</time>
      </trkpt>
      <trkpt lat="43.56966" lon="3.67837">
        <ele>150.1</ele>
        <time>2011-01-16T09:19:44Z</time>
      </trkpt>
      <trkpt lat="43.56966" lon="3.67831">
        <ele>150</ele>
        <time>2011-01-16T09:19:45Z</time>
      </trkpt>
      <trkpt lat="43.56967" lon="3.67824">
        <ele>149.6</ele>
        <time>2011-01-16T09:19:46Z</time>
      </trkpt>
      <trkpt lat="43.56968" lon="3.67817">
        <ele>149.4</ele>
        <time>2011-01-16T09:19:47Z</time>
      </trkpt>
      <trkpt lat="43.5697" lon="3.6781">
        <ele>149.2</ele>
        <time>2011-01-16T09:19:48Z</time>
      </trkpt>
      <trkpt lat="43.56973" lon="3.67803">
        <ele>148.6</ele>
        <time>2011-01-16T09:19:49Z</time>
      </trkpt>
      <trkpt lat="43.56976" lon="3.67797">
        <ele>148.1</ele>
        <time>2011-01-16T09:19:50Z</time>
      </trkpt>
      <trkpt lat="43.56979" lon="3.67791">
        <ele>147.8</ele>
        <time>2011-01-16T09:19:51Z</time>
      </trkpt>
      <trkpt lat="43.56982" lon="3.67785">
        <ele>147.5</ele>
        <time>2011-01-16T09:19:52Z</time>
      </trkpt>
      <trkpt lat="43.56982" lon="3.67777">
        <ele>147.3</ele>
        <time>2011-01-16T09:19:53Z</time>
      </trkpt>
      <trkpt lat="43.56981" lon="3.6777">
        <ele>147.1</ele>
        <time>2011-01-16T09:19:54Z</time>
      </trkpt>
      <trkpt lat="43.56979" lon="3.67764">
        <ele>146.6</ele>
        <time>2011-01-16T09:19:55Z</time>
      </trkpt>
      <trkpt lat="43.56977" lon="3.67757">
        <ele>146.2</ele>
        <time>2011-01-16T09:19:56Z</time>
      </trkpt>
      <trkpt lat="43.56976" lon="3.6775">
        <ele>145.8</ele>
        <time>2011-01-16T09:19:57Z</time>
      </trkpt>
      <trkpt lat="43.56975" lon="3.67743">
        <ele>145.7</ele>
        <time>2011-01-16T09:19:58Z</time>
      </trkpt>
      <trkpt lat="43.56974" lon="3.67736">
        <ele>145.7</ele>
        <time>2011-01-16T09:19:59Z</time>
      </trkpt>
      <trkpt lat="43.56975" lon="3.67729">
        <ele>145.6</ele>
        <time>2011-01-16T09:20:00Z</time>
      </trkpt>
      <trkpt lat="43.56976" lon="3.67722">
        <ele>145.6</ele>
        <time>2011-01-16T09:20:01Z</time>
      </trkpt>
      <trkpt lat="43.56978" lon="3.67716">
        <ele>145</ele>
        <time>2011-01-16T09:20:02Z</time>
      </trkpt>
      <trkpt lat="43.56982" lon="3.6771">
        <ele>144.6</ele>
        <time>2011-01-16T09:20:03Z</time>
      </trkpt>
      <trkpt lat="43.56985" lon="3.67704">
        <ele>144.2</ele>
        <time>2011-01-16T09:20:04Z</time>
      </trkpt>
      <trkpt lat="43.56987" lon="3.67698">
        <ele>144.6</ele>
        <time>2011-01-16T09:20:05Z</time>
      </trkpt>
      <trkpt lat="43.56989" lon="3.67692">
        <ele>144.8</ele>
        <time>2011-01-16T09:20:06Z</time>
      </trkpt>
      <trkpt lat="43.56992" lon="3.67687">
        <ele>145</ele>
        <time>2011-01-16T09:20:07Z</time>
      </trkpt>
      <trkpt lat="43.56995" lon="3.67682">
        <ele>144.9</ele>
        <time>2011-01-16T09:20:08Z</time>
      </trkpt>
      <trkpt lat="43.56998" lon="3.67677">
        <ele>144.9</ele>
        <time>2011-01-16T09:20:09Z</time>
      </trkpt>
      <trkpt lat="43.57004" lon="3.67669">
        <ele>144.9</ele>
        <time>2011-01-16T09:20:11Z</time>
      </trkpt>
      <trkpt lat="43.57011" lon="3.67662">
        <ele>145</ele>
        <time>2011-01-16T09:20:13Z</time>
      </trkpt>
      <trkpt lat="43.57016" lon="3.67654">
        <ele>145.4</ele>
        <time>2011-01-16T09:20:15Z</time>
      </trkpt>
      <trkpt lat="43.57021" lon="3.67646">
        <ele>145.5</ele>
        <time>2011-01-16T09:20:17Z</time>
      </trkpt>
      <trkpt lat="43.57025" lon="3.67637">
        <ele>145.5</ele>
        <time>2011-01-16T09:20:19Z</time>
      </trkpt>
      <trkpt lat="43.57029" lon="3.67629">
        <ele>145.7</ele>
        <time>2011-01-16T09:20:21Z</time>
      </trkpt>
      <trkpt lat="43.57029" lon="3.6762">
        <ele>145.9</ele>
        <time>2011-01-16T09:20:23Z</time>
      </trkpt>
      <trkpt lat="43.5703" lon="3.67611">
        <ele>146.1</ele>
        <time>2011-01-16T09:20:25Z</time>
      </trkpt>
      <trkpt lat="43.57031" lon="3.67603">
        <ele>146.6</ele>
        <time>2011-01-16T09:20:27Z</time>
      </trkpt>
      <trkpt lat="43.57033" lon="3.67591">
        <ele>147</ele>
        <time>2011-01-16T09:20:30Z</time>
      </trkpt>
      <trkpt lat="43.57032" lon="3.67588">
        <ele>146.9</ele>
        <time>2011-01-16T09:20:31Z</time>
      </trkpt>
      <trkpt lat="43.57029" lon="3.67568">
        <ele>147.1</ele>
        <time>2011-01-16T09:20:36Z</time>
      </trkpt>
      <trkpt lat="43.57028" lon="3.6756">
        <ele>147.5</ele>
        <time>2011-01-16T09:20:38Z</time>
      </trkpt>
      <trkpt lat="43.57027" lon="3.67551">
        <ele>147.3</ele>
        <time>2011-01-16T09:20:40Z</time>
      </trkpt>
      <trkpt lat="43.57027" lon="3.67542">
        <ele>146.9</ele>
        <time>2011-01-16T09:20:42Z</time>
      </trkpt>
      <trkpt lat="43.57027" lon="3.67533">
        <ele>147.6</ele>
        <time>2011-01-16T09:20:44Z</time>
      </trkpt>
      <trkpt lat="43.57027" lon="3.67524">
        <ele>147.8</ele>
        <time>2011-01-16T09:20:46Z</time>
      </trkpt>
      <trkpt lat="43.57026" lon="3.67515">
        <ele>147.7</ele>
        <time>2011-01-16T09:20:48Z</time>
      </trkpt>
      <trkpt lat="43.57025" lon="3.67506">
        <ele>148.2</ele>
        <time>2011-01-16T09:20:50Z</time>
      </trkpt>
      <trkpt lat="43.57025" lon="3.67496">
        <ele>148.5</ele>
        <time>2011-01-16T09:20:52Z</time>
      </trkpt>
      <trkpt lat="43.57024" lon="3.67487">
        <ele>148.7</ele>
        <time>2011-01-16T09:20:54Z</time>
      </trkpt>
      <trkpt lat="43.57025" lon="3.67476">
        <ele>148.6</ele>
        <time>2011-01-16T09:20:57Z</time>
      </trkpt>
      <trkpt lat="43.57027" lon="3.67467">
        <ele>148.5</ele>
        <time>2011-01-16T09:20:59Z</time>
      </trkpt>
      <trkpt lat="43.57028" lon="3.67458">
        <ele>148.5</ele>
        <time>2011-01-16T09:21:01Z</time>
      </trkpt>
      <trkpt lat="43.57028" lon="3.67449">
        <ele>148.8</ele>
        <time>2011-01-16T09:21:03Z</time>
      </trkpt>
      <trkpt lat="43.57027" lon="3.67439">
        <ele>148.5</ele>
        <time>2011-01-16T09:21:05Z</time>
      </trkpt>
      <trkpt lat="43.57025" lon="3.67428">
        <ele>148</ele>
        <time>2011-01-16T09:21:07Z</time>
      </trkpt>
      <trkpt lat="43.57023" lon="3.67418">
        <ele>147.6</ele>
        <time>2011-01-16T09:21:09Z</time>
      </trkpt>
      <trkpt lat="43.5702" lon="3.67407">
        <ele>147.4</ele>
        <time>2011-01-16T09:21:11Z</time>
      </trkpt>
      <trkpt lat="43.57018" lon="3.67397">
        <ele>147.5</ele>
        <time>2011-01-16T09:21:13Z</time>
      </trkpt>
      <trkpt lat="43.57017" lon="3.67386">
        <ele>147.8</ele>
        <time>2011-01-16T09:21:15Z</time>
      </trkpt>
      <trkpt lat="43.57019" lon="3.67375">
        <ele>148.2</ele>
        <time>2011-01-16T09:21:18Z</time>
      </trkpt>
      <trkpt lat="43.5701" lon="3.67371">
        <ele>148.8</ele>
        <time>2011-01-16T09:21:38Z</time>
      </trkpt>
      <trkpt lat="43.57009" lon="3.67369">
        <ele>149</ele>
        <time>2011-01-16T09:21:39Z</time>
      </trkpt>
      <trkpt lat="43.57003" lon="3.67357">
        <ele>148.4</ele>
        <time>2011-01-16T09:21:42Z</time>
      </trkpt>
      <trkpt lat="43.56999" lon="3.67349">
        <ele>148.5</ele>
        <time>2011-01-16T09:21:44Z</time>
      </trkpt>
      <trkpt lat="43.56994" lon="3.67343">
        <ele>148.9</ele>
        <time>2011-01-16T09:21:46Z</time>
      </trkpt>
      <trkpt lat="43.56986" lon="3.67336">
        <ele>148.5</ele>
        <time>2011-01-16T09:21:49Z</time>
      </trkpt>
      <trkpt lat="43.56981" lon="3.67329">
        <ele>149.2</ele>
        <time>2011-01-16T09:21:51Z</time>
      </trkpt>
      <trkpt lat="43.56975" lon="3.67323">
        <ele>149</ele>
        <time>2011-01-16T09:21:53Z</time>
      </trkpt>
      <trkpt lat="43.56968" lon="3.67317">
        <ele>148.5</ele>
        <time>2011-01-16T09:21:55Z</time>
      </trkpt>
      <trkpt lat="43.56961" lon="3.67311">
        <ele>147.9</ele>
        <time>2011-01-16T09:21:57Z</time>
      </trkpt>
      <trkpt lat="43.56954" lon="3.67305">
        <ele>147.6</ele>
        <time>2011-01-16T09:21:59Z</time>
      </trkpt>
      <trkpt lat="43.56948" lon="3.67298">
        <ele>148.2</ele>
        <time>2011-01-16T09:22:01Z</time>
      </trkpt>
      <trkpt lat="43.56944" lon="3.67289">
        <ele>148.7</ele>
        <time>2011-01-16T09:22:03Z</time>
      </trkpt>
      <trkpt lat="43.56942" lon="3.6728">
        <ele>149</ele>
        <time>2011-01-16T09:22:05Z</time>
      </trkpt>
      <trkpt lat="43.56939" lon="3.67269">
        <ele>148.9</ele>
        <time>2011-01-16T09:22:08Z</time>
      </trkpt>
      <trkpt lat="43.56935" lon="3.67262">
        <ele>149.1</ele>
        <time>2011-01-16T09:22:10Z</time>
      </trkpt>
      <trkpt lat="43.56932" lon="3.67254">
        <ele>149.6</ele>
        <time>2011-01-16T09:22:12Z</time>
      </trkpt>
      <trkpt lat="43.56928" lon="3.67246">
        <ele>150.2</ele>
        <time>2011-01-16T09:22:14Z</time>
      </trkpt>
      <trkpt lat="43.56924" lon="3.6724">
        <ele>150.2</ele>
        <time>2011-01-16T09:22:16Z</time>
      </trkpt>
      <trkpt lat="43.56919" lon="3.67234">
        <ele>150.1</ele>
        <time>2011-01-16T09:22:18Z</time>
      </trkpt>
      <trkpt lat="43.56914" lon="3.67228">
        <ele>150</ele>
        <time>2011-01-16T09:22:20Z</time>
      </trkpt>
      <trkpt lat="43.56909" lon="3.67222">
        <ele>149.8</ele>
        <time>2011-01-16T09:22:22Z</time>
      </trkpt>
      <trkpt lat="43.56904" lon="3.67216">
        <ele>149.7</ele>
        <time>2011-01-16T09:22:24Z</time>
      </trkpt>
      <trkpt lat="43.56899" lon="3.6721">
        <ele>149.7</ele>
        <time>2011-01-16T09:22:26Z</time>
      </trkpt>
      <trkpt lat="43.56895" lon="3.67202">
        <ele>149.3</ele>
        <time>2011-01-16T09:22:28Z</time>
      </trkpt>
      <trkpt lat="43.56893" lon="3.67194">
        <ele>148.8</ele>
        <time>2011-01-16T09:22:30Z</time>
      </trkpt>
      <trkpt lat="43.56892" lon="3.67185">
        <ele>148.7</ele>
        <time>2011-01-16T09:22:32Z</time>
      </trkpt>
      <trkpt lat="43.56891" lon="3.67176">
        <ele>148.7</ele>
        <time>2011-01-16T09:22:34Z</time>
      </trkpt>
      <trkpt lat="43.56889" lon="3.67168">
        <ele>148.8</ele>
        <time>2011-01-16T09:22:36Z</time>
      </trkpt>
      <trkpt lat="43.56886" lon="3.6716">
        <ele>148.9</ele>
        <time>2011-01-16T09:22:38Z</time>
      </trkpt>
      <trkpt lat="43.56883" lon="3.67152">
        <ele>149.1</ele>
        <time>2011-01-16T09:22:40Z</time>
      </trkpt>
      <trkpt lat="43.56882" lon="3.67148">
        <ele>149.5</ele>
        <time>2011-01-16T09:22:41Z</time>
      </trkpt>
      <trkpt lat="43.56876" lon="3.67135">
        <ele>149.7</ele>
        <time>2011-01-16T09:22:45Z</time>
      </trkpt>
      <trkpt lat="43.56874" lon="3.67128">
        <ele>149.3</ele>
        <time>2011-01-16T09:22:47Z</time>
      </trkpt>
      <trkpt lat="43.5687" lon="3.6712">
        <ele>148.8</ele>
        <time>2011-01-16T09:22:49Z</time>
      </trkpt>
      <trkpt lat="43.56866" lon="3.67112">
        <ele>148.7</ele>
        <time>2011-01-16T09:22:51Z</time>
      </trkpt>
      <trkpt lat="43.56861" lon="3.67105">
        <ele>148.7</ele>
        <time>2011-01-16T09:22:53Z</time>
      </trkpt>
      <trkpt lat="43.56857" lon="3.67097">
        <ele>148.7</ele>
        <time>2011-01-16T09:22:55Z</time>
      </trkpt>
      <trkpt lat="43.56853" lon="3.6709">
        <ele>148.8</ele>
        <time>2011-01-16T09:22:57Z</time>
      </trkpt>
      <trkpt lat="43.56849" lon="3.67081">
        <ele>148.9</ele>
        <time>2011-01-16T09:22:59Z</time>
      </trkpt>
      <trkpt lat="43.56844" lon="3.67073">
        <ele>149.2</ele>
        <time>2011-01-16T09:23:01Z</time>
      </trkpt>
      <trkpt lat="43.5684" lon="3.67065">
        <ele>148.9</ele>
        <time>2011-01-16T09:23:03Z</time>
      </trkpt>
      <trkpt lat="43.56842" lon="3.67056">
        <ele>148.4</ele>
        <time>2011-01-16T09:23:05Z</time>
      </trkpt>
      <trkpt lat="43.56846" lon="3.67048">
        <ele>148.7</ele>
        <time>2011-01-16T09:23:07Z</time>
      </trkpt>
      <trkpt lat="43.56851" lon="3.6704">
        <ele>149.4</ele>
        <time>2011-01-16T09:23:10Z</time>
      </trkpt>
      <trkpt lat="43.56855" lon="3.67032">
        <ele>150.1</ele>
        <time>2011-01-16T09:23:13Z</time>
      </trkpt>
      <trkpt lat="43.56858" lon="3.67023">
        <ele>151.6</ele>
        <time>2011-01-16T09:23:16Z</time>
      </trkpt>
      <trkpt lat="43.56861" lon="3.67011">
        <ele>153.2</ele>
        <time>2011-01-16T09:23:20Z</time>
      </trkpt>
      <trkpt lat="43.56863" lon="3.67002">
        <ele>153.7</ele>
        <time>2011-01-16T09:23:23Z</time>
      </trkpt>
      <trkpt lat="43.56864" lon="3.66993">
        <ele>154.1</ele>
        <time>2011-01-16T09:23:26Z</time>
      </trkpt>
      <trkpt lat="43.56863" lon="3.66981">
        <ele>155</ele>
        <time>2011-01-16T09:23:30Z</time>
      </trkpt>
      <trkpt lat="43.56863" lon="3.66968">
        <ele>155.6</ele>
        <time>2011-01-16T09:23:34Z</time>
      </trkpt>
      <trkpt lat="43.56862" lon="3.66959">
        <ele>156.6</ele>
        <time>2011-01-16T09:23:37Z</time>
      </trkpt>
      <trkpt lat="43.56861" lon="3.6695">
        <ele>156.8</ele>
        <time>2011-01-16T09:23:40Z</time>
      </trkpt>
      <trkpt lat="43.5686" lon="3.6694">
        <ele>156.9</ele>
        <time>2011-01-16T09:23:43Z</time>
      </trkpt>
      <trkpt lat="43.56859" lon="3.66937">
        <ele>156.9</ele>
        <time>2011-01-16T09:23:44Z</time>
      </trkpt>
      <trkpt lat="43.56857" lon="3.6692">
        <ele>156.8</ele>
        <time>2011-01-16T09:23:49Z</time>
      </trkpt>
      <trkpt lat="43.56855" lon="3.66909">
        <ele>157.4</ele>
        <time>2011-01-16T09:23:52Z</time>
      </trkpt>
      <trkpt lat="43.56853" lon="3.66899">
        <ele>158</ele>
        <time>2011-01-16T09:23:55Z</time>
      </trkpt>
      <trkpt lat="43.56852" lon="3.66887">
        <ele>158.4</ele>
        <time>2011-01-16T09:23:58Z</time>
      </trkpt>
      <trkpt lat="43.56851" lon="3.66876">
        <ele>158.7</ele>
        <time>2011-01-16T09:24:01Z</time>
      </trkpt>
      <trkpt lat="43.5685" lon="3.66864">
        <ele>158.8</ele>
        <time>2011-01-16T09:24:04Z</time>
      </trkpt>
      <trkpt lat="43.56848" lon="3.66852">
        <ele>158.8</ele>
        <time>2011-01-16T09:24:07Z</time>
      </trkpt>
      <trkpt lat="43.56848" lon="3.6684">
        <ele>158.8</ele>
        <time>2011-01-16T09:24:10Z</time>
      </trkpt>
      <trkpt lat="43.56847" lon="3.66829">
        <ele>158.2</ele>
        <time>2011-01-16T09:24:13Z</time>
      </trkpt>
      <trkpt lat="43.56845" lon="3.66817">
        <ele>159.1</ele>
        <time>2011-01-16T09:24:16Z</time>
      </trkpt>
      <trkpt lat="43.56842" lon="3.66806">
        <ele>159.5</ele>
        <time>2011-01-16T09:24:19Z</time>
      </trkpt>
      <trkpt lat="43.56837" lon="3.66797">
        <ele>159.4</ele>
        <time>2011-01-16T09:24:22Z</time>
      </trkpt>
      <trkpt lat="43.56834" lon="3.66789">
        <ele>159.2</ele>
        <time>2011-01-16T09:24:24Z</time>
      </trkpt>
      <trkpt lat="43.56833" lon="3.66781">
        <ele>158.8</ele>
        <time>2011-01-16T09:24:26Z</time>
      </trkpt>
      <trkpt lat="43.56834" lon="3.66771">
        <ele>158.5</ele>
        <time>2011-01-16T09:24:28Z</time>
      </trkpt>
      <trkpt lat="43.56833" lon="3.66761">
        <ele>158.4</ele>
        <time>2011-01-16T09:24:30Z</time>
      </trkpt>
      <trkpt lat="43.56831" lon="3.66751">
        <ele>158.4</ele>
        <time>2011-01-16T09:24:32Z</time>
      </trkpt>
      <trkpt lat="43.56829" lon="3.66742">
        <ele>158.3</ele>
        <time>2011-01-16T09:24:34Z</time>
      </trkpt>
      <trkpt lat="43.56827" lon="3.66732">
        <ele>158.5</ele>
        <time>2011-01-16T09:24:36Z</time>
      </trkpt>
      <trkpt lat="43.56825" lon="3.66722">
        <ele>158.7</ele>
        <time>2011-01-16T09:24:38Z</time>
      </trkpt>
      <trkpt lat="43.56824" lon="3.66711">
        <ele>158.4</ele>
        <time>2011-01-16T09:24:40Z</time>
      </trkpt>
      <trkpt lat="43.56823" lon="3.667">
        <ele>158</ele>
        <time>2011-01-16T09:24:42Z</time>
      </trkpt>
      <trkpt lat="43.56823" lon="3.66689">
        <ele>157.7</ele>
        <time>2011-01-16T09:24:44Z</time>
      </trkpt>
      <trkpt lat="43.56823" lon="3.66684">
        <ele>157.6</ele>
        <time>2011-01-16T09:24:45Z</time>
      </trkpt>
      <trkpt lat="43.56822" lon="3.66667">
        <ele>157.6</ele>
        <time>2011-01-16T09:24:48Z</time>
      </trkpt>
      <trkpt lat="43.56823" lon="3.66657">
        <ele>157.3</ele>
        <time>2011-01-16T09:24:50Z</time>
      </trkpt>
      <trkpt lat="43.56824" lon="3.66648">
        <ele>157</ele>
        <time>2011-01-16T09:24:52Z</time>
      </trkpt>
      <trkpt lat="43.56828" lon="3.66637">
        <ele>156.9</ele>
        <time>2011-01-16T09:24:55Z</time>
      </trkpt>
      <trkpt lat="43.56832" lon="3.66628">
        <ele>157.7</ele>
        <time>2011-01-16T09:24:58Z</time>
      </trkpt>
      <trkpt lat="43.56836" lon="3.66619">
        <ele>158.8</ele>
        <time>2011-01-16T09:25:01Z</time>
      </trkpt>
      <trkpt lat="43.56842" lon="3.6661">
        <ele>159.4</ele>
        <time>2011-01-16T09:25:05Z</time>
      </trkpt>
      <trkpt lat="43.56848" lon="3.66601">
        <ele>159.4</ele>
        <time>2011-01-16T09:25:09Z</time>
      </trkpt>
      <trkpt lat="43.56853" lon="3.66593">
        <ele>161.2</ele>
        <time>2011-01-16T09:25:13Z</time>
      </trkpt>
      <trkpt lat="43.56859" lon="3.66585">
        <ele>162.5</ele>
        <time>2011-01-16T09:25:17Z</time>
      </trkpt>
      <trkpt lat="43.56865" lon="3.66578">
        <ele>162.5</ele>
        <time>2011-01-16T09:25:21Z</time>
      </trkpt>
      <trkpt lat="43.56872" lon="3.66572">
        <ele>164</ele>
        <time>2011-01-16T09:25:25Z</time>
      </trkpt>
      <trkpt lat="43.56878" lon="3.66579">
        <ele>165.6</ele>
        <time>2011-01-16T09:25:30Z</time>
      </trkpt>
      <trkpt lat="43.56877" lon="3.66589">
        <ele>166.1</ele>
        <time>2011-01-16T09:25:34Z</time>
      </trkpt>
      <trkpt lat="43.56875" lon="3.66599">
        <ele>166.6</ele>
        <time>2011-01-16T09:25:38Z</time>
      </trkpt>
      <trkpt lat="43.56875" lon="3.6661">
        <ele>167.7</ele>
        <time>2011-01-16T09:25:42Z</time>
      </trkpt>
      <trkpt lat="43.56876" lon="3.6662">
        <ele>168.1</ele>
        <time>2011-01-16T09:25:46Z</time>
      </trkpt>
      <trkpt lat="43.56877" lon="3.66623">
        <ele>168.3</ele>
        <time>2011-01-16T09:25:47Z</time>
      </trkpt>
      <trkpt lat="43.56881" lon="3.6664">
        <ele>169.7</ele>
        <time>2011-01-16T09:25:54Z</time>
      </trkpt>
      <trkpt lat="43.56885" lon="3.66649">
        <ele>170</ele>
        <time>2011-01-16T09:25:58Z</time>
      </trkpt>
      <trkpt lat="43.56889" lon="3.66657">
        <ele>171.1</ele>
        <time>2011-01-16T09:26:02Z</time>
      </trkpt>
      <trkpt lat="43.56895" lon="3.66665">
        <ele>171.6</ele>
        <time>2011-01-16T09:26:06Z</time>
      </trkpt>
      <trkpt lat="43.56901" lon="3.66671">
        <ele>172.6</ele>
        <time>2011-01-16T09:26:10Z</time>
      </trkpt>
      <trkpt lat="43.56907" lon="3.66677">
        <ele>173.9</ele>
        <time>2011-01-16T09:26:14Z</time>
      </trkpt>
      <trkpt lat="43.56915" lon="3.66682">
        <ele>173.9</ele>
        <time>2011-01-16T09:26:18Z</time>
      </trkpt>
      <trkpt lat="43.56922" lon="3.66685">
        <ele>174.6</ele>
        <time>2011-01-16T09:26:22Z</time>
      </trkpt>
      <trkpt lat="43.56913" lon="3.66681">
        <ele>175.8</ele>
        <time>2011-01-16T09:28:08Z</time>
      </trkpt>
      <trkpt lat="43.5691" lon="3.66679">
        <ele>175.7</ele>
        <time>2011-01-16T09:28:09Z</time>
      </trkpt>
      <trkpt lat="43.56899" lon="3.66669">
        <ele>173.4</ele>
        <time>2011-01-16T09:28:12Z</time>
      </trkpt>
      <trkpt lat="43.56893" lon="3.6666">
        <ele>173.4</ele>
        <time>2011-01-16T09:28:15Z</time>
      </trkpt>
      <trkpt lat="43.5689" lon="3.66653">
        <ele>172.7</ele>
        <time>2011-01-16T09:28:17Z</time>
      </trkpt>
      <trkpt lat="43.56886" lon="3.66646">
        <ele>171.8</ele>
        <time>2011-01-16T09:28:19Z</time>
      </trkpt>
      <trkpt lat="43.5689" lon="3.66656">
        <ele>170.4</ele>
        <time>2011-01-16T09:28:47Z</time>
      </trkpt>
      <trkpt lat="43.56894" lon="3.66664">
        <ele>170.5</ele>
        <time>2011-01-16T09:28:52Z</time>
      </trkpt>
      <trkpt lat="43.569" lon="3.66672">
        <ele>171.6</ele>
        <time>2011-01-16T09:28:57Z</time>
      </trkpt>
      <trkpt lat="43.56907" lon="3.66678">
        <ele>172.7</ele>
        <time>2011-01-16T09:29:02Z</time>
      </trkpt>
      <trkpt lat="43.56914" lon="3.66683">
        <ele>173.5</ele>
        <time>2011-01-16T09:29:07Z</time>
      </trkpt>
      <trkpt lat="43.56922" lon="3.66687">
        <ele>174.4</ele>
        <time>2011-01-16T09:29:12Z</time>
      </trkpt>
      <trkpt lat="43.56924" lon="3.66688">
        <ele>174.7</ele>
        <time>2011-01-16T09:29:13Z</time>
      </trkpt>
      <trkpt lat="43.56938" lon="3.66693">
        <ele>176</ele>
        <time>2011-01-16T09:29:22Z</time>
      </trkpt>
      <trkpt lat="43.56947" lon="3.66696">
        <ele>177.5</ele>
        <time>2011-01-16T09:29:28Z</time>
      </trkpt>
      <trkpt lat="43.56955" lon="3.66699">
        <ele>177.6</ele>
        <time>2011-01-16T09:29:34Z</time>
      </trkpt>
      <trkpt lat="43.56963" lon="3.66702">
        <ele>178.8</ele>
        <time>2011-01-16T09:29:40Z</time>
      </trkpt>
      <trkpt lat="43.56971" lon="3.66704">
        <ele>178.8</ele>
        <time>2011-01-16T09:29:46Z</time>
      </trkpt>
      <trkpt lat="43.56979" lon="3.66707">
        <ele>180.1</ele>
        <time>2011-01-16T09:29:52Z</time>
      </trkpt>
      <trkpt lat="43.56987" lon="3.6671">
        <ele>181.1</ele>
        <time>2011-01-16T09:29:58Z</time>
      </trkpt>
      <trkpt lat="43.56995" lon="3.66708">
        <ele>181.9</ele>
        <time>2011-01-16T09:30:03Z</time>
      </trkpt>
      <trkpt lat="43.56998" lon="3.66696">
        <ele>184.5</ele>
        <time>2011-01-16T09:30:10Z</time>
      </trkpt>
      <trkpt lat="43.56993" lon="3.66688">
        <ele>184.8</ele>
        <time>2011-01-16T09:30:17Z</time>
      </trkpt>
      <trkpt lat="43.56992" lon="3.66687">
        <ele>184.9</ele>
        <time>2011-01-16T09:30:18Z</time>
      </trkpt>
      <trkpt lat="43.5698" lon="3.66673">
        <ele>186.7</ele>
        <time>2011-01-16T09:30:36Z</time>
      </trkpt>
      <trkpt lat="43.56975" lon="3.66663">
        <ele>186.5</ele>
        <time>2011-01-16T09:30:42Z</time>
      </trkpt>
      <trkpt lat="43.56971" lon="3.66653">
        <ele>187.8</ele>
        <time>2011-01-16T09:30:48Z</time>
      </trkpt>
      <trkpt lat="43.56968" lon="3.66642">
        <ele>188.8</ele>
        <time>2011-01-16T09:30:54Z</time>
      </trkpt>
      <trkpt lat="43.56967" lon="3.66631">
        <ele>189.8</ele>
        <time>2011-01-16T09:31:00Z</time>
      </trkpt>
      <trkpt lat="43.56966" lon="3.6662">
        <ele>192</ele>
        <time>2011-01-16T09:31:06Z</time>
      </trkpt>
      <trkpt lat="43.56965" lon="3.66608">
        <ele>192</ele>
        <time>2011-01-16T09:31:13Z</time>
      </trkpt>
      <trkpt lat="43.56965" lon="3.66596">
        <ele>193.2</ele>
        <time>2011-01-16T09:31:20Z</time>
      </trkpt>
      <trkpt lat="43.56965" lon="3.66595">
        <ele>193.1</ele>
        <time>2011-01-16T09:31:21Z</time>
      </trkpt>
      <trkpt lat="43.56968" lon="3.66573">
        <ele>194.8</ele>
        <time>2011-01-16T09:31:35Z</time>
      </trkpt>
      <trkpt lat="43.5697" lon="3.66562">
        <ele>195.5</ele>
        <time>2011-01-16T09:31:42Z</time>
      </trkpt>
      <trkpt lat="43.56973" lon="3.66551">
        <ele>196.3</ele>
        <time>2011-01-16T09:31:49Z</time>
      </trkpt>
      <trkpt lat="43.56976" lon="3.66539">
        <ele>196.3</ele>
        <time>2011-01-16T09:31:56Z</time>
      </trkpt>
      <trkpt lat="43.56979" lon="3.66529">
        <ele>197.2</ele>
        <time>2011-01-16T09:32:02Z</time>
      </trkpt>
      <trkpt lat="43.56981" lon="3.66517">
        <ele>198.4</ele>
        <time>2011-01-16T09:32:09Z</time>
      </trkpt>
      <trkpt lat="43.56983" lon="3.66507">
        <ele>199.6</ele>
        <time>2011-01-16T09:32:15Z</time>
      </trkpt>
      <trkpt lat="43.56985" lon="3.66495">
        <ele>200.5</ele>
        <time>2011-01-16T09:32:21Z</time>
      </trkpt>
      <trkpt lat="43.56985" lon="3.66493">
        <ele>200.4</ele>
        <time>2011-01-16T09:32:22Z</time>
      </trkpt>
      <trkpt lat="43.56997" lon="3.665">
        <ele>202.6</ele>
        <time>2011-01-16T09:32:34Z</time>
      </trkpt>
      <trkpt lat="43.56997" lon="3.66511">
        <ele>203</ele>
        <time>2011-01-16T09:32:41Z</time>
      </trkpt>
      <trkpt lat="43.56998" lon="3.66522">
        <ele>204.2</ele>
        <time>2011-01-16T09:32:47Z</time>
      </trkpt>
      <trkpt lat="43.57" lon="3.66533">
        <ele>205.2</ele>
        <time>2011-01-16T09:32:53Z</time>
      </trkpt>
      <trkpt lat="43.57003" lon="3.66544">
        <ele>206.5</ele>
        <time>2011-01-16T09:32:59Z</time>
      </trkpt>
      <trkpt lat="43.57006" lon="3.66555">
        <ele>207.3</ele>
        <time>2011-01-16T09:33:09Z</time>
      </trkpt>
      <trkpt lat="43.57008" lon="3.66565">
        <ele>208</ele>
        <time>2011-01-16T09:33:15Z</time>
      </trkpt>
      <trkpt lat="43.57012" lon="3.66576">
        <ele>208.8</ele>
        <time>2011-01-16T09:33:21Z</time>
      </trkpt>
      <trkpt lat="43.57016" lon="3.66584">
        <ele>209.8</ele>
        <time>2011-01-16T09:33:26Z</time>
      </trkpt>
      <trkpt lat="43.57017" lon="3.66586">
        <ele>209.9</ele>
        <time>2011-01-16T09:33:27Z</time>
      </trkpt>
      <trkpt lat="43.57029" lon="3.666">
        <ele>210.3</ele>
        <time>2011-01-16T09:33:38Z</time>
      </trkpt>
      <trkpt lat="43.57035" lon="3.66607">
        <ele>211</ele>
        <time>2011-01-16T09:33:43Z</time>
      </trkpt>
      <trkpt lat="43.57042" lon="3.66612">
        <ele>212.1</ele>
        <time>2011-01-16T09:33:48Z</time>
      </trkpt>
      <trkpt lat="43.57049" lon="3.66616">
        <ele>212.5</ele>
        <time>2011-01-16T09:33:53Z</time>
      </trkpt>
      <trkpt lat="43.57056" lon="3.66621">
        <ele>213.4</ele>
        <time>2011-01-16T09:33:58Z</time>
      </trkpt>
      <trkpt lat="43.57064" lon="3.66626">
        <ele>214.2</ele>
        <time>2011-01-16T09:34:04Z</time>
      </trkpt>
      <trkpt lat="43.57071" lon="3.66631">
        <ele>215.6</ele>
        <time>2011-01-16T09:34:09Z</time>
      </trkpt>
      <trkpt lat="43.57079" lon="3.66637">
        <ele>215.2</ele>
        <time>2011-01-16T09:34:15Z</time>
      </trkpt>
      <trkpt lat="43.57087" lon="3.66642">
        <ele>216.4</ele>
        <time>2011-01-16T09:34:21Z</time>
      </trkpt>
      <trkpt lat="43.57094" lon="3.66647">
        <ele>218.2</ele>
        <time>2011-01-16T09:34:26Z</time>
      </trkpt>
      <trkpt lat="43.571" lon="3.66651">
        <ele>218.6</ele>
        <time>2011-01-16T09:34:31Z</time>
      </trkpt>
      <trkpt lat="43.57102" lon="3.66652">
        <ele>218.7</ele>
        <time>2011-01-16T09:34:32Z</time>
      </trkpt>
      <trkpt lat="43.57114" lon="3.66662">
        <ele>220.5</ele>
        <time>2011-01-16T09:34:41Z</time>
      </trkpt>
      <trkpt lat="43.5712" lon="3.66668">
        <ele>221.2</ele>
        <time>2011-01-16T09:34:46Z</time>
      </trkpt>
      <trkpt lat="43.57129" lon="3.66666">
        <ele>221.9</ele>
        <time>2011-01-16T09:34:52Z</time>
      </trkpt>
      <trkpt lat="43.57127" lon="3.66656">
        <ele>223.6</ele>
        <time>2011-01-16T09:34:58Z</time>
      </trkpt>
      <trkpt lat="43.57122" lon="3.66647">
        <ele>225.2</ele>
        <time>2011-01-16T09:35:04Z</time>
      </trkpt>
      <trkpt lat="43.57117" lon="3.66639">
        <ele>225.6</ele>
        <time>2011-01-16T09:35:09Z</time>
      </trkpt>
      <trkpt lat="43.57112" lon="3.6663">
        <ele>226.1</ele>
        <time>2011-01-16T09:35:14Z</time>
      </trkpt>
      <trkpt lat="43.57108" lon="3.66619">
        <ele>226.9</ele>
        <time>2011-01-16T09:35:20Z</time>
      </trkpt>
      <trkpt lat="43.57103" lon="3.66611">
        <ele>227.7</ele>
        <time>2011-01-16T09:35:25Z</time>
      </trkpt>
      <trkpt lat="43.57097" lon="3.66602">
        <ele>229.4</ele>
        <time>2011-01-16T09:35:31Z</time>
      </trkpt>
      <trkpt lat="43.57091" lon="3.66593">
        <ele>229.5</ele>
        <time>2011-01-16T09:35:38Z</time>
      </trkpt>
      <trkpt lat="43.57091" lon="3.66592">
        <ele>229.9</ele>
        <time>2011-01-16T09:35:39Z</time>
      </trkpt>
      <trkpt lat="43.57084" lon="3.66576">
        <ele>231.3</ele>
        <time>2011-01-16T09:35:48Z</time>
      </trkpt>
      <trkpt lat="43.57081" lon="3.66565">
        <ele>233.1</ele>
        <time>2011-01-16T09:35:54Z</time>
      </trkpt>
      <trkpt lat="43.57078" lon="3.66555">
        <ele>232.9</ele>
        <time>2011-01-16T09:35:59Z</time>
      </trkpt>
      <trkpt lat="43.57075" lon="3.66545">
        <ele>233.1</ele>
        <time>2011-01-16T09:36:04Z</time>
      </trkpt>
      <trkpt lat="43.57073" lon="3.66535">
        <ele>233.2</ele>
        <time>2011-01-16T09:36:09Z</time>
      </trkpt>
      <trkpt lat="43.5707" lon="3.66524">
        <ele>234.7</ele>
        <time>2011-01-16T09:36:14Z</time>
      </trkpt>
      <trkpt lat="43.57072" lon="3.66512">
        <ele>235.2</ele>
        <time>2011-01-16T09:36:19Z</time>
      </trkpt>
      <trkpt lat="43.57079" lon="3.66515">
        <ele>236.3</ele>
        <time>2011-01-16T09:36:24Z</time>
      </trkpt>
      <trkpt lat="43.57083" lon="3.66524">
        <ele>237.4</ele>
        <time>2011-01-16T09:36:28Z</time>
      </trkpt>
      <trkpt lat="43.57087" lon="3.66533">
        <ele>237.8</ele>
        <time>2011-01-16T09:36:32Z</time>
      </trkpt>
      <trkpt lat="43.57092" lon="3.6654">
        <ele>238.7</ele>
        <time>2011-01-16T09:36:36Z</time>
      </trkpt>
      <trkpt lat="43.57098" lon="3.66547">
        <ele>239.7</ele>
        <time>2011-01-16T09:36:40Z</time>
      </trkpt>
      <trkpt lat="43.571" lon="3.66549">
        <ele>239.9</ele>
        <time>2011-01-16T09:36:41Z</time>
      </trkpt>
      <trkpt lat="43.57112" lon="3.66559">
        <ele>241.2</ele>
        <time>2011-01-16T09:36:49Z</time>
      </trkpt>
      <trkpt lat="43.57119" lon="3.66564">
        <ele>240.9</ele>
        <time>2011-01-16T09:36:54Z</time>
      </trkpt>
      <trkpt lat="43.57127" lon="3.66569">
        <ele>242</ele>
        <time>2011-01-16T09:36:59Z</time>
      </trkpt>
      <trkpt lat="43.57135" lon="3.66574">
        <ele>243</ele>
        <time>2011-01-16T09:37:04Z</time>
      </trkpt>
      <trkpt lat="43.57142" lon="3.6658">
        <ele>244.2</ele>
        <time>2011-01-16T09:37:09Z</time>
      </trkpt>
      <trkpt lat="43.57149" lon="3.66585">
        <ele>244.9</ele>
        <time>2011-01-16T09:37:14Z</time>
      </trkpt>
      <trkpt lat="43.57157" lon="3.66591">
        <ele>246</ele>
        <time>2011-01-16T09:37:19Z</time>
      </trkpt>
      <trkpt lat="43.57164" lon="3.66597">
        <ele>247.1</ele>
        <time>2011-01-16T09:37:24Z</time>
      </trkpt>
      <trkpt lat="43.57169" lon="3.66604">
        <ele>248.1</ele>
        <time>2011-01-16T09:37:29Z</time>
      </trkpt>
      <trkpt lat="43.57176" lon="3.66611">
        <ele>249.2</ele>
        <time>2011-01-16T09:37:35Z</time>
      </trkpt>
      <trkpt lat="43.57183" lon="3.66619">
        <ele>250.2</ele>
        <time>2011-01-16T09:37:41Z</time>
      </trkpt>
      <trkpt lat="43.57183" lon="3.66621">
        <ele>250.5</ele>
        <time>2011-01-16T09:37:42Z</time>
      </trkpt>
      <trkpt lat="43.57194" lon="3.66635">
        <ele>251.5</ele>
        <time>2011-01-16T09:37:52Z</time>
      </trkpt>
      <trkpt lat="43.57199" lon="3.66643">
        <ele>252.8</ele>
        <time>2011-01-16T09:37:57Z</time>
      </trkpt>
      <trkpt lat="43.57204" lon="3.66652">
        <ele>253.5</ele>
        <time>2011-01-16T09:38:02Z</time>
      </trkpt>
      <trkpt lat="43.5721" lon="3.6666">
        <ele>254.2</ele>
        <time>2011-01-16T09:38:07Z</time>
      </trkpt>
      <trkpt lat="43.57215" lon="3.66669">
        <ele>254</ele>
        <time>2011-01-16T09:38:12Z</time>
      </trkpt>
      <trkpt lat="43.5722" lon="3.66678">
        <ele>255.9</ele>
        <time>2011-01-16T09:38:17Z</time>
      </trkpt>
      <trkpt lat="43.57224" lon="3.66686">
        <ele>255.9</ele>
        <time>2011-01-16T09:38:22Z</time>
      </trkpt>
      <trkpt lat="43.57229" lon="3.66695">
        <ele>256.9</ele>
        <time>2011-01-16T09:38:27Z</time>
      </trkpt>
      <trkpt lat="43.57234" lon="3.66704">
        <ele>258.5</ele>
        <time>2011-01-16T09:38:32Z</time>
      </trkpt>
      <trkpt lat="43.5724" lon="3.66711">
        <ele>258.5</ele>
        <time>2011-01-16T09:38:37Z</time>
      </trkpt>
      <trkpt lat="43.57247" lon="3.66717">
        <ele>260.1</ele>
        <time>2011-01-16T09:38:42Z</time>
      </trkpt>
      <trkpt lat="43.57249" lon="3.66717">
        <ele>260.4</ele>
        <time>2011-01-16T09:38:43Z</time>
      </trkpt>
      <trkpt lat="43.57253" lon="3.66702">
        <ele>261.5</ele>
        <time>2011-01-16T09:38:50Z</time>
      </trkpt>
      <trkpt lat="43.5725" lon="3.66694">
        <ele>261.6</ele>
        <time>2011-01-16T09:38:53Z</time>
      </trkpt>
      <trkpt lat="43.57246" lon="3.66685">
        <ele>262.2</ele>
        <time>2011-01-16T09:38:56Z</time>
      </trkpt>
      <trkpt lat="43.57244" lon="3.66675">
        <ele>262.4</ele>
        <time>2011-01-16T09:38:59Z</time>
      </trkpt>
      <trkpt lat="43.57241" lon="3.66666">
        <ele>263</ele>
        <time>2011-01-16T09:39:02Z</time>
      </trkpt>
      <trkpt lat="43.57238" lon="3.66656">
        <ele>263.6</ele>
        <time>2011-01-16T09:39:05Z</time>
      </trkpt>
      <trkpt lat="43.57236" lon="3.66645">
        <ele>263.9</ele>
        <time>2011-01-16T09:39:08Z</time>
      </trkpt>
      <trkpt lat="43.57233" lon="3.66636">
        <ele>264.8</ele>
        <time>2011-01-16T09:39:11Z</time>
      </trkpt>
      <trkpt lat="43.5723" lon="3.66627">
        <ele>265.8</ele>
        <time>2011-01-16T09:39:14Z</time>
      </trkpt>
      <trkpt lat="43.57228" lon="3.66616">
        <ele>266.6</ele>
        <time>2011-01-16T09:39:18Z</time>
      </trkpt>
      <trkpt lat="43.57225" lon="3.66604">
        <ele>268</ele>
        <time>2011-01-16T09:39:22Z</time>
      </trkpt>
      <trkpt lat="43.57222" lon="3.66595">
        <ele>268.7</ele>
        <time>2011-01-16T09:39:25Z</time>
      </trkpt>
      <trkpt lat="43.57219" lon="3.66584">
        <ele>268.7</ele>
        <time>2011-01-16T09:39:28Z</time>
      </trkpt>
      <trkpt lat="43.57216" lon="3.66573">
        <ele>269.6</ele>
        <time>2011-01-16T09:39:31Z</time>
      </trkpt>
      <trkpt lat="43.57214" lon="3.66563">
        <ele>270.1</ele>
        <time>2011-01-16T09:39:34Z</time>
      </trkpt>
      <trkpt lat="43.57212" lon="3.66554">
        <ele>271</ele>
        <time>2011-01-16T09:39:37Z</time>
      </trkpt>
      <trkpt lat="43.5721" lon="3.66544">
        <ele>271.5</ele>
        <time>2011-01-16T09:39:40Z</time>
      </trkpt>
      <trkpt lat="43.57207" lon="3.66535">
        <ele>272.2</ele>
        <time>2011-01-16T09:39:43Z</time>
      </trkpt>
      <trkpt lat="43.57206" lon="3.66533">
        <ele>272.3</ele>
        <time>2011-01-16T09:39:44Z</time>
      </trkpt>
      <trkpt lat="43.57201" lon="3.66518">
        <ele>274.4</ele>
        <time>2011-01-16T09:39:49Z</time>
      </trkpt>
      <trkpt lat="43.57199" lon="3.66507">
        <ele>274.8</ele>
        <time>2011-01-16T09:39:53Z</time>
      </trkpt>
      <trkpt lat="43.57195" lon="3.66496">
        <ele>276.4</ele>
        <time>2011-01-16T09:39:57Z</time>
      </trkpt>
      <trkpt lat="43.57192" lon="3.66485">
        <ele>278</ele>
        <time>2011-01-16T09:40:01Z</time>
      </trkpt>
      <trkpt lat="43.57188" lon="3.66474">
        <ele>278.5</ele>
        <time>2011-01-16T09:40:05Z</time>
      </trkpt>
      <trkpt lat="43.57185" lon="3.66463">
        <ele>278.8</ele>
        <time>2011-01-16T09:40:09Z</time>
      </trkpt>
      <trkpt lat="43.57181" lon="3.66451">
        <ele>279.1</ele>
        <time>2011-01-16T09:40:13Z</time>
      </trkpt>
      <trkpt lat="43.57178" lon="3.6644">
        <ele>280.2</ele>
        <time>2011-01-16T09:40:17Z</time>
      </trkpt>
      <trkpt lat="43.57174" lon="3.6643">
        <ele>281.2</ele>
        <time>2011-01-16T09:40:21Z</time>
      </trkpt>
      <trkpt lat="43.5717" lon="3.6642">
        <ele>283.2</ele>
        <time>2011-01-16T09:40:25Z</time>
      </trkpt>
      <trkpt lat="43.57167" lon="3.6641">
        <ele>284</ele>
        <time>2011-01-16T09:40:29Z</time>
      </trkpt>
      <trkpt lat="43.57163" lon="3.66399">
        <ele>284.7</ele>
        <time>2011-01-16T09:40:33Z</time>
      </trkpt>
      <trkpt lat="43.57159" lon="3.66389">
        <ele>285.9</ele>
        <time>2011-01-16T09:40:37Z</time>
      </trkpt>
      <trkpt lat="43.57155" lon="3.66378">
        <ele>286.9</ele>
        <time>2011-01-16T09:40:41Z</time>
      </trkpt>
      <trkpt lat="43.57151" lon="3.66368">
        <ele>287.5</ele>
        <time>2011-01-16T09:40:45Z</time>
      </trkpt>
      <trkpt lat="43.57151" lon="3.66365">
        <ele>287.4</ele>
        <time>2011-01-16T09:40:46Z</time>
      </trkpt>
      <trkpt lat="43.57145" lon="3.66346">
        <ele>289</ele>
        <time>2011-01-16T09:40:53Z</time>
      </trkpt>
      <trkpt lat="43.57142" lon="3.66335">
        <ele>289.8</ele>
        <time>2011-01-16T09:40:57Z</time>
      </trkpt>
      <trkpt lat="43.57141" lon="3.66325">
        <ele>291.9</ele>
        <time>2011-01-16T09:41:01Z</time>
      </trkpt>
      <trkpt lat="43.57143" lon="3.66314">
        <ele>293.4</ele>
        <time>2011-01-16T09:41:06Z</time>
      </trkpt>
      <trkpt lat="43.57146" lon="3.66304">
        <ele>294.3</ele>
        <time>2011-01-16T09:41:11Z</time>
      </trkpt>
      <trkpt lat="43.57151" lon="3.66296">
        <ele>295.2</ele>
        <time>2011-01-16T09:41:16Z</time>
      </trkpt>
      <trkpt lat="43.57157" lon="3.66289">
        <ele>296.1</ele>
        <time>2011-01-16T09:41:21Z</time>
      </trkpt>
      <trkpt lat="43.57163" lon="3.66282">
        <ele>297.5</ele>
        <time>2011-01-16T09:41:26Z</time>
      </trkpt>
      <trkpt lat="43.57169" lon="3.66275">
        <ele>298.3</ele>
        <time>2011-01-16T09:41:31Z</time>
      </trkpt>
      <trkpt lat="43.57176" lon="3.66267">
        <ele>299.1</ele>
        <time>2011-01-16T09:41:36Z</time>
      </trkpt>
      <trkpt lat="43.57182" lon="3.66262">
        <ele>300</ele>
        <time>2011-01-16T09:41:40Z</time>
      </trkpt>
      <trkpt lat="43.57188" lon="3.66256">
        <ele>300.6</ele>
        <time>2011-01-16T09:41:44Z</time>
      </trkpt>
      <trkpt lat="43.57196" lon="3.66251">
        <ele>300.5</ele>
        <time>2011-01-16T09:41:49Z</time>
      </trkpt>
      <trkpt lat="43.57198" lon="3.66249">
        <ele>300.5</ele>
        <time>2011-01-16T09:41:50Z</time>
      </trkpt>
      <trkpt lat="43.57212" lon="3.66243">
        <ele>301.1</ele>
        <time>2011-01-16T09:41:56Z</time>
      </trkpt>
      <trkpt lat="43.57218" lon="3.66243">
        <ele>301.3</ele>
        <time>2011-01-16T09:41:58Z</time>
      </trkpt>
      <trkpt lat="43.57224" lon="3.66244">
        <ele>301.3</ele>
        <time>2011-01-16T09:42:00Z</time>
      </trkpt>
      <trkpt lat="43.57231" lon="3.66246">
        <ele>301.5</ele>
        <time>2011-01-16T09:42:02Z</time>
      </trkpt>
      <trkpt lat="43.57238" lon="3.66249">
        <ele>301.7</ele>
        <time>2011-01-16T09:42:04Z</time>
      </trkpt>
      <trkpt lat="43.57245" lon="3.66254">
        <ele>301.4</ele>
        <time>2011-01-16T09:42:06Z</time>
      </trkpt>
      <trkpt lat="43.57251" lon="3.6626">
        <ele>301.2</ele>
        <time>2011-01-16T09:42:08Z</time>
      </trkpt>
      <trkpt lat="43.57258" lon="3.66266">
        <ele>301.1</ele>
        <time>2011-01-16T09:42:10Z</time>
      </trkpt>
      <trkpt lat="43.57264" lon="3.66272">
        <ele>301.7</ele>
        <time>2011-01-16T09:42:12Z</time>
      </trkpt>
      <trkpt lat="43.57271" lon="3.66279">
        <ele>302.1</ele>
        <time>2011-01-16T09:42:14Z</time>
      </trkpt>
      <trkpt lat="43.57278" lon="3.66285">
        <ele>302.4</ele>
        <time>2011-01-16T09:42:16Z</time>
      </trkpt>
      <trkpt lat="43.57285" lon="3.66291">
        <ele>302.3</ele>
        <time>2011-01-16T09:42:18Z</time>
      </trkpt>
      <trkpt lat="43.57293" lon="3.66297">
        <ele>302.1</ele>
        <time>2011-01-16T09:42:20Z</time>
      </trkpt>
      <trkpt lat="43.573" lon="3.66303">
        <ele>302.3</ele>
        <time>2011-01-16T09:42:22Z</time>
      </trkpt>
      <trkpt lat="43.57307" lon="3.66308">
        <ele>302.8</ele>
        <time>2011-01-16T09:42:24Z</time>
      </trkpt>
      <trkpt lat="43.57314" lon="3.66314">
        <ele>303.3</ele>
        <time>2011-01-16T09:42:26Z</time>
      </trkpt>
      <trkpt lat="43.57322" lon="3.66319">
        <ele>303.5</ele>
        <time>2011-01-16T09:42:28Z</time>
      </trkpt>
      <trkpt lat="43.57329" lon="3.66325">
        <ele>303.6</ele>
        <time>2011-01-16T09:42:30Z</time>
      </trkpt>
      <trkpt lat="43.57337" lon="3.6633">
        <ele>303.5</ele>
        <time>2011-01-16T09:42:33Z</time>
      </trkpt>
      <trkpt lat="43.57343" lon="3.66334">
        <ele>304.9</ele>
        <time>2011-01-16T09:42:36Z</time>
      </trkpt>
      <trkpt lat="43.5735" lon="3.66338">
        <ele>305.3</ele>
        <time>2011-01-16T09:42:39Z</time>
      </trkpt>
      <trkpt lat="43.57358" lon="3.66341">
        <ele>305.1</ele>
        <time>2011-01-16T09:42:42Z</time>
      </trkpt>
      <trkpt lat="43.57366" lon="3.66343">
        <ele>304.5</ele>
        <time>2011-01-16T09:42:45Z</time>
      </trkpt>
      <trkpt lat="43.57375" lon="3.66344">
        <ele>305.4</ele>
        <time>2011-01-16T09:42:48Z</time>
      </trkpt>
      <trkpt lat="43.57383" lon="3.66344">
        <ele>305.2</ele>
        <time>2011-01-16T09:42:51Z</time>
      </trkpt>
      <trkpt lat="43.57385" lon="3.66343">
        <ele>305.1</ele>
        <time>2011-01-16T09:42:52Z</time>
      </trkpt>
      <trkpt lat="43.57398" lon="3.66335">
        <ele>305.5</ele>
        <time>2011-01-16T09:42:57Z</time>
      </trkpt>
      <trkpt lat="43.57404" lon="3.66328">
        <ele>305.5</ele>
        <time>2011-01-16T09:43:00Z</time>
      </trkpt>
      <trkpt lat="43.57409" lon="3.66319">
        <ele>305.4</ele>
        <time>2011-01-16T09:43:03Z</time>
      </trkpt>
      <trkpt lat="43.57413" lon="3.6631">
        <ele>305.7</ele>
        <time>2011-01-16T09:43:06Z</time>
      </trkpt>
      <trkpt lat="43.57418" lon="3.66301">
        <ele>306.2</ele>
        <time>2011-01-16T09:43:09Z</time>
      </trkpt>
      <trkpt lat="43.57422" lon="3.66292">
        <ele>306</ele>
        <time>2011-01-16T09:43:12Z</time>
      </trkpt>
      <trkpt lat="43.57426" lon="3.66281">
        <ele>305.4</ele>
        <time>2011-01-16T09:43:15Z</time>
      </trkpt>
      <trkpt lat="43.57429" lon="3.66273">
        <ele>305.4</ele>
        <time>2011-01-16T09:43:17Z</time>
      </trkpt>
      <trkpt lat="43.5743" lon="3.66265">
        <ele>305.4</ele>
        <time>2011-01-16T09:43:19Z</time>
      </trkpt>
      <trkpt lat="43.57431" lon="3.66256">
        <ele>305.4</ele>
        <time>2011-01-16T09:43:21Z</time>
      </trkpt>
      <trkpt lat="43.57432" lon="3.66247">
        <ele>305.8</ele>
        <time>2011-01-16T09:43:23Z</time>
      </trkpt>
      <trkpt lat="43.57434" lon="3.66236">
        <ele>306.1</ele>
        <time>2011-01-16T09:43:26Z</time>
      </trkpt>
      <trkpt lat="43.57427" lon="3.66231">
        <ele>306.9</ele>
        <time>2011-01-16T09:52:18Z</time>
      </trkpt>
      <trkpt lat="43.57426" lon="3.66231">
        <ele>306.8</ele>
        <time>2011-01-16T09:52:19Z</time>
      </trkpt>
      <trkpt lat="43.57415" lon="3.66218">
        <ele>306.8</ele>
        <time>2011-01-16T09:52:26Z</time>
      </trkpt>
      <trkpt lat="43.57422" lon="3.6621">
        <ele>307</ele>
        <time>2011-01-16T09:52:32Z</time>
      </trkpt>
      <trkpt lat="43.57431" lon="3.66211">
        <ele>307.5</ele>
        <time>2011-01-16T09:52:36Z</time>
      </trkpt>
      <trkpt lat="43.57437" lon="3.66209">
        <ele>307.2</ele>
        <time>2011-01-16T09:52:38Z</time>
      </trkpt>
      <trkpt lat="43.57443" lon="3.66205">
        <ele>307.1</ele>
        <time>2011-01-16T09:52:40Z</time>
      </trkpt>
      <trkpt lat="43.57448" lon="3.662">
        <ele>307.2</ele>
        <time>2011-01-16T09:52:42Z</time>
      </trkpt>
      <trkpt lat="43.57453" lon="3.66194">
        <ele>307.2</ele>
        <time>2011-01-16T09:52:44Z</time>
      </trkpt>
      <trkpt lat="43.57459" lon="3.66189">
        <ele>307.2</ele>
        <time>2011-01-16T09:52:46Z</time>
      </trkpt>
      <trkpt lat="43.57466" lon="3.66184">
        <ele>307.1</ele>
        <time>2011-01-16T09:52:48Z</time>
      </trkpt>
      <trkpt lat="43.57473" lon="3.66179">
        <ele>307.1</ele>
        <time>2011-01-16T09:52:50Z</time>
      </trkpt>
      <trkpt lat="43.5748" lon="3.66175">
        <ele>307.2</ele>
        <time>2011-01-16T09:52:52Z</time>
      </trkpt>
      <trkpt lat="43.57487" lon="3.6617">
        <ele>306.2</ele>
        <time>2011-01-16T09:52:54Z</time>
      </trkpt>
      <trkpt lat="43.57495" lon="3.66163">
        <ele>305.5</ele>
        <time>2011-01-16T09:52:56Z</time>
      </trkpt>
      <trkpt lat="43.57502" lon="3.66157">
        <ele>305</ele>
        <time>2011-01-16T09:52:58Z</time>
      </trkpt>
      <trkpt lat="43.57509" lon="3.6615">
        <ele>304.6</ele>
        <time>2011-01-16T09:53:00Z</time>
      </trkpt>
      <trkpt lat="43.57515" lon="3.66141">
        <ele>301.4</ele>
        <time>2011-01-16T09:53:10Z</time>
      </trkpt>
      <trkpt lat="43.5752" lon="3.66137">
        <ele>301.4</ele>
        <time>2011-01-16T09:53:13Z</time>
      </trkpt>
      <trkpt lat="43.57525" lon="3.6613">
        <ele>301</ele>
        <time>2011-01-16T09:53:15Z</time>
      </trkpt>
      <trkpt lat="43.5753" lon="3.66124">
        <ele>300.6</ele>
        <time>2011-01-16T09:53:17Z</time>
      </trkpt>
      <trkpt lat="43.57535" lon="3.66114">
        <ele>298.3</ele>
        <time>2011-01-16T09:53:20Z</time>
      </trkpt>
      <trkpt lat="43.57537" lon="3.6611">
        <ele>297.9</ele>
        <time>2011-01-16T09:53:21Z</time>
      </trkpt>
      <trkpt lat="43.57549" lon="3.66101">
        <ele>293.3</ele>
        <time>2011-01-16T09:53:26Z</time>
      </trkpt>
      <trkpt lat="43.57555" lon="3.66096">
        <ele>290.4</ele>
        <time>2011-01-16T09:53:29Z</time>
      </trkpt>
      <trkpt lat="43.57562" lon="3.66089">
        <ele>286.1</ele>
        <time>2011-01-16T09:53:32Z</time>
      </trkpt>
      <trkpt lat="43.5757" lon="3.66085">
        <ele>283.3</ele>
        <time>2011-01-16T09:53:35Z</time>
      </trkpt>
      <trkpt lat="43.57576" lon="3.66084">
        <ele>282.3</ele>
        <time>2011-01-16T09:53:37Z</time>
      </trkpt>
      <trkpt lat="43.57582" lon="3.66084">
        <ele>279.1</ele>
        <time>2011-01-16T09:53:39Z</time>
      </trkpt>
      <trkpt lat="43.57589" lon="3.66085">
        <ele>276.1</ele>
        <time>2011-01-16T09:53:41Z</time>
      </trkpt>
      <trkpt lat="43.57597" lon="3.66088">
        <ele>267.9</ele>
        <time>2011-01-16T09:53:48Z</time>
      </trkpt>
      <trkpt lat="43.57605" lon="3.66086">
        <ele>267</ele>
        <time>2011-01-16T09:53:52Z</time>
      </trkpt>
      <trkpt lat="43.57611" lon="3.66094">
        <ele>266.7</ele>
        <time>2011-01-16T09:56:09Z</time>
      </trkpt>
      <trkpt lat="43.57612" lon="3.66096">
        <ele>266.8</ele>
        <time>2011-01-16T09:56:10Z</time>
      </trkpt>
      <trkpt lat="43.5762" lon="3.66106">
        <ele>265</ele>
        <time>2011-01-16T09:56:14Z</time>
      </trkpt>
      <trkpt lat="43.57626" lon="3.66113">
        <ele>264.7</ele>
        <time>2011-01-16T09:56:16Z</time>
      </trkpt>
      <trkpt lat="43.57632" lon="3.6612">
        <ele>264.6</ele>
        <time>2011-01-16T09:56:18Z</time>
      </trkpt>
      <trkpt lat="43.57639" lon="3.66127">
        <ele>264.3</ele>
        <time>2011-01-16T09:56:20Z</time>
      </trkpt>
      <trkpt lat="43.57645" lon="3.66134">
        <ele>264</ele>
        <time>2011-01-16T09:56:22Z</time>
      </trkpt>
      <trkpt lat="43.57652" lon="3.66141">
        <ele>263.3</ele>
        <time>2011-01-16T09:56:24Z</time>
      </trkpt>
      <trkpt lat="43.57658" lon="3.66149">
        <ele>262.5</ele>
        <time>2011-01-16T09:56:26Z</time>
      </trkpt>
      <trkpt lat="43.57664" lon="3.66156">
        <ele>261.9</ele>
        <time>2011-01-16T09:56:28Z</time>
      </trkpt>
      <trkpt lat="43.57671" lon="3.66162">
        <ele>261.8</ele>
        <time>2011-01-16T09:56:30Z</time>
      </trkpt>
      <trkpt lat="43.57677" lon="3.66168">
        <ele>261.8</ele>
        <time>2011-01-16T09:56:32Z</time>
      </trkpt>
      <trkpt lat="43.57683" lon="3.66175">
        <ele>261.2</ele>
        <time>2011-01-16T09:56:34Z</time>
      </trkpt>
      <trkpt lat="43.57687" lon="3.66179">
        <ele>260.9</ele>
        <time>2011-01-16T09:56:35Z</time>
      </trkpt>
      <trkpt lat="43.5769" lon="3.66184">
        <ele>260.7</ele>
        <time>2011-01-16T09:56:36Z</time>
      </trkpt>
      <trkpt lat="43.57694" lon="3.66189">
        <ele>260.5</ele>
        <time>2011-01-16T09:56:37Z</time>
      </trkpt>
      <trkpt lat="43.57698" lon="3.66194">
        <ele>260.4</ele>
        <time>2011-01-16T09:56:38Z</time>
      </trkpt>
      <trkpt lat="43.57703" lon="3.662">
        <ele>260.2</ele>
        <time>2011-01-16T09:56:39Z</time>
      </trkpt>
      <trkpt lat="43.57707" lon="3.66205">
        <ele>259.5</ele>
        <time>2011-01-16T09:56:40Z</time>
      </trkpt>
      <trkpt lat="43.57712" lon="3.6621">
        <ele>258.9</ele>
        <time>2011-01-16T09:56:41Z</time>
      </trkpt>
      <trkpt lat="43.57716" lon="3.66215">
        <ele>258.5</ele>
        <time>2011-01-16T09:56:42Z</time>
      </trkpt>
      <trkpt lat="43.5772" lon="3.6622">
        <ele>257.8</ele>
        <time>2011-01-16T09:56:43Z</time>
      </trkpt>
      <trkpt lat="43.57723" lon="3.66225">
        <ele>257.2</ele>
        <time>2011-01-16T09:56:44Z</time>
      </trkpt>
      <trkpt lat="43.57729" lon="3.66233">
        <ele>255.9</ele>
        <time>2011-01-16T09:56:46Z</time>
      </trkpt>
      <trkpt lat="43.57733" lon="3.66242">
        <ele>254.8</ele>
        <time>2011-01-16T09:56:48Z</time>
      </trkpt>
      <trkpt lat="43.57737" lon="3.66246">
        <ele>254</ele>
        <time>2011-01-16T09:56:49Z</time>
      </trkpt>
      <trkpt lat="43.5774" lon="3.66251">
        <ele>253.5</ele>
        <time>2011-01-16T09:56:50Z</time>
      </trkpt>
      <trkpt lat="43.57743" lon="3.66256">
        <ele>253</ele>
        <time>2011-01-16T09:56:51Z</time>
      </trkpt>
      <trkpt lat="43.57747" lon="3.66262">
        <ele>252.5</ele>
        <time>2011-01-16T09:56:52Z</time>
      </trkpt>
      <trkpt lat="43.57751" lon="3.66268">
        <ele>252.1</ele>
        <time>2011-01-16T09:56:53Z</time>
      </trkpt>
      <trkpt lat="43.57755" lon="3.66274">
        <ele>251.8</ele>
        <time>2011-01-16T09:56:54Z</time>
      </trkpt>
      <trkpt lat="43.57758" lon="3.6628">
        <ele>251.3</ele>
        <time>2011-01-16T09:56:55Z</time>
      </trkpt>
      <trkpt lat="43.5776" lon="3.66288">
        <ele>251</ele>
        <time>2011-01-16T09:56:56Z</time>
      </trkpt>
      <trkpt lat="43.57763" lon="3.66295">
        <ele>250.7</ele>
        <time>2011-01-16T09:56:57Z</time>
      </trkpt>
      <trkpt lat="43.57766" lon="3.66303">
        <ele>250.5</ele>
        <time>2011-01-16T09:56:58Z</time>
      </trkpt>
      <trkpt lat="43.57769" lon="3.66309">
        <ele>250</ele>
        <time>2011-01-16T09:56:59Z</time>
      </trkpt>
      <trkpt lat="43.57774" lon="3.66318">
        <ele>249.3</ele>
        <time>2011-01-16T09:57:01Z</time>
      </trkpt>
      <trkpt lat="43.57779" lon="3.66326">
        <ele>247.5</ele>
        <time>2011-01-16T09:57:04Z</time>
      </trkpt>
      <trkpt lat="43.57783" lon="3.66331">
        <ele>246.6</ele>
        <time>2011-01-16T09:57:06Z</time>
      </trkpt>
      <trkpt lat="43.57788" lon="3.66339">
        <ele>246</ele>
        <time>2011-01-16T09:57:08Z</time>
      </trkpt>
      <trkpt lat="43.57791" lon="3.66344">
        <ele>245.7</ele>
        <time>2011-01-16T09:57:09Z</time>
      </trkpt>
      <trkpt lat="43.57794" lon="3.66349">
        <ele>245.5</ele>
        <time>2011-01-16T09:57:10Z</time>
      </trkpt>
      <trkpt lat="43.57797" lon="3.66355">
        <ele>244.7</ele>
        <time>2011-01-16T09:57:11Z</time>
      </trkpt>
      <trkpt lat="43.57801" lon="3.6636">
        <ele>244</ele>
        <time>2011-01-16T09:57:12Z</time>
      </trkpt>
      <trkpt lat="43.57805" lon="3.66365">
        <ele>243.6</ele>
        <time>2011-01-16T09:57:13Z</time>
      </trkpt>
      <trkpt lat="43.57809" lon="3.66371">
        <ele>243.2</ele>
        <time>2011-01-16T09:57:14Z</time>
      </trkpt>
      <trkpt lat="43.57812" lon="3.66377">
        <ele>242.9</ele>
        <time>2011-01-16T09:57:15Z</time>
      </trkpt>
      <trkpt lat="43.57816" lon="3.66387">
        <ele>242.4</ele>
        <time>2011-01-16T09:57:17Z</time>
      </trkpt>
      <trkpt lat="43.57822" lon="3.66395">
        <ele>240.8</ele>
        <time>2011-01-16T09:57:20Z</time>
      </trkpt>
      <trkpt lat="43.57826" lon="3.66401">
        <ele>239.7</ele>
        <time>2011-01-16T09:57:22Z</time>
      </trkpt>
      <trkpt lat="43.57829" lon="3.66406">
        <ele>239.3</ele>
        <time>2011-01-16T09:57:23Z</time>
      </trkpt>
      <trkpt lat="43.57832" lon="3.66412">
        <ele>238.8</ele>
        <time>2011-01-16T09:57:24Z</time>
      </trkpt>
      <trkpt lat="43.57835" lon="3.66417">
        <ele>238.4</ele>
        <time>2011-01-16T09:57:25Z</time>
      </trkpt>
      <trkpt lat="43.57839" lon="3.66422">
        <ele>238.1</ele>
        <time>2011-01-16T09:57:26Z</time>
      </trkpt>
      <trkpt lat="43.57843" lon="3.66427">
        <ele>237.9</ele>
        <time>2011-01-16T09:57:27Z</time>
      </trkpt>
      <trkpt lat="43.57849" lon="3.66436">
        <ele>237.7</ele>
        <time>2011-01-16T09:57:29Z</time>
      </trkpt>
      <trkpt lat="43.57851" lon="3.66448">
        <ele>237.4</ele>
        <time>2011-01-16T09:57:32Z</time>
      </trkpt>
      <trkpt lat="43.57856" lon="3.66453">
        <ele>236.7</ele>
        <time>2011-01-16T09:57:34Z</time>
      </trkpt>
      <trkpt lat="43.5786" lon="3.66461">
        <ele>236.2</ele>
        <time>2011-01-16T09:57:38Z</time>
      </trkpt>
      <trkpt lat="43.57864" lon="3.66472">
        <ele>235.2</ele>
        <time>2011-01-16T09:57:41Z</time>
      </trkpt>
      <trkpt lat="43.57869" lon="3.66481">
        <ele>234.2</ele>
        <time>2011-01-16T09:57:43Z</time>
      </trkpt>
      <trkpt lat="43.57874" lon="3.6649">
        <ele>233.4</ele>
        <time>2011-01-16T09:57:45Z</time>
      </trkpt>
      <trkpt lat="43.57879" lon="3.66496">
        <ele>232.8</ele>
        <time>2011-01-16T09:57:47Z</time>
      </trkpt>
      <trkpt lat="43.57881" lon="3.66501">
        <ele>232.6</ele>
        <time>2011-01-16T09:57:48Z</time>
      </trkpt>
      <trkpt lat="43.57883" lon="3.66507">
        <ele>232.4</ele>
        <time>2011-01-16T09:57:49Z</time>
      </trkpt>
      <trkpt lat="43.57886" lon="3.66513">
        <ele>232</ele>
        <time>2011-01-16T09:57:50Z</time>
      </trkpt>
      <trkpt lat="43.5789" lon="3.66518">
        <ele>231.6</ele>
        <time>2011-01-16T09:57:51Z</time>
      </trkpt>
      <trkpt lat="43.57894" lon="3.66523">
        <ele>231.3</ele>
        <time>2011-01-16T09:57:52Z</time>
      </trkpt>
      <trkpt lat="43.57897" lon="3.66528">
        <ele>231</ele>
        <time>2011-01-16T09:57:53Z</time>
      </trkpt>
      <trkpt lat="43.57901" lon="3.66533">
        <ele>230.7</ele>
        <time>2011-01-16T09:57:54Z</time>
      </trkpt>
      <trkpt lat="43.57903" lon="3.66539">
        <ele>230.5</ele>
        <time>2011-01-16T09:57:55Z</time>
      </trkpt>
      <trkpt lat="43.57906" lon="3.66546">
        <ele>230</ele>
        <time>2011-01-16T09:57:56Z</time>
      </trkpt>
      <trkpt lat="43.57909" lon="3.66552">
        <ele>229.6</ele>
        <time>2011-01-16T09:57:57Z</time>
      </trkpt>
      <trkpt lat="43.57913" lon="3.66556">
        <ele>229.3</ele>
        <time>2011-01-16T09:57:58Z</time>
      </trkpt>
      <trkpt lat="43.57916" lon="3.66561">
        <ele>228.9</ele>
        <time>2011-01-16T09:57:59Z</time>
      </trkpt>
      <trkpt lat="43.57919" lon="3.66566">
        <ele>228.6</ele>
        <time>2011-01-16T09:58:00Z</time>
      </trkpt>
      <trkpt lat="43.57921" lon="3.66572">
        <ele>228.3</ele>
        <time>2011-01-16T09:58:01Z</time>
      </trkpt>
      <trkpt lat="43.57924" lon="3.66577">
        <ele>228.1</ele>
        <time>2011-01-16T09:58:02Z</time>
      </trkpt>
      <trkpt lat="43.57927" lon="3.66583">
        <ele>228</ele>
        <time>2011-01-16T09:58:03Z</time>
      </trkpt>
      <trkpt lat="43.5793" lon="3.66589">
        <ele>227.9</ele>
        <time>2011-01-16T09:58:04Z</time>
      </trkpt>
      <trkpt lat="43.57934" lon="3.66596">
        <ele>227.8</ele>
        <time>2011-01-16T09:58:05Z</time>
      </trkpt>
      <trkpt lat="43.57937" lon="3.66603">
        <ele>227.6</ele>
        <time>2011-01-16T09:58:06Z</time>
      </trkpt>
      <trkpt lat="43.57941" lon="3.6661">
        <ele>227.5</ele>
        <time>2011-01-16T09:58:07Z</time>
      </trkpt>
      <trkpt lat="43.57945" lon="3.66617">
        <ele>227.4</ele>
        <time>2011-01-16T09:58:08Z</time>
      </trkpt>
      <trkpt lat="43.57949" lon="3.66623">
        <ele>226.7</ele>
        <time>2011-01-16T09:58:09Z</time>
      </trkpt>
      <trkpt lat="43.57953" lon="3.6663">
        <ele>226.2</ele>
        <time>2011-01-16T09:58:10Z</time>
      </trkpt>
      <trkpt lat="43.57956" lon="3.66636">
        <ele>225.8</ele>
        <time>2011-01-16T09:58:11Z</time>
      </trkpt>
      <trkpt lat="43.57959" lon="3.66642">
        <ele>225.6</ele>
        <time>2011-01-16T09:58:12Z</time>
      </trkpt>
      <trkpt lat="43.57962" lon="3.66647">
        <ele>225.5</ele>
        <time>2011-01-16T09:58:13Z</time>
      </trkpt>
      <trkpt lat="43.57966" lon="3.66652">
        <ele>225.4</ele>
        <time>2011-01-16T09:58:14Z</time>
      </trkpt>
      <trkpt lat="43.57972" lon="3.66661">
        <ele>224.9</ele>
        <time>2011-01-16T09:58:16Z</time>
      </trkpt>
      <trkpt lat="43.57977" lon="3.6667">
        <ele>224.8</ele>
        <time>2011-01-16T09:58:18Z</time>
      </trkpt>
      <trkpt lat="43.57982" lon="3.6668">
        <ele>225</ele>
        <time>2011-01-16T09:58:20Z</time>
      </trkpt>
      <trkpt lat="43.57986" lon="3.6669">
        <ele>225.5</ele>
        <time>2011-01-16T09:58:22Z</time>
      </trkpt>
      <trkpt lat="43.5799" lon="3.667">
        <ele>225.8</ele>
        <time>2011-01-16T09:58:24Z</time>
      </trkpt>
      <trkpt lat="43.57994" lon="3.66709">
        <ele>226.7</ele>
        <time>2011-01-16T09:58:26Z</time>
      </trkpt>
      <trkpt lat="43.57999" lon="3.66718">
        <ele>227.4</ele>
        <time>2011-01-16T09:58:28Z</time>
      </trkpt>
      <trkpt lat="43.58003" lon="3.66727">
        <ele>227.9</ele>
        <time>2011-01-16T09:58:30Z</time>
      </trkpt>
      <trkpt lat="43.58008" lon="3.66735">
        <ele>227.8</ele>
        <time>2011-01-16T09:58:32Z</time>
      </trkpt>
      <trkpt lat="43.58014" lon="3.66743">
        <ele>228</ele>
        <time>2011-01-16T09:58:34Z</time>
      </trkpt>
      <trkpt lat="43.58019" lon="3.66751">
        <ele>228.3</ele>
        <time>2011-01-16T09:58:36Z</time>
      </trkpt>
      <trkpt lat="43.58025" lon="3.66758">
        <ele>228.8</ele>
        <time>2011-01-16T09:58:38Z</time>
      </trkpt>
      <trkpt lat="43.5803" lon="3.66765">
        <ele>229</ele>
        <time>2011-01-16T09:58:40Z</time>
      </trkpt>
      <trkpt lat="43.58036" lon="3.66772">
        <ele>229.1</ele>
        <time>2011-01-16T09:58:42Z</time>
      </trkpt>
      <trkpt lat="43.58042" lon="3.66778">
        <ele>229.4</ele>
        <time>2011-01-16T09:58:44Z</time>
      </trkpt>
      <trkpt lat="43.58047" lon="3.66786">
        <ele>229.7</ele>
        <time>2011-01-16T09:58:46Z</time>
      </trkpt>
      <trkpt lat="43.58051" lon="3.66793">
        <ele>230.1</ele>
        <time>2011-01-16T09:58:48Z</time>
      </trkpt>
      <trkpt lat="43.58056" lon="3.66801">
        <ele>230.5</ele>
        <time>2011-01-16T09:58:50Z</time>
      </trkpt>
      <trkpt lat="43.58061" lon="3.66808">
        <ele>230.7</ele>
        <time>2011-01-16T09:58:52Z</time>
      </trkpt>
      <trkpt lat="43.58067" lon="3.66814">
        <ele>230.8</ele>
        <time>2011-01-16T09:58:54Z</time>
      </trkpt>
      <trkpt lat="43.58073" lon="3.66821">
        <ele>230.8</ele>
        <time>2011-01-16T09:58:56Z</time>
      </trkpt>
      <trkpt lat="43.58079" lon="3.66828">
        <ele>230.4</ele>
        <time>2011-01-16T09:58:58Z</time>
      </trkpt>
      <trkpt lat="43.58084" lon="3.66835">
        <ele>230.2</ele>
        <time>2011-01-16T09:59:00Z</time>
      </trkpt>
      <trkpt lat="43.58089" lon="3.66843">
        <ele>230.2</ele>
        <time>2011-01-16T09:59:02Z</time>
      </trkpt>
      <trkpt lat="43.58093" lon="3.66848">
        <ele>230</ele>
        <time>2011-01-16T09:59:03Z</time>
      </trkpt>
      <trkpt lat="43.58096" lon="3.66854">
        <ele>229.8</ele>
        <time>2011-01-16T09:59:04Z</time>
      </trkpt>
      <trkpt lat="43.58099" lon="3.66859">
        <ele>229.7</ele>
        <time>2011-01-16T09:59:05Z</time>
      </trkpt>
      <trkpt lat="43.58103" lon="3.66865">
        <ele>229.4</ele>
        <time>2011-01-16T09:59:06Z</time>
      </trkpt>
      <trkpt lat="43.58106" lon="3.6687">
        <ele>229.3</ele>
        <time>2011-01-16T09:59:07Z</time>
      </trkpt>
      <trkpt lat="43.5811" lon="3.66876">
        <ele>229.2</ele>
        <time>2011-01-16T09:59:08Z</time>
      </trkpt>
      <trkpt lat="43.58113" lon="3.66881">
        <ele>229</ele>
        <time>2011-01-16T09:59:09Z</time>
      </trkpt>
      <trkpt lat="43.58117" lon="3.66886">
        <ele>228.8</ele>
        <time>2011-01-16T09:59:10Z</time>
      </trkpt>
      <trkpt lat="43.5812" lon="3.66892">
        <ele>228.7</ele>
        <time>2011-01-16T09:59:11Z</time>
      </trkpt>
      <trkpt lat="43.58124" lon="3.66897">
        <ele>228.4</ele>
        <time>2011-01-16T09:59:12Z</time>
      </trkpt>
      <trkpt lat="43.58127" lon="3.66902">
        <ele>228.1</ele>
        <time>2011-01-16T09:59:13Z</time>
      </trkpt>
      <trkpt lat="43.58131" lon="3.66908">
        <ele>228</ele>
        <time>2011-01-16T09:59:14Z</time>
      </trkpt>
      <trkpt lat="43.58135" lon="3.66914">
        <ele>227.8</ele>
        <time>2011-01-16T09:59:15Z</time>
      </trkpt>
      <trkpt lat="43.58138" lon="3.66919">
        <ele>227.6</ele>
        <time>2011-01-16T09:59:16Z</time>
      </trkpt>
      <trkpt lat="43.58141" lon="3.66925">
        <ele>227.4</ele>
        <time>2011-01-16T09:59:17Z</time>
      </trkpt>
      <trkpt lat="43.58145" lon="3.6693">
        <ele>227.3</ele>
        <time>2011-01-16T09:59:18Z</time>
      </trkpt>
      <trkpt lat="43.58148" lon="3.66935">
        <ele>226.9</ele>
        <time>2011-01-16T09:59:19Z</time>
      </trkpt>
      <trkpt lat="43.58151" lon="3.6694">
        <ele>226.5</ele>
        <time>2011-01-16T09:59:20Z</time>
      </trkpt>
      <trkpt lat="43.58154" lon="3.66945">
        <ele>226.2</ele>
        <time>2011-01-16T09:59:21Z</time>
      </trkpt>
      <trkpt lat="43.58157" lon="3.66951">
        <ele>226.3</ele>
        <time>2011-01-16T09:59:22Z</time>
      </trkpt>
      <trkpt lat="43.58161" lon="3.66956">
        <ele>226.3</ele>
        <time>2011-01-16T09:59:23Z</time>
      </trkpt>
      <trkpt lat="43.58164" lon="3.66961">
        <ele>226.3</ele>
        <time>2011-01-16T09:59:24Z</time>
      </trkpt>
      <trkpt lat="43.58167" lon="3.66966">
        <ele>226.3</ele>
        <time>2011-01-16T09:59:25Z</time>
      </trkpt>
      <trkpt lat="43.5817" lon="3.66972">
        <ele>226.3</ele>
        <time>2011-01-16T09:59:26Z</time>
      </trkpt>
      <trkpt lat="43.58174" lon="3.66977">
        <ele>226.3</ele>
        <time>2011-01-16T09:59:27Z</time>
      </trkpt>
      <trkpt lat="43.58177" lon="3.66983">
        <ele>226.3</ele>
        <time>2011-01-16T09:59:28Z</time>
      </trkpt>
      <trkpt lat="43.5818" lon="3.66988">
        <ele>226.3</ele>
        <time>2011-01-16T09:59:29Z</time>
      </trkpt>
      <trkpt lat="43.58183" lon="3.66993">
        <ele>226.3</ele>
        <time>2011-01-16T09:59:30Z</time>
      </trkpt>
      <trkpt lat="43.58187" lon="3.66998">
        <ele>226.3</ele>
        <time>2011-01-16T09:59:31Z</time>
      </trkpt>
      <trkpt lat="43.5819" lon="3.67003">
        <ele>226.1</ele>
        <time>2011-01-16T09:59:32Z</time>
      </trkpt>
      <trkpt lat="43.58194" lon="3.67008">
        <ele>226</ele>
        <time>2011-01-16T09:59:33Z</time>
      </trkpt>
      <trkpt lat="43.58197" lon="3.67013">
        <ele>225.9</ele>
        <time>2011-01-16T09:59:34Z</time>
      </trkpt>
      <trkpt lat="43.582" lon="3.67018">
        <ele>225.9</ele>
        <time>2011-01-16T09:59:35Z</time>
      </trkpt>
      <trkpt lat="43.58203" lon="3.67023">
        <ele>225.9</ele>
        <time>2011-01-16T09:59:36Z</time>
      </trkpt>
      <trkpt lat="43.58206" lon="3.67028">
        <ele>225.8</ele>
        <time>2011-01-16T09:59:37Z</time>
      </trkpt>
      <trkpt lat="43.58213" lon="3.67035">
        <ele>225.7</ele>
        <time>2011-01-16T09:59:39Z</time>
      </trkpt>
      <trkpt lat="43.5822" lon="3.6704">
        <ele>226.1</ele>
        <time>2011-01-16T09:59:41Z</time>
      </trkpt>
      <trkpt lat="43.58227" lon="3.67043">
        <ele>226.7</ele>
        <time>2011-01-16T09:59:43Z</time>
      </trkpt>
      <trkpt lat="43.58234" lon="3.67043">
        <ele>227.5</ele>
        <time>2011-01-16T09:59:45Z</time>
      </trkpt>
      <trkpt lat="43.58242" lon="3.67043">
        <ele>227.9</ele>
        <time>2011-01-16T09:59:47Z</time>
      </trkpt>
      <trkpt lat="43.58249" lon="3.67044">
        <ele>228.9</ele>
        <time>2011-01-16T09:59:49Z</time>
      </trkpt>
      <trkpt lat="43.58255" lon="3.67046">
        <ele>229.9</ele>
        <time>2011-01-16T09:59:51Z</time>
      </trkpt>
      <trkpt lat="43.58262" lon="3.67049">
        <ele>230.8</ele>
        <time>2011-01-16T09:59:53Z</time>
      </trkpt>
      <trkpt lat="43.58267" lon="3.67054">
        <ele>231.8</ele>
        <time>2011-01-16T09:59:55Z</time>
      </trkpt>
      <trkpt lat="43.58269" lon="3.67066">
        <ele>232.4</ele>
        <time>2011-01-16T09:59:58Z</time>
      </trkpt>
      <trkpt lat="43.58268" lon="3.67077">
        <ele>233.5</ele>
        <time>2011-01-16T10:00:01Z</time>
      </trkpt>
      <trkpt lat="43.58264" lon="3.67085">
        <ele>233.3</ele>
        <time>2011-01-16T10:00:04Z</time>
      </trkpt>
      <trkpt lat="43.58261" lon="3.67094">
        <ele>233.2</ele>
        <time>2011-01-16T10:00:07Z</time>
      </trkpt>
      <trkpt lat="43.58257" lon="3.67103">
        <ele>233.6</ele>
        <time>2011-01-16T10:00:10Z</time>
      </trkpt>
      <trkpt lat="43.58253" lon="3.67113">
        <ele>233.9</ele>
        <time>2011-01-16T10:00:13Z</time>
      </trkpt>
      <trkpt lat="43.58252" lon="3.67116">
        <ele>234</ele>
        <time>2011-01-16T10:00:14Z</time>
      </trkpt>
      <trkpt lat="43.58248" lon="3.67132">
        <ele>233.4</ele>
        <time>2011-01-16T10:00:18Z</time>
      </trkpt>
      <trkpt lat="43.58247" lon="3.67143">
        <ele>234.3</ele>
        <time>2011-01-16T10:00:21Z</time>
      </trkpt>
      <trkpt lat="43.58245" lon="3.67154">
        <ele>234.4</ele>
        <time>2011-01-16T10:00:24Z</time>
      </trkpt>
      <trkpt lat="43.58244" lon="3.67165">
        <ele>236.1</ele>
        <time>2011-01-16T10:00:43Z</time>
      </trkpt>
      <trkpt lat="43.58243" lon="3.67177">
        <ele>235.9</ele>
        <time>2011-01-16T10:00:48Z</time>
      </trkpt>
      <trkpt lat="43.58242" lon="3.67186">
        <ele>235.9</ele>
        <time>2011-01-16T10:00:51Z</time>
      </trkpt>
      <trkpt lat="43.58247" lon="3.67196">
        <ele>236.6</ele>
        <time>2011-01-16T10:00:55Z</time>
      </trkpt>
      <trkpt lat="43.58251" lon="3.67204">
        <ele>237.5</ele>
        <time>2011-01-16T10:00:58Z</time>
      </trkpt>
      <trkpt lat="43.58255" lon="3.67214">
        <ele>237.7</ele>
        <time>2011-01-16T10:01:01Z</time>
      </trkpt>
      <trkpt lat="43.58256" lon="3.67225">
        <ele>237.8</ele>
        <time>2011-01-16T10:01:04Z</time>
      </trkpt>
      <trkpt lat="43.58258" lon="3.67234">
        <ele>237.7</ele>
        <time>2011-01-16T10:01:06Z</time>
      </trkpt>
      <trkpt lat="43.58261" lon="3.67244">
        <ele>237.4</ele>
        <time>2011-01-16T10:01:08Z</time>
      </trkpt>
      <trkpt lat="43.58262" lon="3.67253">
        <ele>236.8</ele>
        <time>2011-01-16T10:01:10Z</time>
      </trkpt>
      <trkpt lat="43.58266" lon="3.67263">
        <ele>236.3</ele>
        <time>2011-01-16T10:01:12Z</time>
      </trkpt>
      <trkpt lat="43.58269" lon="3.67273">
        <ele>235.8</ele>
        <time>2011-01-16T10:01:14Z</time>
      </trkpt>
      <trkpt lat="43.58269" lon="3.67278">
        <ele>235.6</ele>
        <time>2011-01-16T10:01:15Z</time>
      </trkpt>
      <trkpt lat="43.58266" lon="3.67293">
        <ele>235.1</ele>
        <time>2011-01-16T10:01:18Z</time>
      </trkpt>
      <trkpt lat="43.58266" lon="3.67303">
        <ele>234.6</ele>
        <time>2011-01-16T10:01:20Z</time>
      </trkpt>
      <trkpt lat="43.58267" lon="3.67314">
        <ele>234.2</ele>
        <time>2011-01-16T10:01:22Z</time>
      </trkpt>
      <trkpt lat="43.58266" lon="3.67321">
        <ele>233.8</ele>
        <time>2011-01-16T10:01:23Z</time>
      </trkpt>
      <trkpt lat="43.58265" lon="3.67328">
        <ele>233.4</ele>
        <time>2011-01-16T10:01:24Z</time>
      </trkpt>
      <trkpt lat="43.58263" lon="3.67334">
        <ele>233.1</ele>
        <time>2011-01-16T10:01:25Z</time>
      </trkpt>
      <trkpt lat="43.58262" lon="3.67341">
        <ele>232.5</ele>
        <time>2011-01-16T10:01:26Z</time>
      </trkpt>
      <trkpt lat="43.58261" lon="3.67353">
        <ele>231.7</ele>
        <time>2011-01-16T10:01:28Z</time>
      </trkpt>
      <trkpt lat="43.58261" lon="3.67359">
        <ele>231.4</ele>
        <time>2011-01-16T10:01:29Z</time>
      </trkpt>
      <trkpt lat="43.58263" lon="3.67366">
        <ele>231.2</ele>
        <time>2011-01-16T10:01:30Z</time>
      </trkpt>
      <trkpt lat="43.58265" lon="3.67372">
        <ele>231</ele>
        <time>2011-01-16T10:01:31Z</time>
      </trkpt>
      <trkpt lat="43.58268" lon="3.67376">
        <ele>230.9</ele>
        <time>2011-01-16T10:01:32Z</time>
      </trkpt>
      <trkpt lat="43.58271" lon="3.67381">
        <ele>230.7</ele>
        <time>2011-01-16T10:01:33Z</time>
      </trkpt>
      <trkpt lat="43.58274" lon="3.67385">
        <ele>230.6</ele>
        <time>2011-01-16T10:01:34Z</time>
      </trkpt>
      <trkpt lat="43.58277" lon="3.67391">
        <ele>230.5</ele>
        <time>2011-01-16T10:01:35Z</time>
      </trkpt>
      <trkpt lat="43.58279" lon="3.67397">
        <ele>230.1</ele>
        <time>2011-01-16T10:01:36Z</time>
      </trkpt>
      <trkpt lat="43.58281" lon="3.67404">
        <ele>229.7</ele>
        <time>2011-01-16T10:01:37Z</time>
      </trkpt>
      <trkpt lat="43.58283" lon="3.6741">
        <ele>229.5</ele>
        <time>2011-01-16T10:01:38Z</time>
      </trkpt>
      <trkpt lat="43.58287" lon="3.67419">
        <ele>228.1</ele>
        <time>2011-01-16T10:01:40Z</time>
      </trkpt>
      <trkpt lat="43.58286" lon="3.67429">
        <ele>227.2</ele>
        <time>2011-01-16T10:01:42Z</time>
      </trkpt>
      <trkpt lat="43.58284" lon="3.67441">
        <ele>226.7</ele>
        <time>2011-01-16T10:01:44Z</time>
      </trkpt>
      <trkpt lat="43.58283" lon="3.67447">
        <ele>226.5</ele>
        <time>2011-01-16T10:01:45Z</time>
      </trkpt>
      <trkpt lat="43.58281" lon="3.67453">
        <ele>226.1</ele>
        <time>2011-01-16T10:01:46Z</time>
      </trkpt>
      <trkpt lat="43.5828" lon="3.6746">
        <ele>225.8</ele>
        <time>2011-01-16T10:01:47Z</time>
      </trkpt>
      <trkpt lat="43.58279" lon="3.67467">
        <ele>225.6</ele>
        <time>2011-01-16T10:01:48Z</time>
      </trkpt>
      <trkpt lat="43.58278" lon="3.67474">
        <ele>225</ele>
        <time>2011-01-16T10:01:49Z</time>
      </trkpt>
      <trkpt lat="43.58277" lon="3.67481">
        <ele>224.5</ele>
        <time>2011-01-16T10:01:50Z</time>
      </trkpt>
      <trkpt lat="43.58277" lon="3.67488">
        <ele>224.2</ele>
        <time>2011-01-16T10:01:51Z</time>
      </trkpt>
      <trkpt lat="43.58278" lon="3.67494">
        <ele>224</ele>
        <time>2011-01-16T10:01:52Z</time>
      </trkpt>
      <trkpt lat="43.58278" lon="3.675">
        <ele>223.8</ele>
        <time>2011-01-16T10:01:53Z</time>
      </trkpt>
      <trkpt lat="43.58279" lon="3.67506">
        <ele>223.7</ele>
        <time>2011-01-16T10:01:54Z</time>
      </trkpt>
      <trkpt lat="43.58278" lon="3.67518">
        <ele>222.5</ele>
        <time>2011-01-16T10:01:56Z</time>
      </trkpt>
      <trkpt lat="43.58275" lon="3.67529">
        <ele>221.6</ele>
        <time>2011-01-16T10:01:58Z</time>
      </trkpt>
      <trkpt lat="43.58274" lon="3.67535">
        <ele>221.3</ele>
        <time>2011-01-16T10:01:59Z</time>
      </trkpt>
      <trkpt lat="43.58273" lon="3.67541">
        <ele>221</ele>
        <time>2011-01-16T10:02:00Z</time>
      </trkpt>
      <trkpt lat="43.58272" lon="3.67548">
        <ele>220.8</ele>
        <time>2011-01-16T10:02:01Z</time>
      </trkpt>
      <trkpt lat="43.5827" lon="3.67555">
        <ele>220.1</ele>
        <time>2011-01-16T10:02:02Z</time>
      </trkpt>
      <trkpt lat="43.58267" lon="3.67561">
        <ele>219.6</ele>
        <time>2011-01-16T10:02:03Z</time>
      </trkpt>
      <trkpt lat="43.58264" lon="3.67567">
        <ele>219.2</ele>
        <time>2011-01-16T10:02:04Z</time>
      </trkpt>
      <trkpt lat="43.5826" lon="3.67573">
        <ele>218.6</ele>
        <time>2011-01-16T10:02:05Z</time>
      </trkpt>
      <trkpt lat="43.58256" lon="3.67578">
        <ele>218.1</ele>
        <time>2011-01-16T10:02:06Z</time>
      </trkpt>
      <trkpt lat="43.58252" lon="3.67584">
        <ele>217.7</ele>
        <time>2011-01-16T10:02:07Z</time>
      </trkpt>
      <trkpt lat="43.58249" lon="3.67589">
        <ele>217.6</ele>
        <time>2011-01-16T10:02:08Z</time>
      </trkpt>
      <trkpt lat="43.58247" lon="3.67596">
        <ele>217.5</ele>
        <time>2011-01-16T10:02:09Z</time>
      </trkpt>
      <trkpt lat="43.58246" lon="3.67602">
        <ele>217.5</ele>
        <time>2011-01-16T10:02:10Z</time>
      </trkpt>
      <trkpt lat="43.58247" lon="3.67614">
        <ele>217.4</ele>
        <time>2011-01-16T10:02:12Z</time>
      </trkpt>
      <trkpt lat="43.58248" lon="3.67624">
        <ele>217.1</ele>
        <time>2011-01-16T10:02:14Z</time>
      </trkpt>
      <trkpt lat="43.58248" lon="3.67632">
        <ele>216.6</ele>
        <time>2011-01-16T10:02:16Z</time>
      </trkpt>
      <trkpt lat="43.58249" lon="3.67637">
        <ele>216.5</ele>
        <time>2011-01-16T10:02:17Z</time>
      </trkpt>
      <trkpt lat="43.5825" lon="3.67649">
        <ele>216.2</ele>
        <time>2011-01-16T10:02:19Z</time>
      </trkpt>
      <trkpt lat="43.58249" lon="3.67655">
        <ele>216.1</ele>
        <time>2011-01-16T10:02:20Z</time>
      </trkpt>
      <trkpt lat="43.5825" lon="3.67667">
        <ele>215.3</ele>
        <time>2011-01-16T10:02:22Z</time>
      </trkpt>
      <trkpt lat="43.58252" lon="3.67672">
        <ele>215.1</ele>
        <time>2011-01-16T10:02:23Z</time>
      </trkpt>
      <trkpt lat="43.58255" lon="3.67677">
        <ele>214.3</ele>
        <time>2011-01-16T10:02:24Z</time>
      </trkpt>
      <trkpt lat="43.58258" lon="3.67683">
        <ele>213.6</ele>
        <time>2011-01-16T10:02:25Z</time>
      </trkpt>
      <trkpt lat="43.5826" lon="3.67689">
        <ele>213.2</ele>
        <time>2011-01-16T10:02:26Z</time>
      </trkpt>
      <trkpt lat="43.58264" lon="3.67696">
        <ele>212.7</ele>
        <time>2011-01-16T10:02:27Z</time>
      </trkpt>
      <trkpt lat="43.58267" lon="3.67703">
        <ele>212.4</ele>
        <time>2011-01-16T10:02:28Z</time>
      </trkpt>
      <trkpt lat="43.5827" lon="3.6771">
        <ele>212.2</ele>
        <time>2011-01-16T10:02:29Z</time>
      </trkpt>
      <trkpt lat="43.58273" lon="3.67717">
        <ele>211.6</ele>
        <time>2011-01-16T10:02:30Z</time>
      </trkpt>
      <trkpt lat="43.58275" lon="3.67724">
        <ele>211.2</ele>
        <time>2011-01-16T10:02:31Z</time>
      </trkpt>
      <trkpt lat="43.58277" lon="3.67731">
        <ele>210.9</ele>
        <time>2011-01-16T10:02:32Z</time>
      </trkpt>
      <trkpt lat="43.58277" lon="3.67739">
        <ele>210.1</ele>
        <time>2011-01-16T10:02:33Z</time>
      </trkpt>
      <trkpt lat="43.58278" lon="3.67747">
        <ele>209.4</ele>
        <time>2011-01-16T10:02:34Z</time>
      </trkpt>
      <trkpt lat="43.5828" lon="3.67754">
        <ele>208.9</ele>
        <time>2011-01-16T10:02:35Z</time>
      </trkpt>
      <trkpt lat="43.58282" lon="3.6776">
        <ele>208.6</ele>
        <time>2011-01-16T10:02:36Z</time>
      </trkpt>
      <trkpt lat="43.58282" lon="3.67766">
        <ele>208.2</ele>
        <time>2011-01-16T10:02:37Z</time>
      </trkpt>
      <trkpt lat="43.58283" lon="3.67773">
        <ele>207.9</ele>
        <time>2011-01-16T10:02:38Z</time>
      </trkpt>
      <trkpt lat="43.58284" lon="3.6778">
        <ele>207.6</ele>
        <time>2011-01-16T10:02:39Z</time>
      </trkpt>
      <trkpt lat="43.58284" lon="3.67787">
        <ele>206.8</ele>
        <time>2011-01-16T10:02:40Z</time>
      </trkpt>
      <trkpt lat="43.58284" lon="3.67794">
        <ele>206.2</ele>
        <time>2011-01-16T10:02:41Z</time>
      </trkpt>
      <trkpt lat="43.58284" lon="3.67801">
        <ele>205.7</ele>
        <time>2011-01-16T10:02:42Z</time>
      </trkpt>
      <trkpt lat="43.58283" lon="3.67808">
        <ele>205.2</ele>
        <time>2011-01-16T10:02:43Z</time>
      </trkpt>
      <trkpt lat="43.58282" lon="3.67815">
        <ele>204.9</ele>
        <time>2011-01-16T10:02:44Z</time>
      </trkpt>
      <trkpt lat="43.58281" lon="3.67823">
        <ele>204.6</ele>
        <time>2011-01-16T10:02:45Z</time>
      </trkpt>
      <trkpt lat="43.58281" lon="3.6783">
        <ele>204.2</ele>
        <time>2011-01-16T10:02:46Z</time>
      </trkpt>
      <trkpt lat="43.58282" lon="3.67837">
        <ele>203.9</ele>
        <time>2011-01-16T10:02:47Z</time>
      </trkpt>
      <trkpt lat="43.58282" lon="3.67843">
        <ele>203.7</ele>
        <time>2011-01-16T10:02:48Z</time>
      </trkpt>
      <trkpt lat="43.58281" lon="3.6785">
        <ele>203.4</ele>
        <time>2011-01-16T10:02:49Z</time>
      </trkpt>
      <trkpt lat="43.58279" lon="3.67856">
        <ele>203.1</ele>
        <time>2011-01-16T10:02:50Z</time>
      </trkpt>
      <trkpt lat="43.58276" lon="3.67863">
        <ele>202.9</ele>
        <time>2011-01-16T10:02:51Z</time>
      </trkpt>
      <trkpt lat="43.58274" lon="3.6787">
        <ele>202.8</ele>
        <time>2011-01-16T10:02:52Z</time>
      </trkpt>
      <trkpt lat="43.58273" lon="3.67878">
        <ele>202.3</ele>
        <time>2011-01-16T10:02:53Z</time>
      </trkpt>
      <trkpt lat="43.58274" lon="3.67887">
        <ele>202</ele>
        <time>2011-01-16T10:02:54Z</time>
      </trkpt>
      <trkpt lat="43.58274" lon="3.67895">
        <ele>201.7</ele>
        <time>2011-01-16T10:02:55Z</time>
      </trkpt>
      <trkpt lat="43.58275" lon="3.67903">
        <ele>201.6</ele>
        <time>2011-01-16T10:02:56Z</time>
      </trkpt>
      <trkpt lat="43.58277" lon="3.67911">
        <ele>201.5</ele>
        <time>2011-01-16T10:02:57Z</time>
      </trkpt>
      <trkpt lat="43.58279" lon="3.67918">
        <ele>201.5</ele>
        <time>2011-01-16T10:02:58Z</time>
      </trkpt>
      <trkpt lat="43.5828" lon="3.67924">
        <ele>201.5</ele>
        <time>2011-01-16T10:02:59Z</time>
      </trkpt>
      <trkpt lat="43.58281" lon="3.6793">
        <ele>201.6</ele>
        <time>2011-01-16T10:03:00Z</time>
      </trkpt>
      <trkpt lat="43.58282" lon="3.67936">
        <ele>201.6</ele>
        <time>2011-01-16T10:03:01Z</time>
      </trkpt>
      <trkpt lat="43.58284" lon="3.67943">
        <ele>201.8</ele>
        <time>2011-01-16T10:03:02Z</time>
      </trkpt>
      <trkpt lat="43.58286" lon="3.67949">
        <ele>202</ele>
        <time>2011-01-16T10:03:03Z</time>
      </trkpt>
      <trkpt lat="43.58287" lon="3.67955">
        <ele>202.1</ele>
        <time>2011-01-16T10:03:04Z</time>
      </trkpt>
      <trkpt lat="43.58289" lon="3.67962">
        <ele>202.4</ele>
        <time>2011-01-16T10:03:05Z</time>
      </trkpt>
      <trkpt lat="43.58291" lon="3.67968">
        <ele>202.6</ele>
        <time>2011-01-16T10:03:06Z</time>
      </trkpt>
      <trkpt lat="43.58293" lon="3.67974">
        <ele>202.8</ele>
        <time>2011-01-16T10:03:07Z</time>
      </trkpt>
      <trkpt lat="43.58295" lon="3.6798">
        <ele>202.9</ele>
        <time>2011-01-16T10:03:08Z</time>
      </trkpt>
      <trkpt lat="43.58296" lon="3.67987">
        <ele>202.8</ele>
        <time>2011-01-16T10:03:09Z</time>
      </trkpt>
      <trkpt lat="43.58294" lon="3.67999">
        <ele>202.6</ele>
        <time>2011-01-16T10:03:11Z</time>
      </trkpt>
      <trkpt lat="43.58293" lon="3.68005">
        <ele>202.5</ele>
        <time>2011-01-16T10:03:12Z</time>
      </trkpt>
      <trkpt lat="43.58291" lon="3.68011">
        <ele>202.4</ele>
        <time>2011-01-16T10:03:13Z</time>
      </trkpt>
      <trkpt lat="43.58289" lon="3.68017">
        <ele>202.4</ele>
        <time>2011-01-16T10:03:14Z</time>
      </trkpt>
      <trkpt lat="43.58286" lon="3.68022">
        <ele>202.3</ele>
        <time>2011-01-16T10:03:15Z</time>
      </trkpt>
      <trkpt lat="43.58284" lon="3.68028">
        <ele>202.2</ele>
        <time>2011-01-16T10:03:16Z</time>
      </trkpt>
      <trkpt lat="43.58278" lon="3.68038">
        <ele>202</ele>
        <time>2011-01-16T10:03:18Z</time>
      </trkpt>
      <trkpt lat="43.58276" lon="3.68041">
        <ele>201.9</ele>
        <time>2011-01-16T10:03:19Z</time>
      </trkpt>
      <trkpt lat="43.58268" lon="3.6805">
        <ele>201.5</ele>
        <time>2011-01-16T10:03:22Z</time>
      </trkpt>
      <trkpt lat="43.58265" lon="3.68059">
        <ele>201.2</ele>
        <time>2011-01-16T10:03:24Z</time>
      </trkpt>
      <trkpt lat="43.58259" lon="3.68066">
        <ele>201</ele>
        <time>2011-01-16T10:03:26Z</time>
      </trkpt>
      <trkpt lat="43.58256" lon="3.6807">
        <ele>200.9</ele>
        <time>2011-01-16T10:03:27Z</time>
      </trkpt>
      <trkpt lat="43.58253" lon="3.68075">
        <ele>200.4</ele>
        <time>2011-01-16T10:03:28Z</time>
      </trkpt>
      <trkpt lat="43.58251" lon="3.6808">
        <ele>200</ele>
        <time>2011-01-16T10:03:29Z</time>
      </trkpt>
      <trkpt lat="43.58248" lon="3.68086">
        <ele>199.7</ele>
        <time>2011-01-16T10:03:30Z</time>
      </trkpt>
      <trkpt lat="43.58245" lon="3.68092">
        <ele>199.2</ele>
        <time>2011-01-16T10:03:31Z</time>
      </trkpt>
      <trkpt lat="43.58242" lon="3.68098">
        <ele>198.9</ele>
        <time>2011-01-16T10:03:32Z</time>
      </trkpt>
      <trkpt lat="43.5824" lon="3.68104">
        <ele>198.7</ele>
        <time>2011-01-16T10:03:33Z</time>
      </trkpt>
      <trkpt lat="43.58239" lon="3.68111">
        <ele>198.8</ele>
        <time>2011-01-16T10:03:34Z</time>
      </trkpt>
      <trkpt lat="43.58238" lon="3.68117">
        <ele>198.8</ele>
        <time>2011-01-16T10:03:35Z</time>
      </trkpt>
      <trkpt lat="43.58236" lon="3.68123">
        <ele>198.9</ele>
        <time>2011-01-16T10:03:36Z</time>
      </trkpt>
      <trkpt lat="43.58232" lon="3.68133">
        <ele>198.7</ele>
        <time>2011-01-16T10:03:38Z</time>
      </trkpt>
      <trkpt lat="43.58226" lon="3.68141">
        <ele>198.8</ele>
        <time>2011-01-16T10:03:40Z</time>
      </trkpt>
      <trkpt lat="43.58219" lon="3.68148">
        <ele>198.8</ele>
        <time>2011-01-16T10:03:42Z</time>
      </trkpt>
      <trkpt lat="43.58216" lon="3.68152">
        <ele>198.9</ele>
        <time>2011-01-16T10:03:43Z</time>
      </trkpt>
      <trkpt lat="43.58209" lon="3.68159">
        <ele>198.7</ele>
        <time>2011-01-16T10:03:45Z</time>
      </trkpt>
      <trkpt lat="43.58202" lon="3.68166">
        <ele>198.5</ele>
        <time>2011-01-16T10:03:47Z</time>
      </trkpt>
      <trkpt lat="43.58194" lon="3.68173">
        <ele>198</ele>
        <time>2011-01-16T10:03:50Z</time>
      </trkpt>
      <trkpt lat="43.58189" lon="3.68177">
        <ele>197.6</ele>
        <time>2011-01-16T10:03:52Z</time>
      </trkpt>
      <trkpt lat="43.58182" lon="3.6818">
        <ele>196.3</ele>
        <time>2011-01-16T10:03:54Z</time>
      </trkpt>
      <trkpt lat="43.58176" lon="3.68183">
        <ele>195.6</ele>
        <time>2011-01-16T10:03:56Z</time>
      </trkpt>
      <trkpt lat="43.5817" lon="3.68187">
        <ele>195.2</ele>
        <time>2011-01-16T10:03:58Z</time>
      </trkpt>
      <trkpt lat="43.58163" lon="3.68192">
        <ele>194.4</ele>
        <time>2011-01-16T10:04:00Z</time>
      </trkpt>
      <trkpt lat="43.58158" lon="3.68195">
        <ele>194</ele>
        <time>2011-01-16T10:04:01Z</time>
      </trkpt>
      <trkpt lat="43.58154" lon="3.68198">
        <ele>193.6</ele>
        <time>2011-01-16T10:04:02Z</time>
      </trkpt>
      <trkpt lat="43.5815" lon="3.68203">
        <ele>192.6</ele>
        <time>2011-01-16T10:04:03Z</time>
      </trkpt>
      <trkpt lat="43.58146" lon="3.68208">
        <ele>191.9</ele>
        <time>2011-01-16T10:04:04Z</time>
      </trkpt>
      <trkpt lat="43.58142" lon="3.68212">
        <ele>191.3</ele>
        <time>2011-01-16T10:04:05Z</time>
      </trkpt>
      <trkpt lat="43.58137" lon="3.68218">
        <ele>190.4</ele>
        <time>2011-01-16T10:04:06Z</time>
      </trkpt>
      <trkpt lat="43.58134" lon="3.68224">
        <ele>189.7</ele>
        <time>2011-01-16T10:04:07Z</time>
      </trkpt>
      <trkpt lat="43.58131" lon="3.68231">
        <ele>189.2</ele>
        <time>2011-01-16T10:04:08Z</time>
      </trkpt>
      <trkpt lat="43.58129" lon="3.68238">
        <ele>188.3</ele>
        <time>2011-01-16T10:04:09Z</time>
      </trkpt>
      <trkpt lat="43.58126" lon="3.68246">
        <ele>187.6</ele>
        <time>2011-01-16T10:04:10Z</time>
      </trkpt>
      <trkpt lat="43.58124" lon="3.68254">
        <ele>187.1</ele>
        <time>2011-01-16T10:04:11Z</time>
      </trkpt>
      <trkpt lat="43.58121" lon="3.68262">
        <ele>186</ele>
        <time>2011-01-16T10:04:12Z</time>
      </trkpt>
      <trkpt lat="43.58119" lon="3.68271">
        <ele>185.1</ele>
        <time>2011-01-16T10:04:13Z</time>
      </trkpt>
      <trkpt lat="43.58117" lon="3.68281">
        <ele>184.5</ele>
        <time>2011-01-16T10:04:14Z</time>
      </trkpt>
      <trkpt lat="43.58116" lon="3.68291">
        <ele>184</ele>
        <time>2011-01-16T10:04:15Z</time>
      </trkpt>
      <trkpt lat="43.58114" lon="3.68301">
        <ele>182.7</ele>
        <time>2011-01-16T10:04:16Z</time>
      </trkpt>
      <trkpt lat="43.58113" lon="3.68311">
        <ele>181.8</ele>
        <time>2011-01-16T10:04:17Z</time>
      </trkpt>
      <trkpt lat="43.58111" lon="3.68319">
        <ele>181</ele>
        <time>2011-01-16T10:04:18Z</time>
      </trkpt>
      <trkpt lat="43.58108" lon="3.68328">
        <ele>180.2</ele>
        <time>2011-01-16T10:04:19Z</time>
      </trkpt>
      <trkpt lat="43.58106" lon="3.68335">
        <ele>179.5</ele>
        <time>2011-01-16T10:04:20Z</time>
      </trkpt>
      <trkpt lat="43.58104" lon="3.68342">
        <ele>179.1</ele>
        <time>2011-01-16T10:04:21Z</time>
      </trkpt>
      <trkpt lat="43.58102" lon="3.68352">
        <ele>178.9</ele>
        <time>2011-01-16T10:04:23Z</time>
      </trkpt>
      <trkpt lat="43.581" lon="3.68364">
        <ele>178.5</ele>
        <time>2011-01-16T10:06:49Z</time>
      </trkpt>
      <trkpt lat="43.581" lon="3.68364">
        <ele>178.3</ele>
        <time>2011-01-16T10:06:50Z</time>
      </trkpt>
      <trkpt lat="43.58103" lon="3.68384">
        <ele>176.9</ele>
        <time>2011-01-16T10:06:55Z</time>
      </trkpt>
      <trkpt lat="43.58107" lon="3.68393">
        <ele>176.1</ele>
        <time>2011-01-16T10:06:57Z</time>
      </trkpt>
      <trkpt lat="43.58114" lon="3.684">
        <ele>175</ele>
        <time>2011-01-16T10:06:59Z</time>
      </trkpt>
      <trkpt lat="43.58118" lon="3.68404">
        <ele>174.6</ele>
        <time>2011-01-16T10:07:00Z</time>
      </trkpt>
      <trkpt lat="43.58121" lon="3.68409">
        <ele>173.5</ele>
        <time>2011-01-16T10:07:01Z</time>
      </trkpt>
      <trkpt lat="43.58123" lon="3.68415">
        <ele>172.6</ele>
        <time>2011-01-16T10:07:02Z</time>
      </trkpt>
      <trkpt lat="43.58125" lon="3.68422">
        <ele>172</ele>
        <time>2011-01-16T10:07:03Z</time>
      </trkpt>
      <trkpt lat="43.58127" lon="3.68431">
        <ele>171.5</ele>
        <time>2011-01-16T10:07:04Z</time>
      </trkpt>
      <trkpt lat="43.58129" lon="3.68439">
        <ele>170.7</ele>
        <time>2011-01-16T10:07:05Z</time>
      </trkpt>
      <trkpt lat="43.58131" lon="3.68448">
        <ele>170.1</ele>
        <time>2011-01-16T10:07:06Z</time>
      </trkpt>
      <trkpt lat="43.58132" lon="3.68456">
        <ele>169.6</ele>
        <time>2011-01-16T10:07:07Z</time>
      </trkpt>
      <trkpt lat="43.58133" lon="3.68465">
        <ele>169</ele>
        <time>2011-01-16T10:07:08Z</time>
      </trkpt>
      <trkpt lat="43.58134" lon="3.68473">
        <ele>168.5</ele>
        <time>2011-01-16T10:07:09Z</time>
      </trkpt>
      <trkpt lat="43.58135" lon="3.68481">
        <ele>168.1</ele>
        <time>2011-01-16T10:07:10Z</time>
      </trkpt>
      <trkpt lat="43.58136" lon="3.68489">
        <ele>168.1</ele>
        <time>2011-01-16T10:07:11Z</time>
      </trkpt>
      <trkpt lat="43.58137" lon="3.68497">
        <ele>168</ele>
        <time>2011-01-16T10:07:12Z</time>
      </trkpt>
      <trkpt lat="43.58138" lon="3.68505">
        <ele>168</ele>
        <time>2011-01-16T10:07:13Z</time>
      </trkpt>
      <trkpt lat="43.5814" lon="3.68512">
        <ele>167.5</ele>
        <time>2011-01-16T10:07:14Z</time>
      </trkpt>
      <trkpt lat="43.58143" lon="3.68518">
        <ele>167.1</ele>
        <time>2011-01-16T10:07:15Z</time>
      </trkpt>
      <trkpt lat="43.58147" lon="3.68524">
        <ele>166.8</ele>
        <time>2011-01-16T10:07:16Z</time>
      </trkpt>
      <trkpt lat="43.5815" lon="3.68529">
        <ele>166.7</ele>
        <time>2011-01-16T10:07:17Z</time>
      </trkpt>
      <trkpt lat="43.58154" lon="3.68535">
        <ele>166.7</ele>
        <time>2011-01-16T10:07:18Z</time>
      </trkpt>
      <trkpt lat="43.58157" lon="3.68542">
        <ele>166.6</ele>
        <time>2011-01-16T10:07:19Z</time>
      </trkpt>
      <trkpt lat="43.58161" lon="3.68548">
        <ele>166.6</ele>
        <time>2011-01-16T10:07:20Z</time>
      </trkpt>
      <trkpt lat="43.58165" lon="3.68554">
        <ele>166.5</ele>
        <time>2011-01-16T10:07:21Z</time>
      </trkpt>
      <trkpt lat="43.58168" lon="3.6856">
        <ele>166.5</ele>
        <time>2011-01-16T10:07:22Z</time>
      </trkpt>
      <trkpt lat="43.58171" lon="3.68567">
        <ele>166.5</ele>
        <time>2011-01-16T10:07:23Z</time>
      </trkpt>
      <trkpt lat="43.58174" lon="3.68574">
        <ele>166.5</ele>
        <time>2011-01-16T10:07:24Z</time>
      </trkpt>
      <trkpt lat="43.58176" lon="3.6858">
        <ele>166.5</ele>
        <time>2011-01-16T10:07:25Z</time>
      </trkpt>
      <trkpt lat="43.58178" lon="3.68587">
        <ele>166.6</ele>
        <time>2011-01-16T10:07:26Z</time>
      </trkpt>
      <trkpt lat="43.58179" lon="3.68595">
        <ele>165.9</ele>
        <time>2011-01-16T10:07:27Z</time>
      </trkpt>
      <trkpt lat="43.58179" lon="3.68603">
        <ele>165.4</ele>
        <time>2011-01-16T10:07:28Z</time>
      </trkpt>
      <trkpt lat="43.5818" lon="3.68611">
        <ele>165</ele>
        <time>2011-01-16T10:07:29Z</time>
      </trkpt>
      <trkpt lat="43.5818" lon="3.6862">
        <ele>164</ele>
        <time>2011-01-16T10:07:30Z</time>
      </trkpt>
      <trkpt lat="43.58179" lon="3.68629">
        <ele>163.3</ele>
        <time>2011-01-16T10:07:31Z</time>
      </trkpt>
      <trkpt lat="43.58179" lon="3.68639">
        <ele>162.7</ele>
        <time>2011-01-16T10:07:32Z</time>
      </trkpt>
      <trkpt lat="43.58178" lon="3.68649">
        <ele>161.6</ele>
        <time>2011-01-16T10:07:33Z</time>
      </trkpt>
      <trkpt lat="43.58177" lon="3.68658">
        <ele>160.8</ele>
        <time>2011-01-16T10:07:34Z</time>
      </trkpt>
      <trkpt lat="43.58178" lon="3.68669">
        <ele>159.7</ele>
        <time>2011-01-16T10:07:36Z</time>
      </trkpt>
      <trkpt lat="43.58186" lon="3.68669">
        <ele>159.1</ele>
        <time>2011-01-16T10:07:42Z</time>
      </trkpt>
      <trkpt lat="43.58194" lon="3.68669">
        <ele>160</ele>
        <time>2011-01-16T10:07:50Z</time>
      </trkpt>
      <trkpt lat="43.58196" lon="3.68669">
        <ele>160.1</ele>
        <time>2011-01-16T10:07:51Z</time>
      </trkpt>
      <trkpt lat="43.58209" lon="3.68669">
        <ele>162.1</ele>
        <time>2011-01-16T10:07:56Z</time>
      </trkpt>
      <trkpt lat="43.58217" lon="3.68669">
        <ele>163.3</ele>
        <time>2011-01-16T10:07:59Z</time>
      </trkpt>
      <trkpt lat="43.58223" lon="3.68669">
        <ele>163.7</ele>
        <time>2011-01-16T10:08:01Z</time>
      </trkpt>
      <trkpt lat="43.5823" lon="3.6867">
        <ele>164.2</ele>
        <time>2011-01-16T10:08:03Z</time>
      </trkpt>
      <trkpt lat="43.58237" lon="3.68672">
        <ele>164.5</ele>
        <time>2011-01-16T10:08:05Z</time>
      </trkpt>
      <trkpt lat="43.58244" lon="3.68675">
        <ele>164.7</ele>
        <time>2011-01-16T10:08:07Z</time>
      </trkpt>
      <trkpt lat="43.5825" lon="3.68678">
        <ele>164.8</ele>
        <time>2011-01-16T10:08:09Z</time>
      </trkpt>
      <trkpt lat="43.58257" lon="3.6868">
        <ele>164.9</ele>
        <time>2011-01-16T10:08:11Z</time>
      </trkpt>
      <trkpt lat="43.58263" lon="3.68682">
        <ele>164.8</ele>
        <time>2011-01-16T10:08:13Z</time>
      </trkpt>
      <trkpt lat="43.58269" lon="3.68683">
        <ele>164.2</ele>
        <time>2011-01-16T10:08:15Z</time>
      </trkpt>
      <trkpt lat="43.58276" lon="3.68684">
        <ele>163.3</ele>
        <time>2011-01-16T10:08:17Z</time>
      </trkpt>
      <trkpt lat="43.58283" lon="3.68681">
        <ele>163.7</ele>
        <time>2011-01-16T10:08:19Z</time>
      </trkpt>
      <trkpt lat="43.58289" lon="3.68677">
        <ele>164.3</ele>
        <time>2011-01-16T10:08:21Z</time>
      </trkpt>
      <trkpt lat="43.58295" lon="3.68673">
        <ele>164.9</ele>
        <time>2011-01-16T10:08:23Z</time>
      </trkpt>
      <trkpt lat="43.58303" lon="3.68672">
        <ele>166.3</ele>
        <time>2011-01-16T10:08:26Z</time>
      </trkpt>
      <trkpt lat="43.58311" lon="3.68672">
        <ele>167.3</ele>
        <time>2011-01-16T10:08:29Z</time>
      </trkpt>
      <trkpt lat="43.58319" lon="3.68673">
        <ele>167.8</ele>
        <time>2011-01-16T10:08:32Z</time>
      </trkpt>
      <trkpt lat="43.58327" lon="3.68676">
        <ele>168.3</ele>
        <time>2011-01-16T10:08:35Z</time>
      </trkpt>
      <trkpt lat="43.58333" lon="3.68678">
        <ele>168.5</ele>
        <time>2011-01-16T10:08:37Z</time>
      </trkpt>
      <trkpt lat="43.58339" lon="3.6868">
        <ele>168.6</ele>
        <time>2011-01-16T10:08:39Z</time>
      </trkpt>
      <trkpt lat="43.58348" lon="3.68682">
        <ele>169.5</ele>
        <time>2011-01-16T10:08:42Z</time>
      </trkpt>
      <trkpt lat="43.58355" lon="3.68687">
        <ele>170.8</ele>
        <time>2011-01-16T10:08:45Z</time>
      </trkpt>
      <trkpt lat="43.58362" lon="3.68692">
        <ele>170.9</ele>
        <time>2011-01-16T10:08:48Z</time>
      </trkpt>
      <trkpt lat="43.5837" lon="3.68697">
        <ele>170.7</ele>
        <time>2011-01-16T10:08:51Z</time>
      </trkpt>
      <trkpt lat="43.58373" lon="3.68698">
        <ele>170.6</ele>
        <time>2011-01-16T10:08:52Z</time>
      </trkpt>
      <trkpt lat="43.58387" lon="3.68696">
        <ele>172.1</ele>
        <time>2011-01-16T10:08:57Z</time>
      </trkpt>
      <trkpt lat="43.58395" lon="3.68695">
        <ele>172.8</ele>
        <time>2011-01-16T10:09:00Z</time>
      </trkpt>
      <trkpt lat="43.58404" lon="3.68695">
        <ele>172.8</ele>
        <time>2011-01-16T10:09:03Z</time>
      </trkpt>
      <trkpt lat="43.58412" lon="3.68695">
        <ele>172.8</ele>
        <time>2011-01-16T10:09:06Z</time>
      </trkpt>
      <trkpt lat="43.58421" lon="3.68694">
        <ele>173.4</ele>
        <time>2011-01-16T10:09:09Z</time>
      </trkpt>
      <trkpt lat="43.58427" lon="3.68695">
        <ele>173.5</ele>
        <time>2011-01-16T10:09:11Z</time>
      </trkpt>
      <trkpt lat="43.58434" lon="3.68695">
        <ele>174.4</ele>
        <time>2011-01-16T10:09:13Z</time>
      </trkpt>
      <trkpt lat="43.58442" lon="3.68693">
        <ele>174.9</ele>
        <time>2011-01-16T10:09:15Z</time>
      </trkpt>
      <trkpt lat="43.58449" lon="3.6869">
        <ele>175.2</ele>
        <time>2011-01-16T10:09:17Z</time>
      </trkpt>
      <trkpt lat="43.58455" lon="3.68688">
        <ele>175.4</ele>
        <time>2011-01-16T10:09:19Z</time>
      </trkpt>
      <trkpt lat="43.58463" lon="3.68682">
        <ele>175.6</ele>
        <time>2011-01-16T10:09:27Z</time>
      </trkpt>
      <trkpt lat="43.5847" lon="3.68689">
        <ele>175.2</ele>
        <time>2011-01-16T10:11:07Z</time>
      </trkpt>
      <trkpt lat="43.5847" lon="3.68689">
        <ele>175.2</ele>
        <time>2011-01-16T10:11:08Z</time>
      </trkpt>
      <trkpt lat="43.58477" lon="3.68707">
        <ele>174.4</ele>
        <time>2011-01-16T10:11:47Z</time>
      </trkpt>
      <trkpt lat="43.5848" lon="3.68712">
        <ele>173.7</ele>
        <time>2011-01-16T10:11:48Z</time>
      </trkpt>
      <trkpt lat="43.58482" lon="3.68718">
        <ele>173.2</ele>
        <time>2011-01-16T10:11:49Z</time>
      </trkpt>
      <trkpt lat="43.58486" lon="3.68726">
        <ele>172.8</ele>
        <time>2011-01-16T10:11:50Z</time>
      </trkpt>
      <trkpt lat="43.5849" lon="3.68734">
        <ele>172.5</ele>
        <time>2011-01-16T10:11:51Z</time>
      </trkpt>
      <trkpt lat="43.58494" lon="3.68744">
        <ele>171.7</ele>
        <time>2011-01-16T10:11:52Z</time>
      </trkpt>
      <trkpt lat="43.58499" lon="3.68754">
        <ele>171.1</ele>
        <time>2011-01-16T10:11:53Z</time>
      </trkpt>
      <trkpt lat="43.58504" lon="3.68765">
        <ele>170.6</ele>
        <time>2011-01-16T10:11:54Z</time>
      </trkpt>
      <trkpt lat="43.58509" lon="3.68775">
        <ele>169.3</ele>
        <time>2011-01-16T10:11:55Z</time>
      </trkpt>
      <trkpt lat="43.58514" lon="3.68787">
        <ele>168.3</ele>
        <time>2011-01-16T10:11:56Z</time>
      </trkpt>
      <trkpt lat="43.5852" lon="3.68799">
        <ele>167.6</ele>
        <time>2011-01-16T10:11:57Z</time>
      </trkpt>
      <trkpt lat="43.58526" lon="3.68811">
        <ele>166.7</ele>
        <time>2011-01-16T10:11:58Z</time>
      </trkpt>
      <trkpt lat="43.58532" lon="3.68823">
        <ele>166.1</ele>
        <time>2011-01-16T10:11:59Z</time>
      </trkpt>
      <trkpt lat="43.58538" lon="3.68836">
        <ele>165.6</ele>
        <time>2011-01-16T10:12:00Z</time>
      </trkpt>
      <trkpt lat="43.58544" lon="3.68849">
        <ele>163.7</ele>
        <time>2011-01-16T10:12:01Z</time>
      </trkpt>
      <trkpt lat="43.5855" lon="3.68861">
        <ele>162.3</ele>
        <time>2011-01-16T10:12:02Z</time>
      </trkpt>
      <trkpt lat="43.58556" lon="3.68874">
        <ele>161.2</ele>
        <time>2011-01-16T10:12:03Z</time>
      </trkpt>
      <trkpt lat="43.58562" lon="3.68887">
        <ele>159.7</ele>
        <time>2011-01-16T10:12:04Z</time>
      </trkpt>
      <trkpt lat="43.58568" lon="3.68899">
        <ele>158.5</ele>
        <time>2011-01-16T10:12:05Z</time>
      </trkpt>
      <trkpt lat="43.58575" lon="3.68912">
        <ele>157.7</ele>
        <time>2011-01-16T10:12:06Z</time>
      </trkpt>
      <trkpt lat="43.58581" lon="3.68924">
        <ele>157</ele>
        <time>2011-01-16T10:12:07Z</time>
      </trkpt>
      <trkpt lat="43.58587" lon="3.68935">
        <ele>156.2</ele>
        <time>2011-01-16T10:12:08Z</time>
      </trkpt>
      <trkpt lat="43.58593" lon="3.68947">
        <ele>155.6</ele>
        <time>2011-01-16T10:12:09Z</time>
      </trkpt>
      <trkpt lat="43.58599" lon="3.68958">
        <ele>155.2</ele>
        <time>2011-01-16T10:12:10Z</time>
      </trkpt>
      <trkpt lat="43.58604" lon="3.68968">
        <ele>154.2</ele>
        <time>2011-01-16T10:12:11Z</time>
      </trkpt>
      <trkpt lat="43.58608" lon="3.68977">
        <ele>153.4</ele>
        <time>2011-01-16T10:12:12Z</time>
      </trkpt>
      <trkpt lat="43.58613" lon="3.68984">
        <ele>152.8</ele>
        <time>2011-01-16T10:12:13Z</time>
      </trkpt>
      <trkpt lat="43.58619" lon="3.68988">
        <ele>151.9</ele>
        <time>2011-01-16T10:12:14Z</time>
      </trkpt>
      <trkpt lat="43.58625" lon="3.68989">
        <ele>151.2</ele>
        <time>2011-01-16T10:12:15Z</time>
      </trkpt>
      <trkpt lat="43.58632" lon="3.68987">
        <ele>150.6</ele>
        <time>2011-01-16T10:12:16Z</time>
      </trkpt>
      <trkpt lat="43.58638" lon="3.68982">
        <ele>150</ele>
        <time>2011-01-16T10:12:17Z</time>
      </trkpt>
      <trkpt lat="43.58643" lon="3.68976">
        <ele>149.6</ele>
        <time>2011-01-16T10:12:18Z</time>
      </trkpt>
      <trkpt lat="43.58649" lon="3.68968">
        <ele>149.2</ele>
        <time>2011-01-16T10:12:19Z</time>
      </trkpt>
      <trkpt lat="43.58654" lon="3.6896">
        <ele>149.1</ele>
        <time>2011-01-16T10:12:20Z</time>
      </trkpt>
      <trkpt lat="43.58658" lon="3.6895">
        <ele>149</ele>
        <time>2011-01-16T10:12:21Z</time>
      </trkpt>
      <trkpt lat="43.58662" lon="3.6894">
        <ele>148.9</ele>
        <time>2011-01-16T10:12:22Z</time>
      </trkpt>
      <trkpt lat="43.58665" lon="3.68929">
        <ele>148.2</ele>
        <time>2011-01-16T10:12:23Z</time>
      </trkpt>
      <trkpt lat="43.58667" lon="3.68917">
        <ele>147.6</ele>
        <time>2011-01-16T10:12:24Z</time>
      </trkpt>
      <trkpt lat="43.58666" lon="3.68907">
        <ele>147.3</ele>
        <time>2011-01-16T10:12:25Z</time>
      </trkpt>
      <trkpt lat="43.58663" lon="3.68897">
        <ele>147</ele>
        <time>2011-01-16T10:12:26Z</time>
      </trkpt>
      <trkpt lat="43.58658" lon="3.6889">
        <ele>146.2</ele>
        <time>2011-01-16T10:12:27Z</time>
      </trkpt>
      <trkpt lat="43.58651" lon="3.68886">
        <ele>145.6</ele>
        <time>2011-01-16T10:12:28Z</time>
      </trkpt>
      <trkpt lat="43.58643" lon="3.68883">
        <ele>145.1</ele>
        <time>2011-01-16T10:12:29Z</time>
      </trkpt>
      <trkpt lat="43.58635" lon="3.68879">
        <ele>144.6</ele>
        <time>2011-01-16T10:12:30Z</time>
      </trkpt>
      <trkpt lat="43.58629" lon="3.68872">
        <ele>144.2</ele>
        <time>2011-01-16T10:12:31Z</time>
      </trkpt>
      <trkpt lat="43.58626" lon="3.68862">
        <ele>143.8</ele>
        <time>2011-01-16T10:12:32Z</time>
      </trkpt>
      <trkpt lat="43.58625" lon="3.68851">
        <ele>142.5</ele>
        <time>2011-01-16T10:12:33Z</time>
      </trkpt>
      <trkpt lat="43.58626" lon="3.68839">
        <ele>141.4</ele>
        <time>2011-01-16T10:12:34Z</time>
      </trkpt>
      <trkpt lat="43.5863" lon="3.68827">
        <ele>140.6</ele>
        <time>2011-01-16T10:12:35Z</time>
      </trkpt>
      <trkpt lat="43.58637" lon="3.68818">
        <ele>140</ele>
        <time>2011-01-16T10:12:36Z</time>
      </trkpt>
      <trkpt lat="43.58646" lon="3.68813">
        <ele>139.5</ele>
        <time>2011-01-16T10:12:37Z</time>
      </trkpt>
      <trkpt lat="43.58654" lon="3.68808">
        <ele>139.1</ele>
        <time>2011-01-16T10:12:38Z</time>
      </trkpt>
      <trkpt lat="43.58661" lon="3.68801">
        <ele>138.3</ele>
        <time>2011-01-16T10:12:39Z</time>
      </trkpt>
      <trkpt lat="43.58666" lon="3.68792">
        <ele>137.7</ele>
        <time>2011-01-16T10:12:40Z</time>
      </trkpt>
      <trkpt lat="43.5867" lon="3.68782">
        <ele>137.3</ele>
        <time>2011-01-16T10:12:41Z</time>
      </trkpt>
      <trkpt lat="43.58671" lon="3.68771">
        <ele>137</ele>
        <time>2011-01-16T10:12:42Z</time>
      </trkpt>
      <trkpt lat="43.58673" lon="3.68759">
        <ele>136.1</ele>
        <time>2011-01-16T10:12:43Z</time>
      </trkpt>
      <trkpt lat="43.58674" lon="3.68746">
        <ele>135.5</ele>
        <time>2011-01-16T10:12:44Z</time>
      </trkpt>
      <trkpt lat="43.58677" lon="3.68733">
        <ele>135</ele>
        <time>2011-01-16T10:12:45Z</time>
      </trkpt>
      <trkpt lat="43.58679" lon="3.6872">
        <ele>134.4</ele>
        <time>2011-01-16T10:12:46Z</time>
      </trkpt>
      <trkpt lat="43.58681" lon="3.68706">
        <ele>134</ele>
        <time>2011-01-16T10:12:47Z</time>
      </trkpt>
      <trkpt lat="43.5868" lon="3.68692">
        <ele>133.7</ele>
        <time>2011-01-16T10:12:48Z</time>
      </trkpt>
      <trkpt lat="43.58678" lon="3.68678">
        <ele>132.2</ele>
        <time>2011-01-16T10:12:49Z</time>
      </trkpt>
      <trkpt lat="43.58673" lon="3.68664">
        <ele>131.1</ele>
        <time>2011-01-16T10:12:50Z</time>
      </trkpt>
      <trkpt lat="43.58668" lon="3.68652">
        <ele>130.3</ele>
        <time>2011-01-16T10:12:51Z</time>
      </trkpt>
      <trkpt lat="43.58665" lon="3.68638">
        <ele>128.4</ele>
        <time>2011-01-16T10:12:52Z</time>
      </trkpt>
      <trkpt lat="43.58665" lon="3.68625">
        <ele>127</ele>
        <time>2011-01-16T10:12:53Z</time>
      </trkpt>
      <trkpt lat="43.58668" lon="3.68614">
        <ele>126</ele>
        <time>2011-01-16T10:12:54Z</time>
      </trkpt>
      <trkpt lat="43.58673" lon="3.68606">
        <ele>125.5</ele>
        <time>2011-01-16T10:12:55Z</time>
      </trkpt>
      <trkpt lat="43.5868" lon="3.68599">
        <ele>125.1</ele>
        <time>2011-01-16T10:12:56Z</time>
      </trkpt>
      <trkpt lat="43.58687" lon="3.68592">
        <ele>124.9</ele>
        <time>2011-01-16T10:12:57Z</time>
      </trkpt>
      <trkpt lat="43.58693" lon="3.68583">
        <ele>124.7</ele>
        <time>2011-01-16T10:12:58Z</time>
      </trkpt>
      <trkpt lat="43.58698" lon="3.68572">
        <ele>124.6</ele>
        <time>2011-01-16T10:12:59Z</time>
      </trkpt>
      <trkpt lat="43.58702" lon="3.68561">
        <ele>124.5</ele>
        <time>2011-01-16T10:13:00Z</time>
      </trkpt>
      <trkpt lat="43.58703" lon="3.68548">
        <ele>124.5</ele>
        <time>2011-01-16T10:13:01Z</time>
      </trkpt>
      <trkpt lat="43.58701" lon="3.68537">
        <ele>124.1</ele>
        <time>2011-01-16T10:13:02Z</time>
      </trkpt>
      <trkpt lat="43.58697" lon="3.68526">
        <ele>123.8</ele>
        <time>2011-01-16T10:13:03Z</time>
      </trkpt>
      <trkpt lat="43.58691" lon="3.68517">
        <ele>123.6</ele>
        <time>2011-01-16T10:13:04Z</time>
      </trkpt>
      <trkpt lat="43.58686" lon="3.68508">
        <ele>122.7</ele>
        <time>2011-01-16T10:13:05Z</time>
      </trkpt>
      <trkpt lat="43.5868" lon="3.68499">
        <ele>122</ele>
        <time>2011-01-16T10:13:06Z</time>
      </trkpt>
      <trkpt lat="43.58677" lon="3.68491">
        <ele>121.5</ele>
        <time>2011-01-16T10:13:07Z</time>
      </trkpt>
      <trkpt lat="43.58676" lon="3.68482">
        <ele>121.2</ele>
        <time>2011-01-16T10:13:08Z</time>
      </trkpt>
      <trkpt lat="43.58677" lon="3.68475">
        <ele>121</ele>
        <time>2011-01-16T10:13:09Z</time>
      </trkpt>
      <trkpt lat="43.5868" lon="3.68469">
        <ele>120.8</ele>
        <time>2011-01-16T10:13:10Z</time>
      </trkpt>
      <trkpt lat="43.58689" lon="3.68468">
        <ele>119.7</ele>
        <time>2011-01-16T10:13:12Z</time>
      </trkpt>
      <trkpt lat="43.58693" lon="3.6847">
        <ele>119.3</ele>
        <time>2011-01-16T10:13:13Z</time>
      </trkpt>
      <trkpt lat="43.58698" lon="3.68472">
        <ele>119</ele>
        <time>2011-01-16T10:13:14Z</time>
      </trkpt>
      <trkpt lat="43.58704" lon="3.68474">
        <ele>118.4</ele>
        <time>2011-01-16T10:13:15Z</time>
      </trkpt>
      <trkpt lat="43.5871" lon="3.68477">
        <ele>117.9</ele>
        <time>2011-01-16T10:13:16Z</time>
      </trkpt>
      <trkpt lat="43.58717" lon="3.6848">
        <ele>117.6</ele>
        <time>2011-01-16T10:13:17Z</time>
      </trkpt>
      <trkpt lat="43.58723" lon="3.68481">
        <ele>117.1</ele>
        <time>2011-01-16T10:13:18Z</time>
      </trkpt>
      <trkpt lat="43.58731" lon="3.68482">
        <ele>116.8</ele>
        <time>2011-01-16T10:13:19Z</time>
      </trkpt>
      <trkpt lat="43.58738" lon="3.68481">
        <ele>116.5</ele>
        <time>2011-01-16T10:13:20Z</time>
      </trkpt>
      <trkpt lat="43.58745" lon="3.6848">
        <ele>116.1</ele>
        <time>2011-01-16T10:13:21Z</time>
      </trkpt>
      <trkpt lat="43.58752" lon="3.68475">
        <ele>115.8</ele>
        <time>2011-01-16T10:13:22Z</time>
      </trkpt>
      <trkpt lat="43.58757" lon="3.68468">
        <ele>115.5</ele>
        <time>2011-01-16T10:13:23Z</time>
      </trkpt>
      <trkpt lat="43.58762" lon="3.6846">
        <ele>115</ele>
        <time>2011-01-16T10:13:24Z</time>
      </trkpt>
      <trkpt lat="43.58766" lon="3.68452">
        <ele>114.6</ele>
        <time>2011-01-16T10:13:25Z</time>
      </trkpt>
      <trkpt lat="43.58769" lon="3.68444">
        <ele>114.2</ele>
        <time>2011-01-16T10:13:26Z</time>
      </trkpt>
      <trkpt lat="43.58772" lon="3.68436">
        <ele>113.6</ele>
        <time>2011-01-16T10:13:27Z</time>
      </trkpt>
      <trkpt lat="43.58776" lon="3.68427">
        <ele>113.1</ele>
        <time>2011-01-16T10:13:28Z</time>
      </trkpt>
      <trkpt lat="43.5878" lon="3.6842">
        <ele>112.8</ele>
        <time>2011-01-16T10:13:29Z</time>
      </trkpt>
      <trkpt lat="43.58787" lon="3.68415">
        <ele>111.5</ele>
        <time>2011-01-16T10:13:31Z</time>
      </trkpt>
      <trkpt lat="43.58792" lon="3.68423">
        <ele>110.6</ele>
        <time>2011-01-16T10:13:34Z</time>
      </trkpt>
      <trkpt lat="43.5879" lon="3.68434">
        <ele>110.3</ele>
        <time>2011-01-16T10:13:39Z</time>
      </trkpt>
      <trkpt lat="43.5879" lon="3.68445">
        <ele>110.5</ele>
        <time>2011-01-16T10:13:46Z</time>
      </trkpt>
      <trkpt lat="43.58791" lon="3.68456">
        <ele>110.6</ele>
        <time>2011-01-16T10:13:51Z</time>
      </trkpt>
      <trkpt lat="43.58791" lon="3.68467">
        <ele>110.5</ele>
        <time>2011-01-16T10:13:54Z</time>
      </trkpt>
      <trkpt lat="43.58791" lon="3.68479">
        <ele>109.9</ele>
        <time>2011-01-16T10:13:57Z</time>
      </trkpt>
      <trkpt lat="43.5879" lon="3.68487">
        <ele>109.8</ele>
        <time>2011-01-16T10:13:59Z</time>
      </trkpt>
      <trkpt lat="43.5879" lon="3.68496">
        <ele>109.8</ele>
        <time>2011-01-16T10:14:01Z</time>
      </trkpt>
      <trkpt lat="43.58789" lon="3.68505">
        <ele>109.7</ele>
        <time>2011-01-16T10:14:03Z</time>
      </trkpt>
      <trkpt lat="43.58789" lon="3.68513">
        <ele>109.6</ele>
        <time>2011-01-16T10:14:05Z</time>
      </trkpt>
      <trkpt lat="43.58788" lon="3.68522">
        <ele>109.7</ele>
        <time>2011-01-16T10:14:07Z</time>
      </trkpt>
      <trkpt lat="43.58787" lon="3.6853">
        <ele>109.7</ele>
        <time>2011-01-16T10:14:09Z</time>
      </trkpt>
      <trkpt lat="43.58786" lon="3.68539">
        <ele>109.6</ele>
        <time>2011-01-16T10:14:11Z</time>
      </trkpt>
      <trkpt lat="43.58785" lon="3.68543">
        <ele>109.6</ele>
        <time>2011-01-16T10:14:12Z</time>
      </trkpt>
      <trkpt lat="43.58783" lon="3.68558">
        <ele>109.4</ele>
        <time>2011-01-16T10:14:15Z</time>
      </trkpt>
      <trkpt lat="43.5878" lon="3.68568">
        <ele>109.2</ele>
        <time>2011-01-16T10:14:17Z</time>
      </trkpt>
      <trkpt lat="43.58778" lon="3.68579">
        <ele>107.9</ele>
        <time>2011-01-16T10:14:19Z</time>
      </trkpt>
      <trkpt lat="43.58775" lon="3.6859">
        <ele>107.3</ele>
        <time>2011-01-16T10:14:21Z</time>
      </trkpt>
      <trkpt lat="43.58773" lon="3.686">
        <ele>107.7</ele>
        <time>2011-01-16T10:14:23Z</time>
      </trkpt>
      <trkpt lat="43.58769" lon="3.68611">
        <ele>107.8</ele>
        <time>2011-01-16T10:14:25Z</time>
      </trkpt>
      <trkpt lat="43.58766" lon="3.68622">
        <ele>107.6</ele>
        <time>2011-01-16T10:14:27Z</time>
      </trkpt>
      <trkpt lat="43.58763" lon="3.68633">
        <ele>107.7</ele>
        <time>2011-01-16T10:14:29Z</time>
      </trkpt>
      <trkpt lat="43.5876" lon="3.68645">
        <ele>107.8</ele>
        <time>2011-01-16T10:14:31Z</time>
      </trkpt>
      <trkpt lat="43.58759" lon="3.68651">
        <ele>107.9</ele>
        <time>2011-01-16T10:14:32Z</time>
      </trkpt>
      <trkpt lat="43.58758" lon="3.68657">
        <ele>108</ele>
        <time>2011-01-16T10:14:33Z</time>
      </trkpt>
      <trkpt lat="43.58757" lon="3.68664">
        <ele>107.9</ele>
        <time>2011-01-16T10:14:34Z</time>
      </trkpt>
      <trkpt lat="43.58756" lon="3.6867">
        <ele>107.9</ele>
        <time>2011-01-16T10:14:35Z</time>
      </trkpt>
      <trkpt lat="43.58756" lon="3.68677">
        <ele>107.9</ele>
        <time>2011-01-16T10:14:36Z</time>
      </trkpt>
      <trkpt lat="43.58757" lon="3.68684">
        <ele>107.5</ele>
        <time>2011-01-16T10:14:37Z</time>
      </trkpt>
      <trkpt lat="43.58759" lon="3.6869">
        <ele>107.2</ele>
        <time>2011-01-16T10:14:38Z</time>
      </trkpt>
      <trkpt lat="43.58762" lon="3.68696">
        <ele>106.9</ele>
        <time>2011-01-16T10:14:39Z</time>
      </trkpt>
      <trkpt lat="43.58766" lon="3.68701">
        <ele>106.7</ele>
        <time>2011-01-16T10:14:40Z</time>
      </trkpt>
      <trkpt lat="43.5877" lon="3.68706">
        <ele>106.3</ele>
        <time>2011-01-16T10:14:41Z</time>
      </trkpt>
      <trkpt lat="43.58774" lon="3.68711">
        <ele>106</ele>
        <time>2011-01-16T10:14:42Z</time>
      </trkpt>
      <trkpt lat="43.58777" lon="3.68717">
        <ele>105.8</ele>
        <time>2011-01-16T10:14:43Z</time>
      </trkpt>
      <trkpt lat="43.58781" lon="3.68723">
        <ele>105.6</ele>
        <time>2011-01-16T10:14:44Z</time>
      </trkpt>
      <trkpt lat="43.58784" lon="3.68728">
        <ele>105.5</ele>
        <time>2011-01-16T10:14:45Z</time>
      </trkpt>
      <trkpt lat="43.58786" lon="3.68733">
        <ele>105.3</ele>
        <time>2011-01-16T10:14:46Z</time>
      </trkpt>
      <trkpt lat="43.58791" lon="3.68743">
        <ele>105.5</ele>
        <time>2011-01-16T10:14:48Z</time>
      </trkpt>
      <trkpt lat="43.58796" lon="3.68752">
        <ele>106</ele>
        <time>2011-01-16T10:14:50Z</time>
      </trkpt>
      <trkpt lat="43.58801" lon="3.68761">
        <ele>106.6</ele>
        <time>2011-01-16T10:14:52Z</time>
      </trkpt>
      <trkpt lat="43.58805" lon="3.68771">
        <ele>107.4</ele>
        <time>2011-01-16T10:14:54Z</time>
      </trkpt>
      <trkpt lat="43.58809" lon="3.6878">
        <ele>108.2</ele>
        <time>2011-01-16T10:14:56Z</time>
      </trkpt>
      <trkpt lat="43.58813" lon="3.68789">
        <ele>108.8</ele>
        <time>2011-01-16T10:14:58Z</time>
      </trkpt>
      <trkpt lat="43.58818" lon="3.68797">
        <ele>109.4</ele>
        <time>2011-01-16T10:15:00Z</time>
      </trkpt>
      <trkpt lat="43.58821" lon="3.68805">
        <ele>109.8</ele>
        <time>2011-01-16T10:15:02Z</time>
      </trkpt>
      <trkpt lat="43.58825" lon="3.68814">
        <ele>110.7</ele>
        <time>2011-01-16T10:15:04Z</time>
      </trkpt>
      <trkpt lat="43.58828" lon="3.68822">
        <ele>111.3</ele>
        <time>2011-01-16T10:15:06Z</time>
      </trkpt>
      <trkpt lat="43.58833" lon="3.68829">
        <ele>111.8</ele>
        <time>2011-01-16T10:15:08Z</time>
      </trkpt>
      <trkpt lat="43.58838" lon="3.68836">
        <ele>112.6</ele>
        <time>2011-01-16T10:15:10Z</time>
      </trkpt>
      <trkpt lat="43.58843" lon="3.68842">
        <ele>113.4</ele>
        <time>2011-01-16T10:15:12Z</time>
      </trkpt>
      <trkpt lat="43.58846" lon="3.68845">
        <ele>113.8</ele>
        <time>2011-01-16T10:15:13Z</time>
      </trkpt>
      <trkpt lat="43.58853" lon="3.68854">
        <ele>114.5</ele>
        <time>2011-01-16T10:15:16Z</time>
      </trkpt>
      <trkpt lat="43.58858" lon="3.6886">
        <ele>114.8</ele>
        <time>2011-01-16T10:15:18Z</time>
      </trkpt>
      <trkpt lat="43.58862" lon="3.68867">
        <ele>115.3</ele>
        <time>2011-01-16T10:15:20Z</time>
      </trkpt>
      <trkpt lat="43.58865" lon="3.68874">
        <ele>116.1</ele>
        <time>2011-01-16T10:15:22Z</time>
      </trkpt>
      <trkpt lat="43.5887" lon="3.68884">
        <ele>117.4</ele>
        <time>2011-01-16T10:15:25Z</time>
      </trkpt>
      <trkpt lat="43.58875" lon="3.68891">
        <ele>118.2</ele>
        <time>2011-01-16T10:15:28Z</time>
      </trkpt>
      <trkpt lat="43.5888" lon="3.68901">
        <ele>119</ele>
        <time>2011-01-16T10:15:32Z</time>
      </trkpt>
      <trkpt lat="43.58886" lon="3.6891">
        <ele>119.2</ele>
        <time>2011-01-16T10:15:36Z</time>
      </trkpt>
      <trkpt lat="43.58891" lon="3.68917">
        <ele>119.8</ele>
        <time>2011-01-16T10:15:39Z</time>
      </trkpt>
      <trkpt lat="43.58896" lon="3.68923">
        <ele>120.5</ele>
        <time>2011-01-16T10:15:42Z</time>
      </trkpt>
      <trkpt lat="43.58903" lon="3.6893">
        <ele>121.2</ele>
        <time>2011-01-16T10:15:46Z</time>
      </trkpt>
      <trkpt lat="43.5891" lon="3.68937">
        <ele>121.7</ele>
        <time>2011-01-16T10:15:50Z</time>
      </trkpt>
      <trkpt lat="43.58917" lon="3.68944">
        <ele>123.1</ele>
        <time>2011-01-16T10:15:54Z</time>
      </trkpt>
      <trkpt lat="43.58925" lon="3.6895">
        <ele>123.6</ele>
        <time>2011-01-16T10:15:58Z</time>
      </trkpt>
      <trkpt lat="43.58931" lon="3.68955">
        <ele>123.8</ele>
        <time>2011-01-16T10:16:01Z</time>
      </trkpt>
      <trkpt lat="43.58938" lon="3.68961">
        <ele>124.5</ele>
        <time>2011-01-16T10:16:05Z</time>
      </trkpt>
      <trkpt lat="43.58946" lon="3.68967">
        <ele>125.3</ele>
        <time>2011-01-16T10:16:09Z</time>
      </trkpt>
      <trkpt lat="43.58953" lon="3.68973">
        <ele>125.5</ele>
        <time>2011-01-16T10:16:13Z</time>
      </trkpt>
      <trkpt lat="43.58955" lon="3.68974">
        <ele>125.5</ele>
        <time>2011-01-16T10:16:14Z</time>
      </trkpt>
      <trkpt lat="43.58967" lon="3.68983">
        <ele>126.3</ele>
        <time>2011-01-16T10:16:20Z</time>
      </trkpt>
      <trkpt lat="43.58973" lon="3.68989">
        <ele>126.6</ele>
        <time>2011-01-16T10:16:23Z</time>
      </trkpt>
      <trkpt lat="43.58981" lon="3.68995">
        <ele>126.4</ele>
        <time>2011-01-16T10:16:27Z</time>
      </trkpt>
      <trkpt lat="43.58987" lon="3.68999">
        <ele>126.6</ele>
        <time>2011-01-16T10:16:30Z</time>
      </trkpt>
      <trkpt lat="43.58991" lon="3.69005">
        <ele>126.7</ele>
        <time>2011-01-16T10:16:32Z</time>
      </trkpt>
      <trkpt lat="43.58997" lon="3.6901">
        <ele>126.7</ele>
        <time>2011-01-16T10:16:34Z</time>
      </trkpt>
      <trkpt lat="43.59004" lon="3.69014">
        <ele>126.6</ele>
        <time>2011-01-16T10:16:37Z</time>
      </trkpt>
      <trkpt lat="43.59012" lon="3.69019">
        <ele>127.1</ele>
        <time>2011-01-16T10:16:41Z</time>
      </trkpt>
      <trkpt lat="43.59018" lon="3.69023">
        <ele>126.5</ele>
        <time>2011-01-16T10:16:44Z</time>
      </trkpt>
      <trkpt lat="43.59025" lon="3.69028">
        <ele>126.5</ele>
        <time>2011-01-16T10:16:47Z</time>
      </trkpt>
      <trkpt lat="43.59032" lon="3.69032">
        <ele>126.8</ele>
        <time>2011-01-16T10:16:50Z</time>
      </trkpt>
      <trkpt lat="43.5904" lon="3.69038">
        <ele>126.3</ele>
        <time>2011-01-16T10:16:53Z</time>
      </trkpt>
      <trkpt lat="43.59045" lon="3.69043">
        <ele>125.7</ele>
        <time>2011-01-16T10:16:55Z</time>
      </trkpt>
      <trkpt lat="43.59049" lon="3.69051">
        <ele>125.3</ele>
        <time>2011-01-16T10:16:57Z</time>
      </trkpt>
      <trkpt lat="43.59052" lon="3.69059">
        <ele>125.5</ele>
        <time>2011-01-16T10:16:59Z</time>
      </trkpt>
      <trkpt lat="43.59054" lon="3.69067">
        <ele>126.1</ele>
        <time>2011-01-16T10:17:01Z</time>
      </trkpt>
      <trkpt lat="43.59056" lon="3.69076">
        <ele>126.8</ele>
        <time>2011-01-16T10:17:03Z</time>
      </trkpt>
      <trkpt lat="43.59057" lon="3.69084">
        <ele>127.2</ele>
        <time>2011-01-16T10:17:05Z</time>
      </trkpt>
      <trkpt lat="43.59059" lon="3.69092">
        <ele>127.5</ele>
        <time>2011-01-16T10:17:07Z</time>
      </trkpt>
      <trkpt lat="43.59061" lon="3.691">
        <ele>127.6</ele>
        <time>2011-01-16T10:17:09Z</time>
      </trkpt>
      <trkpt lat="43.59064" lon="3.69108">
        <ele>127.8</ele>
        <time>2011-01-16T10:17:11Z</time>
      </trkpt>
      <trkpt lat="43.59067" lon="3.69116">
        <ele>127.9</ele>
        <time>2011-01-16T10:17:13Z</time>
      </trkpt>
      <trkpt lat="43.5907" lon="3.69124">
        <ele>128.9</ele>
        <time>2011-01-16T10:17:15Z</time>
      </trkpt>
      <trkpt lat="43.59072" lon="3.69128">
        <ele>129.2</ele>
        <time>2011-01-16T10:17:16Z</time>
      </trkpt>
      <trkpt lat="43.59076" lon="3.69139">
        <ele>130</ele>
        <time>2011-01-16T10:17:19Z</time>
      </trkpt>
      <trkpt lat="43.59079" lon="3.69147">
        <ele>130.8</ele>
        <time>2011-01-16T10:17:21Z</time>
      </trkpt>
      <trkpt lat="43.59082" lon="3.69155">
        <ele>131.2</ele>
        <time>2011-01-16T10:17:23Z</time>
      </trkpt>
      <trkpt lat="43.59085" lon="3.69163">
        <ele>131.4</ele>
        <time>2011-01-16T10:17:25Z</time>
      </trkpt>
      <trkpt lat="43.59088" lon="3.6917">
        <ele>132.3</ele>
        <time>2011-01-16T10:17:27Z</time>
      </trkpt>
      <trkpt lat="43.59092" lon="3.69177">
        <ele>132.9</ele>
        <time>2011-01-16T10:17:29Z</time>
      </trkpt>
      <trkpt lat="43.59095" lon="3.69184">
        <ele>133.2</ele>
        <time>2011-01-16T10:17:31Z</time>
      </trkpt>
      <trkpt lat="43.59099" lon="3.69191">
        <ele>133.7</ele>
        <time>2011-01-16T10:17:33Z</time>
      </trkpt>
      <trkpt lat="43.59103" lon="3.69198">
        <ele>134.1</ele>
        <time>2011-01-16T10:17:35Z</time>
      </trkpt>
      <trkpt lat="43.59108" lon="3.69204">
        <ele>134.2</ele>
        <time>2011-01-16T10:17:37Z</time>
      </trkpt>
      <trkpt lat="43.59112" lon="3.6921">
        <ele>134.6</ele>
        <time>2011-01-16T10:17:39Z</time>
      </trkpt>
      <trkpt lat="43.59119" lon="3.69217">
        <ele>135.2</ele>
        <time>2011-01-16T10:17:42Z</time>
      </trkpt>
      <trkpt lat="43.59124" lon="3.69222">
        <ele>135.5</ele>
        <time>2011-01-16T10:17:44Z</time>
      </trkpt>
      <trkpt lat="43.59131" lon="3.69229">
        <ele>136</ele>
        <time>2011-01-16T10:17:47Z</time>
      </trkpt>
      <trkpt lat="43.59138" lon="3.69235">
        <ele>136.6</ele>
        <time>2011-01-16T10:17:50Z</time>
      </trkpt>
      <trkpt lat="43.59145" lon="3.69242">
        <ele>137</ele>
        <time>2011-01-16T10:17:53Z</time>
      </trkpt>
      <trkpt lat="43.59152" lon="3.69249">
        <ele>137.9</ele>
        <time>2011-01-16T10:17:56Z</time>
      </trkpt>
      <trkpt lat="43.59158" lon="3.69256">
        <ele>137.6</ele>
        <time>2011-01-16T10:17:59Z</time>
      </trkpt>
      <trkpt lat="43.59164" lon="3.69264">
        <ele>137.8</ele>
        <time>2011-01-16T10:18:02Z</time>
      </trkpt>
      <trkpt lat="43.5917" lon="3.69272">
        <ele>138.2</ele>
        <time>2011-01-16T10:18:05Z</time>
      </trkpt>
      <trkpt lat="43.59177" lon="3.69279">
        <ele>138.8</ele>
        <time>2011-01-16T10:18:08Z</time>
      </trkpt>
      <trkpt lat="43.59182" lon="3.69288">
        <ele>138.9</ele>
        <time>2011-01-16T10:18:11Z</time>
      </trkpt>
      <trkpt lat="43.59179" lon="3.69297">
        <ele>138.7</ele>
        <time>2011-01-16T10:22:06Z</time>
      </trkpt>
      <trkpt lat="43.59177" lon="3.69299">
        <ele>138.7</ele>
        <time>2011-01-16T10:22:07Z</time>
      </trkpt>
      <trkpt lat="43.59171" lon="3.69318">
        <ele>139.2</ele>
        <time>2011-01-16T10:22:12Z</time>
      </trkpt>
      <trkpt lat="43.59171" lon="3.69329">
        <ele>139.8</ele>
        <time>2011-01-16T10:22:15Z</time>
      </trkpt>
      <trkpt lat="43.59171" lon="3.69339">
        <ele>140.2</ele>
        <time>2011-01-16T10:22:18Z</time>
      </trkpt>
      <trkpt lat="43.5917" lon="3.69349">
        <ele>140.3</ele>
        <time>2011-01-16T10:22:21Z</time>
      </trkpt>
      <trkpt lat="43.5917" lon="3.69359">
        <ele>140.3</ele>
        <time>2011-01-16T10:22:24Z</time>
      </trkpt>
      <trkpt lat="43.5917" lon="3.69371">
        <ele>141</ele>
        <time>2011-01-16T10:22:28Z</time>
      </trkpt>
      <trkpt lat="43.59168" lon="3.69383">
        <ele>143.2</ele>
        <time>2011-01-16T10:22:32Z</time>
      </trkpt>
      <trkpt lat="43.59166" lon="3.69393">
        <ele>143.4</ele>
        <time>2011-01-16T10:22:35Z</time>
      </trkpt>
      <trkpt lat="43.59165" lon="3.69404">
        <ele>144.1</ele>
        <time>2011-01-16T10:22:39Z</time>
      </trkpt>
      <trkpt lat="43.59164" lon="3.69415">
        <ele>145.1</ele>
        <time>2011-01-16T10:22:43Z</time>
      </trkpt>
      <trkpt lat="43.59166" lon="3.69426">
        <ele>146.5</ele>
        <time>2011-01-16T10:22:57Z</time>
      </trkpt>
      <trkpt lat="43.59168" lon="3.69435">
        <ele>147</ele>
        <time>2011-01-16T10:23:00Z</time>
      </trkpt>
      <trkpt lat="43.59168" lon="3.69444">
        <ele>147.4</ele>
        <time>2011-01-16T10:23:03Z</time>
      </trkpt>
      <trkpt lat="43.59169" lon="3.69455">
        <ele>147.9</ele>
        <time>2011-01-16T10:23:06Z</time>
      </trkpt>
      <trkpt lat="43.59168" lon="3.69464">
        <ele>148.3</ele>
        <time>2011-01-16T10:23:09Z</time>
      </trkpt>
      <trkpt lat="43.59168" lon="3.69468">
        <ele>148.4</ele>
        <time>2011-01-16T10:23:10Z</time>
      </trkpt>
      <trkpt lat="43.59169" lon="3.69487">
        <ele>148.7</ele>
        <time>2011-01-16T10:23:15Z</time>
      </trkpt>
      <trkpt lat="43.59169" lon="3.69497">
        <ele>148.5</ele>
        <time>2011-01-16T10:23:17Z</time>
      </trkpt>
      <trkpt lat="43.5917" lon="3.69506">
        <ele>148.2</ele>
        <time>2011-01-16T10:23:19Z</time>
      </trkpt>
      <trkpt lat="43.59173" lon="3.69515">
        <ele>148.3</ele>
        <time>2011-01-16T10:23:21Z</time>
      </trkpt>
      <trkpt lat="43.59178" lon="3.69523">
        <ele>147.9</ele>
        <time>2011-01-16T10:23:24Z</time>
      </trkpt>
      <trkpt lat="43.59183" lon="3.69531">
        <ele>146.4</ele>
        <time>2011-01-16T10:23:27Z</time>
      </trkpt>
      <trkpt lat="43.59187" lon="3.69542">
        <ele>144.6</ele>
        <time>2011-01-16T10:23:30Z</time>
      </trkpt>
      <trkpt lat="43.59188" lon="3.69553">
        <ele>143.1</ele>
        <time>2011-01-16T10:23:34Z</time>
      </trkpt>
      <trkpt lat="43.59189" lon="3.69564">
        <ele>141.8</ele>
        <time>2011-01-16T10:23:37Z</time>
      </trkpt>
      <trkpt lat="43.59193" lon="3.69574">
        <ele>139.4</ele>
        <time>2011-01-16T10:23:41Z</time>
      </trkpt>
      <trkpt lat="43.59199" lon="3.69583">
        <ele>137.7</ele>
        <time>2011-01-16T10:23:45Z</time>
      </trkpt>
      <trkpt lat="43.59208" lon="3.69581">
        <ele>136.9</ele>
        <time>2011-01-16T10:23:49Z</time>
      </trkpt>
      <trkpt lat="43.59216" lon="3.69577">
        <ele>135.1</ele>
        <time>2011-01-16T10:23:52Z</time>
      </trkpt>
      <trkpt lat="43.59225" lon="3.69579">
        <ele>133.5</ele>
        <time>2011-01-16T10:23:56Z</time>
      </trkpt>
      <trkpt lat="43.59228" lon="3.69587">
        <ele>132.7</ele>
        <time>2011-01-16T10:23:59Z</time>
      </trkpt>
      <trkpt lat="43.59231" lon="3.69598">
        <ele>131.5</ele>
        <time>2011-01-16T10:24:02Z</time>
      </trkpt>
      <trkpt lat="43.59233" lon="3.69606">
        <ele>131.3</ele>
        <time>2011-01-16T10:24:04Z</time>
      </trkpt>
      <trkpt lat="43.59235" lon="3.69618">
        <ele>130.9</ele>
        <time>2011-01-16T10:24:07Z</time>
      </trkpt>
      <trkpt lat="43.59236" lon="3.69629">
        <ele>130.7</ele>
        <time>2011-01-16T10:24:10Z</time>
      </trkpt>
      <trkpt lat="43.59238" lon="3.69633">
        <ele>130.7</ele>
        <time>2011-01-16T10:24:11Z</time>
      </trkpt>
      <trkpt lat="43.59251" lon="3.69637">
        <ele>129.8</ele>
        <time>2011-01-16T10:24:18Z</time>
      </trkpt>
      <trkpt lat="43.59258" lon="3.69638">
        <ele>128.8</ele>
        <time>2011-01-16T10:24:21Z</time>
      </trkpt>
      <trkpt lat="43.59266" lon="3.69644">
        <ele>127.6</ele>
        <time>2011-01-16T10:24:25Z</time>
      </trkpt>
      <trkpt lat="43.59267" lon="3.69656">
        <ele>126.1</ele>
        <time>2011-01-16T10:24:32Z</time>
      </trkpt>
      <trkpt lat="43.59264" lon="3.69666">
        <ele>126</ele>
        <time>2011-01-16T10:24:36Z</time>
      </trkpt>
      <trkpt lat="43.59264" lon="3.69677">
        <ele>126.8</ele>
        <time>2011-01-16T10:24:39Z</time>
      </trkpt>
      <trkpt lat="43.59267" lon="3.69684">
        <ele>126.5</ele>
        <time>2011-01-16T10:24:41Z</time>
      </trkpt>
      <trkpt lat="43.59271" lon="3.6969">
        <ele>126.2</ele>
        <time>2011-01-16T10:24:43Z</time>
      </trkpt>
      <trkpt lat="43.59276" lon="3.69697">
        <ele>125.9</ele>
        <time>2011-01-16T10:24:45Z</time>
      </trkpt>
      <trkpt lat="43.5928" lon="3.69705">
        <ele>125.7</ele>
        <time>2011-01-16T10:24:47Z</time>
      </trkpt>
      <trkpt lat="43.59283" lon="3.69714">
        <ele>125.5</ele>
        <time>2011-01-16T10:24:49Z</time>
      </trkpt>
      <trkpt lat="43.59285" lon="3.69725">
        <ele>124.6</ele>
        <time>2011-01-16T10:24:52Z</time>
      </trkpt>
      <trkpt lat="43.59288" lon="3.69736">
        <ele>123.9</ele>
        <time>2011-01-16T10:24:55Z</time>
      </trkpt>
      <trkpt lat="43.59289" lon="3.69747">
        <ele>123</ele>
        <time>2011-01-16T10:24:57Z</time>
      </trkpt>
      <trkpt lat="43.5929" lon="3.69757">
        <ele>122.1</ele>
        <time>2011-01-16T10:24:59Z</time>
      </trkpt>
      <trkpt lat="43.5929" lon="3.69768">
        <ele>121</ele>
        <time>2011-01-16T10:25:02Z</time>
      </trkpt>
      <trkpt lat="43.59293" lon="3.69777">
        <ele>119</ele>
        <time>2011-01-16T10:25:05Z</time>
      </trkpt>
      <trkpt lat="43.59296" lon="3.69787">
        <ele>118</ele>
        <time>2011-01-16T10:25:08Z</time>
      </trkpt>
      <trkpt lat="43.59302" lon="3.69795">
        <ele>116.1</ele>
        <time>2011-01-16T10:25:11Z</time>
      </trkpt>
      <trkpt lat="43.59304" lon="3.69799">
        <ele>115.5</ele>
        <time>2011-01-16T10:25:12Z</time>
      </trkpt>
      <trkpt lat="43.59312" lon="3.6981">
        <ele>113.1</ele>
        <time>2011-01-16T10:25:16Z</time>
      </trkpt>
      <trkpt lat="43.59315" lon="3.69818">
        <ele>112.2</ele>
        <time>2011-01-16T10:25:18Z</time>
      </trkpt>
      <trkpt lat="43.59313" lon="3.6983">
        <ele>108.8</ele>
        <time>2011-01-16T10:25:22Z</time>
      </trkpt>
      <trkpt lat="43.59309" lon="3.69839">
        <ele>107.6</ele>
        <time>2011-01-16T10:25:25Z</time>
      </trkpt>
      <trkpt lat="43.59307" lon="3.69846">
        <ele>107.4</ele>
        <time>2011-01-16T10:25:27Z</time>
      </trkpt>
      <trkpt lat="43.59302" lon="3.69852">
        <ele>106.3</ele>
        <time>2011-01-16T10:25:29Z</time>
      </trkpt>
      <trkpt lat="43.59298" lon="3.6986">
        <ele>105.7</ele>
        <time>2011-01-16T10:25:31Z</time>
      </trkpt>
      <trkpt lat="43.59294" lon="3.69866">
        <ele>105.5</ele>
        <time>2011-01-16T10:25:33Z</time>
      </trkpt>
      <trkpt lat="43.59289" lon="3.69873">
        <ele>105.2</ele>
        <time>2011-01-16T10:25:35Z</time>
      </trkpt>
      <trkpt lat="43.59284" lon="3.6988">
        <ele>105</ele>
        <time>2011-01-16T10:25:37Z</time>
      </trkpt>
      <trkpt lat="43.59278" lon="3.69887">
        <ele>104.1</ele>
        <time>2011-01-16T10:25:39Z</time>
      </trkpt>
      <trkpt lat="43.59275" lon="3.6989">
        <ele>103.9</ele>
        <time>2011-01-16T10:25:40Z</time>
      </trkpt>
      <trkpt lat="43.5927" lon="3.69894">
        <ele>103.6</ele>
        <time>2011-01-16T10:25:41Z</time>
      </trkpt>
      <trkpt lat="43.59266" lon="3.69897">
        <ele>103.3</ele>
        <time>2011-01-16T10:25:42Z</time>
      </trkpt>
      <trkpt lat="43.59261" lon="3.699">
        <ele>103.2</ele>
        <time>2011-01-16T10:25:43Z</time>
      </trkpt>
      <trkpt lat="43.59256" lon="3.69903">
        <ele>102.5</ele>
        <time>2011-01-16T10:25:44Z</time>
      </trkpt>
      <trkpt lat="43.5925" lon="3.69904">
        <ele>102</ele>
        <time>2011-01-16T10:25:45Z</time>
      </trkpt>
      <trkpt lat="43.59244" lon="3.69905">
        <ele>101.6</ele>
        <time>2011-01-16T10:25:46Z</time>
      </trkpt>
      <trkpt lat="43.59239" lon="3.69906">
        <ele>101.1</ele>
        <time>2011-01-16T10:25:47Z</time>
      </trkpt>
      <trkpt lat="43.59231" lon="3.69904">
        <ele>100.4</ele>
        <time>2011-01-16T10:25:49Z</time>
      </trkpt>
      <trkpt lat="43.59223" lon="3.69902">
        <ele>99.8</ele>
        <time>2011-01-16T10:25:51Z</time>
      </trkpt>
      <trkpt lat="43.59218" lon="3.69901">
        <ele>99.6</ele>
        <time>2011-01-16T10:25:52Z</time>
      </trkpt>
      <trkpt lat="43.59214" lon="3.69899">
        <ele>99.4</ele>
        <time>2011-01-16T10:25:53Z</time>
      </trkpt>
      <trkpt lat="43.59209" lon="3.69897">
        <ele>99.2</ele>
        <time>2011-01-16T10:25:54Z</time>
      </trkpt>
      <trkpt lat="43.59204" lon="3.69894">
        <ele>99.1</ele>
        <time>2011-01-16T10:25:55Z</time>
      </trkpt>
      <trkpt lat="43.592" lon="3.69892">
        <ele>99</ele>
        <time>2011-01-16T10:25:56Z</time>
      </trkpt>
      <trkpt lat="43.59194" lon="3.69889">
        <ele>98.4</ele>
        <time>2011-01-16T10:25:57Z</time>
      </trkpt>
      <trkpt lat="43.59189" lon="3.69886">
        <ele>98</ele>
        <time>2011-01-16T10:25:58Z</time>
      </trkpt>
      <trkpt lat="43.59184" lon="3.69883">
        <ele>97.6</ele>
        <time>2011-01-16T10:25:59Z</time>
      </trkpt>
      <trkpt lat="43.5918" lon="3.6988">
        <ele>97</ele>
        <time>2011-01-16T10:26:00Z</time>
      </trkpt>
      <trkpt lat="43.59175" lon="3.69876">
        <ele>96.5</ele>
        <time>2011-01-16T10:26:01Z</time>
      </trkpt>
      <trkpt lat="43.5917" lon="3.69873">
        <ele>96.2</ele>
        <time>2011-01-16T10:26:02Z</time>
      </trkpt>
      <trkpt lat="43.59164" lon="3.69869">
        <ele>95.7</ele>
        <time>2011-01-16T10:26:03Z</time>
      </trkpt>
      <trkpt lat="43.59159" lon="3.69865">
        <ele>95.3</ele>
        <time>2011-01-16T10:26:04Z</time>
      </trkpt>
      <trkpt lat="43.59153" lon="3.69861">
        <ele>95</ele>
        <time>2011-01-16T10:26:05Z</time>
      </trkpt>
      <trkpt lat="43.59147" lon="3.69858">
        <ele>94.8</ele>
        <time>2011-01-16T10:26:06Z</time>
      </trkpt>
      <trkpt lat="43.59141" lon="3.69854">
        <ele>94.2</ele>
        <time>2011-01-16T10:26:07Z</time>
      </trkpt>
      <trkpt lat="43.59135" lon="3.69851">
        <ele>93.7</ele>
        <time>2011-01-16T10:26:08Z</time>
      </trkpt>
      <trkpt lat="43.5913" lon="3.69847">
        <ele>93.3</ele>
        <time>2011-01-16T10:26:09Z</time>
      </trkpt>
      <trkpt lat="43.59124" lon="3.69844">
        <ele>93</ele>
        <time>2011-01-16T10:26:10Z</time>
      </trkpt>
      <trkpt lat="43.59118" lon="3.6984">
        <ele>92.7</ele>
        <time>2011-01-16T10:26:11Z</time>
      </trkpt>
      <trkpt lat="43.59112" lon="3.69836">
        <ele>92.5</ele>
        <time>2011-01-16T10:26:12Z</time>
      </trkpt>
      <trkpt lat="43.59105" lon="3.69831">
        <ele>92.1</ele>
        <time>2011-01-16T10:26:13Z</time>
      </trkpt>
      <trkpt lat="43.59099" lon="3.69825">
        <ele>91.8</ele>
        <time>2011-01-16T10:26:14Z</time>
      </trkpt>
      <trkpt lat="43.59092" lon="3.69819">
        <ele>91.6</ele>
        <time>2011-01-16T10:26:15Z</time>
      </trkpt>
      <trkpt lat="43.59087" lon="3.69811">
        <ele>90.5</ele>
        <time>2011-01-16T10:26:16Z</time>
      </trkpt>
      <trkpt lat="43.59081" lon="3.69802">
        <ele>89.6</ele>
        <time>2011-01-16T10:26:17Z</time>
      </trkpt>
      <trkpt lat="43.59076" lon="3.69793">
        <ele>88.9</ele>
        <time>2011-01-16T10:26:18Z</time>
      </trkpt>
      <trkpt lat="43.5907" lon="3.69783">
        <ele>88</ele>
        <time>2011-01-16T10:26:19Z</time>
      </trkpt>
      <trkpt lat="43.59064" lon="3.69774">
        <ele>87.4</ele>
        <time>2011-01-16T10:26:20Z</time>
      </trkpt>
      <trkpt lat="43.59057" lon="3.69766">
        <ele>86.9</ele>
        <time>2011-01-16T10:26:21Z</time>
      </trkpt>
      <trkpt lat="43.59049" lon="3.69758">
        <ele>85.7</ele>
        <time>2011-01-16T10:26:22Z</time>
      </trkpt>
      <trkpt lat="43.59041" lon="3.69752">
        <ele>84.9</ele>
        <time>2011-01-16T10:26:23Z</time>
      </trkpt>
      <trkpt lat="43.59032" lon="3.69746">
        <ele>84.2</ele>
        <time>2011-01-16T10:26:24Z</time>
      </trkpt>
      <trkpt lat="43.59022" lon="3.69741">
        <ele>83.7</ele>
        <time>2011-01-16T10:26:25Z</time>
      </trkpt>
      <trkpt lat="43.59011" lon="3.69737">
        <ele>82.4</ele>
        <time>2011-01-16T10:26:26Z</time>
      </trkpt>
      <trkpt lat="43.59002" lon="3.69733">
        <ele>81.5</ele>
        <time>2011-01-16T10:26:27Z</time>
      </trkpt>
      <trkpt lat="43.58993" lon="3.6973">
        <ele>80.8</ele>
        <time>2011-01-16T10:26:28Z</time>
      </trkpt>
      <trkpt lat="43.58985" lon="3.69728">
        <ele>80.3</ele>
        <time>2011-01-16T10:26:29Z</time>
      </trkpt>
      <trkpt lat="43.58978" lon="3.69728">
        <ele>79.9</ele>
        <time>2011-01-16T10:26:30Z</time>
      </trkpt>
      <trkpt lat="43.58972" lon="3.69729">
        <ele>79.6</ele>
        <time>2011-01-16T10:26:31Z</time>
      </trkpt>
      <trkpt lat="43.58966" lon="3.6973">
        <ele>80.7</ele>
        <time>2011-01-16T10:26:32Z</time>
      </trkpt>
      <trkpt lat="43.58961" lon="3.6973">
        <ele>81.5</ele>
        <time>2011-01-16T10:26:33Z</time>
      </trkpt>
      <trkpt lat="43.58957" lon="3.69731">
        <ele>82.1</ele>
        <time>2011-01-16T10:26:34Z</time>
      </trkpt>
      <trkpt lat="43.58952" lon="3.69733">
        <ele>82.9</ele>
        <time>2011-01-16T10:26:35Z</time>
      </trkpt>
      <trkpt lat="43.58948" lon="3.69735">
        <ele>83.4</ele>
        <time>2011-01-16T10:26:36Z</time>
      </trkpt>
      <trkpt lat="43.58943" lon="3.69737">
        <ele>83.8</ele>
        <time>2011-01-16T10:26:37Z</time>
      </trkpt>
      <trkpt lat="43.58938" lon="3.6974">
        <ele>84.4</ele>
        <time>2011-01-16T10:26:38Z</time>
      </trkpt>
      <trkpt lat="43.58934" lon="3.69743">
        <ele>84.9</ele>
        <time>2011-01-16T10:26:39Z</time>
      </trkpt>
      <trkpt lat="43.5893" lon="3.69746">
        <ele>85.2</ele>
        <time>2011-01-16T10:26:40Z</time>
      </trkpt>
      <trkpt lat="43.58926" lon="3.69751">
        <ele>85.4</ele>
        <time>2011-01-16T10:26:41Z</time>
      </trkpt>
      <trkpt lat="43.58922" lon="3.69756">
        <ele>85.8</ele>
        <time>2011-01-16T10:26:42Z</time>
      </trkpt>
      <trkpt lat="43.5892" lon="3.69762">
        <ele>86.1</ele>
        <time>2011-01-16T10:26:43Z</time>
      </trkpt>
      <trkpt lat="43.58917" lon="3.69768">
        <ele>86.3</ele>
        <time>2011-01-16T10:26:44Z</time>
      </trkpt>
      <trkpt lat="43.58915" lon="3.69774">
        <ele>86.8</ele>
        <time>2011-01-16T10:26:45Z</time>
      </trkpt>
      <trkpt lat="43.58912" lon="3.69781">
        <ele>87.2</ele>
        <time>2011-01-16T10:26:46Z</time>
      </trkpt>
      <trkpt lat="43.58909" lon="3.69786">
        <ele>87.4</ele>
        <time>2011-01-16T10:26:47Z</time>
      </trkpt>
      <trkpt lat="43.58903" lon="3.69794">
        <ele>88.6</ele>
        <time>2011-01-16T10:26:49Z</time>
      </trkpt>
      <trkpt lat="43.58898" lon="3.69801">
        <ele>89.4</ele>
        <time>2011-01-16T10:26:51Z</time>
      </trkpt>
      <trkpt lat="43.58893" lon="3.6981">
        <ele>90.1</ele>
        <time>2011-01-16T10:26:53Z</time>
      </trkpt>
      <trkpt lat="43.5889" lon="3.6982">
        <ele>91.6</ele>
        <time>2011-01-16T10:26:55Z</time>
      </trkpt>
      <trkpt lat="43.58888" lon="3.6983">
        <ele>92.5</ele>
        <time>2011-01-16T10:26:57Z</time>
      </trkpt>
      <trkpt lat="43.58886" lon="3.69842">
        <ele>93.1</ele>
        <time>2011-01-16T10:26:59Z</time>
      </trkpt>
      <trkpt lat="43.58884" lon="3.69851">
        <ele>93.5</ele>
        <time>2011-01-16T10:27:01Z</time>
      </trkpt>
      <trkpt lat="43.58882" lon="3.6986">
        <ele>93.9</ele>
        <time>2011-01-16T10:27:03Z</time>
      </trkpt>
      <trkpt lat="43.58883" lon="3.69869">
        <ele>94.1</ele>
        <time>2011-01-16T10:27:05Z</time>
      </trkpt>
      <trkpt lat="43.58892" lon="3.69871">
        <ele>96.3</ele>
        <time>2011-01-16T10:27:09Z</time>
      </trkpt>
      <trkpt lat="43.58895" lon="3.69864">
        <ele>96.4</ele>
        <time>2011-01-16T10:27:11Z</time>
      </trkpt>
      <trkpt lat="43.58898" lon="3.69855">
        <ele>96.5</ele>
        <time>2011-01-16T10:27:13Z</time>
      </trkpt>
      <trkpt lat="43.589" lon="3.69851">
        <ele>96.8</ele>
        <time>2011-01-16T10:27:14Z</time>
      </trkpt>
      <trkpt lat="43.58907" lon="3.69842">
        <ele>97.6</ele>
        <time>2011-01-16T10:27:17Z</time>
      </trkpt>
      <trkpt lat="43.58914" lon="3.69839">
        <ele>98.2</ele>
        <time>2011-01-16T10:27:19Z</time>
      </trkpt>
      <trkpt lat="43.58921" lon="3.69838">
        <ele>98</ele>
        <time>2011-01-16T10:27:21Z</time>
      </trkpt>
      <trkpt lat="43.58928" lon="3.69839">
        <ele>98.3</ele>
        <time>2011-01-16T10:27:23Z</time>
      </trkpt>
      <trkpt lat="43.58934" lon="3.69842">
        <ele>98.8</ele>
        <time>2011-01-16T10:27:25Z</time>
      </trkpt>
      <trkpt lat="43.58939" lon="3.69846">
        <ele>99.2</ele>
        <time>2011-01-16T10:27:27Z</time>
      </trkpt>
      <trkpt lat="43.58946" lon="3.69855">
        <ele>99.8</ele>
        <time>2011-01-16T10:27:30Z</time>
      </trkpt>
      <trkpt lat="43.5895" lon="3.69865">
        <ele>100.9</ele>
        <time>2011-01-16T10:27:33Z</time>
      </trkpt>
      <trkpt lat="43.58951" lon="3.69875">
        <ele>102.1</ele>
        <time>2011-01-16T10:27:36Z</time>
      </trkpt>
      <trkpt lat="43.58953" lon="3.69884">
        <ele>103</ele>
        <time>2011-01-16T10:27:39Z</time>
      </trkpt>
      <trkpt lat="43.58957" lon="3.69893">
        <ele>103.4</ele>
        <time>2011-01-16T10:27:42Z</time>
      </trkpt>
      <trkpt lat="43.58964" lon="3.69898">
        <ele>104.1</ele>
        <time>2011-01-16T10:27:45Z</time>
      </trkpt>
      <trkpt lat="43.58971" lon="3.69898">
        <ele>105.2</ele>
        <time>2011-01-16T10:27:48Z</time>
      </trkpt>
      <trkpt lat="43.58977" lon="3.69893">
        <ele>106</ele>
        <time>2011-01-16T10:27:51Z</time>
      </trkpt>
      <trkpt lat="43.58982" lon="3.69886">
        <ele>106.2</ele>
        <time>2011-01-16T10:27:54Z</time>
      </trkpt>
      <trkpt lat="43.58989" lon="3.69882">
        <ele>106.8</ele>
        <time>2011-01-16T10:27:57Z</time>
      </trkpt>
      <trkpt lat="43.58996" lon="3.69881">
        <ele>107.1</ele>
        <time>2011-01-16T10:28:00Z</time>
      </trkpt>
      <trkpt lat="43.59002" lon="3.69888">
        <ele>108.8</ele>
        <time>2011-01-16T10:28:04Z</time>
      </trkpt>
      <trkpt lat="43.59002" lon="3.699">
        <ele>110.3</ele>
        <time>2011-01-16T10:28:08Z</time>
      </trkpt>
      <trkpt lat="43.59" lon="3.69909">
        <ele>111.4</ele>
        <time>2011-01-16T10:28:11Z</time>
      </trkpt>
      <trkpt lat="43.58999" lon="3.6992">
        <ele>112.9</ele>
        <time>2011-01-16T10:28:15Z</time>
      </trkpt>
      <trkpt lat="43.58998" lon="3.69923">
        <ele>113.1</ele>
        <time>2011-01-16T10:28:16Z</time>
      </trkpt>
      <trkpt lat="43.59001" lon="3.6994">
        <ele>113.8</ele>
        <time>2011-01-16T10:28:21Z</time>
      </trkpt>
      <trkpt lat="43.59004" lon="3.69949">
        <ele>114.9</ele>
        <time>2011-01-16T10:28:24Z</time>
      </trkpt>
      <trkpt lat="43.59009" lon="3.69959">
        <ele>115.8</ele>
        <time>2011-01-16T10:28:28Z</time>
      </trkpt>
      <trkpt lat="43.59015" lon="3.69967">
        <ele>116.2</ele>
        <time>2011-01-16T10:28:32Z</time>
      </trkpt>
      <trkpt lat="43.59021" lon="3.69975">
        <ele>117.5</ele>
        <time>2011-01-16T10:28:36Z</time>
      </trkpt>
      <trkpt lat="43.59027" lon="3.69983">
        <ele>117.9</ele>
        <time>2011-01-16T10:28:40Z</time>
      </trkpt>
      <trkpt lat="43.59031" lon="3.69989">
        <ele>118.1</ele>
        <time>2011-01-16T10:28:43Z</time>
      </trkpt>
      <trkpt lat="43.59036" lon="3.69997">
        <ele>119</ele>
        <time>2011-01-16T10:28:46Z</time>
      </trkpt>
      <trkpt lat="43.59041" lon="3.70004">
        <ele>119.9</ele>
        <time>2011-01-16T10:28:49Z</time>
      </trkpt>
      <trkpt lat="43.59046" lon="3.70011">
        <ele>120.1</ele>
        <time>2011-01-16T10:28:52Z</time>
      </trkpt>
      <trkpt lat="43.59051" lon="3.70019">
        <ele>119.8</ele>
        <time>2011-01-16T10:28:55Z</time>
      </trkpt>
      <trkpt lat="43.59057" lon="3.70027">
        <ele>120.6</ele>
        <time>2011-01-16T10:28:58Z</time>
      </trkpt>
      <trkpt lat="43.59062" lon="3.70034">
        <ele>121.5</ele>
        <time>2011-01-16T10:29:00Z</time>
      </trkpt>
      <trkpt lat="43.59067" lon="3.7004">
        <ele>121.3</ele>
        <time>2011-01-16T10:29:02Z</time>
      </trkpt>
      <trkpt lat="43.59071" lon="3.70046">
        <ele>120.7</ele>
        <time>2011-01-16T10:29:04Z</time>
      </trkpt>
      <trkpt lat="43.59076" lon="3.70051">
        <ele>121.1</ele>
        <time>2011-01-16T10:29:06Z</time>
      </trkpt>
      <trkpt lat="43.59083" lon="3.70059">
        <ele>121.8</ele>
        <time>2011-01-16T10:29:09Z</time>
      </trkpt>
      <trkpt lat="43.59089" lon="3.70068">
        <ele>122.3</ele>
        <time>2011-01-16T10:29:12Z</time>
      </trkpt>
      <trkpt lat="43.59094" lon="3.70076">
        <ele>123.1</ele>
        <time>2011-01-16T10:29:15Z</time>
      </trkpt>
      <trkpt lat="43.591" lon="3.70084">
        <ele>123.9</ele>
        <time>2011-01-16T10:29:18Z</time>
      </trkpt>
      <trkpt lat="43.59102" lon="3.70087">
        <ele>124.1</ele>
        <time>2011-01-16T10:29:19Z</time>
      </trkpt>
      <trkpt lat="43.5911" lon="3.70102">
        <ele>125.3</ele>
        <time>2011-01-16T10:29:24Z</time>
      </trkpt>
      <trkpt lat="43.59114" lon="3.70109">
        <ele>125.9</ele>
        <time>2011-01-16T10:29:27Z</time>
      </trkpt>
      <trkpt lat="43.59117" lon="3.70118">
        <ele>126.3</ele>
        <time>2011-01-16T10:29:30Z</time>
      </trkpt>
      <trkpt lat="43.5912" lon="3.70127">
        <ele>127.1</ele>
        <time>2011-01-16T10:29:33Z</time>
      </trkpt>
      <trkpt lat="43.59123" lon="3.70136">
        <ele>128.4</ele>
        <time>2011-01-16T10:29:36Z</time>
      </trkpt>
      <trkpt lat="43.59126" lon="3.70145">
        <ele>129.6</ele>
        <time>2011-01-16T10:29:39Z</time>
      </trkpt>
      <trkpt lat="43.59129" lon="3.70156">
        <ele>130</ele>
        <time>2011-01-16T10:29:42Z</time>
      </trkpt>
      <trkpt lat="43.59132" lon="3.70164">
        <ele>130.3</ele>
        <time>2011-01-16T10:29:44Z</time>
      </trkpt>
      <trkpt lat="43.59136" lon="3.70172">
        <ele>130.5</ele>
        <time>2011-01-16T10:29:46Z</time>
      </trkpt>
      <trkpt lat="43.59139" lon="3.7018">
        <ele>130.9</ele>
        <time>2011-01-16T10:29:48Z</time>
      </trkpt>
      <trkpt lat="43.59144" lon="3.70188">
        <ele>131.2</ele>
        <time>2011-01-16T10:29:50Z</time>
      </trkpt>
      <trkpt lat="43.5915" lon="3.70196">
        <ele>131.4</ele>
        <time>2011-01-16T10:29:52Z</time>
      </trkpt>
      <trkpt lat="43.59157" lon="3.70204">
        <ele>131.5</ele>
        <time>2011-01-16T10:29:54Z</time>
      </trkpt>
      <trkpt lat="43.5916" lon="3.70208">
        <ele>131.6</ele>
        <time>2011-01-16T10:29:55Z</time>
      </trkpt>
      <trkpt lat="43.59168" lon="3.70215">
        <ele>131.7</ele>
        <time>2011-01-16T10:29:57Z</time>
      </trkpt>
      <trkpt lat="43.59175" lon="3.70221">
        <ele>131.7</ele>
        <time>2011-01-16T10:29:59Z</time>
      </trkpt>
      <trkpt lat="43.59179" lon="3.70224">
        <ele>131.7</ele>
        <time>2011-01-16T10:30:00Z</time>
      </trkpt>
      <trkpt lat="43.59187" lon="3.7023">
        <ele>131.6</ele>
        <time>2011-01-16T10:30:02Z</time>
      </trkpt>
      <trkpt lat="43.59195" lon="3.70235">
        <ele>132.3</ele>
        <time>2011-01-16T10:30:04Z</time>
      </trkpt>
      <trkpt lat="43.59204" lon="3.7024">
        <ele>132.6</ele>
        <time>2011-01-16T10:30:06Z</time>
      </trkpt>
      <trkpt lat="43.59212" lon="3.70244">
        <ele>132.9</ele>
        <time>2011-01-16T10:30:08Z</time>
      </trkpt>
      <trkpt lat="43.59217" lon="3.70246">
        <ele>133</ele>
        <time>2011-01-16T10:30:09Z</time>
      </trkpt>
      <trkpt lat="43.59221" lon="3.70247">
        <ele>133.1</ele>
        <time>2011-01-16T10:30:10Z</time>
      </trkpt>
      <trkpt lat="43.59226" lon="3.70248">
        <ele>133.2</ele>
        <time>2011-01-16T10:30:11Z</time>
      </trkpt>
      <trkpt lat="43.5923" lon="3.70249">
        <ele>133</ele>
        <time>2011-01-16T10:30:12Z</time>
      </trkpt>
      <trkpt lat="43.59235" lon="3.70249">
        <ele>132.9</ele>
        <time>2011-01-16T10:30:13Z</time>
      </trkpt>
      <trkpt lat="43.5924" lon="3.7025">
        <ele>132.8</ele>
        <time>2011-01-16T10:30:14Z</time>
      </trkpt>
      <trkpt lat="43.59245" lon="3.7025">
        <ele>133</ele>
        <time>2011-01-16T10:30:15Z</time>
      </trkpt>
      <trkpt lat="43.59249" lon="3.70251">
        <ele>133.1</ele>
        <time>2011-01-16T10:30:16Z</time>
      </trkpt>
      <trkpt lat="43.59254" lon="3.70252">
        <ele>133.2</ele>
        <time>2011-01-16T10:30:17Z</time>
      </trkpt>
      <trkpt lat="43.59258" lon="3.70255">
        <ele>133.2</ele>
        <time>2011-01-16T10:30:18Z</time>
      </trkpt>
      <trkpt lat="43.59263" lon="3.70257">
        <ele>133</ele>
        <time>2011-01-16T10:30:19Z</time>
      </trkpt>
      <trkpt lat="43.59267" lon="3.70261">
        <ele>132.8</ele>
        <time>2011-01-16T10:30:20Z</time>
      </trkpt>
      <trkpt lat="43.5927" lon="3.70265">
        <ele>132.7</ele>
        <time>2011-01-16T10:30:21Z</time>
      </trkpt>
      <trkpt lat="43.59273" lon="3.70269">
        <ele>133.2</ele>
        <time>2011-01-16T10:30:22Z</time>
      </trkpt>
      <trkpt lat="43.59277" lon="3.70274">
        <ele>133.6</ele>
        <time>2011-01-16T10:30:23Z</time>
      </trkpt>
      <trkpt lat="43.59281" lon="3.70278">
        <ele>133.8</ele>
        <time>2011-01-16T10:30:24Z</time>
      </trkpt>
      <trkpt lat="43.59284" lon="3.70282">
        <ele>133.8</ele>
        <time>2011-01-16T10:30:25Z</time>
      </trkpt>
      <trkpt lat="43.59288" lon="3.70286">
        <ele>133.7</ele>
        <time>2011-01-16T10:30:26Z</time>
      </trkpt>
      <trkpt lat="43.59292" lon="3.7029">
        <ele>133.7</ele>
        <time>2011-01-16T10:30:27Z</time>
      </trkpt>
      <trkpt lat="43.59296" lon="3.70293">
        <ele>133.6</ele>
        <time>2011-01-16T10:30:28Z</time>
      </trkpt>
      <trkpt lat="43.59301" lon="3.70296">
        <ele>133.6</ele>
        <time>2011-01-16T10:30:29Z</time>
      </trkpt>
      <trkpt lat="43.59305" lon="3.70299">
        <ele>133.6</ele>
        <time>2011-01-16T10:30:30Z</time>
      </trkpt>
      <trkpt lat="43.59313" lon="3.70305">
        <ele>134.2</ele>
        <time>2011-01-16T10:30:32Z</time>
      </trkpt>
      <trkpt lat="43.59317" lon="3.70307">
        <ele>134.4</ele>
        <time>2011-01-16T10:30:33Z</time>
      </trkpt>
      <trkpt lat="43.59321" lon="3.7031">
        <ele>134.6</ele>
        <time>2011-01-16T10:30:34Z</time>
      </trkpt>
      <trkpt lat="43.59326" lon="3.70312">
        <ele>134.3</ele>
        <time>2011-01-16T10:30:35Z</time>
      </trkpt>
      <trkpt lat="43.59331" lon="3.70315">
        <ele>134.1</ele>
        <time>2011-01-16T10:30:36Z</time>
      </trkpt>
      <trkpt lat="43.59336" lon="3.70317">
        <ele>134</ele>
        <time>2011-01-16T10:30:37Z</time>
      </trkpt>
      <trkpt lat="43.59341" lon="3.70319">
        <ele>134.1</ele>
        <time>2011-01-16T10:30:38Z</time>
      </trkpt>
      <trkpt lat="43.59346" lon="3.70321">
        <ele>134.2</ele>
        <time>2011-01-16T10:30:39Z</time>
      </trkpt>
      <trkpt lat="43.59351" lon="3.70323">
        <ele>134.3</ele>
        <time>2011-01-16T10:30:40Z</time>
      </trkpt>
      <trkpt lat="43.59356" lon="3.70325">
        <ele>134.5</ele>
        <time>2011-01-16T10:30:41Z</time>
      </trkpt>
      <trkpt lat="43.59361" lon="3.70327">
        <ele>134.7</ele>
        <time>2011-01-16T10:30:42Z</time>
      </trkpt>
      <trkpt lat="43.59366" lon="3.70329">
        <ele>134.8</ele>
        <time>2011-01-16T10:30:43Z</time>
      </trkpt>
      <trkpt lat="43.59371" lon="3.70331">
        <ele>134.4</ele>
        <time>2011-01-16T10:30:44Z</time>
      </trkpt>
      <trkpt lat="43.59376" lon="3.70333">
        <ele>134.1</ele>
        <time>2011-01-16T10:30:45Z</time>
      </trkpt>
      <trkpt lat="43.59381" lon="3.70335">
        <ele>133.9</ele>
        <time>2011-01-16T10:30:46Z</time>
      </trkpt>
      <trkpt lat="43.59389" lon="3.70338">
        <ele>133.8</ele>
        <time>2011-01-16T10:30:48Z</time>
      </trkpt>
      <trkpt lat="43.59395" lon="3.70341">
        <ele>133.7</ele>
        <time>2011-01-16T10:30:50Z</time>
      </trkpt>
      <trkpt lat="43.59401" lon="3.70344">
        <ele>134.2</ele>
        <time>2011-01-16T10:30:52Z</time>
      </trkpt>
      <trkpt lat="43.59408" lon="3.70347">
        <ele>134.6</ele>
        <time>2011-01-16T10:30:54Z</time>
      </trkpt>
      <trkpt lat="43.59416" lon="3.7035">
        <ele>134.8</ele>
        <time>2011-01-16T10:30:56Z</time>
      </trkpt>
      <trkpt lat="43.5942" lon="3.70352">
        <ele>134.6</ele>
        <time>2011-01-16T10:30:57Z</time>
      </trkpt>
      <trkpt lat="43.59425" lon="3.70353">
        <ele>134.5</ele>
        <time>2011-01-16T10:30:58Z</time>
      </trkpt>
      <trkpt lat="43.5943" lon="3.70355">
        <ele>134.4</ele>
        <time>2011-01-16T10:30:59Z</time>
      </trkpt>
      <trkpt lat="43.59435" lon="3.70357">
        <ele>134.4</ele>
        <time>2011-01-16T10:31:00Z</time>
      </trkpt>
      <trkpt lat="43.5944" lon="3.7036">
        <ele>134.4</ele>
        <time>2011-01-16T10:31:01Z</time>
      </trkpt>
      <trkpt lat="43.59446" lon="3.70362">
        <ele>134.4</ele>
        <time>2011-01-16T10:31:02Z</time>
      </trkpt>
      <trkpt lat="43.59452" lon="3.70365">
        <ele>134.3</ele>
        <time>2011-01-16T10:31:03Z</time>
      </trkpt>
      <trkpt lat="43.59457" lon="3.70369">
        <ele>134.2</ele>
        <time>2011-01-16T10:31:04Z</time>
      </trkpt>
      <trkpt lat="43.59462" lon="3.70375">
        <ele>134.1</ele>
        <time>2011-01-16T10:31:05Z</time>
      </trkpt>
      <trkpt lat="43.59465" lon="3.70382">
        <ele>134.1</ele>
        <time>2011-01-16T10:31:06Z</time>
      </trkpt>
      <trkpt lat="43.59467" lon="3.7039">
        <ele>134</ele>
        <time>2011-01-16T10:31:07Z</time>
      </trkpt>
      <trkpt lat="43.59467" lon="3.70398">
        <ele>134</ele>
        <time>2011-01-16T10:31:08Z</time>
      </trkpt>
      <trkpt lat="43.59466" lon="3.70405">
        <ele>133.9</ele>
        <time>2011-01-16T10:31:09Z</time>
      </trkpt>
      <trkpt lat="43.59465" lon="3.70412">
        <ele>134.4</ele>
        <time>2011-01-16T10:31:10Z</time>
      </trkpt>
      <trkpt lat="43.59465" lon="3.70418">
        <ele>134.7</ele>
        <time>2011-01-16T10:31:11Z</time>
      </trkpt>
      <trkpt lat="43.59464" lon="3.70425">
        <ele>135</ele>
        <time>2011-01-16T10:31:12Z</time>
      </trkpt>
      <trkpt lat="43.59463" lon="3.70431">
        <ele>135.5</ele>
        <time>2011-01-16T10:31:13Z</time>
      </trkpt>
      <trkpt lat="43.59463" lon="3.70438">
        <ele>135.9</ele>
        <time>2011-01-16T10:31:14Z</time>
      </trkpt>
      <trkpt lat="43.59462" lon="3.70444">
        <ele>136.2</ele>
        <time>2011-01-16T10:31:15Z</time>
      </trkpt>
      <trkpt lat="43.59461" lon="3.70451">
        <ele>136.4</ele>
        <time>2011-01-16T10:31:16Z</time>
      </trkpt>
      <trkpt lat="43.5946" lon="3.70458">
        <ele>136.5</ele>
        <time>2011-01-16T10:31:17Z</time>
      </trkpt>
      <trkpt lat="43.59459" lon="3.70464">
        <ele>136.6</ele>
        <time>2011-01-16T10:31:18Z</time>
      </trkpt>
      <trkpt lat="43.59459" lon="3.70471">
        <ele>136.8</ele>
        <time>2011-01-16T10:31:19Z</time>
      </trkpt>
      <trkpt lat="43.59458" lon="3.70478">
        <ele>137</ele>
        <time>2011-01-16T10:31:20Z</time>
      </trkpt>
      <trkpt lat="43.59457" lon="3.70485">
        <ele>137.1</ele>
        <time>2011-01-16T10:31:21Z</time>
      </trkpt>
      <trkpt lat="43.59456" lon="3.70493">
        <ele>137.2</ele>
        <time>2011-01-16T10:31:22Z</time>
      </trkpt>
      <trkpt lat="43.59455" lon="3.705">
        <ele>137.2</ele>
        <time>2011-01-16T10:31:23Z</time>
      </trkpt>
      <trkpt lat="43.59454" lon="3.70507">
        <ele>137.2</ele>
        <time>2011-01-16T10:31:24Z</time>
      </trkpt>
      <trkpt lat="43.59453" lon="3.70515">
        <ele>137.2</ele>
        <time>2011-01-16T10:31:25Z</time>
      </trkpt>
      <trkpt lat="43.59452" lon="3.70523">
        <ele>137</ele>
        <time>2011-01-16T10:31:26Z</time>
      </trkpt>
      <trkpt lat="43.59451" lon="3.70532">
        <ele>136.9</ele>
        <time>2011-01-16T10:31:27Z</time>
      </trkpt>
      <trkpt lat="43.59451" lon="3.70539">
        <ele>136.8</ele>
        <time>2011-01-16T10:31:28Z</time>
      </trkpt>
      <trkpt lat="43.59452" lon="3.7055">
        <ele>136.4</ele>
        <time>2011-01-16T10:31:30Z</time>
      </trkpt>
      <trkpt lat="43.59456" lon="3.70561">
        <ele>137.5</ele>
        <time>2011-01-16T10:33:50Z</time>
      </trkpt>
      <trkpt lat="43.59457" lon="3.70562">
        <ele>137.6</ele>
        <time>2011-01-16T10:33:51Z</time>
      </trkpt>
      <trkpt lat="43.59472" lon="3.70567">
        <ele>139.7</ele>
        <time>2011-01-16T10:33:58Z</time>
      </trkpt>
      <trkpt lat="43.59481" lon="3.70569">
        <ele>139.7</ele>
        <time>2011-01-16T10:34:02Z</time>
      </trkpt>
      <trkpt lat="43.59489" lon="3.70571">
        <ele>140.3</ele>
        <time>2011-01-16T10:34:06Z</time>
      </trkpt>
      <trkpt lat="43.59496" lon="3.70573">
        <ele>140.8</ele>
        <time>2011-01-16T10:34:09Z</time>
      </trkpt>
      <trkpt lat="43.59502" lon="3.70575">
        <ele>141.3</ele>
        <time>2011-01-16T10:34:12Z</time>
      </trkpt>
      <trkpt lat="43.59509" lon="3.70579">
        <ele>141.7</ele>
        <time>2011-01-16T10:34:15Z</time>
      </trkpt>
      <trkpt lat="43.59517" lon="3.70584">
        <ele>142</ele>
        <time>2011-01-16T10:34:18Z</time>
      </trkpt>
      <trkpt lat="43.59525" lon="3.70589">
        <ele>142.4</ele>
        <time>2011-01-16T10:34:21Z</time>
      </trkpt>
      <trkpt lat="43.59532" lon="3.70596">
        <ele>143.2</ele>
        <time>2011-01-16T10:34:24Z</time>
      </trkpt>
      <trkpt lat="43.5954" lon="3.70602">
        <ele>143.7</ele>
        <time>2011-01-16T10:34:27Z</time>
      </trkpt>
      <trkpt lat="43.59547" lon="3.7061">
        <ele>145</ele>
        <time>2011-01-16T10:34:30Z</time>
      </trkpt>
      <trkpt lat="43.59553" lon="3.70617">
        <ele>144.6</ele>
        <time>2011-01-16T10:34:33Z</time>
      </trkpt>
      <trkpt lat="43.59559" lon="3.70626">
        <ele>145.5</ele>
        <time>2011-01-16T10:34:36Z</time>
      </trkpt>
      <trkpt lat="43.59565" lon="3.70634">
        <ele>145.7</ele>
        <time>2011-01-16T10:34:39Z</time>
      </trkpt>
      <trkpt lat="43.59571" lon="3.70642">
        <ele>145.6</ele>
        <time>2011-01-16T10:34:42Z</time>
      </trkpt>
      <trkpt lat="43.59577" lon="3.7065">
        <ele>146</ele>
        <time>2011-01-16T10:34:45Z</time>
      </trkpt>
      <trkpt lat="43.59584" lon="3.70657">
        <ele>146.3</ele>
        <time>2011-01-16T10:34:48Z</time>
      </trkpt>
      <trkpt lat="43.59588" lon="3.70663">
        <ele>146.5</ele>
        <time>2011-01-16T10:34:50Z</time>
      </trkpt>
      <trkpt lat="43.59593" lon="3.70668">
        <ele>146.5</ele>
        <time>2011-01-16T10:34:52Z</time>
      </trkpt>
      <trkpt lat="43.59596" lon="3.70671">
        <ele>146.9</ele>
        <time>2011-01-16T10:34:53Z</time>
      </trkpt>
      <trkpt lat="43.59603" lon="3.70679">
        <ele>147.1</ele>
        <time>2011-01-16T10:34:56Z</time>
      </trkpt>
      <trkpt lat="43.59608" lon="3.70684">
        <ele>146.7</ele>
        <time>2011-01-16T10:34:58Z</time>
      </trkpt>
      <trkpt lat="43.59613" lon="3.7069">
        <ele>146.9</ele>
        <time>2011-01-16T10:35:00Z</time>
      </trkpt>
      <trkpt lat="43.5962" lon="3.70697">
        <ele>146.9</ele>
        <time>2011-01-16T10:35:03Z</time>
      </trkpt>
      <trkpt lat="43.59626" lon="3.70705">
        <ele>147.2</ele>
        <time>2011-01-16T10:35:06Z</time>
      </trkpt>
      <trkpt lat="43.59633" lon="3.70712">
        <ele>148.1</ele>
        <time>2011-01-16T10:35:09Z</time>
      </trkpt>
      <trkpt lat="43.59639" lon="3.7072">
        <ele>148.4</ele>
        <time>2011-01-16T10:35:12Z</time>
      </trkpt>
      <trkpt lat="43.59646" lon="3.70728">
        <ele>148.6</ele>
        <time>2011-01-16T10:35:15Z</time>
      </trkpt>
      <trkpt lat="43.59652" lon="3.70736">
        <ele>148.8</ele>
        <time>2011-01-16T10:35:18Z</time>
      </trkpt>
      <trkpt lat="43.59659" lon="3.70744">
        <ele>149.9</ele>
        <time>2011-01-16T10:35:21Z</time>
      </trkpt>
      <trkpt lat="43.59665" lon="3.70752">
        <ele>150</ele>
        <time>2011-01-16T10:35:24Z</time>
      </trkpt>
      <trkpt lat="43.59671" lon="3.7076">
        <ele>150.9</ele>
        <time>2011-01-16T10:35:27Z</time>
      </trkpt>
      <trkpt lat="43.59678" lon="3.70767">
        <ele>152.1</ele>
        <time>2011-01-16T10:35:30Z</time>
      </trkpt>
      <trkpt lat="43.59684" lon="3.70775">
        <ele>152.8</ele>
        <time>2011-01-16T10:35:33Z</time>
      </trkpt>
      <trkpt lat="43.59691" lon="3.70783">
        <ele>151.9</ele>
        <time>2011-01-16T10:35:36Z</time>
      </trkpt>
      <trkpt lat="43.59698" lon="3.70789">
        <ele>151.5</ele>
        <time>2011-01-16T10:35:39Z</time>
      </trkpt>
      <trkpt lat="43.59705" lon="3.70796">
        <ele>152.2</ele>
        <time>2011-01-16T10:35:42Z</time>
      </trkpt>
      <trkpt lat="43.59712" lon="3.70802">
        <ele>152.3</ele>
        <time>2011-01-16T10:35:45Z</time>
      </trkpt>
      <trkpt lat="43.59718" lon="3.7081">
        <ele>152.8</ele>
        <time>2011-01-16T10:35:48Z</time>
      </trkpt>
      <trkpt lat="43.59723" lon="3.7082">
        <ele>153</ele>
        <time>2011-01-16T10:35:51Z</time>
      </trkpt>
      <trkpt lat="43.59726" lon="3.70828">
        <ele>152.8</ele>
        <time>2011-01-16T10:35:53Z</time>
      </trkpt>
      <trkpt lat="43.59726" lon="3.70833">
        <ele>152.8</ele>
        <time>2011-01-16T10:35:54Z</time>
      </trkpt>
      <trkpt lat="43.59729" lon="3.70846">
        <ele>152.3</ele>
        <time>2011-01-16T10:35:57Z</time>
      </trkpt>
      <trkpt lat="43.59731" lon="3.70855">
        <ele>151.8</ele>
        <time>2011-01-16T10:35:59Z</time>
      </trkpt>
      <trkpt lat="43.59735" lon="3.70866">
        <ele>150.8</ele>
        <time>2011-01-16T10:36:01Z</time>
      </trkpt>
      <trkpt lat="43.59737" lon="3.70872">
        <ele>150.5</ele>
        <time>2011-01-16T10:36:02Z</time>
      </trkpt>
      <trkpt lat="43.59742" lon="3.70882">
        <ele>150.4</ele>
        <time>2011-01-16T10:36:04Z</time>
      </trkpt>
      <trkpt lat="43.59747" lon="3.70892">
        <ele>149.7</ele>
        <time>2011-01-16T10:36:06Z</time>
      </trkpt>
      <trkpt lat="43.5975" lon="3.70897">
        <ele>149.2</ele>
        <time>2011-01-16T10:36:07Z</time>
      </trkpt>
      <trkpt lat="43.59752" lon="3.70902">
        <ele>148.8</ele>
        <time>2011-01-16T10:36:08Z</time>
      </trkpt>
      <trkpt lat="43.59755" lon="3.70907">
        <ele>148.5</ele>
        <time>2011-01-16T10:36:09Z</time>
      </trkpt>
      <trkpt lat="43.59758" lon="3.70912">
        <ele>148.6</ele>
        <time>2011-01-16T10:36:10Z</time>
      </trkpt>
      <trkpt lat="43.59762" lon="3.70917">
        <ele>148.6</ele>
        <time>2011-01-16T10:36:11Z</time>
      </trkpt>
      <trkpt lat="43.59765" lon="3.70921">
        <ele>148.6</ele>
        <time>2011-01-16T10:36:12Z</time>
      </trkpt>
      <trkpt lat="43.59769" lon="3.70926">
        <ele>148.2</ele>
        <time>2011-01-16T10:36:13Z</time>
      </trkpt>
      <trkpt lat="43.59773" lon="3.7093">
        <ele>147.9</ele>
        <time>2011-01-16T10:36:14Z</time>
      </trkpt>
      <trkpt lat="43.59777" lon="3.70934">
        <ele>147.7</ele>
        <time>2011-01-16T10:36:15Z</time>
      </trkpt>
      <trkpt lat="43.59781" lon="3.70937">
        <ele>147.6</ele>
        <time>2011-01-16T10:36:16Z</time>
      </trkpt>
      <trkpt lat="43.59786" lon="3.7094">
        <ele>147.5</ele>
        <time>2011-01-16T10:36:17Z</time>
      </trkpt>
      <trkpt lat="43.5979" lon="3.70943">
        <ele>147.5</ele>
        <time>2011-01-16T10:36:18Z</time>
      </trkpt>
      <trkpt lat="43.59794" lon="3.70946">
        <ele>147.1</ele>
        <time>2011-01-16T10:36:19Z</time>
      </trkpt>
      <trkpt lat="43.59798" lon="3.7095">
        <ele>146.8</ele>
        <time>2011-01-16T10:36:20Z</time>
      </trkpt>
      <trkpt lat="43.59803" lon="3.70953">
        <ele>146.5</ele>
        <time>2011-01-16T10:36:21Z</time>
      </trkpt>
      <trkpt lat="43.59807" lon="3.70956">
        <ele>146.2</ele>
        <time>2011-01-16T10:36:22Z</time>
      </trkpt>
      <trkpt lat="43.59811" lon="3.70959">
        <ele>146</ele>
        <time>2011-01-16T10:36:23Z</time>
      </trkpt>
      <trkpt lat="43.59815" lon="3.70963">
        <ele>145.8</ele>
        <time>2011-01-16T10:36:24Z</time>
      </trkpt>
      <trkpt lat="43.59819" lon="3.70967">
        <ele>145.6</ele>
        <time>2011-01-16T10:36:25Z</time>
      </trkpt>
      <trkpt lat="43.59824" lon="3.7097">
        <ele>145.1</ele>
        <time>2011-01-16T10:36:26Z</time>
      </trkpt>
      <trkpt lat="43.59828" lon="3.70973">
        <ele>144.8</ele>
        <time>2011-01-16T10:36:27Z</time>
      </trkpt>
      <trkpt lat="43.59832" lon="3.70976">
        <ele>144.5</ele>
        <time>2011-01-16T10:36:28Z</time>
      </trkpt>
      <trkpt lat="43.59837" lon="3.70978">
        <ele>144.4</ele>
        <time>2011-01-16T10:36:29Z</time>
      </trkpt>
      <trkpt lat="43.59842" lon="3.7098">
        <ele>144.3</ele>
        <time>2011-01-16T10:36:30Z</time>
      </trkpt>
      <trkpt lat="43.59847" lon="3.70982">
        <ele>144.2</ele>
        <time>2011-01-16T10:36:31Z</time>
      </trkpt>
      <trkpt lat="43.59853" lon="3.70983">
        <ele>143.9</ele>
        <time>2011-01-16T10:36:32Z</time>
      </trkpt>
      <trkpt lat="43.59858" lon="3.70984">
        <ele>143.7</ele>
        <time>2011-01-16T10:36:33Z</time>
      </trkpt>
      <trkpt lat="43.59864" lon="3.70985">
        <ele>143.6</ele>
        <time>2011-01-16T10:36:34Z</time>
      </trkpt>
      <trkpt lat="43.59869" lon="3.70986">
        <ele>143</ele>
        <time>2011-01-16T10:36:35Z</time>
      </trkpt>
      <trkpt lat="43.59875" lon="3.70986">
        <ele>142.6</ele>
        <time>2011-01-16T10:36:36Z</time>
      </trkpt>
      <trkpt lat="43.59881" lon="3.70986">
        <ele>142.2</ele>
        <time>2011-01-16T10:36:37Z</time>
      </trkpt>
      <trkpt lat="43.59886" lon="3.70986">
        <ele>141.6</ele>
        <time>2011-01-16T10:36:38Z</time>
      </trkpt>
      <trkpt lat="43.59892" lon="3.70985">
        <ele>141.1</ele>
        <time>2011-01-16T10:36:39Z</time>
      </trkpt>
      <trkpt lat="43.59897" lon="3.70984">
        <ele>140.7</ele>
        <time>2011-01-16T10:36:40Z</time>
      </trkpt>
      <trkpt lat="43.59903" lon="3.70983">
        <ele>140.5</ele>
        <time>2011-01-16T10:36:41Z</time>
      </trkpt>
      <trkpt lat="43.59908" lon="3.70981">
        <ele>140.2</ele>
        <time>2011-01-16T10:36:42Z</time>
      </trkpt>
      <trkpt lat="43.59913" lon="3.70979">
        <ele>140</ele>
        <time>2011-01-16T10:36:43Z</time>
      </trkpt>
      <trkpt lat="43.59919" lon="3.70975">
        <ele>139.9</ele>
        <time>2011-01-16T10:36:44Z</time>
      </trkpt>
      <trkpt lat="43.59925" lon="3.70971">
        <ele>139.2</ele>
        <time>2011-01-16T10:36:45Z</time>
      </trkpt>
      <trkpt lat="43.5993" lon="3.70967">
        <ele>138.7</ele>
        <time>2011-01-16T10:36:46Z</time>
      </trkpt>
      <trkpt lat="43.59936" lon="3.70963">
        <ele>138.3</ele>
        <time>2011-01-16T10:36:47Z</time>
      </trkpt>
      <trkpt lat="43.59942" lon="3.70958">
        <ele>137.9</ele>
        <time>2011-01-16T10:36:48Z</time>
      </trkpt>
      <trkpt lat="43.59948" lon="3.70952">
        <ele>137.5</ele>
        <time>2011-01-16T10:36:49Z</time>
      </trkpt>
      <trkpt lat="43.59953" lon="3.70946">
        <ele>137.3</ele>
        <time>2011-01-16T10:36:50Z</time>
      </trkpt>
      <trkpt lat="43.59959" lon="3.7094">
        <ele>136.6</ele>
        <time>2011-01-16T10:36:51Z</time>
      </trkpt>
      <trkpt lat="43.59963" lon="3.70932">
        <ele>136.1</ele>
        <time>2011-01-16T10:36:52Z</time>
      </trkpt>
      <trkpt lat="43.59967" lon="3.70924">
        <ele>135.7</ele>
        <time>2011-01-16T10:36:53Z</time>
      </trkpt>
      <trkpt lat="43.59971" lon="3.70916">
        <ele>135.2</ele>
        <time>2011-01-16T10:36:54Z</time>
      </trkpt>
      <trkpt lat="43.59974" lon="3.70908">
        <ele>134.9</ele>
        <time>2011-01-16T10:36:55Z</time>
      </trkpt>
      <trkpt lat="43.59975" lon="3.70901">
        <ele>134.7</ele>
        <time>2011-01-16T10:36:56Z</time>
      </trkpt>
      <trkpt lat="43.59977" lon="3.70894">
        <ele>134.5</ele>
        <time>2011-01-16T10:36:57Z</time>
      </trkpt>
      <trkpt lat="43.59978" lon="3.70887">
        <ele>134.4</ele>
        <time>2011-01-16T10:36:58Z</time>
      </trkpt>
      <trkpt lat="43.59979" lon="3.70881">
        <ele>134.4</ele>
        <time>2011-01-16T10:36:59Z</time>
      </trkpt>
      <trkpt lat="43.59982" lon="3.70869">
        <ele>134.8</ele>
        <time>2011-01-16T10:37:01Z</time>
      </trkpt>
      <trkpt lat="43.59984" lon="3.70858">
        <ele>135.4</ele>
        <time>2011-01-16T10:37:03Z</time>
      </trkpt>
      <trkpt lat="43.59984" lon="3.70849">
        <ele>135.7</ele>
        <time>2011-01-16T10:37:05Z</time>
      </trkpt>
      <trkpt lat="43.59986" lon="3.70841">
        <ele>135.8</ele>
        <time>2011-01-16T10:37:07Z</time>
      </trkpt>
      <trkpt lat="43.59989" lon="3.70834">
        <ele>135.9</ele>
        <time>2011-01-16T10:37:09Z</time>
      </trkpt>
      <trkpt lat="43.59994" lon="3.70827">
        <ele>136.1</ele>
        <time>2011-01-16T10:37:11Z</time>
      </trkpt>
      <trkpt lat="43.59999" lon="3.70822">
        <ele>136.7</ele>
        <time>2011-01-16T10:37:13Z</time>
      </trkpt>
      <trkpt lat="43.60004" lon="3.70816">
        <ele>137.4</ele>
        <time>2011-01-16T10:37:15Z</time>
      </trkpt>
      <trkpt lat="43.60008" lon="3.7081">
        <ele>137.9</ele>
        <time>2011-01-16T10:37:17Z</time>
      </trkpt>
      <trkpt lat="43.60012" lon="3.70803">
        <ele>138.4</ele>
        <time>2011-01-16T10:37:19Z</time>
      </trkpt>
      <trkpt lat="43.60016" lon="3.70796">
        <ele>138.5</ele>
        <time>2011-01-16T10:37:21Z</time>
      </trkpt>
      <trkpt lat="43.6002" lon="3.70786">
        <ele>138.7</ele>
        <time>2011-01-16T10:37:24Z</time>
      </trkpt>
      <trkpt lat="43.60024" lon="3.70775">
        <ele>139</ele>
        <time>2011-01-16T10:37:27Z</time>
      </trkpt>
      <trkpt lat="43.60028" lon="3.70765">
        <ele>139.7</ele>
        <time>2011-01-16T10:37:30Z</time>
      </trkpt>
      <trkpt lat="43.60032" lon="3.70756">
        <ele>140.5</ele>
        <time>2011-01-16T10:37:33Z</time>
      </trkpt>
      <trkpt lat="43.60034" lon="3.70746">
        <ele>141.3</ele>
        <time>2011-01-16T10:37:36Z</time>
      </trkpt>
      <trkpt lat="43.60037" lon="3.70737">
        <ele>142</ele>
        <time>2011-01-16T10:37:39Z</time>
      </trkpt>
      <trkpt lat="43.60039" lon="3.70727">
        <ele>142.8</ele>
        <time>2011-01-16T10:37:42Z</time>
      </trkpt>
      <trkpt lat="43.60041" lon="3.70717">
        <ele>143.4</ele>
        <time>2011-01-16T10:37:45Z</time>
      </trkpt>
      <trkpt lat="43.60044" lon="3.70709">
        <ele>143.6</ele>
        <time>2011-01-16T10:37:48Z</time>
      </trkpt>
      <trkpt lat="43.60047" lon="3.707">
        <ele>144.2</ele>
        <time>2011-01-16T10:37:51Z</time>
      </trkpt>
      <trkpt lat="43.6005" lon="3.70689">
        <ele>145.1</ele>
        <time>2011-01-16T10:37:54Z</time>
      </trkpt>
      <trkpt lat="43.60052" lon="3.70679">
        <ele>145.6</ele>
        <time>2011-01-16T10:37:57Z</time>
      </trkpt>
      <trkpt lat="43.60053" lon="3.70675">
        <ele>145.9</ele>
        <time>2011-01-16T10:37:58Z</time>
      </trkpt>
      <trkpt lat="43.60058" lon="3.70659">
        <ele>146</ele>
        <time>2011-01-16T10:38:03Z</time>
      </trkpt>
      <trkpt lat="43.60061" lon="3.70648">
        <ele>146.9</ele>
        <time>2011-01-16T10:38:07Z</time>
      </trkpt>
      <trkpt lat="43.60063" lon="3.70637">
        <ele>147.6</ele>
        <time>2011-01-16T10:38:11Z</time>
      </trkpt>
      <trkpt lat="43.60064" lon="3.70627">
        <ele>148.1</ele>
        <time>2011-01-16T10:38:14Z</time>
      </trkpt>
      <trkpt lat="43.60065" lon="3.70617">
        <ele>148.5</ele>
        <time>2011-01-16T10:38:17Z</time>
      </trkpt>
      <trkpt lat="43.60066" lon="3.70608">
        <ele>148.6</ele>
        <time>2011-01-16T10:38:20Z</time>
      </trkpt>
      <trkpt lat="43.60067" lon="3.70598">
        <ele>149.2</ele>
        <time>2011-01-16T10:38:23Z</time>
      </trkpt>
      <trkpt lat="43.60069" lon="3.70586">
        <ele>151</ele>
        <time>2011-01-16T10:38:27Z</time>
      </trkpt>
      <trkpt lat="43.60071" lon="3.70575">
        <ele>151.9</ele>
        <time>2011-01-16T10:38:31Z</time>
      </trkpt>
      <trkpt lat="43.60073" lon="3.70564">
        <ele>152.6</ele>
        <time>2011-01-16T10:38:35Z</time>
      </trkpt>
      <trkpt lat="43.60073" lon="3.70551">
        <ele>152.8</ele>
        <time>2011-01-16T10:38:39Z</time>
      </trkpt>
      <trkpt lat="43.60074" lon="3.70539">
        <ele>153.6</ele>
        <time>2011-01-16T10:38:43Z</time>
      </trkpt>
      <trkpt lat="43.60075" lon="3.7053">
        <ele>154.7</ele>
        <time>2011-01-16T10:38:46Z</time>
      </trkpt>
      <trkpt lat="43.60076" lon="3.7052">
        <ele>155.4</ele>
        <time>2011-01-16T10:38:49Z</time>
      </trkpt>
      <trkpt lat="43.60078" lon="3.70511">
        <ele>156.1</ele>
        <time>2011-01-16T10:38:52Z</time>
      </trkpt>
      <trkpt lat="43.6008" lon="3.705">
        <ele>157.2</ele>
        <time>2011-01-16T10:38:56Z</time>
      </trkpt>
      <trkpt lat="43.60083" lon="3.70488">
        <ele>158</ele>
        <time>2011-01-16T10:39:00Z</time>
      </trkpt>
      <trkpt lat="43.60084" lon="3.70486">
        <ele>158.2</ele>
        <time>2011-01-16T10:39:01Z</time>
      </trkpt>
      <trkpt lat="43.6009" lon="3.70467">
        <ele>159.5</ele>
        <time>2011-01-16T10:39:08Z</time>
      </trkpt>
      <trkpt lat="43.60095" lon="3.70458">
        <ele>160.2</ele>
        <time>2011-01-16T10:39:12Z</time>
      </trkpt>
      <trkpt lat="43.60101" lon="3.70449">
        <ele>161.3</ele>
        <time>2011-01-16T10:39:16Z</time>
      </trkpt>
      <trkpt lat="43.60107" lon="3.70443">
        <ele>161.5</ele>
        <time>2011-01-16T10:39:19Z</time>
      </trkpt>
      <trkpt lat="43.60113" lon="3.70436">
        <ele>161.5</ele>
        <time>2011-01-16T10:39:23Z</time>
      </trkpt>
      <trkpt lat="43.6012" lon="3.70433">
        <ele>161.9</ele>
        <time>2011-01-16T10:39:27Z</time>
      </trkpt>
      <trkpt lat="43.60128" lon="3.70431">
        <ele>162.5</ele>
        <time>2011-01-16T10:39:31Z</time>
      </trkpt>
      <trkpt lat="43.60136" lon="3.70433">
        <ele>163.3</ele>
        <time>2011-01-16T10:39:35Z</time>
      </trkpt>
      <trkpt lat="43.60144" lon="3.70434">
        <ele>163.8</ele>
        <time>2011-01-16T10:39:39Z</time>
      </trkpt>
      <trkpt lat="43.60152" lon="3.70438">
        <ele>163.8</ele>
        <time>2011-01-16T10:39:43Z</time>
      </trkpt>
      <trkpt lat="43.60159" lon="3.70441">
        <ele>164.8</ele>
        <time>2011-01-16T10:39:47Z</time>
      </trkpt>
      <trkpt lat="43.60167" lon="3.70443">
        <ele>165.4</ele>
        <time>2011-01-16T10:39:50Z</time>
      </trkpt>
      <trkpt lat="43.60175" lon="3.70443">
        <ele>166.2</ele>
        <time>2011-01-16T10:39:54Z</time>
      </trkpt>
      <trkpt lat="43.60182" lon="3.70444">
        <ele>166.8</ele>
        <time>2011-01-16T10:39:58Z</time>
      </trkpt>
      <trkpt lat="43.6019" lon="3.70445">
        <ele>167.4</ele>
        <time>2011-01-16T10:40:02Z</time>
      </trkpt>
      <trkpt lat="43.60192" lon="3.70444">
        <ele>167.5</ele>
        <time>2011-01-16T10:40:03Z</time>
      </trkpt>
      <trkpt lat="43.60205" lon="3.70443">
        <ele>169.6</ele>
        <time>2011-01-16T10:40:09Z</time>
      </trkpt>
      <trkpt lat="43.60212" lon="3.70442">
        <ele>169.6</ele>
        <time>2011-01-16T10:40:12Z</time>
      </trkpt>
      <trkpt lat="43.6022" lon="3.70441">
        <ele>170.6</ele>
        <time>2011-01-16T10:40:16Z</time>
      </trkpt>
      <trkpt lat="43.60228" lon="3.70441">
        <ele>171.7</ele>
        <time>2011-01-16T10:40:20Z</time>
      </trkpt>
      <trkpt lat="43.60236" lon="3.70441">
        <ele>173.6</ele>
        <time>2011-01-16T10:40:24Z</time>
      </trkpt>
      <trkpt lat="43.60243" lon="3.70441">
        <ele>175.5</ele>
        <time>2011-01-16T10:40:28Z</time>
      </trkpt>
      <trkpt lat="43.60251" lon="3.70442">
        <ele>176.2</ele>
        <time>2011-01-16T10:40:32Z</time>
      </trkpt>
      <trkpt lat="43.60258" lon="3.70445">
        <ele>176.5</ele>
        <time>2011-01-16T10:40:37Z</time>
      </trkpt>
      <trkpt lat="43.60265" lon="3.70451">
        <ele>177.4</ele>
        <time>2011-01-16T10:40:42Z</time>
      </trkpt>
      <trkpt lat="43.60267" lon="3.70462">
        <ele>179.8</ele>
        <time>2011-01-16T10:40:47Z</time>
      </trkpt>
      <trkpt lat="43.60274" lon="3.70469">
        <ele>180.9</ele>
        <time>2011-01-16T10:40:52Z</time>
      </trkpt>
      <trkpt lat="43.60281" lon="3.70466">
        <ele>181.7</ele>
        <time>2011-01-16T10:40:56Z</time>
      </trkpt>
      <trkpt lat="43.6029" lon="3.70464">
        <ele>182.9</ele>
        <time>2011-01-16T10:41:00Z</time>
      </trkpt>
      <trkpt lat="43.60298" lon="3.70466">
        <ele>183.1</ele>
        <time>2011-01-16T10:41:04Z</time>
      </trkpt>
      <trkpt lat="43.60299" lon="3.70467">
        <ele>183.1</ele>
        <time>2011-01-16T10:41:05Z</time>
      </trkpt>
      <trkpt lat="43.60313" lon="3.7047">
        <ele>184.8</ele>
        <time>2011-01-16T10:41:12Z</time>
      </trkpt>
      <trkpt lat="43.6032" lon="3.70465">
        <ele>185.9</ele>
        <time>2011-01-16T10:41:16Z</time>
      </trkpt>
      <trkpt lat="43.60324" lon="3.70457">
        <ele>186.3</ele>
        <time>2011-01-16T10:41:19Z</time>
      </trkpt>
      <trkpt lat="43.60328" lon="3.70446">
        <ele>186.6</ele>
        <time>2011-01-16T10:41:22Z</time>
      </trkpt>
      <trkpt lat="43.60333" lon="3.70436">
        <ele>186.8</ele>
        <time>2011-01-16T10:41:25Z</time>
      </trkpt>
      <trkpt lat="43.60338" lon="3.70429">
        <ele>187.9</ele>
        <time>2011-01-16T10:41:28Z</time>
      </trkpt>
      <trkpt lat="43.60344" lon="3.70422">
        <ele>188.1</ele>
        <time>2011-01-16T10:41:31Z</time>
      </trkpt>
      <trkpt lat="43.60349" lon="3.70415">
        <ele>189</ele>
        <time>2011-01-16T10:41:34Z</time>
      </trkpt>
      <trkpt lat="43.60353" lon="3.70406">
        <ele>190</ele>
        <time>2011-01-16T10:41:38Z</time>
      </trkpt>
      <trkpt lat="43.60348" lon="3.70396">
        <ele>190.5</ele>
        <time>2011-01-16T10:41:42Z</time>
      </trkpt>
      <trkpt lat="43.60341" lon="3.70391">
        <ele>190.6</ele>
        <time>2011-01-16T10:41:45Z</time>
      </trkpt>
      <trkpt lat="43.60334" lon="3.70386">
        <ele>190.6</ele>
        <time>2011-01-16T10:41:48Z</time>
      </trkpt>
      <trkpt lat="43.60327" lon="3.70381">
        <ele>190.7</ele>
        <time>2011-01-16T10:41:51Z</time>
      </trkpt>
      <trkpt lat="43.6032" lon="3.70375">
        <ele>191.9</ele>
        <time>2011-01-16T10:41:55Z</time>
      </trkpt>
      <trkpt lat="43.60315" lon="3.70365">
        <ele>192.9</ele>
        <time>2011-01-16T10:41:59Z</time>
      </trkpt>
      <trkpt lat="43.60309" lon="3.70362">
        <ele>193.3</ele>
        <time>2011-01-16T10:42:02Z</time>
      </trkpt>
      <trkpt lat="43.60301" lon="3.7036">
        <ele>194</ele>
        <time>2011-01-16T10:42:06Z</time>
      </trkpt>
      <trkpt lat="43.603" lon="3.70359">
        <ele>194.5</ele>
        <time>2011-01-16T10:42:07Z</time>
      </trkpt>
      <trkpt lat="43.60285" lon="3.70354">
        <ele>196.6</ele>
        <time>2011-01-16T10:42:14Z</time>
      </trkpt>
      <trkpt lat="43.60277" lon="3.70352">
        <ele>197.4</ele>
        <time>2011-01-16T10:42:18Z</time>
      </trkpt>
      <trkpt lat="43.6027" lon="3.70349">
        <ele>197.9</ele>
        <time>2011-01-16T10:42:22Z</time>
      </trkpt>
      <trkpt lat="43.60261" lon="3.70346">
        <ele>198.7</ele>
        <time>2011-01-16T10:42:27Z</time>
      </trkpt>
      <trkpt lat="43.60253" lon="3.70341">
        <ele>199</ele>
        <time>2011-01-16T10:42:32Z</time>
      </trkpt>
      <trkpt lat="43.60245" lon="3.70335">
        <ele>201.4</ele>
        <time>2011-01-16T10:42:37Z</time>
      </trkpt>
      <trkpt lat="43.60239" lon="3.7033">
        <ele>202.5</ele>
        <time>2011-01-16T10:42:41Z</time>
      </trkpt>
      <trkpt lat="43.60233" lon="3.70322">
        <ele>203.9</ele>
        <time>2011-01-16T10:42:45Z</time>
      </trkpt>
      <trkpt lat="43.60225" lon="3.70317">
        <ele>205</ele>
        <time>2011-01-16T10:42:49Z</time>
      </trkpt>
      <trkpt lat="43.60219" lon="3.70312">
        <ele>205.4</ele>
        <time>2011-01-16T10:42:52Z</time>
      </trkpt>
      <trkpt lat="43.60212" lon="3.70307">
        <ele>205.7</ele>
        <time>2011-01-16T10:42:55Z</time>
      </trkpt>
      <trkpt lat="43.60207" lon="3.70299">
        <ele>205.4</ele>
        <time>2011-01-16T10:42:58Z</time>
      </trkpt>
      <trkpt lat="43.60202" lon="3.70291">
        <ele>205.3</ele>
        <time>2011-01-16T10:43:01Z</time>
      </trkpt>
      <trkpt lat="43.60197" lon="3.70283">
        <ele>206</ele>
        <time>2011-01-16T10:43:04Z</time>
      </trkpt>
      <trkpt lat="43.60193" lon="3.70276">
        <ele>206.3</ele>
        <time>2011-01-16T10:43:06Z</time>
      </trkpt>
      <trkpt lat="43.60188" lon="3.70269">
        <ele>206.3</ele>
        <time>2011-01-16T10:43:08Z</time>
      </trkpt>
      <trkpt lat="43.60185" lon="3.70266">
        <ele>206.3</ele>
        <time>2011-01-16T10:43:09Z</time>
      </trkpt>
      <trkpt lat="43.60177" lon="3.70252">
        <ele>205.5</ele>
        <time>2011-01-16T10:43:12Z</time>
      </trkpt>
      <trkpt lat="43.60172" lon="3.70243">
        <ele>205</ele>
        <time>2011-01-16T10:43:15Z</time>
      </trkpt>
      <trkpt lat="43.60168" lon="3.70234">
        <ele>205.1</ele>
        <time>2011-01-16T10:43:18Z</time>
      </trkpt>
      <trkpt lat="43.60165" lon="3.70223">
        <ele>204.4</ele>
        <time>2011-01-16T10:43:26Z</time>
      </trkpt>
      <trkpt lat="43.60159" lon="3.70214">
        <ele>202.7</ele>
        <time>2011-01-16T10:43:52Z</time>
      </trkpt>
      <trkpt lat="43.60153" lon="3.70207">
        <ele>204.2</ele>
        <time>2011-01-16T10:45:02Z</time>
      </trkpt>
      <trkpt lat="43.60152" lon="3.70205">
        <ele>204.3</ele>
        <time>2011-01-16T10:45:03Z</time>
      </trkpt>
      <trkpt lat="43.60144" lon="3.70191">
        <ele>203.7</ele>
        <time>2011-01-16T10:45:10Z</time>
      </trkpt>
      <trkpt lat="43.60141" lon="3.70182">
        <ele>203</ele>
        <time>2011-01-16T10:45:14Z</time>
      </trkpt>
      <trkpt lat="43.60137" lon="3.70171">
        <ele>202.4</ele>
        <time>2011-01-16T10:45:19Z</time>
      </trkpt>
      <trkpt lat="43.60134" lon="3.7016">
        <ele>202.2</ele>
        <time>2011-01-16T10:45:22Z</time>
      </trkpt>
      <trkpt lat="43.60131" lon="3.70151">
        <ele>202</ele>
        <time>2011-01-16T10:45:24Z</time>
      </trkpt>
      <trkpt lat="43.60128" lon="3.70139">
        <ele>201.6</ele>
        <time>2011-01-16T10:45:27Z</time>
      </trkpt>
      <trkpt lat="43.60128" lon="3.70128">
        <ele>200.8</ele>
        <time>2011-01-16T10:45:30Z</time>
      </trkpt>
      <trkpt lat="43.60135" lon="3.70123">
        <ele>197.1</ele>
        <time>2011-01-16T10:45:38Z</time>
      </trkpt>
      <trkpt lat="43.60143" lon="3.70128">
        <ele>193.6</ele>
        <time>2011-01-16T10:45:42Z</time>
      </trkpt>
      <trkpt lat="43.60148" lon="3.70122">
        <ele>190.8</ele>
        <time>2011-01-16T10:45:45Z</time>
      </trkpt>
      <trkpt lat="43.60153" lon="3.70112">
        <ele>188.8</ele>
        <time>2011-01-16T10:45:47Z</time>
      </trkpt>
      <trkpt lat="43.60156" lon="3.70106">
        <ele>187</ele>
        <time>2011-01-16T10:45:49Z</time>
      </trkpt>
      <trkpt lat="43.60161" lon="3.70097">
        <ele>185.3</ele>
        <time>2011-01-16T10:45:51Z</time>
      </trkpt>
      <trkpt lat="43.60164" lon="3.70091">
        <ele>184.5</ele>
        <time>2011-01-16T10:45:52Z</time>
      </trkpt>
      <trkpt lat="43.60166" lon="3.70085">
        <ele>183.9</ele>
        <time>2011-01-16T10:45:53Z</time>
      </trkpt>
      <trkpt lat="43.6017" lon="3.70079">
        <ele>182.7</ele>
        <time>2011-01-16T10:45:54Z</time>
      </trkpt>
      <trkpt lat="43.60173" lon="3.70073">
        <ele>181.8</ele>
        <time>2011-01-16T10:45:55Z</time>
      </trkpt>
      <trkpt lat="43.60176" lon="3.70067">
        <ele>181.2</ele>
        <time>2011-01-16T10:45:56Z</time>
      </trkpt>
      <trkpt lat="43.6018" lon="3.70061">
        <ele>179.6</ele>
        <time>2011-01-16T10:45:57Z</time>
      </trkpt>
      <trkpt lat="43.60184" lon="3.70054">
        <ele>178.4</ele>
        <time>2011-01-16T10:45:58Z</time>
      </trkpt>
      <trkpt lat="43.60188" lon="3.70048">
        <ele>177.5</ele>
        <time>2011-01-16T10:45:59Z</time>
      </trkpt>
      <trkpt lat="43.60192" lon="3.70041">
        <ele>176.4</ele>
        <time>2011-01-16T10:46:00Z</time>
      </trkpt>
      <trkpt lat="43.60196" lon="3.70035">
        <ele>175.5</ele>
        <time>2011-01-16T10:46:01Z</time>
      </trkpt>
      <trkpt lat="43.60201" lon="3.70026">
        <ele>173.9</ele>
        <time>2011-01-16T10:46:03Z</time>
      </trkpt>
      <trkpt lat="43.60203" lon="3.7002">
        <ele>173.1</ele>
        <time>2011-01-16T10:46:04Z</time>
      </trkpt>
      <trkpt lat="43.60207" lon="3.70009">
        <ele>172</ele>
        <time>2011-01-16T10:46:06Z</time>
      </trkpt>
      <trkpt lat="43.60213" lon="3.70001">
        <ele>170.7</ele>
        <time>2011-01-16T10:46:09Z</time>
      </trkpt>
      <trkpt lat="43.60217" lon="3.6999">
        <ele>169</ele>
        <time>2011-01-16T10:46:18Z</time>
      </trkpt>
      <trkpt lat="43.6022" lon="3.6998">
        <ele>168.1</ele>
        <time>2011-01-16T10:46:29Z</time>
      </trkpt>
      <trkpt lat="43.60216" lon="3.6997">
        <ele>168.4</ele>
        <time>2011-01-16T10:46:34Z</time>
      </trkpt>
      <trkpt lat="43.60219" lon="3.69962">
        <ele>168.7</ele>
        <time>2011-01-16T10:46:37Z</time>
      </trkpt>
      <trkpt lat="43.60223" lon="3.69954">
        <ele>168.1</ele>
        <time>2011-01-16T10:46:39Z</time>
      </trkpt>
      <trkpt lat="43.60227" lon="3.69945">
        <ele>167.2</ele>
        <time>2011-01-16T10:46:41Z</time>
      </trkpt>
      <trkpt lat="43.60227" lon="3.69935">
        <ele>166.4</ele>
        <time>2011-01-16T10:46:43Z</time>
      </trkpt>
      <trkpt lat="43.60222" lon="3.69926">
        <ele>165.8</ele>
        <time>2011-01-16T10:46:45Z</time>
      </trkpt>
      <trkpt lat="43.60218" lon="3.69918">
        <ele>165.3</ele>
        <time>2011-01-16T10:46:47Z</time>
      </trkpt>
      <trkpt lat="43.60217" lon="3.69909">
        <ele>164.4</ele>
        <time>2011-01-16T10:46:49Z</time>
      </trkpt>
      <trkpt lat="43.60218" lon="3.69898">
        <ele>163.9</ele>
        <time>2011-01-16T10:46:51Z</time>
      </trkpt>
      <trkpt lat="43.60214" lon="3.69892">
        <ele>163.5</ele>
        <time>2011-01-16T10:46:53Z</time>
      </trkpt>
      <trkpt lat="43.60208" lon="3.69885">
        <ele>163</ele>
        <time>2011-01-16T10:46:55Z</time>
      </trkpt>
      <trkpt lat="43.60203" lon="3.69877">
        <ele>162.7</ele>
        <time>2011-01-16T10:46:57Z</time>
      </trkpt>
      <trkpt lat="43.60195" lon="3.69876">
        <ele>162.3</ele>
        <time>2011-01-16T10:47:00Z</time>
      </trkpt>
      <trkpt lat="43.60188" lon="3.69869">
        <ele>162.6</ele>
        <time>2011-01-16T10:47:03Z</time>
      </trkpt>
      <trkpt lat="43.60184" lon="3.69863">
        <ele>161.9</ele>
        <time>2011-01-16T10:47:05Z</time>
      </trkpt>
      <trkpt lat="43.60182" lon="3.69858">
        <ele>161.7</ele>
        <time>2011-01-16T10:47:06Z</time>
      </trkpt>
      <trkpt lat="43.60179" lon="3.69841">
        <ele>160.4</ele>
        <time>2011-01-16T10:47:10Z</time>
      </trkpt>
      <trkpt lat="43.60187" lon="3.69839">
        <ele>160.4</ele>
        <time>2011-01-16T10:47:16Z</time>
      </trkpt>
      <trkpt lat="43.60196" lon="3.69841">
        <ele>161.9</ele>
        <time>2011-01-16T10:47:22Z</time>
      </trkpt>
      <trkpt lat="43.60204" lon="3.69844">
        <ele>163.2</ele>
        <time>2011-01-16T10:47:28Z</time>
      </trkpt>
      <trkpt lat="43.60212" lon="3.69848">
        <ele>166.5</ele>
        <time>2011-01-16T10:47:34Z</time>
      </trkpt>
      <trkpt lat="43.60218" lon="3.69856">
        <ele>166.7</ele>
        <time>2011-01-16T10:47:39Z</time>
      </trkpt>
      <trkpt lat="43.60225" lon="3.69859">
        <ele>166.8</ele>
        <time>2011-01-16T10:47:43Z</time>
      </trkpt>
      <trkpt lat="43.60234" lon="3.69861">
        <ele>168.8</ele>
        <time>2011-01-16T10:47:49Z</time>
      </trkpt>
      <trkpt lat="43.60242" lon="3.69863">
        <ele>171.3</ele>
        <time>2011-01-16T10:47:55Z</time>
      </trkpt>
      <trkpt lat="43.6025" lon="3.69863">
        <ele>172.9</ele>
        <time>2011-01-16T10:48:01Z</time>
      </trkpt>
      <trkpt lat="43.60258" lon="3.69867">
        <ele>173.9</ele>
        <time>2011-01-16T10:48:07Z</time>
      </trkpt>
      <trkpt lat="43.60259" lon="3.69868">
        <ele>174.3</ele>
        <time>2011-01-16T10:48:08Z</time>
      </trkpt>
      <trkpt lat="43.60272" lon="3.69877">
        <ele>176</ele>
        <time>2011-01-16T10:48:17Z</time>
      </trkpt>
      <trkpt lat="43.60281" lon="3.6988">
        <ele>178.2</ele>
        <time>2011-01-16T10:48:22Z</time>
      </trkpt>
      <trkpt lat="43.60289" lon="3.69881">
        <ele>180.3</ele>
        <time>2011-01-16T10:48:27Z</time>
      </trkpt>
      <trkpt lat="43.60296" lon="3.69876">
        <ele>181.6</ele>
        <time>2011-01-16T10:48:32Z</time>
      </trkpt>
      <trkpt lat="43.60302" lon="3.69868">
        <ele>182</ele>
        <time>2011-01-16T10:48:37Z</time>
      </trkpt>
      <trkpt lat="43.60309" lon="3.6986">
        <ele>183</ele>
        <time>2011-01-16T10:48:42Z</time>
      </trkpt>
      <trkpt lat="43.60315" lon="3.69854">
        <ele>184</ele>
        <time>2011-01-16T10:48:46Z</time>
      </trkpt>
      <trkpt lat="43.60319" lon="3.69846">
        <ele>185.3</ele>
        <time>2011-01-16T10:48:50Z</time>
      </trkpt>
      <trkpt lat="43.60323" lon="3.69836">
        <ele>186.4</ele>
        <time>2011-01-16T10:51:16Z</time>
      </trkpt>
      <trkpt lat="43.60323" lon="3.69834">
        <ele>186.4</ele>
        <time>2011-01-16T10:51:17Z</time>
      </trkpt>
      <trkpt lat="43.60333" lon="3.69819">
        <ele>186</ele>
        <time>2011-01-16T10:51:25Z</time>
      </trkpt>
      <trkpt lat="43.60342" lon="3.69815">
        <ele>184.6</ele>
        <time>2011-01-16T10:51:28Z</time>
      </trkpt>
      <trkpt lat="43.60349" lon="3.69813">
        <ele>184.7</ele>
        <time>2011-01-16T10:51:30Z</time>
      </trkpt>
      <trkpt lat="43.60356" lon="3.6981">
        <ele>184.3</ele>
        <time>2011-01-16T10:51:32Z</time>
      </trkpt>
      <trkpt lat="43.60361" lon="3.69805">
        <ele>183.7</ele>
        <time>2011-01-16T10:51:34Z</time>
      </trkpt>
      <trkpt lat="43.60367" lon="3.69798">
        <ele>182.1</ele>
        <time>2011-01-16T10:51:37Z</time>
      </trkpt>
      <trkpt lat="43.60374" lon="3.6979">
        <ele>180.7</ele>
        <time>2011-01-16T10:51:40Z</time>
      </trkpt>
      <trkpt lat="43.6038" lon="3.69787">
        <ele>179.3</ele>
        <time>2011-01-16T10:51:42Z</time>
      </trkpt>
      <trkpt lat="43.60388" lon="3.69783">
        <ele>177.2</ele>
        <time>2011-01-16T10:51:45Z</time>
      </trkpt>
      <trkpt lat="43.60394" lon="3.69782">
        <ele>176.1</ele>
        <time>2011-01-16T10:51:47Z</time>
      </trkpt>
      <trkpt lat="43.60401" lon="3.69782">
        <ele>173.5</ele>
        <time>2011-01-16T10:51:49Z</time>
      </trkpt>
      <trkpt lat="43.60407" lon="3.69778">
        <ele>171.4</ele>
        <time>2011-01-16T10:51:51Z</time>
      </trkpt>
      <trkpt lat="43.60414" lon="3.69774">
        <ele>169.7</ele>
        <time>2011-01-16T10:51:53Z</time>
      </trkpt>
      <trkpt lat="43.60419" lon="3.69772">
        <ele>169.2</ele>
        <time>2011-01-16T10:51:54Z</time>
      </trkpt>
      <trkpt lat="43.60425" lon="3.69769">
        <ele>167.5</ele>
        <time>2011-01-16T10:51:55Z</time>
      </trkpt>
      <trkpt lat="43.60431" lon="3.69767">
        <ele>166.2</ele>
        <time>2011-01-16T10:51:56Z</time>
      </trkpt>
      <trkpt lat="43.60437" lon="3.69764">
        <ele>165.3</ele>
        <time>2011-01-16T10:51:57Z</time>
      </trkpt>
      <trkpt lat="43.60443" lon="3.69761">
        <ele>164.2</ele>
        <time>2011-01-16T10:51:58Z</time>
      </trkpt>
      <trkpt lat="43.60448" lon="3.69758">
        <ele>163.4</ele>
        <time>2011-01-16T10:51:59Z</time>
      </trkpt>
      <trkpt lat="43.60453" lon="3.69756">
        <ele>162.8</ele>
        <time>2011-01-16T10:52:00Z</time>
      </trkpt>
      <trkpt lat="43.60457" lon="3.69754">
        <ele>162.5</ele>
        <time>2011-01-16T10:52:01Z</time>
      </trkpt>
      <trkpt lat="43.60462" lon="3.69751">
        <ele>162.2</ele>
        <time>2011-01-16T10:52:02Z</time>
      </trkpt>
      <trkpt lat="43.60466" lon="3.69749">
        <ele>162.1</ele>
        <time>2011-01-16T10:52:03Z</time>
      </trkpt>
      <trkpt lat="43.60474" lon="3.69745">
        <ele>161.4</ele>
        <time>2011-01-16T10:52:05Z</time>
      </trkpt>
      <trkpt lat="43.60479" lon="3.69743">
        <ele>161.2</ele>
        <time>2011-01-16T10:52:06Z</time>
      </trkpt>
      <trkpt lat="43.60487" lon="3.69739">
        <ele>161.8</ele>
        <time>2011-01-16T10:52:08Z</time>
      </trkpt>
      <trkpt lat="43.6049" lon="3.69728">
        <ele>162.1</ele>
        <time>2011-01-16T10:52:10Z</time>
      </trkpt>
      <trkpt lat="43.60491" lon="3.69722">
        <ele>162</ele>
        <time>2011-01-16T10:52:11Z</time>
      </trkpt>
      <trkpt lat="43.60492" lon="3.6971">
        <ele>161.8</ele>
        <time>2011-01-16T10:52:13Z</time>
      </trkpt>
      <trkpt lat="43.60494" lon="3.697">
        <ele>160.4</ele>
        <time>2011-01-16T10:52:15Z</time>
      </trkpt>
      <trkpt lat="43.60498" lon="3.69692">
        <ele>158.9</ele>
        <time>2011-01-16T10:52:17Z</time>
      </trkpt>
      <trkpt lat="43.605" lon="3.69688">
        <ele>158.2</ele>
        <time>2011-01-16T10:52:18Z</time>
      </trkpt>
      <trkpt lat="43.60507" lon="3.69678">
        <ele>155.6</ele>
        <time>2011-01-16T10:52:21Z</time>
      </trkpt>
      <trkpt lat="43.60512" lon="3.69674">
        <ele>153.6</ele>
        <time>2011-01-16T10:52:23Z</time>
      </trkpt>
      <trkpt lat="43.60517" lon="3.69667">
        <ele>151.8</ele>
        <time>2011-01-16T10:52:25Z</time>
      </trkpt>
      <trkpt lat="43.60521" lon="3.6966">
        <ele>149</ele>
        <time>2011-01-16T10:52:27Z</time>
      </trkpt>
      <trkpt lat="43.60526" lon="3.69653">
        <ele>147.5</ele>
        <time>2011-01-16T10:52:29Z</time>
      </trkpt>
      <trkpt lat="43.6053" lon="3.69646">
        <ele>145.5</ele>
        <time>2011-01-16T10:52:31Z</time>
      </trkpt>
      <trkpt lat="43.60536" lon="3.69642">
        <ele>143.8</ele>
        <time>2011-01-16T10:52:33Z</time>
      </trkpt>
      <trkpt lat="43.60541" lon="3.69636">
        <ele>142.3</ele>
        <time>2011-01-16T10:52:35Z</time>
      </trkpt>
      <trkpt lat="43.60546" lon="3.69628">
        <ele>139.5</ele>
        <time>2011-01-16T10:52:38Z</time>
      </trkpt>
      <trkpt lat="43.60552" lon="3.69624">
        <ele>136.6</ele>
        <time>2011-01-16T10:52:41Z</time>
      </trkpt>
      <trkpt lat="43.60555" lon="3.69616">
        <ele>134.7</ele>
        <time>2011-01-16T10:52:44Z</time>
      </trkpt>
      <trkpt lat="43.60558" lon="3.69606">
        <ele>132.3</ele>
        <time>2011-01-16T10:52:47Z</time>
      </trkpt>
      <trkpt lat="43.60562" lon="3.69598">
        <ele>130.3</ele>
        <time>2011-01-16T10:52:49Z</time>
      </trkpt>
      <trkpt lat="43.60568" lon="3.69593">
        <ele>127.5</ele>
        <time>2011-01-16T10:52:52Z</time>
      </trkpt>
      <trkpt lat="43.60577" lon="3.69594">
        <ele>123.1</ele>
        <time>2011-01-16T10:53:03Z</time>
      </trkpt>
      <trkpt lat="43.60585" lon="3.6959">
        <ele>122.9</ele>
        <time>2011-01-16T10:53:15Z</time>
      </trkpt>
      <trkpt lat="43.60592" lon="3.69583">
        <ele>125.5</ele>
        <time>2011-01-16T10:53:35Z</time>
      </trkpt>
      <trkpt lat="43.60592" lon="3.69583">
        <ele>125.7</ele>
        <time>2011-01-16T10:53:36Z</time>
      </trkpt>
      <trkpt lat="43.60607" lon="3.69573">
        <ele>130.7</ele>
        <time>2011-01-16T10:54:05Z</time>
      </trkpt>
      <trkpt lat="43.60615" lon="3.69568">
        <ele>134.8</ele>
        <time>2011-01-16T10:54:19Z</time>
      </trkpt>
      <trkpt lat="43.60623" lon="3.69566">
        <ele>138.4</ele>
        <time>2011-01-16T10:54:36Z</time>
      </trkpt>
      <trkpt lat="43.60624" lon="3.69566">
        <ele>138.8</ele>
        <time>2011-01-16T10:54:37Z</time>
      </trkpt>
      <trkpt lat="43.60638" lon="3.69575">
        <ele>139</ele>
        <time>2011-01-16T10:55:08Z</time>
      </trkpt>
      <trkpt lat="43.60644" lon="3.6958">
        <ele>138.6</ele>
        <time>2011-01-16T10:55:11Z</time>
      </trkpt>
      <trkpt lat="43.60652" lon="3.69585">
        <ele>138.1</ele>
        <time>2011-01-16T10:55:14Z</time>
      </trkpt>
      <trkpt lat="43.60657" lon="3.6959">
        <ele>137.5</ele>
        <time>2011-01-16T10:55:16Z</time>
      </trkpt>
      <trkpt lat="43.60663" lon="3.69596">
        <ele>137</ele>
        <time>2011-01-16T10:55:18Z</time>
      </trkpt>
      <trkpt lat="43.6067" lon="3.69602">
        <ele>136.5</ele>
        <time>2011-01-16T10:55:20Z</time>
      </trkpt>
      <trkpt lat="43.60676" lon="3.6961">
        <ele>136.4</ele>
        <time>2011-01-16T10:55:22Z</time>
      </trkpt>
      <trkpt lat="43.60679" lon="3.69614">
        <ele>136.5</ele>
        <time>2011-01-16T10:55:23Z</time>
      </trkpt>
      <trkpt lat="43.60682" lon="3.69619">
        <ele>136.5</ele>
        <time>2011-01-16T10:55:24Z</time>
      </trkpt>
      <trkpt lat="43.60686" lon="3.69625">
        <ele>135.7</ele>
        <time>2011-01-16T10:55:25Z</time>
      </trkpt>
      <trkpt lat="43.60689" lon="3.69631">
        <ele>135.1</ele>
        <time>2011-01-16T10:55:26Z</time>
      </trkpt>
      <trkpt lat="43.60691" lon="3.69639">
        <ele>134.6</ele>
        <time>2011-01-16T10:55:27Z</time>
      </trkpt>
      <trkpt lat="43.60692" lon="3.69646">
        <ele>134.1</ele>
        <time>2011-01-16T10:55:28Z</time>
      </trkpt>
      <trkpt lat="43.60693" lon="3.69653">
        <ele>133.7</ele>
        <time>2011-01-16T10:55:29Z</time>
      </trkpt>
      <trkpt lat="43.60693" lon="3.6966">
        <ele>133.5</ele>
        <time>2011-01-16T10:55:30Z</time>
      </trkpt>
      <trkpt lat="43.60695" lon="3.69672">
        <ele>133.5</ele>
        <time>2011-01-16T10:55:32Z</time>
      </trkpt>
      <trkpt lat="43.60698" lon="3.69682">
        <ele>133.8</ele>
        <time>2011-01-16T10:55:34Z</time>
      </trkpt>
      <trkpt lat="43.60702" lon="3.69691">
        <ele>134.8</ele>
        <time>2011-01-16T10:55:36Z</time>
      </trkpt>
      <trkpt lat="43.60707" lon="3.69698">
        <ele>135.5</ele>
        <time>2011-01-16T10:55:38Z</time>
      </trkpt>
      <trkpt lat="43.60709" lon="3.69701">
        <ele>135.8</ele>
        <time>2011-01-16T10:55:39Z</time>
      </trkpt>
      <trkpt lat="43.6072" lon="3.6971">
        <ele>137.1</ele>
        <time>2011-01-16T10:55:44Z</time>
      </trkpt>
      <trkpt lat="43.60729" lon="3.69713">
        <ele>137.2</ele>
        <time>2011-01-16T10:55:47Z</time>
      </trkpt>
      <trkpt lat="43.60736" lon="3.69714">
        <ele>137.5</ele>
        <time>2011-01-16T10:55:50Z</time>
      </trkpt>
      <trkpt lat="43.60745" lon="3.69715">
        <ele>138.5</ele>
        <time>2011-01-16T10:55:53Z</time>
      </trkpt>
      <trkpt lat="43.60753" lon="3.69712">
        <ele>139.9</ele>
        <time>2011-01-16T10:55:57Z</time>
      </trkpt>
      <trkpt lat="43.6076" lon="3.6971">
        <ele>141.1</ele>
        <time>2011-01-16T10:56:01Z</time>
      </trkpt>
      <trkpt lat="43.60768" lon="3.69708">
        <ele>142.3</ele>
        <time>2011-01-16T10:56:06Z</time>
      </trkpt>
      <trkpt lat="43.60776" lon="3.69706">
        <ele>144.1</ele>
        <time>2011-01-16T10:56:12Z</time>
      </trkpt>
      <trkpt lat="43.60784" lon="3.69705">
        <ele>144.6</ele>
        <time>2011-01-16T10:56:18Z</time>
      </trkpt>
      <trkpt lat="43.60793" lon="3.69703">
        <ele>146.6</ele>
        <time>2011-01-16T10:56:25Z</time>
      </trkpt>
      <trkpt lat="43.60801" lon="3.69701">
        <ele>147.8</ele>
        <time>2011-01-16T10:56:30Z</time>
      </trkpt>
      <trkpt lat="43.60808" lon="3.69699">
        <ele>148.2</ele>
        <time>2011-01-16T10:56:35Z</time>
      </trkpt>
      <trkpt lat="43.60816" lon="3.69695">
        <ele>149.9</ele>
        <time>2011-01-16T10:56:41Z</time>
      </trkpt>
      <trkpt lat="43.60817" lon="3.69695">
        <ele>150.2</ele>
        <time>2011-01-16T10:56:42Z</time>
      </trkpt>
      <trkpt lat="43.60831" lon="3.69689">
        <ele>153</ele>
        <time>2011-01-16T10:56:55Z</time>
      </trkpt>
      <trkpt lat="43.6084" lon="3.69689">
        <ele>154.1</ele>
        <time>2011-01-16T10:57:03Z</time>
      </trkpt>
      <trkpt lat="43.60848" lon="3.69689">
        <ele>155.8</ele>
        <time>2011-01-16T10:57:10Z</time>
      </trkpt>
      <trkpt lat="43.60857" lon="3.6969">
        <ele>156.7</ele>
        <time>2011-01-16T10:57:21Z</time>
      </trkpt>
      <trkpt lat="43.60866" lon="3.69689">
        <ele>158.3</ele>
        <time>2011-01-16T10:57:30Z</time>
      </trkpt>
      <trkpt lat="43.60874" lon="3.69688">
        <ele>160</ele>
        <time>2011-01-16T10:57:38Z</time>
      </trkpt>
      <trkpt lat="43.60882" lon="3.6969">
        <ele>162</ele>
        <time>2011-01-16T10:57:45Z</time>
      </trkpt>
      <trkpt lat="43.60884" lon="3.6969">
        <ele>162.1</ele>
        <time>2011-01-16T10:57:46Z</time>
      </trkpt>
      <trkpt lat="43.60898" lon="3.69684">
        <ele>164.4</ele>
        <time>2011-01-16T10:57:57Z</time>
      </trkpt>
      <trkpt lat="43.60906" lon="3.69686">
        <ele>165.1</ele>
        <time>2011-01-16T10:58:03Z</time>
      </trkpt>
      <trkpt lat="43.60914" lon="3.69685">
        <ele>165.7</ele>
        <time>2011-01-16T10:58:08Z</time>
      </trkpt>
      <trkpt lat="43.60922" lon="3.69684">
        <ele>166.8</ele>
        <time>2011-01-16T10:58:12Z</time>
      </trkpt>
      <trkpt lat="43.60929" lon="3.69683">
        <ele>166.6</ele>
        <time>2011-01-16T10:58:15Z</time>
      </trkpt>
      <trkpt lat="43.60937" lon="3.69681">
        <ele>166.5</ele>
        <time>2011-01-16T10:58:18Z</time>
      </trkpt>
      <trkpt lat="43.60944" lon="3.69682">
        <ele>166.6</ele>
        <time>2011-01-16T10:58:20Z</time>
      </trkpt>
      <trkpt lat="43.6095" lon="3.69684">
        <ele>166.2</ele>
        <time>2011-01-16T10:58:22Z</time>
      </trkpt>
      <trkpt lat="43.60957" lon="3.69687">
        <ele>165.9</ele>
        <time>2011-01-16T10:58:24Z</time>
      </trkpt>
      <trkpt lat="43.60962" lon="3.69691">
        <ele>165.8</ele>
        <time>2011-01-16T10:58:26Z</time>
      </trkpt>
      <trkpt lat="43.60969" lon="3.69698">
        <ele>165.5</ele>
        <time>2011-01-16T10:58:29Z</time>
      </trkpt>
      <trkpt lat="43.60977" lon="3.69702">
        <ele>166.1</ele>
        <time>2011-01-16T10:58:33Z</time>
      </trkpt>
      <trkpt lat="43.60985" lon="3.69702">
        <ele>166</ele>
        <time>2011-01-16T10:58:36Z</time>
      </trkpt>
      <trkpt lat="43.60993" lon="3.697">
        <ele>165.3</ele>
        <time>2011-01-16T10:58:39Z</time>
      </trkpt>
      <trkpt lat="43.60999" lon="3.69696">
        <ele>164.5</ele>
        <time>2011-01-16T10:58:42Z</time>
      </trkpt>
      <trkpt lat="43.61007" lon="3.6969">
        <ele>164.8</ele>
        <time>2011-01-16T10:58:45Z</time>
      </trkpt>
      <trkpt lat="43.61011" lon="3.69682">
        <ele>163.8</ele>
        <time>2011-01-16T10:58:47Z</time>
      </trkpt>
      <trkpt lat="43.61013" lon="3.69678">
        <ele>163.5</ele>
        <time>2011-01-16T10:58:48Z</time>
      </trkpt>
      <trkpt lat="43.61022" lon="3.69664">
        <ele>162.4</ele>
        <time>2011-01-16T10:58:51Z</time>
      </trkpt>
      <trkpt lat="43.61025" lon="3.69659">
        <ele>162.1</ele>
        <time>2011-01-16T10:58:52Z</time>
      </trkpt>
      <trkpt lat="43.61027" lon="3.69654">
        <ele>161.2</ele>
        <time>2011-01-16T10:58:53Z</time>
      </trkpt>
      <trkpt lat="43.61029" lon="3.69647">
        <ele>160.4</ele>
        <time>2011-01-16T10:58:54Z</time>
      </trkpt>
      <trkpt lat="43.61031" lon="3.69641">
        <ele>159.9</ele>
        <time>2011-01-16T10:58:55Z</time>
      </trkpt>
      <trkpt lat="43.61034" lon="3.69635">
        <ele>159.2</ele>
        <time>2011-01-16T10:58:56Z</time>
      </trkpt>
      <trkpt lat="43.61038" lon="3.69629">
        <ele>158.6</ele>
        <time>2011-01-16T10:58:57Z</time>
      </trkpt>
      <trkpt lat="43.61041" lon="3.69623">
        <ele>158.2</ele>
        <time>2011-01-16T10:58:58Z</time>
      </trkpt>
      <trkpt lat="43.61045" lon="3.69617">
        <ele>156.7</ele>
        <time>2011-01-16T10:58:59Z</time>
      </trkpt>
      <trkpt lat="43.61048" lon="3.69611">
        <ele>155.6</ele>
        <time>2011-01-16T10:59:00Z</time>
      </trkpt>
      <trkpt lat="43.6105" lon="3.69605">
        <ele>154.8</ele>
        <time>2011-01-16T10:59:01Z</time>
      </trkpt>
      <trkpt lat="43.61051" lon="3.69594">
        <ele>152.8</ele>
        <time>2011-01-16T10:59:03Z</time>
      </trkpt>
      <trkpt lat="43.61049" lon="3.69584">
        <ele>151.3</ele>
        <time>2011-01-16T10:59:05Z</time>
      </trkpt>
      <trkpt lat="43.61048" lon="3.69574">
        <ele>150.3</ele>
        <time>2011-01-16T10:59:07Z</time>
      </trkpt>
      <trkpt lat="43.61046" lon="3.69565">
        <ele>149.9</ele>
        <time>2011-01-16T10:59:09Z</time>
      </trkpt>
      <trkpt lat="43.61045" lon="3.69556">
        <ele>149.9</ele>
        <time>2011-01-16T10:59:11Z</time>
      </trkpt>
      <trkpt lat="43.61044" lon="3.69544">
        <ele>149.4</ele>
        <time>2011-01-16T10:59:14Z</time>
      </trkpt>
      <trkpt lat="43.61041" lon="3.69534">
        <ele>149.3</ele>
        <time>2011-01-16T10:59:18Z</time>
      </trkpt>
      <trkpt lat="43.61038" lon="3.69524">
        <ele>148.7</ele>
        <time>2011-01-16T10:59:28Z</time>
      </trkpt>
      <trkpt lat="43.61036" lon="3.69514">
        <ele>148.4</ele>
        <time>2011-01-16T10:59:31Z</time>
      </trkpt>
      <trkpt lat="43.61034" lon="3.69505">
        <ele>148</ele>
        <time>2011-01-16T10:59:33Z</time>
      </trkpt>
      <trkpt lat="43.61032" lon="3.69495">
        <ele>147.6</ele>
        <time>2011-01-16T10:59:35Z</time>
      </trkpt>
      <trkpt lat="43.61029" lon="3.69485">
        <ele>147.4</ele>
        <time>2011-01-16T10:59:37Z</time>
      </trkpt>
      <trkpt lat="43.61026" lon="3.69473">
        <ele>147.3</ele>
        <time>2011-01-16T10:59:39Z</time>
      </trkpt>
      <trkpt lat="43.61025" lon="3.69461">
        <ele>146.9</ele>
        <time>2011-01-16T10:59:41Z</time>
      </trkpt>
      <trkpt lat="43.61025" lon="3.69455">
        <ele>146.6</ele>
        <time>2011-01-16T10:59:42Z</time>
      </trkpt>
      <trkpt lat="43.61024" lon="3.69448">
        <ele>146.4</ele>
        <time>2011-01-16T10:59:43Z</time>
      </trkpt>
      <trkpt lat="43.61024" lon="3.69442">
        <ele>146.2</ele>
        <time>2011-01-16T10:59:44Z</time>
      </trkpt>
      <trkpt lat="43.61025" lon="3.69435">
        <ele>146.1</ele>
        <time>2011-01-16T10:59:45Z</time>
      </trkpt>
      <trkpt lat="43.61025" lon="3.69428">
        <ele>146</ele>
        <time>2011-01-16T10:59:46Z</time>
      </trkpt>
      <trkpt lat="43.61026" lon="3.69422">
        <ele>145.3</ele>
        <time>2011-01-16T10:59:47Z</time>
      </trkpt>
      <trkpt lat="43.61028" lon="3.69415">
        <ele>144.7</ele>
        <time>2011-01-16T10:59:48Z</time>
      </trkpt>
      <trkpt lat="43.61029" lon="3.69409">
        <ele>144.3</ele>
        <time>2011-01-16T10:59:49Z</time>
      </trkpt>
      <trkpt lat="43.61031" lon="3.69402">
        <ele>144</ele>
        <time>2011-01-16T10:59:50Z</time>
      </trkpt>
      <trkpt lat="43.61033" lon="3.69395">
        <ele>143.7</ele>
        <time>2011-01-16T10:59:51Z</time>
      </trkpt>
      <trkpt lat="43.61034" lon="3.69388">
        <ele>143.5</ele>
        <time>2011-01-16T10:59:52Z</time>
      </trkpt>
      <trkpt lat="43.61034" lon="3.69381">
        <ele>143</ele>
        <time>2011-01-16T10:59:53Z</time>
      </trkpt>
      <trkpt lat="43.61035" lon="3.69374">
        <ele>142.6</ele>
        <time>2011-01-16T10:59:54Z</time>
      </trkpt>
      <trkpt lat="43.61035" lon="3.69367">
        <ele>142.3</ele>
        <time>2011-01-16T10:59:55Z</time>
      </trkpt>
      <trkpt lat="43.61034" lon="3.69361">
        <ele>142.1</ele>
        <time>2011-01-16T10:59:56Z</time>
      </trkpt>
      <trkpt lat="43.61033" lon="3.69354">
        <ele>142.2</ele>
        <time>2011-01-16T10:59:57Z</time>
      </trkpt>
      <trkpt lat="43.61032" lon="3.69347">
        <ele>142.3</ele>
        <time>2011-01-16T10:59:58Z</time>
      </trkpt>
      <trkpt lat="43.61031" lon="3.69341">
        <ele>142.3</ele>
        <time>2011-01-16T10:59:59Z</time>
      </trkpt>
      <trkpt lat="43.6103" lon="3.69335">
        <ele>142.2</ele>
        <time>2011-01-16T11:00:00Z</time>
      </trkpt>
      <trkpt lat="43.61029" lon="3.69329">
        <ele>142.1</ele>
        <time>2011-01-16T11:00:01Z</time>
      </trkpt>
      <trkpt lat="43.61026" lon="3.69317">
        <ele>142.3</ele>
        <time>2011-01-16T11:00:03Z</time>
      </trkpt>
      <trkpt lat="43.61025" lon="3.69306">
        <ele>142.6</ele>
        <time>2011-01-16T11:00:05Z</time>
      </trkpt>
      <trkpt lat="43.61024" lon="3.69294">
        <ele>142.4</ele>
        <time>2011-01-16T11:00:07Z</time>
      </trkpt>
      <trkpt lat="43.61024" lon="3.69288">
        <ele>142.4</ele>
        <time>2011-01-16T11:00:08Z</time>
      </trkpt>
      <trkpt lat="43.61023" lon="3.69281">
        <ele>142.5</ele>
        <time>2011-01-16T11:00:09Z</time>
      </trkpt>
      <trkpt lat="43.61023" lon="3.69275">
        <ele>142.6</ele>
        <time>2011-01-16T11:00:10Z</time>
      </trkpt>
      <trkpt lat="43.61022" lon="3.69268">
        <ele>142.6</ele>
        <time>2011-01-16T11:00:11Z</time>
      </trkpt>
      <trkpt lat="43.61022" lon="3.69261">
        <ele>142.7</ele>
        <time>2011-01-16T11:00:12Z</time>
      </trkpt>
      <trkpt lat="43.61021" lon="3.69254">
        <ele>142</ele>
        <time>2011-01-16T11:00:13Z</time>
      </trkpt>
      <trkpt lat="43.61021" lon="3.69248">
        <ele>141.5</ele>
        <time>2011-01-16T11:00:14Z</time>
      </trkpt>
      <trkpt lat="43.61021" lon="3.6924">
        <ele>141.2</ele>
        <time>2011-01-16T11:00:15Z</time>
      </trkpt>
      <trkpt lat="43.6102" lon="3.69234">
        <ele>140.7</ele>
        <time>2011-01-16T11:00:16Z</time>
      </trkpt>
      <trkpt lat="43.61019" lon="3.69227">
        <ele>140.4</ele>
        <time>2011-01-16T11:00:17Z</time>
      </trkpt>
      <trkpt lat="43.61018" lon="3.69221">
        <ele>140.1</ele>
        <time>2011-01-16T11:00:18Z</time>
      </trkpt>
      <trkpt lat="43.61017" lon="3.69214">
        <ele>139.8</ele>
        <time>2011-01-16T11:00:19Z</time>
      </trkpt>
      <trkpt lat="43.61016" lon="3.69208">
        <ele>139.5</ele>
        <time>2011-01-16T11:00:20Z</time>
      </trkpt>
      <trkpt lat="43.6101" lon="3.692">
        <ele>138.8</ele>
        <time>2011-01-16T11:00:22Z</time>
      </trkpt>
      <trkpt lat="43.61005" lon="3.69198">
        <ele>138.5</ele>
        <time>2011-01-16T11:00:23Z</time>
      </trkpt>
      <trkpt lat="43.61001" lon="3.69196">
        <ele>138.3</ele>
        <time>2011-01-16T11:00:24Z</time>
      </trkpt>
      <trkpt lat="43.60996" lon="3.69193">
        <ele>137.7</ele>
        <time>2011-01-16T11:00:25Z</time>
      </trkpt>
      <trkpt lat="43.6099" lon="3.69191">
        <ele>137.3</ele>
        <time>2011-01-16T11:00:26Z</time>
      </trkpt>
      <trkpt lat="43.60985" lon="3.6919">
        <ele>136.9</ele>
        <time>2011-01-16T11:00:27Z</time>
      </trkpt>
      <trkpt lat="43.60977" lon="3.69184">
        <ele>136.9</ele>
        <time>2011-01-16T11:00:31Z</time>
      </trkpt>
      <trkpt lat="43.60978" lon="3.69173">
        <ele>137.8</ele>
        <time>2011-01-16T11:00:39Z</time>
      </trkpt>
      <trkpt lat="43.60977" lon="3.6916">
        <ele>139.9</ele>
        <time>2011-01-16T11:00:58Z</time>
      </trkpt>
      <trkpt lat="43.60977" lon="3.6916">
        <ele>139.9</ele>
        <time>2011-01-16T11:00:59Z</time>
      </trkpt>
      <trkpt lat="43.60972" lon="3.69137">
        <ele>142.2</ele>
        <time>2011-01-16T11:01:19Z</time>
      </trkpt>
      <trkpt lat="43.60971" lon="3.69127">
        <ele>142.6</ele>
        <time>2011-01-16T11:01:23Z</time>
      </trkpt>
      <trkpt lat="43.60972" lon="3.69118">
        <ele>143.1</ele>
        <time>2011-01-16T11:01:26Z</time>
      </trkpt>
      <trkpt lat="43.60972" lon="3.69108">
        <ele>143.6</ele>
        <time>2011-01-16T11:01:29Z</time>
      </trkpt>
      <trkpt lat="43.60971" lon="3.69096">
        <ele>144.3</ele>
        <time>2011-01-16T11:01:33Z</time>
      </trkpt>
      <trkpt lat="43.60966" lon="3.69087">
        <ele>144.7</ele>
        <time>2011-01-16T11:01:36Z</time>
      </trkpt>
      <trkpt lat="43.60961" lon="3.69079">
        <ele>145.2</ele>
        <time>2011-01-16T11:01:39Z</time>
      </trkpt>
      <trkpt lat="43.60952" lon="3.69077">
        <ele>145.5</ele>
        <time>2011-01-16T11:01:43Z</time>
      </trkpt>
      <trkpt lat="43.60945" lon="3.69083">
        <ele>148.4</ele>
        <time>2011-01-16T11:01:51Z</time>
      </trkpt>
      <trkpt lat="43.60939" lon="3.69091">
        <ele>151.3</ele>
        <time>2011-01-16T11:02:00Z</time>
      </trkpt>
      <trkpt lat="43.60938" lon="3.69092">
        <ele>151.7</ele>
        <time>2011-01-16T11:02:01Z</time>
      </trkpt>
      <trkpt lat="43.60925" lon="3.69104">
        <ele>155</ele>
        <time>2011-01-16T11:02:15Z</time>
      </trkpt>
      <trkpt lat="43.60917" lon="3.69108">
        <ele>157.6</ele>
        <time>2011-01-16T11:02:22Z</time>
      </trkpt>
      <trkpt lat="43.60908" lon="3.69107">
        <ele>159.3</ele>
        <time>2011-01-16T11:02:29Z</time>
      </trkpt>
      <trkpt lat="43.60899" lon="3.69104">
        <ele>160.9</ele>
        <time>2011-01-16T11:02:35Z</time>
      </trkpt>
      <trkpt lat="43.60891" lon="3.691">
        <ele>161.7</ele>
        <time>2011-01-16T11:02:40Z</time>
      </trkpt>
      <trkpt lat="43.60885" lon="3.69095">
        <ele>162.7</ele>
        <time>2011-01-16T11:02:45Z</time>
      </trkpt>
      <trkpt lat="43.60879" lon="3.69086">
        <ele>162.9</ele>
        <time>2011-01-16T11:02:50Z</time>
      </trkpt>
      <trkpt lat="43.60873" lon="3.69079">
        <ele>162.9</ele>
        <time>2011-01-16T11:02:54Z</time>
      </trkpt>
      <trkpt lat="43.60867" lon="3.69074">
        <ele>163.1</ele>
        <time>2011-01-16T11:02:58Z</time>
      </trkpt>
      <trkpt lat="43.6086" lon="3.69068">
        <ele>165</ele>
        <time>2011-01-16T11:03:03Z</time>
      </trkpt>
      <trkpt lat="43.60859" lon="3.69067">
        <ele>165.1</ele>
        <time>2011-01-16T11:03:04Z</time>
      </trkpt>
      <trkpt lat="43.60847" lon="3.69055">
        <ele>166.3</ele>
        <time>2011-01-16T11:03:12Z</time>
      </trkpt>
      <trkpt lat="43.60838" lon="3.69052">
        <ele>167.4</ele>
        <time>2011-01-16T11:03:16Z</time>
      </trkpt>
      <trkpt lat="43.6083" lon="3.69053">
        <ele>168.4</ele>
        <time>2011-01-16T11:03:21Z</time>
      </trkpt>
      <trkpt lat="43.60821" lon="3.69052">
        <ele>169.8</ele>
        <time>2011-01-16T11:03:26Z</time>
      </trkpt>
      <trkpt lat="43.60816" lon="3.69047">
        <ele>170.2</ele>
        <time>2011-01-16T11:03:29Z</time>
      </trkpt>
      <trkpt lat="43.60808" lon="3.69044">
        <ele>170.8</ele>
        <time>2011-01-16T11:03:32Z</time>
      </trkpt>
      <trkpt lat="43.60799" lon="3.69042">
        <ele>169.7</ele>
        <time>2011-01-16T11:03:36Z</time>
      </trkpt>
      <trkpt lat="43.60791" lon="3.69041">
        <ele>169.4</ele>
        <time>2011-01-16T11:03:39Z</time>
      </trkpt>
      <trkpt lat="43.60785" lon="3.6904">
        <ele>169.4</ele>
        <time>2011-01-16T11:03:41Z</time>
      </trkpt>
      <trkpt lat="43.60777" lon="3.6904">
        <ele>168.8</ele>
        <time>2011-01-16T11:03:44Z</time>
      </trkpt>
      <trkpt lat="43.60771" lon="3.6904">
        <ele>168.8</ele>
        <time>2011-01-16T11:03:46Z</time>
      </trkpt>
      <trkpt lat="43.60764" lon="3.69037">
        <ele>169.2</ele>
        <time>2011-01-16T11:03:48Z</time>
      </trkpt>
      <trkpt lat="43.60758" lon="3.69035">
        <ele>169.3</ele>
        <time>2011-01-16T11:03:50Z</time>
      </trkpt>
      <trkpt lat="43.60751" lon="3.69033">
        <ele>169.2</ele>
        <time>2011-01-16T11:03:52Z</time>
      </trkpt>
      <trkpt lat="43.60746" lon="3.6903">
        <ele>168.8</ele>
        <time>2011-01-16T11:03:54Z</time>
      </trkpt>
      <trkpt lat="43.60739" lon="3.69027">
        <ele>169</ele>
        <time>2011-01-16T11:03:56Z</time>
      </trkpt>
      <trkpt lat="43.60733" lon="3.69022">
        <ele>169.4</ele>
        <time>2011-01-16T11:03:58Z</time>
      </trkpt>
      <trkpt lat="43.60726" lon="3.69016">
        <ele>170.5</ele>
        <time>2011-01-16T11:04:01Z</time>
      </trkpt>
      <trkpt lat="43.6072" lon="3.69008">
        <ele>170.6</ele>
        <time>2011-01-16T11:04:05Z</time>
      </trkpt>
      <trkpt lat="43.60719" lon="3.69005">
        <ele>171</ele>
        <time>2011-01-16T11:04:06Z</time>
      </trkpt>
      <trkpt lat="43.60716" lon="3.68991">
        <ele>172</ele>
        <time>2011-01-16T11:04:10Z</time>
      </trkpt>
      <trkpt lat="43.60714" lon="3.68982">
        <ele>171.9</ele>
        <time>2011-01-16T11:04:12Z</time>
      </trkpt>
      <trkpt lat="43.60711" lon="3.68973">
        <ele>171.5</ele>
        <time>2011-01-16T11:04:14Z</time>
      </trkpt>
      <trkpt lat="43.60707" lon="3.68966">
        <ele>171</ele>
        <time>2011-01-16T11:04:16Z</time>
      </trkpt>
      <trkpt lat="43.60701" lon="3.6896">
        <ele>171.8</ele>
        <time>2011-01-16T11:04:19Z</time>
      </trkpt>
      <trkpt lat="43.60693" lon="3.68957">
        <ele>172.9</ele>
        <time>2011-01-16T11:04:22Z</time>
      </trkpt>
      <trkpt lat="43.60687" lon="3.68953">
        <ele>173.6</ele>
        <time>2011-01-16T11:04:24Z</time>
      </trkpt>
      <trkpt lat="43.60682" lon="3.68949">
        <ele>173.3</ele>
        <time>2011-01-16T11:04:26Z</time>
      </trkpt>
      <trkpt lat="43.60676" lon="3.68945">
        <ele>173.4</ele>
        <time>2011-01-16T11:04:28Z</time>
      </trkpt>
      <trkpt lat="43.60668" lon="3.68946">
        <ele>173.4</ele>
        <time>2011-01-16T11:04:31Z</time>
      </trkpt>
      <trkpt lat="43.60661" lon="3.68941">
        <ele>172.5</ele>
        <time>2011-01-16T11:04:34Z</time>
      </trkpt>
      <trkpt lat="43.60653" lon="3.68937">
        <ele>171.9</ele>
        <time>2011-01-16T11:04:37Z</time>
      </trkpt>
      <trkpt lat="43.60648" lon="3.68931">
        <ele>171.1</ele>
        <time>2011-01-16T11:04:39Z</time>
      </trkpt>
      <trkpt lat="43.60641" lon="3.68924">
        <ele>170</ele>
        <time>2011-01-16T11:04:41Z</time>
      </trkpt>
      <trkpt lat="43.60636" lon="3.68917">
        <ele>168.9</ele>
        <time>2011-01-16T11:04:43Z</time>
      </trkpt>
      <trkpt lat="43.60634" lon="3.68909">
        <ele>166.7</ele>
        <time>2011-01-16T11:04:45Z</time>
      </trkpt>
      <trkpt lat="43.60629" lon="3.68901">
        <ele>164.8</ele>
        <time>2011-01-16T11:04:47Z</time>
      </trkpt>
      <trkpt lat="43.60624" lon="3.68893">
        <ele>163.2</ele>
        <time>2011-01-16T11:04:49Z</time>
      </trkpt>
      <trkpt lat="43.60619" lon="3.68887">
        <ele>161.7</ele>
        <time>2011-01-16T11:04:51Z</time>
      </trkpt>
      <trkpt lat="43.60611" lon="3.68883">
        <ele>160.2</ele>
        <time>2011-01-16T11:04:53Z</time>
      </trkpt>
      <trkpt lat="43.60604" lon="3.68879">
        <ele>158.7</ele>
        <time>2011-01-16T11:04:55Z</time>
      </trkpt>
      <trkpt lat="43.60599" lon="3.68869">
        <ele>155.6</ele>
        <time>2011-01-16T11:04:58Z</time>
      </trkpt>
      <trkpt lat="43.60597" lon="3.68858">
        <ele>153.2</ele>
        <time>2011-01-16T11:05:01Z</time>
      </trkpt>
      <trkpt lat="43.60593" lon="3.6885">
        <ele>152.2</ele>
        <time>2011-01-16T11:05:03Z</time>
      </trkpt>
      <trkpt lat="43.6059" lon="3.68841">
        <ele>151.5</ele>
        <time>2011-01-16T11:05:05Z</time>
      </trkpt>
      <trkpt lat="43.60589" lon="3.68831">
        <ele>150</ele>
        <time>2011-01-16T11:05:07Z</time>
      </trkpt>
      <trkpt lat="43.60589" lon="3.68828">
        <ele>149.5</ele>
        <time>2011-01-16T11:05:08Z</time>
      </trkpt>
      <trkpt lat="43.60584" lon="3.68814">
        <ele>146.7</ele>
        <time>2011-01-16T11:05:12Z</time>
      </trkpt>
      <trkpt lat="43.60577" lon="3.68806">
        <ele>144.4</ele>
        <time>2011-01-16T11:05:15Z</time>
      </trkpt>
      <trkpt lat="43.60572" lon="3.68798">
        <ele>142.4</ele>
        <time>2011-01-16T11:05:18Z</time>
      </trkpt>
      <trkpt lat="43.60567" lon="3.68788">
        <ele>140.1</ele>
        <time>2011-01-16T11:05:21Z</time>
      </trkpt>
      <trkpt lat="43.60563" lon="3.68779">
        <ele>138.8</ele>
        <time>2011-01-16T11:05:23Z</time>
      </trkpt>
      <trkpt lat="43.60557" lon="3.68773">
        <ele>137.3</ele>
        <time>2011-01-16T11:05:25Z</time>
      </trkpt>
      <trkpt lat="43.60551" lon="3.68764">
        <ele>135.8</ele>
        <time>2011-01-16T11:05:27Z</time>
      </trkpt>
      <trkpt lat="43.60544" lon="3.68758">
        <ele>134.7</ele>
        <time>2011-01-16T11:05:29Z</time>
      </trkpt>
      <trkpt lat="43.6054" lon="3.68751">
        <ele>133.8</ele>
        <time>2011-01-16T11:05:31Z</time>
      </trkpt>
      <trkpt lat="43.60539" lon="3.6874">
        <ele>132.4</ele>
        <time>2011-01-16T11:05:33Z</time>
      </trkpt>
      <trkpt lat="43.6054" lon="3.68728">
        <ele>130.8</ele>
        <time>2011-01-16T11:05:35Z</time>
      </trkpt>
      <trkpt lat="43.60538" lon="3.68718">
        <ele>129.3</ele>
        <time>2011-01-16T11:05:37Z</time>
      </trkpt>
      <trkpt lat="43.60536" lon="3.68707">
        <ele>127.7</ele>
        <time>2011-01-16T11:05:39Z</time>
      </trkpt>
      <trkpt lat="43.60537" lon="3.68699">
        <ele>126.5</ele>
        <time>2011-01-16T11:05:41Z</time>
      </trkpt>
      <trkpt lat="43.60534" lon="3.68689">
        <ele>124.3</ele>
        <time>2011-01-16T11:05:45Z</time>
      </trkpt>
      <trkpt lat="43.60533" lon="3.68677">
        <ele>119.8</ele>
        <time>2011-01-16T11:05:51Z</time>
      </trkpt>
      <trkpt lat="43.60526" lon="3.68672">
        <ele>116.4</ele>
        <time>2011-01-16T11:06:05Z</time>
      </trkpt>
      <trkpt lat="43.60518" lon="3.6867">
        <ele>115.5</ele>
        <time>2011-01-16T11:06:13Z</time>
      </trkpt>
      <trkpt lat="43.60517" lon="3.6867">
        <ele>115.7</ele>
        <time>2011-01-16T11:06:14Z</time>
      </trkpt>
      <trkpt lat="43.60511" lon="3.68647">
        <ele>111</ele>
        <time>2011-01-16T11:06:54Z</time>
      </trkpt>
      <trkpt lat="43.60504" lon="3.6864">
        <ele>110.5</ele>
        <time>2011-01-16T11:09:55Z</time>
      </trkpt>
      <trkpt lat="43.60503" lon="3.68638">
        <ele>110.4</ele>
        <time>2011-01-16T11:09:56Z</time>
      </trkpt>
      <trkpt lat="43.60492" lon="3.68627">
        <ele>111</ele>
        <time>2011-01-16T11:10:02Z</time>
      </trkpt>
      <trkpt lat="43.60489" lon="3.68616">
        <ele>110.6</ele>
        <time>2011-01-16T11:10:06Z</time>
      </trkpt>
      <trkpt lat="43.60493" lon="3.68608">
        <ele>110.5</ele>
        <time>2011-01-16T11:10:09Z</time>
      </trkpt>
      <trkpt lat="43.60498" lon="3.68599">
        <ele>110.4</ele>
        <time>2011-01-16T11:10:12Z</time>
      </trkpt>
      <trkpt lat="43.60503" lon="3.6859">
        <ele>110.1</ele>
        <time>2011-01-16T11:10:15Z</time>
      </trkpt>
      <trkpt lat="43.6051" lon="3.68581">
        <ele>110.5</ele>
        <time>2011-01-16T11:10:18Z</time>
      </trkpt>
      <trkpt lat="43.60514" lon="3.68574">
        <ele>110.3</ele>
        <time>2011-01-16T11:10:20Z</time>
      </trkpt>
      <trkpt lat="43.6052" lon="3.68568">
        <ele>109.9</ele>
        <time>2011-01-16T11:10:22Z</time>
      </trkpt>
      <trkpt lat="43.60527" lon="3.68565">
        <ele>109.6</ele>
        <time>2011-01-16T11:10:24Z</time>
      </trkpt>
      <trkpt lat="43.60534" lon="3.68564">
        <ele>110</ele>
        <time>2011-01-16T11:10:26Z</time>
      </trkpt>
      <trkpt lat="43.60541" lon="3.68562">
        <ele>110.3</ele>
        <time>2011-01-16T11:10:28Z</time>
      </trkpt>
      <trkpt lat="43.60547" lon="3.6856">
        <ele>109.7</ele>
        <time>2011-01-16T11:10:30Z</time>
      </trkpt>
      <trkpt lat="43.60553" lon="3.68558">
        <ele>109.6</ele>
        <time>2011-01-16T11:10:32Z</time>
      </trkpt>
      <trkpt lat="43.60562" lon="3.68556">
        <ele>109.8</ele>
        <time>2011-01-16T11:10:35Z</time>
      </trkpt>
      <trkpt lat="43.60569" lon="3.68555">
        <ele>109.9</ele>
        <time>2011-01-16T11:10:38Z</time>
      </trkpt>
      <trkpt lat="43.60576" lon="3.68554">
        <ele>109.7</ele>
        <time>2011-01-16T11:10:41Z</time>
      </trkpt>
      <trkpt lat="43.60584" lon="3.68553">
        <ele>109</ele>
        <time>2011-01-16T11:10:44Z</time>
      </trkpt>
      <trkpt lat="43.6059" lon="3.68552">
        <ele>109.6</ele>
        <time>2011-01-16T11:10:46Z</time>
      </trkpt>
      <trkpt lat="43.60597" lon="3.68551">
        <ele>110</ele>
        <time>2011-01-16T11:10:48Z</time>
      </trkpt>
      <trkpt lat="43.60603" lon="3.68551">
        <ele>110.3</ele>
        <time>2011-01-16T11:10:50Z</time>
      </trkpt>
      <trkpt lat="43.6061" lon="3.6855">
        <ele>110.2</ele>
        <time>2011-01-16T11:10:52Z</time>
      </trkpt>
      <trkpt lat="43.60616" lon="3.68549">
        <ele>110.1</ele>
        <time>2011-01-16T11:10:54Z</time>
      </trkpt>
      <trkpt lat="43.60623" lon="3.68548">
        <ele>110</ele>
        <time>2011-01-16T11:10:56Z</time>
      </trkpt>
      <trkpt lat="43.60626" lon="3.68547">
        <ele>110.1</ele>
        <time>2011-01-16T11:10:57Z</time>
      </trkpt>
      <trkpt lat="43.60636" lon="3.68543">
        <ele>110.2</ele>
        <time>2011-01-16T11:11:00Z</time>
      </trkpt>
      <trkpt lat="43.60642" lon="3.68539">
        <ele>109.9</ele>
        <time>2011-01-16T11:11:02Z</time>
      </trkpt>
      <trkpt lat="43.60649" lon="3.68535">
        <ele>109.7</ele>
        <time>2011-01-16T11:11:04Z</time>
      </trkpt>
      <trkpt lat="43.60656" lon="3.68532">
        <ele>109.6</ele>
        <time>2011-01-16T11:11:06Z</time>
      </trkpt>
      <trkpt lat="43.60662" lon="3.6853">
        <ele>109.1</ele>
        <time>2011-01-16T11:11:08Z</time>
      </trkpt>
      <trkpt lat="43.60669" lon="3.68529">
        <ele>109.1</ele>
        <time>2011-01-16T11:11:10Z</time>
      </trkpt>
      <trkpt lat="43.60676" lon="3.68528">
        <ele>109.2</ele>
        <time>2011-01-16T11:11:12Z</time>
      </trkpt>
      <trkpt lat="43.60683" lon="3.68527">
        <ele>109.6</ele>
        <time>2011-01-16T11:11:14Z</time>
      </trkpt>
      <trkpt lat="43.6069" lon="3.68526">
        <ele>109.7</ele>
        <time>2011-01-16T11:11:16Z</time>
      </trkpt>
      <trkpt lat="43.60696" lon="3.68525">
        <ele>109.6</ele>
        <time>2011-01-16T11:11:18Z</time>
      </trkpt>
      <trkpt lat="43.60703" lon="3.68525">
        <ele>109.7</ele>
        <time>2011-01-16T11:11:20Z</time>
      </trkpt>
      <trkpt lat="43.60709" lon="3.68525">
        <ele>109.9</ele>
        <time>2011-01-16T11:11:22Z</time>
      </trkpt>
      <trkpt lat="43.60715" lon="3.68524">
        <ele>109.8</ele>
        <time>2011-01-16T11:11:24Z</time>
      </trkpt>
      <trkpt lat="43.60721" lon="3.68523">
        <ele>109.7</ele>
        <time>2011-01-16T11:11:26Z</time>
      </trkpt>
      <trkpt lat="43.60729" lon="3.68522">
        <ele>109.7</ele>
        <time>2011-01-16T11:11:28Z</time>
      </trkpt>
      <trkpt lat="43.60736" lon="3.68522">
        <ele>110.5</ele>
        <time>2011-01-16T11:11:30Z</time>
      </trkpt>
      <trkpt lat="43.60744" lon="3.68522">
        <ele>110.8</ele>
        <time>2011-01-16T11:11:32Z</time>
      </trkpt>
      <trkpt lat="43.60751" lon="3.68523">
        <ele>110.9</ele>
        <time>2011-01-16T11:11:34Z</time>
      </trkpt>
      <trkpt lat="43.60758" lon="3.68524">
        <ele>110.9</ele>
        <time>2011-01-16T11:11:36Z</time>
      </trkpt>
      <trkpt lat="43.60766" lon="3.68525">
        <ele>110.8</ele>
        <time>2011-01-16T11:11:38Z</time>
      </trkpt>
      <trkpt lat="43.60775" lon="3.68527">
        <ele>110.7</ele>
        <time>2011-01-16T11:11:40Z</time>
      </trkpt>
      <trkpt lat="43.60783" lon="3.68527">
        <ele>110.6</ele>
        <time>2011-01-16T11:11:42Z</time>
      </trkpt>
      <trkpt lat="43.60792" lon="3.68528">
        <ele>110.6</ele>
        <time>2011-01-16T11:11:44Z</time>
      </trkpt>
      <trkpt lat="43.60801" lon="3.68529">
        <ele>110.3</ele>
        <time>2011-01-16T11:11:46Z</time>
      </trkpt>
      <trkpt lat="43.60809" lon="3.68529">
        <ele>110.4</ele>
        <time>2011-01-16T11:11:48Z</time>
      </trkpt>
      <trkpt lat="43.60818" lon="3.6853">
        <ele>110.6</ele>
        <time>2011-01-16T11:11:50Z</time>
      </trkpt>
      <trkpt lat="43.60827" lon="3.6853">
        <ele>111</ele>
        <time>2011-01-16T11:11:52Z</time>
      </trkpt>
      <trkpt lat="43.60836" lon="3.68531">
        <ele>111.5</ele>
        <time>2011-01-16T11:11:54Z</time>
      </trkpt>
      <trkpt lat="43.6084" lon="3.68532">
        <ele>111.6</ele>
        <time>2011-01-16T11:11:55Z</time>
      </trkpt>
      <trkpt lat="43.60845" lon="3.68532">
        <ele>111.7</ele>
        <time>2011-01-16T11:11:56Z</time>
      </trkpt>
      <trkpt lat="43.60849" lon="3.68533">
        <ele>111.8</ele>
        <time>2011-01-16T11:11:57Z</time>
      </trkpt>
      <trkpt lat="43.60854" lon="3.68534">
        <ele>111.5</ele>
        <time>2011-01-16T11:11:58Z</time>
      </trkpt>
      <trkpt lat="43.60859" lon="3.68535">
        <ele>111.4</ele>
        <time>2011-01-16T11:11:59Z</time>
      </trkpt>
      <trkpt lat="43.60864" lon="3.68535">
        <ele>111.2</ele>
        <time>2011-01-16T11:12:00Z</time>
      </trkpt>
      <trkpt lat="43.60869" lon="3.68536">
        <ele>111.2</ele>
        <time>2011-01-16T11:12:01Z</time>
      </trkpt>
      <trkpt lat="43.60874" lon="3.68536">
        <ele>111.1</ele>
        <time>2011-01-16T11:12:02Z</time>
      </trkpt>
      <trkpt lat="43.60878" lon="3.68536">
        <ele>111.1</ele>
        <time>2011-01-16T11:12:03Z</time>
      </trkpt>
      <trkpt lat="43.60887" lon="3.68535">
        <ele>110.8</ele>
        <time>2011-01-16T11:12:05Z</time>
      </trkpt>
      <trkpt lat="43.60896" lon="3.68534">
        <ele>110.6</ele>
        <time>2011-01-16T11:12:07Z</time>
      </trkpt>
      <trkpt lat="43.60904" lon="3.68535">
        <ele>111.3</ele>
        <time>2011-01-16T11:12:09Z</time>
      </trkpt>
      <trkpt lat="43.60909" lon="3.68535">
        <ele>111.5</ele>
        <time>2011-01-16T11:12:10Z</time>
      </trkpt>
      <trkpt lat="43.60914" lon="3.68534">
        <ele>111.5</ele>
        <time>2011-01-16T11:12:11Z</time>
      </trkpt>
      <trkpt lat="43.60919" lon="3.68534">
        <ele>111.5</ele>
        <time>2011-01-16T11:12:12Z</time>
      </trkpt>
      <trkpt lat="43.60924" lon="3.68533">
        <ele>111.5</ele>
        <time>2011-01-16T11:12:13Z</time>
      </trkpt>
      <trkpt lat="43.60932" lon="3.68532">
        <ele>111.9</ele>
        <time>2011-01-16T11:12:15Z</time>
      </trkpt>
      <trkpt lat="43.60941" lon="3.68531">
        <ele>112.1</ele>
        <time>2011-01-16T11:12:17Z</time>
      </trkpt>
      <trkpt lat="43.6095" lon="3.68531">
        <ele>112.2</ele>
        <time>2011-01-16T11:12:19Z</time>
      </trkpt>
      <trkpt lat="43.60958" lon="3.68531">
        <ele>111.8</ele>
        <time>2011-01-16T11:12:21Z</time>
      </trkpt>
      <trkpt lat="43.60966" lon="3.6853">
        <ele>111.6</ele>
        <time>2011-01-16T11:12:23Z</time>
      </trkpt>
      <trkpt lat="43.60974" lon="3.68529">
        <ele>111.8</ele>
        <time>2011-01-16T11:12:25Z</time>
      </trkpt>
      <trkpt lat="43.60982" lon="3.68529">
        <ele>111.8</ele>
        <time>2011-01-16T11:12:27Z</time>
      </trkpt>
      <trkpt lat="43.6099" lon="3.6853">
        <ele>111.6</ele>
        <time>2011-01-16T11:12:29Z</time>
      </trkpt>
      <trkpt lat="43.60998" lon="3.6853">
        <ele>112.2</ele>
        <time>2011-01-16T11:12:31Z</time>
      </trkpt>
      <trkpt lat="43.61006" lon="3.68532">
        <ele>112.2</ele>
        <time>2011-01-16T11:12:33Z</time>
      </trkpt>
      <trkpt lat="43.61014" lon="3.68533">
        <ele>112</ele>
        <time>2011-01-16T11:12:35Z</time>
      </trkpt>
      <trkpt lat="43.61022" lon="3.68534">
        <ele>112.2</ele>
        <time>2011-01-16T11:12:37Z</time>
      </trkpt>
      <trkpt lat="43.6103" lon="3.68536">
        <ele>112.1</ele>
        <time>2011-01-16T11:12:39Z</time>
      </trkpt>
      <trkpt lat="43.61039" lon="3.68538">
        <ele>111.8</ele>
        <time>2011-01-16T11:12:41Z</time>
      </trkpt>
      <trkpt lat="43.61047" lon="3.68538">
        <ele>112.2</ele>
        <time>2011-01-16T11:12:43Z</time>
      </trkpt>
      <trkpt lat="43.61055" lon="3.68536">
        <ele>112.8</ele>
        <time>2011-01-16T11:12:45Z</time>
      </trkpt>
      <trkpt lat="43.61063" lon="3.68534">
        <ele>112.4</ele>
        <time>2011-01-16T11:12:47Z</time>
      </trkpt>
      <trkpt lat="43.6107" lon="3.6853">
        <ele>112.7</ele>
        <time>2011-01-16T11:12:49Z</time>
      </trkpt>
      <trkpt lat="43.61078" lon="3.68526">
        <ele>113.4</ele>
        <time>2011-01-16T11:12:51Z</time>
      </trkpt>
      <trkpt lat="43.61085" lon="3.6852">
        <ele>113.2</ele>
        <time>2011-01-16T11:12:53Z</time>
      </trkpt>
      <trkpt lat="43.61092" lon="3.68515">
        <ele>113.1</ele>
        <time>2011-01-16T11:12:55Z</time>
      </trkpt>
      <trkpt lat="43.61099" lon="3.6851">
        <ele>113.1</ele>
        <time>2011-01-16T11:12:57Z</time>
      </trkpt>
      <trkpt lat="43.61106" lon="3.68504">
        <ele>113.3</ele>
        <time>2011-01-16T11:12:59Z</time>
      </trkpt>
      <trkpt lat="43.61109" lon="3.68501">
        <ele>113.5</ele>
        <time>2011-01-16T11:13:00Z</time>
      </trkpt>
      <trkpt lat="43.61118" lon="3.68489">
        <ele>113.5</ele>
        <time>2011-01-16T11:13:03Z</time>
      </trkpt>
      <trkpt lat="43.61124" lon="3.68481">
        <ele>113.5</ele>
        <time>2011-01-16T11:13:05Z</time>
      </trkpt>
      <trkpt lat="43.6113" lon="3.68474">
        <ele>113.6</ele>
        <time>2011-01-16T11:13:07Z</time>
      </trkpt>
      <trkpt lat="43.61137" lon="3.68465">
        <ele>113.4</ele>
        <time>2011-01-16T11:13:09Z</time>
      </trkpt>
      <trkpt lat="43.61143" lon="3.68457">
        <ele>113.5</ele>
        <time>2011-01-16T11:13:11Z</time>
      </trkpt>
      <trkpt lat="43.61148" lon="3.6845">
        <ele>113.7</ele>
        <time>2011-01-16T11:13:13Z</time>
      </trkpt>
      <trkpt lat="43.61153" lon="3.68441">
        <ele>113.5</ele>
        <time>2011-01-16T11:13:15Z</time>
      </trkpt>
      <trkpt lat="43.61156" lon="3.68431">
        <ele>113.2</ele>
        <time>2011-01-16T11:13:17Z</time>
      </trkpt>
      <trkpt lat="43.61158" lon="3.68427">
        <ele>113.4</ele>
        <time>2011-01-16T11:13:18Z</time>
      </trkpt>
      <trkpt lat="43.61162" lon="3.68422">
        <ele>113.5</ele>
        <time>2011-01-16T11:13:19Z</time>
      </trkpt>
      <trkpt lat="43.61166" lon="3.68417">
        <ele>113.5</ele>
        <time>2011-01-16T11:13:20Z</time>
      </trkpt>
      <trkpt lat="43.61173" lon="3.68411">
        <ele>112.6</ele>
        <time>2011-01-16T11:13:22Z</time>
      </trkpt>
      <trkpt lat="43.61181" lon="3.68409">
        <ele>112.1</ele>
        <time>2011-01-16T11:13:24Z</time>
      </trkpt>
      <trkpt lat="43.61184" lon="3.68399">
        <ele>113.5</ele>
        <time>2011-01-16T11:13:28Z</time>
      </trkpt>
      <trkpt lat="43.61183" lon="3.68388">
        <ele>114.4</ele>
        <time>2011-01-16T11:13:31Z</time>
      </trkpt>
      <trkpt lat="43.61183" lon="3.68379">
        <ele>114.5</ele>
        <time>2011-01-16T11:13:33Z</time>
      </trkpt>
      <trkpt lat="43.61183" lon="3.6837">
        <ele>114.7</ele>
        <time>2011-01-16T11:13:35Z</time>
      </trkpt>
      <trkpt lat="43.61184" lon="3.68361">
        <ele>114.7</ele>
        <time>2011-01-16T11:13:37Z</time>
      </trkpt>
      <trkpt lat="43.61186" lon="3.68352">
        <ele>114.6</ele>
        <time>2011-01-16T11:13:39Z</time>
      </trkpt>
      <trkpt lat="43.61188" lon="3.68344">
        <ele>114.3</ele>
        <time>2011-01-16T11:13:41Z</time>
      </trkpt>
      <trkpt lat="43.6119" lon="3.68336">
        <ele>114.7</ele>
        <time>2011-01-16T11:13:43Z</time>
      </trkpt>
      <trkpt lat="43.61193" lon="3.68327">
        <ele>115.2</ele>
        <time>2011-01-16T11:13:45Z</time>
      </trkpt>
      <trkpt lat="43.61196" lon="3.68319">
        <ele>115.1</ele>
        <time>2011-01-16T11:13:47Z</time>
      </trkpt>
      <trkpt lat="43.61199" lon="3.6831">
        <ele>114.8</ele>
        <time>2011-01-16T11:13:49Z</time>
      </trkpt>
      <trkpt lat="43.61202" lon="3.68303">
        <ele>114.6</ele>
        <time>2011-01-16T11:13:51Z</time>
      </trkpt>
      <trkpt lat="43.61206" lon="3.68296">
        <ele>114.6</ele>
        <time>2011-01-16T11:13:53Z</time>
      </trkpt>
      <trkpt lat="43.6121" lon="3.6829">
        <ele>114.8</ele>
        <time>2011-01-16T11:13:55Z</time>
      </trkpt>
      <trkpt lat="43.61215" lon="3.68283">
        <ele>114.7</ele>
        <time>2011-01-16T11:13:57Z</time>
      </trkpt>
      <trkpt lat="43.61219" lon="3.68277">
        <ele>114.6</ele>
        <time>2011-01-16T11:13:59Z</time>
      </trkpt>
      <trkpt lat="43.61224" lon="3.68272">
        <ele>114.5</ele>
        <time>2011-01-16T11:14:01Z</time>
      </trkpt>
      <trkpt lat="43.61226" lon="3.68269">
        <ele>114.9</ele>
        <time>2011-01-16T11:14:02Z</time>
      </trkpt>
      <trkpt lat="43.61234" lon="3.68263">
        <ele>115.6</ele>
        <time>2011-01-16T11:14:05Z</time>
      </trkpt>
      <trkpt lat="43.6124" lon="3.6826">
        <ele>114.8</ele>
        <time>2011-01-16T11:14:07Z</time>
      </trkpt>
      <trkpt lat="43.61247" lon="3.68257">
        <ele>114.9</ele>
        <time>2011-01-16T11:14:09Z</time>
      </trkpt>
      <trkpt lat="43.61253" lon="3.68255">
        <ele>115.3</ele>
        <time>2011-01-16T11:14:11Z</time>
      </trkpt>
      <trkpt lat="43.6126" lon="3.68256">
        <ele>114.6</ele>
        <time>2011-01-16T11:14:13Z</time>
      </trkpt>
      <trkpt lat="43.61266" lon="3.68258">
        <ele>114.2</ele>
        <time>2011-01-16T11:14:15Z</time>
      </trkpt>
      <trkpt lat="43.61273" lon="3.6826">
        <ele>113.9</ele>
        <time>2011-01-16T11:14:17Z</time>
      </trkpt>
      <trkpt lat="43.6128" lon="3.68263">
        <ele>114.4</ele>
        <time>2011-01-16T11:14:19Z</time>
      </trkpt>
      <trkpt lat="43.61285" lon="3.68267">
        <ele>114.7</ele>
        <time>2011-01-16T11:14:21Z</time>
      </trkpt>
      <trkpt lat="43.61289" lon="3.68275">
        <ele>115</ele>
        <time>2011-01-16T11:14:23Z</time>
      </trkpt>
      <trkpt lat="43.61291" lon="3.68283">
        <ele>114.9</ele>
        <time>2011-01-16T11:14:25Z</time>
      </trkpt>
      <trkpt lat="43.61297" lon="3.68292">
        <ele>115</ele>
        <time>2011-01-16T11:14:28Z</time>
      </trkpt>
      <trkpt lat="43.61306" lon="3.68291">
        <ele>115.5</ele>
        <time>2011-01-16T11:14:31Z</time>
      </trkpt>
      <trkpt lat="43.61313" lon="3.68291">
        <ele>115.6</ele>
        <time>2011-01-16T11:14:33Z</time>
      </trkpt>
      <trkpt lat="43.61319" lon="3.68292">
        <ele>115.8</ele>
        <time>2011-01-16T11:14:35Z</time>
      </trkpt>
      <trkpt lat="43.61326" lon="3.68293">
        <ele>115.9</ele>
        <time>2011-01-16T11:14:37Z</time>
      </trkpt>
      <trkpt lat="43.61332" lon="3.68295">
        <ele>115.6</ele>
        <time>2011-01-16T11:14:39Z</time>
      </trkpt>
      <trkpt lat="43.61339" lon="3.68297">
        <ele>115.6</ele>
        <time>2011-01-16T11:14:41Z</time>
      </trkpt>
      <trkpt lat="43.61347" lon="3.683">
        <ele>115.8</ele>
        <time>2011-01-16T11:14:43Z</time>
      </trkpt>
      <trkpt lat="43.61354" lon="3.68302">
        <ele>115.5</ele>
        <time>2011-01-16T11:14:45Z</time>
      </trkpt>
      <trkpt lat="43.61361" lon="3.68302">
        <ele>115.3</ele>
        <time>2011-01-16T11:14:47Z</time>
      </trkpt>
      <trkpt lat="43.61369" lon="3.68302">
        <ele>115.6</ele>
        <time>2011-01-16T11:14:50Z</time>
      </trkpt>
      <trkpt lat="43.61376" lon="3.68303">
        <ele>116.2</ele>
        <time>2011-01-16T11:14:52Z</time>
      </trkpt>
      <trkpt lat="43.61383" lon="3.68303">
        <ele>116.2</ele>
        <time>2011-01-16T11:14:54Z</time>
      </trkpt>
      <trkpt lat="43.61389" lon="3.68305">
        <ele>116.2</ele>
        <time>2011-01-16T11:14:56Z</time>
      </trkpt>
      <trkpt lat="43.61396" lon="3.68305">
        <ele>115.8</ele>
        <time>2011-01-16T11:14:58Z</time>
      </trkpt>
      <trkpt lat="43.61403" lon="3.68303">
        <ele>116</ele>
        <time>2011-01-16T11:15:00Z</time>
      </trkpt>
      <trkpt lat="43.6141" lon="3.68303">
        <ele>116.5</ele>
        <time>2011-01-16T11:15:02Z</time>
      </trkpt>
      <trkpt lat="43.61414" lon="3.68302">
        <ele>116.5</ele>
        <time>2011-01-16T11:15:03Z</time>
      </trkpt>
      <trkpt lat="43.61423" lon="3.68304">
        <ele>116.6</ele>
        <time>2011-01-16T11:15:06Z</time>
      </trkpt>
      <trkpt lat="43.61429" lon="3.68305">
        <ele>116.5</ele>
        <time>2011-01-16T11:15:08Z</time>
      </trkpt>
      <trkpt lat="43.61435" lon="3.68309">
        <ele>116.3</ele>
        <time>2011-01-16T11:15:10Z</time>
      </trkpt>
      <trkpt lat="43.61441" lon="3.68317">
        <ele>116.3</ele>
        <time>2011-01-16T11:15:13Z</time>
      </trkpt>
      <trkpt lat="43.61447" lon="3.68326">
        <ele>116</ele>
        <time>2011-01-16T11:15:16Z</time>
      </trkpt>
      <trkpt lat="43.61455" lon="3.68331">
        <ele>115.4</ele>
        <time>2011-01-16T11:15:19Z</time>
      </trkpt>
      <trkpt lat="43.61463" lon="3.68335">
        <ele>114.2</ele>
        <time>2011-01-16T11:15:35Z</time>
      </trkpt>
      <trkpt lat="43.6147" lon="3.68342">
        <ele>117.7</ele>
        <time>2011-01-16T11:16:06Z</time>
      </trkpt>
      <trkpt lat="43.6147" lon="3.68343">
        <ele>118</ele>
        <time>2011-01-16T11:16:07Z</time>
      </trkpt>
      <trkpt lat="43.61481" lon="3.6836">
        <ele>120.2</ele>
        <time>2011-01-16T11:16:38Z</time>
      </trkpt>
      <trkpt lat="43.6148" lon="3.6837">
        <ele>119.9</ele>
        <time>2011-01-16T11:16:42Z</time>
      </trkpt>
      <trkpt lat="43.61481" lon="3.68382">
        <ele>119</ele>
        <time>2011-01-16T11:16:46Z</time>
      </trkpt>
      <trkpt lat="43.61483" lon="3.68391">
        <ele>118.5</ele>
        <time>2011-01-16T11:16:49Z</time>
      </trkpt>
      <trkpt lat="43.61485" lon="3.68401">
        <ele>118.2</ele>
        <time>2011-01-16T11:16:52Z</time>
      </trkpt>
      <trkpt lat="43.61493" lon="3.68407">
        <ele>118.2</ele>
        <time>2011-01-16T11:16:58Z</time>
      </trkpt>
      <trkpt lat="43.61499" lon="3.68411">
        <ele>118.9</ele>
        <time>2011-01-16T11:17:02Z</time>
      </trkpt>
      <trkpt lat="43.61506" lon="3.68415">
        <ele>119.2</ele>
        <time>2011-01-16T11:17:05Z</time>
      </trkpt>
      <trkpt lat="43.61513" lon="3.68415">
        <ele>119.5</ele>
        <time>2011-01-16T11:17:08Z</time>
      </trkpt>
      <trkpt lat="43.61516" lon="3.68415">
        <ele>119.6</ele>
        <time>2011-01-16T11:17:09Z</time>
      </trkpt>
      <trkpt lat="43.61526" lon="3.68409">
        <ele>120.9</ele>
        <time>2011-01-16T11:17:14Z</time>
      </trkpt>
      <trkpt lat="43.61534" lon="3.68404">
        <ele>122.2</ele>
        <time>2011-01-16T11:17:18Z</time>
      </trkpt>
      <trkpt lat="43.61542" lon="3.68399">
        <ele>122.5</ele>
        <time>2011-01-16T11:17:22Z</time>
      </trkpt>
      <trkpt lat="43.6155" lon="3.68397">
        <ele>123.5</ele>
        <time>2011-01-16T11:17:29Z</time>
      </trkpt>
      <trkpt lat="43.61558" lon="3.68395">
        <ele>123.7</ele>
        <time>2011-01-16T11:17:33Z</time>
      </trkpt>
      <trkpt lat="43.61566" lon="3.6839">
        <ele>123.7</ele>
        <time>2011-01-16T11:17:36Z</time>
      </trkpt>
      <trkpt lat="43.61571" lon="3.68384">
        <ele>123.8</ele>
        <time>2011-01-16T11:17:39Z</time>
      </trkpt>
      <trkpt lat="43.6158" lon="3.6838">
        <ele>123.5</ele>
        <time>2011-01-16T11:17:43Z</time>
      </trkpt>
      <trkpt lat="43.61588" lon="3.6838">
        <ele>123.6</ele>
        <time>2011-01-16T11:17:55Z</time>
      </trkpt>
      <trkpt lat="43.61596" lon="3.68375">
        <ele>122.6</ele>
        <time>2011-01-16T11:18:00Z</time>
      </trkpt>
      <trkpt lat="43.61603" lon="3.68372">
        <ele>122.4</ele>
        <time>2011-01-16T11:18:03Z</time>
      </trkpt>
      <trkpt lat="43.61611" lon="3.68369">
        <ele>121.2</ele>
        <time>2011-01-16T11:18:06Z</time>
      </trkpt>
      <trkpt lat="43.61618" lon="3.68365">
        <ele>119.8</ele>
        <time>2011-01-16T11:18:09Z</time>
      </trkpt>
      <trkpt lat="43.6162" lon="3.68363">
        <ele>119.5</ele>
        <time>2011-01-16T11:18:10Z</time>
      </trkpt>
      <trkpt lat="43.6163" lon="3.68356">
        <ele>119</ele>
        <time>2011-01-16T11:18:14Z</time>
      </trkpt>
      <trkpt lat="43.61637" lon="3.68349">
        <ele>119.3</ele>
        <time>2011-01-16T11:18:17Z</time>
      </trkpt>
      <trkpt lat="43.61644" lon="3.68345">
        <ele>119.1</ele>
        <time>2011-01-16T11:18:20Z</time>
      </trkpt>
      <trkpt lat="43.61652" lon="3.68344">
        <ele>118.7</ele>
        <time>2011-01-16T11:18:23Z</time>
      </trkpt>
      <trkpt lat="43.61661" lon="3.68344">
        <ele>119.3</ele>
        <time>2011-01-16T11:18:26Z</time>
      </trkpt>
      <trkpt lat="43.61669" lon="3.68343">
        <ele>119.8</ele>
        <time>2011-01-16T11:18:29Z</time>
      </trkpt>
      <trkpt lat="43.61677" lon="3.68343">
        <ele>119.5</ele>
        <time>2011-01-16T11:18:33Z</time>
      </trkpt>
      <trkpt lat="43.61683" lon="3.68336">
        <ele>119.4</ele>
        <time>2011-01-16T11:18:37Z</time>
      </trkpt>
      <trkpt lat="43.6169" lon="3.6833">
        <ele>118</ele>
        <time>2011-01-16T11:18:41Z</time>
      </trkpt>
      <trkpt lat="43.61697" lon="3.68329">
        <ele>117.6</ele>
        <time>2011-01-16T11:18:44Z</time>
      </trkpt>
      <trkpt lat="43.61705" lon="3.68328">
        <ele>117.7</ele>
        <time>2011-01-16T11:18:48Z</time>
      </trkpt>
      <trkpt lat="43.61712" lon="3.68326">
        <ele>118.3</ele>
        <time>2011-01-16T11:18:52Z</time>
      </trkpt>
      <trkpt lat="43.6172" lon="3.68321">
        <ele>119.1</ele>
        <time>2011-01-16T11:18:55Z</time>
      </trkpt>
      <trkpt lat="43.61728" lon="3.68315">
        <ele>118.6</ele>
        <time>2011-01-16T11:18:58Z</time>
      </trkpt>
      <trkpt lat="43.61736" lon="3.68313">
        <ele>119.5</ele>
        <time>2011-01-16T11:19:02Z</time>
      </trkpt>
      <trkpt lat="43.61745" lon="3.68315">
        <ele>120.7</ele>
        <time>2011-01-16T11:19:10Z</time>
      </trkpt>
      <trkpt lat="43.61745" lon="3.68315">
        <ele>120.7</ele>
        <time>2011-01-16T11:19:11Z</time>
      </trkpt>
      <trkpt lat="43.61737" lon="3.68334">
        <ele>119.3</ele>
        <time>2011-01-16T11:20:00Z</time>
      </trkpt>
      <trkpt lat="43.61733" lon="3.68345">
        <ele>119.8</ele>
        <time>2011-01-16T11:20:10Z</time>
      </trkpt>
      <trkpt lat="43.61725" lon="3.68349">
        <ele>120.1</ele>
        <time>2011-01-16T11:20:14Z</time>
      </trkpt>
      <trkpt lat="43.61723" lon="3.6835">
        <ele>120</ele>
        <time>2011-01-16T11:20:15Z</time>
      </trkpt>
      <trkpt lat="43.6171" lon="3.68359">
        <ele>120.6</ele>
        <time>2011-01-16T11:20:23Z</time>
      </trkpt>
      <trkpt lat="43.61706" lon="3.68368">
        <ele>119.5</ele>
        <time>2011-01-16T11:20:40Z</time>
      </trkpt>
      <trkpt lat="43.61709" lon="3.68377">
        <ele>120.1</ele>
        <time>2011-01-16T11:20:43Z</time>
      </trkpt>
      <trkpt lat="43.61713" lon="3.68386">
        <ele>119.7</ele>
        <time>2011-01-16T11:20:46Z</time>
      </trkpt>
      <trkpt lat="43.61718" lon="3.68394">
        <ele>120.4</ele>
        <time>2011-01-16T11:20:49Z</time>
      </trkpt>
      <trkpt lat="43.61721" lon="3.68404">
        <ele>120.8</ele>
        <time>2011-01-16T11:20:52Z</time>
      </trkpt>
      <trkpt lat="43.61725" lon="3.68413">
        <ele>120.6</ele>
        <time>2011-01-16T11:20:56Z</time>
      </trkpt>
      <trkpt lat="43.61732" lon="3.68421">
        <ele>121.4</ele>
        <time>2011-01-16T11:21:01Z</time>
      </trkpt>
      <trkpt lat="43.61738" lon="3.6843">
        <ele>122</ele>
        <time>2011-01-16T11:21:05Z</time>
      </trkpt>
      <trkpt lat="43.61742" lon="3.68441">
        <ele>123.7</ele>
        <time>2011-01-16T11:21:09Z</time>
      </trkpt>
      <trkpt lat="43.61747" lon="3.6845">
        <ele>124.6</ele>
        <time>2011-01-16T11:21:13Z</time>
      </trkpt>
      <trkpt lat="43.61748" lon="3.68461">
        <ele>125.2</ele>
        <time>2011-01-16T11:21:17Z</time>
      </trkpt>
      <trkpt lat="43.61748" lon="3.68464">
        <ele>125.3</ele>
        <time>2011-01-16T11:21:18Z</time>
      </trkpt>
      <trkpt lat="43.61746" lon="3.68483">
        <ele>125.7</ele>
        <time>2011-01-16T11:21:23Z</time>
      </trkpt>
      <trkpt lat="43.61746" lon="3.68495">
        <ele>125.8</ele>
        <time>2011-01-16T11:21:26Z</time>
      </trkpt>
      <trkpt lat="43.61747" lon="3.68505">
        <ele>125.7</ele>
        <time>2011-01-16T11:21:29Z</time>
      </trkpt>
      <trkpt lat="43.61749" lon="3.68514">
        <ele>126.3</ele>
        <time>2011-01-16T11:21:32Z</time>
      </trkpt>
      <trkpt lat="43.61751" lon="3.68524">
        <ele>127.4</ele>
        <time>2011-01-16T11:21:36Z</time>
      </trkpt>
      <trkpt lat="43.61749" lon="3.68535">
        <ele>128.2</ele>
        <time>2011-01-16T11:21:41Z</time>
      </trkpt>
      <trkpt lat="43.61747" lon="3.68547">
        <ele>129.4</ele>
        <time>2011-01-16T11:21:46Z</time>
      </trkpt>
      <trkpt lat="43.61746" lon="3.68559">
        <ele>130.1</ele>
        <time>2011-01-16T11:21:51Z</time>
      </trkpt>
      <trkpt lat="43.61745" lon="3.6857">
        <ele>130.5</ele>
        <time>2011-01-16T11:21:55Z</time>
      </trkpt>
      <trkpt lat="43.61744" lon="3.68579">
        <ele>130.3</ele>
        <time>2011-01-16T11:21:58Z</time>
      </trkpt>
      <trkpt lat="43.61742" lon="3.6859">
        <ele>130.6</ele>
        <time>2011-01-16T11:22:01Z</time>
      </trkpt>
      <trkpt lat="43.61742" lon="3.68602">
        <ele>130.7</ele>
        <time>2011-01-16T11:22:04Z</time>
      </trkpt>
      <trkpt lat="43.61742" lon="3.68611">
        <ele>130.7</ele>
        <time>2011-01-16T11:22:06Z</time>
      </trkpt>
      <trkpt lat="43.61743" lon="3.6862">
        <ele>131</ele>
        <time>2011-01-16T11:22:08Z</time>
      </trkpt>
      <trkpt lat="43.61744" lon="3.68628">
        <ele>131.5</ele>
        <time>2011-01-16T11:22:10Z</time>
      </trkpt>
      <trkpt lat="43.61746" lon="3.68639">
        <ele>131.9</ele>
        <time>2011-01-16T11:22:13Z</time>
      </trkpt>
      <trkpt lat="43.61747" lon="3.6865">
        <ele>132.9</ele>
        <time>2011-01-16T11:22:16Z</time>
      </trkpt>
      <trkpt lat="43.61749" lon="3.68661">
        <ele>132</ele>
        <time>2011-01-16T11:22:19Z</time>
      </trkpt>
      <trkpt lat="43.6175" lon="3.68664">
        <ele>132.1</ele>
        <time>2011-01-16T11:22:20Z</time>
      </trkpt>
      <trkpt lat="43.61755" lon="3.68681">
        <ele>132.8</ele>
        <time>2011-01-16T11:22:26Z</time>
      </trkpt>
      <trkpt lat="43.61759" lon="3.68692">
        <ele>132.9</ele>
        <time>2011-01-16T11:22:30Z</time>
      </trkpt>
      <trkpt lat="43.61762" lon="3.68703">
        <ele>133.8</ele>
        <time>2011-01-16T11:22:34Z</time>
      </trkpt>
      <trkpt lat="43.61765" lon="3.68714">
        <ele>135.2</ele>
        <time>2011-01-16T11:22:38Z</time>
      </trkpt>
      <trkpt lat="43.61768" lon="3.68724">
        <ele>135.4</ele>
        <time>2011-01-16T11:22:42Z</time>
      </trkpt>
      <trkpt lat="43.61772" lon="3.68733">
        <ele>135.7</ele>
        <time>2011-01-16T11:22:46Z</time>
      </trkpt>
      <trkpt lat="43.61777" lon="3.68742">
        <ele>136.5</ele>
        <time>2011-01-16T11:22:51Z</time>
      </trkpt>
      <trkpt lat="43.61781" lon="3.68752">
        <ele>139</ele>
        <time>2011-01-16T11:22:57Z</time>
      </trkpt>
      <trkpt lat="43.61784" lon="3.68764">
        <ele>139.4</ele>
        <time>2011-01-16T11:23:03Z</time>
      </trkpt>
      <trkpt lat="43.61787" lon="3.68775">
        <ele>140.6</ele>
        <time>2011-01-16T11:23:22Z</time>
      </trkpt>
      <trkpt lat="43.61787" lon="3.68776">
        <ele>140.6</ele>
        <time>2011-01-16T11:23:23Z</time>
      </trkpt>
      <trkpt lat="43.61793" lon="3.68794">
        <ele>141.8</ele>
        <time>2011-01-16T11:23:31Z</time>
      </trkpt>
      <trkpt lat="43.61796" lon="3.68805">
        <ele>142.2</ele>
        <time>2011-01-16T11:23:35Z</time>
      </trkpt>
      <trkpt lat="43.61801" lon="3.68815">
        <ele>143.2</ele>
        <time>2011-01-16T11:23:40Z</time>
      </trkpt>
      <trkpt lat="43.61807" lon="3.68822">
        <ele>145.1</ele>
        <time>2011-01-16T11:23:48Z</time>
      </trkpt>
      <trkpt lat="43.61812" lon="3.68831">
        <ele>147.2</ele>
        <time>2011-01-16T11:23:56Z</time>
      </trkpt>
      <trkpt lat="43.61809" lon="3.68842">
        <ele>148.3</ele>
        <time>2011-01-16T11:24:12Z</time>
      </trkpt>
      <trkpt lat="43.61807" lon="3.68854">
        <ele>148.6</ele>
        <time>2011-01-16T11:24:18Z</time>
      </trkpt>
      <trkpt lat="43.61807" lon="3.68865">
        <ele>149.4</ele>
        <time>2011-01-16T11:24:23Z</time>
      </trkpt>
      <trkpt lat="43.61808" lon="3.68867">
        <ele>149.4</ele>
        <time>2011-01-16T11:24:24Z</time>
      </trkpt>
      <trkpt lat="43.61808" lon="3.68886">
        <ele>153.3</ele>
        <time>2011-01-16T11:24:36Z</time>
      </trkpt>
      <trkpt lat="43.61811" lon="3.68897">
        <ele>155.8</ele>
        <time>2011-01-16T11:24:47Z</time>
      </trkpt>
      <trkpt lat="43.61814" lon="3.68908">
        <ele>156.9</ele>
        <time>2011-01-16T11:24:56Z</time>
      </trkpt>
      <trkpt lat="43.61816" lon="3.6892">
        <ele>157.8</ele>
        <time>2011-01-16T11:25:04Z</time>
      </trkpt>
      <trkpt lat="43.61817" lon="3.68931">
        <ele>158.3</ele>
        <time>2011-01-16T11:25:11Z</time>
      </trkpt>
      <trkpt lat="43.61816" lon="3.68941">
        <ele>159.5</ele>
        <time>2011-01-16T11:25:21Z</time>
      </trkpt>
      <trkpt lat="43.61814" lon="3.68951">
        <ele>160.5</ele>
        <time>2011-01-16T11:25:25Z</time>
      </trkpt>
      <trkpt lat="43.61814" lon="3.68954">
        <ele>160.6</ele>
        <time>2011-01-16T11:25:26Z</time>
      </trkpt>
      <trkpt lat="43.61812" lon="3.68973">
        <ele>160.8</ele>
        <time>2011-01-16T11:25:32Z</time>
      </trkpt>
      <trkpt lat="43.6181" lon="3.68983">
        <ele>160.9</ele>
        <time>2011-01-16T11:25:35Z</time>
      </trkpt>
      <trkpt lat="43.61808" lon="3.68993">
        <ele>161.4</ele>
        <time>2011-01-16T11:25:38Z</time>
      </trkpt>
      <trkpt lat="43.61805" lon="3.69003">
        <ele>161.8</ele>
        <time>2011-01-16T11:25:41Z</time>
      </trkpt>
      <trkpt lat="43.61803" lon="3.69013">
        <ele>162.4</ele>
        <time>2011-01-16T11:25:44Z</time>
      </trkpt>
      <trkpt lat="43.61801" lon="3.69022">
        <ele>162.4</ele>
        <time>2011-01-16T11:25:47Z</time>
      </trkpt>
      <trkpt lat="43.61801" lon="3.69032">
        <ele>162.8</ele>
        <time>2011-01-16T11:25:50Z</time>
      </trkpt>
      <trkpt lat="43.61802" lon="3.69042">
        <ele>162.9</ele>
        <time>2011-01-16T11:25:53Z</time>
      </trkpt>
      <trkpt lat="43.61802" lon="3.69053">
        <ele>163.1</ele>
        <time>2011-01-16T11:25:56Z</time>
      </trkpt>
      <trkpt lat="43.618" lon="3.69064">
        <ele>164.4</ele>
        <time>2011-01-16T11:25:59Z</time>
      </trkpt>
      <trkpt lat="43.61797" lon="3.69075">
        <ele>164.4</ele>
        <time>2011-01-16T11:26:02Z</time>
      </trkpt>
      <trkpt lat="43.61794" lon="3.69085">
        <ele>163.4</ele>
        <time>2011-01-16T11:26:05Z</time>
      </trkpt>
      <trkpt lat="43.61793" lon="3.69096">
        <ele>163.2</ele>
        <time>2011-01-16T11:26:08Z</time>
      </trkpt>
      <trkpt lat="43.61792" lon="3.69108">
        <ele>163.2</ele>
        <time>2011-01-16T11:26:11Z</time>
      </trkpt>
      <trkpt lat="43.6179" lon="3.69119">
        <ele>164.5</ele>
        <time>2011-01-16T11:26:14Z</time>
      </trkpt>
      <trkpt lat="43.61788" lon="3.69129">
        <ele>165.2</ele>
        <time>2011-01-16T11:26:17Z</time>
      </trkpt>
      <trkpt lat="43.61788" lon="3.69139">
        <ele>166.2</ele>
        <time>2011-01-16T11:26:20Z</time>
      </trkpt>
      <trkpt lat="43.61791" lon="3.69151">
        <ele>166</ele>
        <time>2011-01-16T11:26:24Z</time>
      </trkpt>
      <trkpt lat="43.61796" lon="3.69161">
        <ele>165.9</ele>
        <time>2011-01-16T11:26:29Z</time>
      </trkpt>
      <trkpt lat="43.61797" lon="3.69162">
        <ele>166</ele>
        <time>2011-01-16T11:26:30Z</time>
      </trkpt>
      <trkpt lat="43.61804" lon="3.69178">
        <ele>166.3</ele>
        <time>2011-01-16T11:26:37Z</time>
      </trkpt>
      <trkpt lat="43.61807" lon="3.69188">
        <ele>167.2</ele>
        <time>2011-01-16T11:26:41Z</time>
      </trkpt>
      <trkpt lat="43.6181" lon="3.69197">
        <ele>168.2</ele>
        <time>2011-01-16T11:26:45Z</time>
      </trkpt>
      <trkpt lat="43.61814" lon="3.69206">
        <ele>169.1</ele>
        <time>2011-01-16T11:26:49Z</time>
      </trkpt>
      <trkpt lat="43.61819" lon="3.69215">
        <ele>169.4</ele>
        <time>2011-01-16T11:26:53Z</time>
      </trkpt>
      <trkpt lat="43.61823" lon="3.69226">
        <ele>170.5</ele>
        <time>2011-01-16T11:26:58Z</time>
      </trkpt>
      <trkpt lat="43.61827" lon="3.69236">
        <ele>170.8</ele>
        <time>2011-01-16T11:27:03Z</time>
      </trkpt>
      <trkpt lat="43.61831" lon="3.69247">
        <ele>171.3</ele>
        <time>2011-01-16T11:27:09Z</time>
      </trkpt>
      <trkpt lat="43.6183" lon="3.69258">
        <ele>173.2</ele>
        <time>2011-01-16T11:27:14Z</time>
      </trkpt>
      <trkpt lat="43.61831" lon="3.69269">
        <ele>173.7</ele>
        <time>2011-01-16T11:27:20Z</time>
      </trkpt>
      <trkpt lat="43.61833" lon="3.6928">
        <ele>174.7</ele>
        <time>2011-01-16T11:27:25Z</time>
      </trkpt>
      <trkpt lat="43.61836" lon="3.69288">
        <ele>175.2</ele>
        <time>2011-01-16T11:27:29Z</time>
      </trkpt>
      <trkpt lat="43.6184" lon="3.69299">
        <ele>176.7</ele>
        <time>2011-01-16T11:27:34Z</time>
      </trkpt>
      <trkpt lat="43.6184" lon="3.69301">
        <ele>177.1</ele>
        <time>2011-01-16T11:27:35Z</time>
      </trkpt>
      <trkpt lat="43.61846" lon="3.69321">
        <ele>176.5</ele>
        <time>2011-01-16T11:27:46Z</time>
      </trkpt>
      <trkpt lat="43.61849" lon="3.69333">
        <ele>177.6</ele>
        <time>2011-01-16T11:27:52Z</time>
      </trkpt>
      <trkpt lat="43.61852" lon="3.69343">
        <ele>178.2</ele>
        <time>2011-01-16T11:27:57Z</time>
      </trkpt>
      <trkpt lat="43.61853" lon="3.69354">
        <ele>178.9</ele>
        <time>2011-01-16T11:28:02Z</time>
      </trkpt>
      <trkpt lat="43.61856" lon="3.69365">
        <ele>178.8</ele>
        <time>2011-01-16T11:28:07Z</time>
      </trkpt>
      <trkpt lat="43.61861" lon="3.69373">
        <ele>179.8</ele>
        <time>2011-01-16T11:28:11Z</time>
      </trkpt>
      <trkpt lat="43.61867" lon="3.69382">
        <ele>180.7</ele>
        <time>2011-01-16T11:28:15Z</time>
      </trkpt>
      <trkpt lat="43.61871" lon="3.69392">
        <ele>181</ele>
        <time>2011-01-16T11:28:19Z</time>
      </trkpt>
      <trkpt lat="43.61873" lon="3.69403">
        <ele>181.1</ele>
        <time>2011-01-16T11:28:23Z</time>
      </trkpt>
      <trkpt lat="43.61872" lon="3.69415">
        <ele>181.3</ele>
        <time>2011-01-16T11:28:28Z</time>
      </trkpt>
      <trkpt lat="43.61866" lon="3.69424">
        <ele>182.3</ele>
        <time>2011-01-16T11:28:32Z</time>
      </trkpt>
      <trkpt lat="43.61861" lon="3.69433">
        <ele>182.2</ele>
        <time>2011-01-16T11:28:36Z</time>
      </trkpt>
      <trkpt lat="43.6186" lon="3.69436">
        <ele>182.5</ele>
        <time>2011-01-16T11:28:37Z</time>
      </trkpt>
      <trkpt lat="43.61856" lon="3.69453">
        <ele>183.2</ele>
        <time>2011-01-16T11:28:42Z</time>
      </trkpt>
      <trkpt lat="43.61851" lon="3.69458">
        <ele>182.7</ele>
        <time>2011-01-16T11:28:44Z</time>
      </trkpt>
      <trkpt lat="43.61845" lon="3.69461">
        <ele>182.5</ele>
        <time>2011-01-16T11:28:46Z</time>
      </trkpt>
      <trkpt lat="43.61839" lon="3.69464">
        <ele>182.1</ele>
        <time>2011-01-16T11:28:48Z</time>
      </trkpt>
      <trkpt lat="43.61831" lon="3.69468">
        <ele>181.8</ele>
        <time>2011-01-16T11:28:51Z</time>
      </trkpt>
      <trkpt lat="43.61823" lon="3.69472">
        <ele>182.3</ele>
        <time>2011-01-16T11:28:54Z</time>
      </trkpt>
      <trkpt lat="43.61815" lon="3.69475">
        <ele>182.9</ele>
        <time>2011-01-16T11:28:57Z</time>
      </trkpt>
      <trkpt lat="43.61807" lon="3.69479">
        <ele>183.5</ele>
        <time>2011-01-16T11:29:00Z</time>
      </trkpt>
      <trkpt lat="43.61799" lon="3.69484">
        <ele>183.8</ele>
        <time>2011-01-16T11:29:03Z</time>
      </trkpt>
      <trkpt lat="43.61792" lon="3.69488">
        <ele>184.1</ele>
        <time>2011-01-16T11:29:06Z</time>
      </trkpt>
      <trkpt lat="43.61786" lon="3.69492">
        <ele>184.7</ele>
        <time>2011-01-16T11:29:09Z</time>
      </trkpt>
      <trkpt lat="43.61779" lon="3.69495">
        <ele>185.1</ele>
        <time>2011-01-16T11:29:12Z</time>
      </trkpt>
      <trkpt lat="43.61771" lon="3.69499">
        <ele>185.3</ele>
        <time>2011-01-16T11:29:16Z</time>
      </trkpt>
      <trkpt lat="43.61763" lon="3.69502">
        <ele>186.4</ele>
        <time>2011-01-16T11:29:20Z</time>
      </trkpt>
      <trkpt lat="43.61755" lon="3.69504">
        <ele>186.8</ele>
        <time>2011-01-16T11:29:24Z</time>
      </trkpt>
      <trkpt lat="43.61748" lon="3.69506">
        <ele>187.3</ele>
        <time>2011-01-16T11:29:28Z</time>
      </trkpt>
      <trkpt lat="43.6174" lon="3.69508">
        <ele>187.5</ele>
        <time>2011-01-16T11:29:32Z</time>
      </trkpt>
      <trkpt lat="43.61732" lon="3.6951">
        <ele>188</ele>
        <time>2011-01-16T11:29:36Z</time>
      </trkpt>
      <trkpt lat="43.61725" lon="3.69512">
        <ele>188</ele>
        <time>2011-01-16T11:29:39Z</time>
      </trkpt>
      <trkpt lat="43.61723" lon="3.69513">
        <ele>188</ele>
        <time>2011-01-16T11:29:40Z</time>
      </trkpt>
      <trkpt lat="43.6171" lon="3.69516">
        <ele>188.2</ele>
        <time>2011-01-16T11:29:45Z</time>
      </trkpt>
      <trkpt lat="43.61704" lon="3.69519">
        <ele>188.6</ele>
        <time>2011-01-16T11:29:47Z</time>
      </trkpt>
      <trkpt lat="43.61698" lon="3.69521">
        <ele>188.9</ele>
        <time>2011-01-16T11:29:49Z</time>
      </trkpt>
      <trkpt lat="43.61692" lon="3.69525">
        <ele>188.7</ele>
        <time>2011-01-16T11:29:51Z</time>
      </trkpt>
      <trkpt lat="43.61685" lon="3.69527">
        <ele>188.7</ele>
        <time>2011-01-16T11:29:53Z</time>
      </trkpt>
      <trkpt lat="43.61677" lon="3.6953">
        <ele>189.3</ele>
        <time>2011-01-16T11:29:56Z</time>
      </trkpt>
      <trkpt lat="43.61668" lon="3.69532">
        <ele>190</ele>
        <time>2011-01-16T11:29:59Z</time>
      </trkpt>
      <trkpt lat="43.6166" lon="3.69534">
        <ele>190.1</ele>
        <time>2011-01-16T11:30:02Z</time>
      </trkpt>
      <trkpt lat="43.61653" lon="3.69538">
        <ele>190.1</ele>
        <time>2011-01-16T11:30:05Z</time>
      </trkpt>
      <trkpt lat="43.61646" lon="3.69539">
        <ele>191.8</ele>
        <time>2011-01-16T11:30:08Z</time>
      </trkpt>
      <trkpt lat="43.61638" lon="3.69544">
        <ele>192.4</ele>
        <time>2011-01-16T11:30:12Z</time>
      </trkpt>
      <trkpt lat="43.61634" lon="3.69554">
        <ele>192.6</ele>
        <time>2011-01-16T11:30:16Z</time>
      </trkpt>
      <trkpt lat="43.61633" lon="3.69564">
        <ele>192.5</ele>
        <time>2011-01-16T11:30:19Z</time>
      </trkpt>
      <trkpt lat="43.61631" lon="3.69573">
        <ele>192.6</ele>
        <time>2011-01-16T11:30:22Z</time>
      </trkpt>
      <trkpt lat="43.61628" lon="3.69583">
        <ele>193.4</ele>
        <time>2011-01-16T11:30:25Z</time>
      </trkpt>
      <trkpt lat="43.61626" lon="3.69594">
        <ele>193.6</ele>
        <time>2011-01-16T11:30:28Z</time>
      </trkpt>
      <trkpt lat="43.61625" lon="3.69605">
        <ele>193.8</ele>
        <time>2011-01-16T11:30:31Z</time>
      </trkpt>
      <trkpt lat="43.61626" lon="3.69617">
        <ele>193.2</ele>
        <time>2011-01-16T11:30:34Z</time>
      </trkpt>
      <trkpt lat="43.61629" lon="3.69625">
        <ele>193.2</ele>
        <time>2011-01-16T11:30:36Z</time>
      </trkpt>
      <trkpt lat="43.61631" lon="3.69635">
        <ele>192.9</ele>
        <time>2011-01-16T11:30:38Z</time>
      </trkpt>
      <trkpt lat="43.61632" lon="3.69645">
        <ele>192.5</ele>
        <time>2011-01-16T11:30:40Z</time>
      </trkpt>
      <trkpt lat="43.61632" lon="3.6965">
        <ele>192.4</ele>
        <time>2011-01-16T11:30:41Z</time>
      </trkpt>
      <trkpt lat="43.61635" lon="3.69663">
        <ele>192.5</ele>
        <time>2011-01-16T11:30:44Z</time>
      </trkpt>
      <trkpt lat="43.61638" lon="3.69672">
        <ele>192.4</ele>
        <time>2011-01-16T11:30:46Z</time>
      </trkpt>
      <trkpt lat="43.6164" lon="3.69681">
        <ele>192.2</ele>
        <time>2011-01-16T11:30:48Z</time>
      </trkpt>
      <trkpt lat="43.61643" lon="3.6969">
        <ele>191.8</ele>
        <time>2011-01-16T11:30:50Z</time>
      </trkpt>
      <trkpt lat="43.61646" lon="3.69698">
        <ele>192</ele>
        <time>2011-01-16T11:30:52Z</time>
      </trkpt>
      <trkpt lat="43.61649" lon="3.69706">
        <ele>192.1</ele>
        <time>2011-01-16T11:30:54Z</time>
      </trkpt>
      <trkpt lat="43.61652" lon="3.69714">
        <ele>192.1</ele>
        <time>2011-01-16T11:30:56Z</time>
      </trkpt>
      <trkpt lat="43.61656" lon="3.69721">
        <ele>192.4</ele>
        <time>2011-01-16T11:30:58Z</time>
      </trkpt>
      <trkpt lat="43.61659" lon="3.69728">
        <ele>192.8</ele>
        <time>2011-01-16T11:31:00Z</time>
      </trkpt>
      <trkpt lat="43.61663" lon="3.69735">
        <ele>193.4</ele>
        <time>2011-01-16T11:31:02Z</time>
      </trkpt>
      <trkpt lat="43.61667" lon="3.69742">
        <ele>193.9</ele>
        <time>2011-01-16T11:31:04Z</time>
      </trkpt>
      <trkpt lat="43.6167" lon="3.69749">
        <ele>194.2</ele>
        <time>2011-01-16T11:31:06Z</time>
      </trkpt>
      <trkpt lat="43.61674" lon="3.69756">
        <ele>194.3</ele>
        <time>2011-01-16T11:31:08Z</time>
      </trkpt>
      <trkpt lat="43.61677" lon="3.69764">
        <ele>194</ele>
        <time>2011-01-16T11:31:10Z</time>
      </trkpt>
      <trkpt lat="43.6168" lon="3.69772">
        <ele>193.6</ele>
        <time>2011-01-16T11:31:12Z</time>
      </trkpt>
      <trkpt lat="43.61683" lon="3.69781">
        <ele>193.9</ele>
        <time>2011-01-16T11:31:14Z</time>
      </trkpt>
      <trkpt lat="43.61687" lon="3.69789">
        <ele>194.1</ele>
        <time>2011-01-16T11:31:16Z</time>
      </trkpt>
      <trkpt lat="43.6169" lon="3.69798">
        <ele>194</ele>
        <time>2011-01-16T11:31:18Z</time>
      </trkpt>
      <trkpt lat="43.61693" lon="3.69807">
        <ele>194</ele>
        <time>2011-01-16T11:31:20Z</time>
      </trkpt>
      <trkpt lat="43.61696" lon="3.69817">
        <ele>194</ele>
        <time>2011-01-16T11:31:22Z</time>
      </trkpt>
      <trkpt lat="43.61699" lon="3.69826">
        <ele>193.8</ele>
        <time>2011-01-16T11:31:24Z</time>
      </trkpt>
      <trkpt lat="43.61701" lon="3.69836">
        <ele>193.8</ele>
        <time>2011-01-16T11:31:26Z</time>
      </trkpt>
      <trkpt lat="43.61703" lon="3.69845">
        <ele>193.8</ele>
        <time>2011-01-16T11:31:28Z</time>
      </trkpt>
      <trkpt lat="43.61704" lon="3.69854">
        <ele>193.7</ele>
        <time>2011-01-16T11:31:30Z</time>
      </trkpt>
      <trkpt lat="43.61707" lon="3.69863">
        <ele>193.6</ele>
        <time>2011-01-16T11:31:32Z</time>
      </trkpt>
      <trkpt lat="43.61711" lon="3.69871">
        <ele>193.4</ele>
        <time>2011-01-16T11:31:34Z</time>
      </trkpt>
      <trkpt lat="43.61715" lon="3.69879">
        <ele>193.7</ele>
        <time>2011-01-16T11:31:36Z</time>
      </trkpt>
      <trkpt lat="43.61719" lon="3.69886">
        <ele>194.2</ele>
        <time>2011-01-16T11:31:38Z</time>
      </trkpt>
      <trkpt lat="43.61723" lon="3.69894">
        <ele>194.2</ele>
        <time>2011-01-16T11:31:40Z</time>
      </trkpt>
      <trkpt lat="43.61725" lon="3.69905">
        <ele>194.6</ele>
        <time>2011-01-16T11:31:43Z</time>
      </trkpt>
      <trkpt lat="43.61723" lon="3.69907">
        <ele>194.7</ele>
        <time>2011-01-16T11:31:44Z</time>
      </trkpt>
      <trkpt lat="43.61711" lon="3.69918">
        <ele>195.3</ele>
        <time>2011-01-16T11:31:51Z</time>
      </trkpt>
      <trkpt lat="43.61704" lon="3.69924">
        <ele>195.8</ele>
        <time>2011-01-16T11:31:55Z</time>
      </trkpt>
      <trkpt lat="43.61697" lon="3.69929">
        <ele>195.6</ele>
        <time>2011-01-16T11:34:04Z</time>
      </trkpt>
      <trkpt lat="43.61694" lon="3.6993">
        <ele>195.4</ele>
        <time>2011-01-16T11:34:05Z</time>
      </trkpt>
      <trkpt lat="43.61681" lon="3.69933">
        <ele>195.4</ele>
        <time>2011-01-16T11:34:10Z</time>
      </trkpt>
      <trkpt lat="43.61676" lon="3.69937">
        <ele>195.5</ele>
        <time>2011-01-16T11:34:12Z</time>
      </trkpt>
      <trkpt lat="43.61671" lon="3.69945">
        <ele>195.6</ele>
        <time>2011-01-16T11:34:14Z</time>
      </trkpt>
      <trkpt lat="43.61669" lon="3.69955">
        <ele>195.3</ele>
        <time>2011-01-16T11:34:16Z</time>
      </trkpt>
      <trkpt lat="43.61671" lon="3.69963">
        <ele>195.1</ele>
        <time>2011-01-16T11:34:18Z</time>
      </trkpt>
      <trkpt lat="43.61674" lon="3.69972">
        <ele>194.5</ele>
        <time>2011-01-16T11:34:20Z</time>
      </trkpt>
      <trkpt lat="43.61675" lon="3.69982">
        <ele>194.1</ele>
        <time>2011-01-16T11:34:22Z</time>
      </trkpt>
      <trkpt lat="43.61676" lon="3.69993">
        <ele>193.9</ele>
        <time>2011-01-16T11:34:24Z</time>
      </trkpt>
      <trkpt lat="43.61675" lon="3.69999">
        <ele>193.8</ele>
        <time>2011-01-16T11:34:25Z</time>
      </trkpt>
      <trkpt lat="43.61674" lon="3.70005">
        <ele>193.6</ele>
        <time>2011-01-16T11:34:26Z</time>
      </trkpt>
      <trkpt lat="43.61673" lon="3.70012">
        <ele>193.6</ele>
        <time>2011-01-16T11:34:27Z</time>
      </trkpt>
      <trkpt lat="43.61672" lon="3.70019">
        <ele>193.4</ele>
        <time>2011-01-16T11:34:28Z</time>
      </trkpt>
      <trkpt lat="43.61671" lon="3.70025">
        <ele>193.4</ele>
        <time>2011-01-16T11:34:29Z</time>
      </trkpt>
      <trkpt lat="43.61671" lon="3.70032">
        <ele>193.3</ele>
        <time>2011-01-16T11:34:30Z</time>
      </trkpt>
      <trkpt lat="43.6167" lon="3.70039">
        <ele>193</ele>
        <time>2011-01-16T11:34:31Z</time>
      </trkpt>
      <trkpt lat="43.61669" lon="3.70046">
        <ele>192.8</ele>
        <time>2011-01-16T11:34:32Z</time>
      </trkpt>
      <trkpt lat="43.61667" lon="3.70054">
        <ele>192.7</ele>
        <time>2011-01-16T11:34:33Z</time>
      </trkpt>
      <trkpt lat="43.61666" lon="3.70061">
        <ele>192.6</ele>
        <time>2011-01-16T11:34:34Z</time>
      </trkpt>
      <trkpt lat="43.61666" lon="3.70069">
        <ele>192.4</ele>
        <time>2011-01-16T11:34:35Z</time>
      </trkpt>
      <trkpt lat="43.61665" lon="3.70076">
        <ele>192.3</ele>
        <time>2011-01-16T11:34:36Z</time>
      </trkpt>
      <trkpt lat="43.61664" lon="3.70084">
        <ele>192.2</ele>
        <time>2011-01-16T11:34:37Z</time>
      </trkpt>
      <trkpt lat="43.61663" lon="3.70091">
        <ele>192.2</ele>
        <time>2011-01-16T11:34:38Z</time>
      </trkpt>
      <trkpt lat="43.61662" lon="3.70099">
        <ele>192.2</ele>
        <time>2011-01-16T11:34:39Z</time>
      </trkpt>
      <trkpt lat="43.61661" lon="3.70107">
        <ele>192.1</ele>
        <time>2011-01-16T11:34:40Z</time>
      </trkpt>
      <trkpt lat="43.6166" lon="3.70115">
        <ele>191.8</ele>
        <time>2011-01-16T11:34:41Z</time>
      </trkpt>
      <trkpt lat="43.61659" lon="3.70123">
        <ele>191.5</ele>
        <time>2011-01-16T11:34:42Z</time>
      </trkpt>
      <trkpt lat="43.61658" lon="3.7013">
        <ele>191.3</ele>
        <time>2011-01-16T11:34:43Z</time>
      </trkpt>
      <trkpt lat="43.61657" lon="3.70138">
        <ele>190.8</ele>
        <time>2011-01-16T11:34:44Z</time>
      </trkpt>
      <trkpt lat="43.61657" lon="3.70146">
        <ele>190.5</ele>
        <time>2011-01-16T11:34:45Z</time>
      </trkpt>
      <trkpt lat="43.61656" lon="3.70153">
        <ele>190.2</ele>
        <time>2011-01-16T11:34:46Z</time>
      </trkpt>
      <trkpt lat="43.61655" lon="3.70161">
        <ele>190.3</ele>
        <time>2011-01-16T11:34:47Z</time>
      </trkpt>
      <trkpt lat="43.61654" lon="3.70168">
        <ele>190.3</ele>
        <time>2011-01-16T11:34:48Z</time>
      </trkpt>
      <trkpt lat="43.61653" lon="3.70175">
        <ele>190.4</ele>
        <time>2011-01-16T11:34:49Z</time>
      </trkpt>
      <trkpt lat="43.61652" lon="3.70182">
        <ele>190.7</ele>
        <time>2011-01-16T11:34:50Z</time>
      </trkpt>
      <trkpt lat="43.61652" lon="3.70189">
        <ele>190.9</ele>
        <time>2011-01-16T11:34:51Z</time>
      </trkpt>
      <trkpt lat="43.61651" lon="3.70196">
        <ele>191.1</ele>
        <time>2011-01-16T11:34:52Z</time>
      </trkpt>
      <trkpt lat="43.6165" lon="3.70203">
        <ele>191.2</ele>
        <time>2011-01-16T11:34:53Z</time>
      </trkpt>
      <trkpt lat="43.61649" lon="3.7021">
        <ele>191.4</ele>
        <time>2011-01-16T11:34:54Z</time>
      </trkpt>
      <trkpt lat="43.61648" lon="3.70217">
        <ele>191.6</ele>
        <time>2011-01-16T11:34:55Z</time>
      </trkpt>
      <trkpt lat="43.61647" lon="3.70223">
        <ele>191.7</ele>
        <time>2011-01-16T11:34:56Z</time>
      </trkpt>
      <trkpt lat="43.61646" lon="3.7023">
        <ele>191.8</ele>
        <time>2011-01-16T11:34:57Z</time>
      </trkpt>
      <trkpt lat="43.61646" lon="3.70238">
        <ele>191.9</ele>
        <time>2011-01-16T11:34:58Z</time>
      </trkpt>
      <trkpt lat="43.61645" lon="3.70245">
        <ele>191.9</ele>
        <time>2011-01-16T11:34:59Z</time>
      </trkpt>
      <trkpt lat="43.61644" lon="3.70252">
        <ele>191.8</ele>
        <time>2011-01-16T11:35:00Z</time>
      </trkpt>
      <trkpt lat="43.61643" lon="3.7026">
        <ele>191.7</ele>
        <time>2011-01-16T11:35:01Z</time>
      </trkpt>
      <trkpt lat="43.61642" lon="3.70268">
        <ele>191.6</ele>
        <time>2011-01-16T11:35:02Z</time>
      </trkpt>
      <trkpt lat="43.61642" lon="3.70275">
        <ele>191.4</ele>
        <time>2011-01-16T11:35:03Z</time>
      </trkpt>
      <trkpt lat="43.61641" lon="3.70282">
        <ele>191.2</ele>
        <time>2011-01-16T11:35:04Z</time>
      </trkpt>
      <trkpt lat="43.6164" lon="3.70289">
        <ele>191.1</ele>
        <time>2011-01-16T11:35:05Z</time>
      </trkpt>
      <trkpt lat="43.61639" lon="3.70295">
        <ele>191.1</ele>
        <time>2011-01-16T11:35:06Z</time>
      </trkpt>
      <trkpt lat="43.61638" lon="3.70302">
        <ele>191.1</ele>
        <time>2011-01-16T11:35:07Z</time>
      </trkpt>
      <trkpt lat="43.61637" lon="3.70308">
        <ele>191.1</ele>
        <time>2011-01-16T11:35:08Z</time>
      </trkpt>
      <trkpt lat="43.61636" lon="3.70315">
        <ele>191.1</ele>
        <time>2011-01-16T11:35:09Z</time>
      </trkpt>
      <trkpt lat="43.61636" lon="3.70321">
        <ele>191.6</ele>
        <time>2011-01-16T11:35:10Z</time>
      </trkpt>
      <trkpt lat="43.61634" lon="3.70333">
        <ele>192.3</ele>
        <time>2011-01-16T11:35:12Z</time>
      </trkpt>
      <trkpt lat="43.61632" lon="3.70345">
        <ele>192</ele>
        <time>2011-01-16T11:35:14Z</time>
      </trkpt>
      <trkpt lat="43.61631" lon="3.70357">
        <ele>192</ele>
        <time>2011-01-16T11:35:16Z</time>
      </trkpt>
      <trkpt lat="43.6163" lon="3.70369">
        <ele>192.2</ele>
        <time>2011-01-16T11:35:18Z</time>
      </trkpt>
      <trkpt lat="43.61629" lon="3.7038">
        <ele>193.7</ele>
        <time>2011-01-16T11:35:20Z</time>
      </trkpt>
      <trkpt lat="43.61627" lon="3.70391">
        <ele>194.8</ele>
        <time>2011-01-16T11:35:22Z</time>
      </trkpt>
      <trkpt lat="43.61626" lon="3.70401">
        <ele>195.7</ele>
        <time>2011-01-16T11:35:24Z</time>
      </trkpt>
      <trkpt lat="43.61625" lon="3.70412">
        <ele>195.9</ele>
        <time>2011-01-16T11:35:26Z</time>
      </trkpt>
      <trkpt lat="43.61623" lon="3.70422">
        <ele>195.7</ele>
        <time>2011-01-16T11:35:28Z</time>
      </trkpt>
      <trkpt lat="43.61622" lon="3.70432">
        <ele>194.9</ele>
        <time>2011-01-16T11:35:30Z</time>
      </trkpt>
      <trkpt lat="43.61621" lon="3.70442">
        <ele>194.9</ele>
        <time>2011-01-16T11:35:32Z</time>
      </trkpt>
      <trkpt lat="43.6162" lon="3.70451">
        <ele>195.4</ele>
        <time>2011-01-16T11:35:34Z</time>
      </trkpt>
      <trkpt lat="43.61619" lon="3.7046">
        <ele>196.2</ele>
        <time>2011-01-16T11:35:36Z</time>
      </trkpt>
      <trkpt lat="43.61618" lon="3.70469">
        <ele>196.6</ele>
        <time>2011-01-16T11:35:38Z</time>
      </trkpt>
      <trkpt lat="43.61617" lon="3.70478">
        <ele>196.8</ele>
        <time>2011-01-16T11:35:40Z</time>
      </trkpt>
      <trkpt lat="43.61615" lon="3.70487">
        <ele>196.7</ele>
        <time>2011-01-16T11:35:42Z</time>
      </trkpt>
      <trkpt lat="43.61614" lon="3.70496">
        <ele>196.6</ele>
        <time>2011-01-16T11:35:44Z</time>
      </trkpt>
      <trkpt lat="43.61613" lon="3.70505">
        <ele>197.1</ele>
        <time>2011-01-16T11:35:46Z</time>
      </trkpt>
      <trkpt lat="43.61612" lon="3.70514">
        <ele>197.3</ele>
        <time>2011-01-16T11:35:48Z</time>
      </trkpt>
      <trkpt lat="43.61611" lon="3.70523">
        <ele>197.4</ele>
        <time>2011-01-16T11:35:50Z</time>
      </trkpt>
      <trkpt lat="43.6161" lon="3.70532">
        <ele>198.3</ele>
        <time>2011-01-16T11:35:52Z</time>
      </trkpt>
      <trkpt lat="43.61608" lon="3.70543">
        <ele>199.4</ele>
        <time>2011-01-16T11:35:55Z</time>
      </trkpt>
      <trkpt lat="43.61607" lon="3.70555">
        <ele>199.9</ele>
        <time>2011-01-16T11:35:58Z</time>
      </trkpt>
      <trkpt lat="43.61603" lon="3.70563">
        <ele>200.3</ele>
        <time>2011-01-16T11:36:01Z</time>
      </trkpt>
      <trkpt lat="43.616" lon="3.70574">
        <ele>200.5</ele>
        <time>2011-01-16T11:36:23Z</time>
      </trkpt>
      <trkpt lat="43.61599" lon="3.70575">
        <ele>200.5</ele>
        <time>2011-01-16T11:36:24Z</time>
      </trkpt>
      <trkpt lat="43.61588" lon="3.70585">
        <ele>200.4</ele>
        <time>2011-01-16T11:36:30Z</time>
      </trkpt>
      <trkpt lat="43.61581" lon="3.70593">
        <ele>200.5</ele>
        <time>2011-01-16T11:36:33Z</time>
      </trkpt>
      <trkpt lat="43.61575" lon="3.70601">
        <ele>200.7</ele>
        <time>2011-01-16T11:36:36Z</time>
      </trkpt>
      <trkpt lat="43.61568" lon="3.70609">
        <ele>200.9</ele>
        <time>2011-01-16T11:36:39Z</time>
      </trkpt>
      <trkpt lat="43.61562" lon="3.70617">
        <ele>201</ele>
        <time>2011-01-16T11:36:42Z</time>
      </trkpt>
      <trkpt lat="43.61555" lon="3.70625">
        <ele>201.6</ele>
        <time>2011-01-16T11:36:45Z</time>
      </trkpt>
      <trkpt lat="43.61549" lon="3.70633">
        <ele>202.3</ele>
        <time>2011-01-16T11:36:48Z</time>
      </trkpt>
      <trkpt lat="43.61542" lon="3.70641">
        <ele>203.2</ele>
        <time>2011-01-16T11:36:51Z</time>
      </trkpt>
      <trkpt lat="43.61536" lon="3.70649">
        <ele>203.9</ele>
        <time>2011-01-16T11:36:54Z</time>
      </trkpt>
      <trkpt lat="43.61529" lon="3.70658">
        <ele>204.5</ele>
        <time>2011-01-16T11:36:57Z</time>
      </trkpt>
      <trkpt lat="43.61525" lon="3.70664">
        <ele>204.6</ele>
        <time>2011-01-16T11:36:59Z</time>
      </trkpt>
      <trkpt lat="43.6152" lon="3.70669">
        <ele>204.5</ele>
        <time>2011-01-16T11:37:01Z</time>
      </trkpt>
      <trkpt lat="43.61515" lon="3.70675">
        <ele>204.4</ele>
        <time>2011-01-16T11:37:03Z</time>
      </trkpt>
      <trkpt lat="43.61511" lon="3.70681">
        <ele>204.5</ele>
        <time>2011-01-16T11:37:05Z</time>
      </trkpt>
      <trkpt lat="43.61506" lon="3.70687">
        <ele>204.6</ele>
        <time>2011-01-16T11:37:07Z</time>
      </trkpt>
      <trkpt lat="43.61501" lon="3.70692">
        <ele>205.1</ele>
        <time>2011-01-16T11:37:09Z</time>
      </trkpt>
      <trkpt lat="43.61496" lon="3.70699">
        <ele>205.1</ele>
        <time>2011-01-16T11:37:11Z</time>
      </trkpt>
      <trkpt lat="43.61491" lon="3.70705">
        <ele>204.9</ele>
        <time>2011-01-16T11:37:13Z</time>
      </trkpt>
      <trkpt lat="43.61486" lon="3.70712">
        <ele>205.4</ele>
        <time>2011-01-16T11:37:15Z</time>
      </trkpt>
      <trkpt lat="43.6148" lon="3.70719">
        <ele>205.4</ele>
        <time>2011-01-16T11:37:17Z</time>
      </trkpt>
      <trkpt lat="43.61474" lon="3.70726">
        <ele>205.2</ele>
        <time>2011-01-16T11:37:19Z</time>
      </trkpt>
      <trkpt lat="43.61469" lon="3.70733">
        <ele>205.1</ele>
        <time>2011-01-16T11:37:21Z</time>
      </trkpt>
      <trkpt lat="43.61463" lon="3.7074">
        <ele>205</ele>
        <time>2011-01-16T11:37:23Z</time>
      </trkpt>
      <trkpt lat="43.61456" lon="3.70748">
        <ele>204.9</ele>
        <time>2011-01-16T11:37:25Z</time>
      </trkpt>
      <trkpt lat="43.61453" lon="3.70752">
        <ele>204.9</ele>
        <time>2011-01-16T11:37:26Z</time>
      </trkpt>
      <trkpt lat="43.61447" lon="3.70761">
        <ele>204.7</ele>
        <time>2011-01-16T11:37:28Z</time>
      </trkpt>
      <trkpt lat="43.61443" lon="3.70765">
        <ele>204.6</ele>
        <time>2011-01-16T11:37:29Z</time>
      </trkpt>
      <trkpt lat="43.6144" lon="3.70769">
        <ele>204</ele>
        <time>2011-01-16T11:37:30Z</time>
      </trkpt>
      <trkpt lat="43.61436" lon="3.70774">
        <ele>203.6</ele>
        <time>2011-01-16T11:37:31Z</time>
      </trkpt>
      <trkpt lat="43.61432" lon="3.70779">
        <ele>203.3</ele>
        <time>2011-01-16T11:37:32Z</time>
      </trkpt>
      <trkpt lat="43.61428" lon="3.70784">
        <ele>202.8</ele>
        <time>2011-01-16T11:37:33Z</time>
      </trkpt>
      <trkpt lat="43.61424" lon="3.70789">
        <ele>202.5</ele>
        <time>2011-01-16T11:37:34Z</time>
      </trkpt>
      <trkpt lat="43.61421" lon="3.70795">
        <ele>202.3</ele>
        <time>2011-01-16T11:37:35Z</time>
      </trkpt>
      <trkpt lat="43.61417" lon="3.70801">
        <ele>202</ele>
        <time>2011-01-16T11:37:36Z</time>
      </trkpt>
      <trkpt lat="43.61412" lon="3.70807">
        <ele>201.8</ele>
        <time>2011-01-16T11:37:37Z</time>
      </trkpt>
      <trkpt lat="43.61408" lon="3.70813">
        <ele>201.6</ele>
        <time>2011-01-16T11:37:38Z</time>
      </trkpt>
      <trkpt lat="43.61404" lon="3.7082">
        <ele>201.5</ele>
        <time>2011-01-16T11:37:39Z</time>
      </trkpt>
      <trkpt lat="43.61399" lon="3.70828">
        <ele>200.6</ele>
        <time>2011-01-16T11:37:40Z</time>
      </trkpt>
      <trkpt lat="43.61394" lon="3.70835">
        <ele>199.9</ele>
        <time>2011-01-16T11:37:41Z</time>
      </trkpt>
      <trkpt lat="43.61388" lon="3.70843">
        <ele>199.4</ele>
        <time>2011-01-16T11:37:42Z</time>
      </trkpt>
      <trkpt lat="43.61383" lon="3.70851">
        <ele>198.3</ele>
        <time>2011-01-16T11:37:43Z</time>
      </trkpt>
      <trkpt lat="43.61378" lon="3.70859">
        <ele>197.5</ele>
        <time>2011-01-16T11:37:44Z</time>
      </trkpt>
      <trkpt lat="43.61371" lon="3.70867">
        <ele>196.8</ele>
        <time>2011-01-16T11:37:45Z</time>
      </trkpt>
      <trkpt lat="43.61366" lon="3.70873">
        <ele>195.5</ele>
        <time>2011-01-16T11:37:46Z</time>
      </trkpt>
      <trkpt lat="43.6136" lon="3.70879">
        <ele>194.4</ele>
        <time>2011-01-16T11:37:47Z</time>
      </trkpt>
      <trkpt lat="43.61356" lon="3.70885">
        <ele>193.7</ele>
        <time>2011-01-16T11:37:48Z</time>
      </trkpt>
      <trkpt lat="43.61352" lon="3.70891">
        <ele>192.6</ele>
        <time>2011-01-16T11:37:49Z</time>
      </trkpt>
      <trkpt lat="43.61348" lon="3.70896">
        <ele>191.9</ele>
        <time>2011-01-16T11:37:50Z</time>
      </trkpt>
      <trkpt lat="43.61344" lon="3.70899">
        <ele>191.3</ele>
        <time>2011-01-16T11:37:51Z</time>
      </trkpt>
      <trkpt lat="43.61339" lon="3.70902">
        <ele>191</ele>
        <time>2011-01-16T11:37:52Z</time>
      </trkpt>
      <trkpt lat="43.61333" lon="3.70905">
        <ele>190.7</ele>
        <time>2011-01-16T11:37:53Z</time>
      </trkpt>
      <trkpt lat="43.61328" lon="3.70909">
        <ele>190.6</ele>
        <time>2011-01-16T11:37:54Z</time>
      </trkpt>
      <trkpt lat="43.61322" lon="3.70914">
        <ele>190.4</ele>
        <time>2011-01-16T11:37:55Z</time>
      </trkpt>
      <trkpt lat="43.61317" lon="3.7092">
        <ele>189.4</ele>
        <time>2011-01-16T11:37:56Z</time>
      </trkpt>
      <trkpt lat="43.61313" lon="3.70926">
        <ele>188.7</ele>
        <time>2011-01-16T11:37:57Z</time>
      </trkpt>
      <trkpt lat="43.6131" lon="3.70934">
        <ele>188.1</ele>
        <time>2011-01-16T11:37:58Z</time>
      </trkpt>
      <trkpt lat="43.61306" lon="3.7094">
        <ele>187.2</ele>
        <time>2011-01-16T11:37:59Z</time>
      </trkpt>
      <trkpt lat="43.61302" lon="3.70946">
        <ele>186.5</ele>
        <time>2011-01-16T11:38:00Z</time>
      </trkpt>
      <trkpt lat="43.61297" lon="3.70952">
        <ele>186</ele>
        <time>2011-01-16T11:38:01Z</time>
      </trkpt>
      <trkpt lat="43.61291" lon="3.70957">
        <ele>185.4</ele>
        <time>2011-01-16T11:38:02Z</time>
      </trkpt>
      <trkpt lat="43.61285" lon="3.70962">
        <ele>184.9</ele>
        <time>2011-01-16T11:38:03Z</time>
      </trkpt>
      <trkpt lat="43.61279" lon="3.70967">
        <ele>184.6</ele>
        <time>2011-01-16T11:38:04Z</time>
      </trkpt>
      <trkpt lat="43.61272" lon="3.70972">
        <ele>183.8</ele>
        <time>2011-01-16T11:38:05Z</time>
      </trkpt>
      <trkpt lat="43.61265" lon="3.70975">
        <ele>183.2</ele>
        <time>2011-01-16T11:38:06Z</time>
      </trkpt>
      <trkpt lat="43.61257" lon="3.70975">
        <ele>182.8</ele>
        <time>2011-01-16T11:38:07Z</time>
      </trkpt>
      <trkpt lat="43.61249" lon="3.70974">
        <ele>181.7</ele>
        <time>2011-01-16T11:38:08Z</time>
      </trkpt>
      <trkpt lat="43.61241" lon="3.70973">
        <ele>181</ele>
        <time>2011-01-16T11:38:09Z</time>
      </trkpt>
      <trkpt lat="43.61232" lon="3.70971">
        <ele>180.4</ele>
        <time>2011-01-16T11:38:10Z</time>
      </trkpt>
      <trkpt lat="43.61223" lon="3.70969">
        <ele>179.9</ele>
        <time>2011-01-16T11:38:11Z</time>
      </trkpt>
      <trkpt lat="43.61215" lon="3.70969">
        <ele>179.3</ele>
        <time>2011-01-16T11:38:12Z</time>
      </trkpt>
      <trkpt lat="43.61206" lon="3.70969">
        <ele>178.8</ele>
        <time>2011-01-16T11:38:13Z</time>
      </trkpt>
      <trkpt lat="43.61197" lon="3.70969">
        <ele>178.5</ele>
        <time>2011-01-16T11:38:14Z</time>
      </trkpt>
      <trkpt lat="43.61188" lon="3.70969">
        <ele>177.9</ele>
        <time>2011-01-16T11:38:15Z</time>
      </trkpt>
      <trkpt lat="43.61179" lon="3.70969">
        <ele>177.5</ele>
        <time>2011-01-16T11:38:16Z</time>
      </trkpt>
      <trkpt lat="43.6117" lon="3.70969">
        <ele>177.1</ele>
        <time>2011-01-16T11:38:17Z</time>
      </trkpt>
      <trkpt lat="43.61161" lon="3.7097">
        <ele>176.6</ele>
        <time>2011-01-16T11:38:18Z</time>
      </trkpt>
      <trkpt lat="43.61152" lon="3.70971">
        <ele>176.2</ele>
        <time>2011-01-16T11:38:19Z</time>
      </trkpt>
      <trkpt lat="43.61143" lon="3.70971">
        <ele>175.9</ele>
        <time>2011-01-16T11:38:20Z</time>
      </trkpt>
      <trkpt lat="43.61133" lon="3.7097">
        <ele>175.2</ele>
        <time>2011-01-16T11:38:21Z</time>
      </trkpt>
      <trkpt lat="43.61123" lon="3.70967">
        <ele>174.6</ele>
        <time>2011-01-16T11:38:22Z</time>
      </trkpt>
      <trkpt lat="43.61114" lon="3.70964">
        <ele>174.2</ele>
        <time>2011-01-16T11:38:23Z</time>
      </trkpt>
      <trkpt lat="43.61104" lon="3.70961">
        <ele>173.2</ele>
        <time>2011-01-16T11:38:24Z</time>
      </trkpt>
      <trkpt lat="43.61094" lon="3.70958">
        <ele>172.5</ele>
        <time>2011-01-16T11:38:25Z</time>
      </trkpt>
      <trkpt lat="43.61084" lon="3.70956">
        <ele>171.9</ele>
        <time>2011-01-16T11:38:26Z</time>
      </trkpt>
      <trkpt lat="43.61074" lon="3.70954">
        <ele>171.5</ele>
        <time>2011-01-16T11:38:27Z</time>
      </trkpt>
      <trkpt lat="43.61064" lon="3.70951">
        <ele>171.2</ele>
        <time>2011-01-16T11:38:28Z</time>
      </trkpt>
      <trkpt lat="43.61054" lon="3.70948">
        <ele>170.9</ele>
        <time>2011-01-16T11:38:29Z</time>
      </trkpt>
      <trkpt lat="43.61045" lon="3.70945">
        <ele>170.7</ele>
        <time>2011-01-16T11:38:30Z</time>
      </trkpt>
      <trkpt lat="43.61035" lon="3.70942">
        <ele>170.4</ele>
        <time>2011-01-16T11:38:31Z</time>
      </trkpt>
      <trkpt lat="43.61026" lon="3.70939">
        <ele>170.2</ele>
        <time>2011-01-16T11:38:32Z</time>
      </trkpt>
      <trkpt lat="43.61017" lon="3.70936">
        <ele>170</ele>
        <time>2011-01-16T11:38:33Z</time>
      </trkpt>
      <trkpt lat="43.61008" lon="3.70934">
        <ele>169.6</ele>
        <time>2011-01-16T11:38:34Z</time>
      </trkpt>
      <trkpt lat="43.60999" lon="3.70933">
        <ele>169.3</ele>
        <time>2011-01-16T11:38:35Z</time>
      </trkpt>
      <trkpt lat="43.6099" lon="3.70933">
        <ele>169.1</ele>
        <time>2011-01-16T11:38:36Z</time>
      </trkpt>
      <trkpt lat="43.60982" lon="3.70934">
        <ele>169</ele>
        <time>2011-01-16T11:38:37Z</time>
      </trkpt>
      <trkpt lat="43.60974" lon="3.70936">
        <ele>168.9</ele>
        <time>2011-01-16T11:38:38Z</time>
      </trkpt>
      <trkpt lat="43.60965" lon="3.70939">
        <ele>168.9</ele>
        <time>2011-01-16T11:38:39Z</time>
      </trkpt>
      <trkpt lat="43.60958" lon="3.70943">
        <ele>168.4</ele>
        <time>2011-01-16T11:38:40Z</time>
      </trkpt>
      <trkpt lat="43.6095" lon="3.70946">
        <ele>168.1</ele>
        <time>2011-01-16T11:38:41Z</time>
      </trkpt>
      <trkpt lat="43.60942" lon="3.7095">
        <ele>167.8</ele>
        <time>2011-01-16T11:38:42Z</time>
      </trkpt>
      <trkpt lat="43.60934" lon="3.70953">
        <ele>167.4</ele>
        <time>2011-01-16T11:38:43Z</time>
      </trkpt>
      <trkpt lat="43.60926" lon="3.70956">
        <ele>167.1</ele>
        <time>2011-01-16T11:38:44Z</time>
      </trkpt>
      <trkpt lat="43.60918" lon="3.70958">
        <ele>166.8</ele>
        <time>2011-01-16T11:38:45Z</time>
      </trkpt>
      <trkpt lat="43.6091" lon="3.70961">
        <ele>166.6</ele>
        <time>2011-01-16T11:38:46Z</time>
      </trkpt>
      <trkpt lat="43.60903" lon="3.70966">
        <ele>166.2</ele>
        <time>2011-01-16T11:38:47Z</time>
      </trkpt>
      <trkpt lat="43.60897" lon="3.70972">
        <ele>165.9</ele>
        <time>2011-01-16T11:38:48Z</time>
      </trkpt>
      <trkpt lat="43.60892" lon="3.70978">
        <ele>165.6</ele>
        <time>2011-01-16T11:38:49Z</time>
      </trkpt>
      <trkpt lat="43.60887" lon="3.70985">
        <ele>165.3</ele>
        <time>2011-01-16T11:38:50Z</time>
      </trkpt>
      <trkpt lat="43.60883" lon="3.7099">
        <ele>165.2</ele>
        <time>2011-01-16T11:38:51Z</time>
      </trkpt>
      <trkpt lat="43.6088" lon="3.70996">
        <ele>165</ele>
        <time>2011-01-16T11:38:52Z</time>
      </trkpt>
      <trkpt lat="43.60876" lon="3.71">
        <ele>165.6</ele>
        <time>2011-01-16T11:38:53Z</time>
      </trkpt>
      <trkpt lat="43.60871" lon="3.71009">
        <ele>166.3</ele>
        <time>2011-01-16T11:38:55Z</time>
      </trkpt>
      <trkpt lat="43.60867" lon="3.71016">
        <ele>167.7</ele>
        <time>2011-01-16T11:38:57Z</time>
      </trkpt>
      <trkpt lat="43.60863" lon="3.71022">
        <ele>168.7</ele>
        <time>2011-01-16T11:38:59Z</time>
      </trkpt>
      <trkpt lat="43.60859" lon="3.71029">
        <ele>169.5</ele>
        <time>2011-01-16T11:39:01Z</time>
      </trkpt>
      <trkpt lat="43.60853" lon="3.71038">
        <ele>170.3</ele>
        <time>2011-01-16T11:39:04Z</time>
      </trkpt>
      <trkpt lat="43.60849" lon="3.71045">
        <ele>170.5</ele>
        <time>2011-01-16T11:39:06Z</time>
      </trkpt>
      <trkpt lat="43.60846" lon="3.71053">
        <ele>170.6</ele>
        <time>2011-01-16T11:39:08Z</time>
      </trkpt>
      <trkpt lat="43.60843" lon="3.71061">
        <ele>171.2</ele>
        <time>2011-01-16T11:39:10Z</time>
      </trkpt>
      <trkpt lat="43.60841" lon="3.7107">
        <ele>171.5</ele>
        <time>2011-01-16T11:39:12Z</time>
      </trkpt>
      <trkpt lat="43.6084" lon="3.7108">
        <ele>171.6</ele>
        <time>2011-01-16T11:39:14Z</time>
      </trkpt>
      <trkpt lat="43.60839" lon="3.71091">
        <ele>172.6</ele>
        <time>2011-01-16T11:39:16Z</time>
      </trkpt>
      <trkpt lat="43.60839" lon="3.71098">
        <ele>172.9</ele>
        <time>2011-01-16T11:39:17Z</time>
      </trkpt>
      <trkpt lat="43.60839" lon="3.71105">
        <ele>173.1</ele>
        <time>2011-01-16T11:39:18Z</time>
      </trkpt>
      <trkpt lat="43.60839" lon="3.71111">
        <ele>172.4</ele>
        <time>2011-01-16T11:39:19Z</time>
      </trkpt>
      <trkpt lat="43.60839" lon="3.71118">
        <ele>171.9</ele>
        <time>2011-01-16T11:39:20Z</time>
      </trkpt>
      <trkpt lat="43.60838" lon="3.71125">
        <ele>171.5</ele>
        <time>2011-01-16T11:39:21Z</time>
      </trkpt>
      <trkpt lat="43.60838" lon="3.71132">
        <ele>171.7</ele>
        <time>2011-01-16T11:39:22Z</time>
      </trkpt>
      <trkpt lat="43.60838" lon="3.71139">
        <ele>171.9</ele>
        <time>2011-01-16T11:39:23Z</time>
      </trkpt>
      <trkpt lat="43.60838" lon="3.71145">
        <ele>172</ele>
        <time>2011-01-16T11:39:24Z</time>
      </trkpt>
      <trkpt lat="43.60838" lon="3.71153">
        <ele>171.9</ele>
        <time>2011-01-16T11:39:25Z</time>
      </trkpt>
      <trkpt lat="43.60838" lon="3.71159">
        <ele>171.9</ele>
        <time>2011-01-16T11:39:26Z</time>
      </trkpt>
      <trkpt lat="43.60837" lon="3.71171">
        <ele>171.6</ele>
        <time>2011-01-16T11:39:28Z</time>
      </trkpt>
      <trkpt lat="43.60837" lon="3.71177">
        <ele>171.5</ele>
        <time>2011-01-16T11:39:29Z</time>
      </trkpt>
      <trkpt lat="43.60838" lon="3.71195">
        <ele>171.7</ele>
        <time>2011-01-16T11:39:32Z</time>
      </trkpt>
      <trkpt lat="43.60838" lon="3.71202">
        <ele>171.8</ele>
        <time>2011-01-16T11:39:33Z</time>
      </trkpt>
      <trkpt lat="43.60838" lon="3.71213">
        <ele>172.3</ele>
        <time>2011-01-16T11:39:35Z</time>
      </trkpt>
      <trkpt lat="43.60838" lon="3.7122">
        <ele>172.5</ele>
        <time>2011-01-16T11:39:36Z</time>
      </trkpt>
      <trkpt lat="43.60839" lon="3.71232">
        <ele>172.6</ele>
        <time>2011-01-16T11:39:38Z</time>
      </trkpt>
      <trkpt lat="43.60839" lon="3.71238">
        <ele>172.5</ele>
        <time>2011-01-16T11:39:39Z</time>
      </trkpt>
      <trkpt lat="43.60838" lon="3.71245">
        <ele>172.4</ele>
        <time>2011-01-16T11:39:40Z</time>
      </trkpt>
      <trkpt lat="43.60838" lon="3.71251">
        <ele>172.4</ele>
        <time>2011-01-16T11:39:41Z</time>
      </trkpt>
      <trkpt lat="43.60839" lon="3.71258">
        <ele>172.4</ele>
        <time>2011-01-16T11:39:42Z</time>
      </trkpt>
      <trkpt lat="43.60839" lon="3.71265">
        <ele>172.3</ele>
        <time>2011-01-16T11:39:43Z</time>
      </trkpt>
      <trkpt lat="43.60839" lon="3.71271">
        <ele>172.7</ele>
        <time>2011-01-16T11:39:44Z</time>
      </trkpt>
      <trkpt lat="43.60838" lon="3.71284">
        <ele>173.3</ele>
        <time>2011-01-16T11:39:46Z</time>
      </trkpt>
      <trkpt lat="43.60838" lon="3.71295">
        <ele>173</ele>
        <time>2011-01-16T11:39:48Z</time>
      </trkpt>
      <trkpt lat="43.60838" lon="3.71302">
        <ele>172.9</ele>
        <time>2011-01-16T11:39:49Z</time>
      </trkpt>
      <trkpt lat="43.60838" lon="3.71314">
        <ele>173.3</ele>
        <time>2011-01-16T11:39:51Z</time>
      </trkpt>
      <trkpt lat="43.60838" lon="3.71326">
        <ele>173.9</ele>
        <time>2011-01-16T11:39:53Z</time>
      </trkpt>
      <trkpt lat="43.60837" lon="3.71338">
        <ele>174.2</ele>
        <time>2011-01-16T11:39:55Z</time>
      </trkpt>
      <trkpt lat="43.60836" lon="3.71349">
        <ele>174.7</ele>
        <time>2011-01-16T11:39:57Z</time>
      </trkpt>
      <trkpt lat="43.60835" lon="3.71361">
        <ele>175.3</ele>
        <time>2011-01-16T11:39:59Z</time>
      </trkpt>
      <trkpt lat="43.60835" lon="3.71372">
        <ele>175.5</ele>
        <time>2011-01-16T11:40:01Z</time>
      </trkpt>
      <trkpt lat="43.60833" lon="3.71383">
        <ele>175.3</ele>
        <time>2011-01-16T11:40:03Z</time>
      </trkpt>
      <trkpt lat="43.60833" lon="3.71396">
        <ele>175.1</ele>
        <time>2011-01-16T11:40:05Z</time>
      </trkpt>
      <trkpt lat="43.60833" lon="3.71407">
        <ele>176</ele>
        <time>2011-01-16T11:40:07Z</time>
      </trkpt>
      <trkpt lat="43.60834" lon="3.71419">
        <ele>176.6</ele>
        <time>2011-01-16T11:40:09Z</time>
      </trkpt>
      <trkpt lat="43.60835" lon="3.7143">
        <ele>177.1</ele>
        <time>2011-01-16T11:40:11Z</time>
      </trkpt>
      <trkpt lat="43.60835" lon="3.71441">
        <ele>177.3</ele>
        <time>2011-01-16T11:40:13Z</time>
      </trkpt>
      <trkpt lat="43.60837" lon="3.71453">
        <ele>177.4</ele>
        <time>2011-01-16T11:40:15Z</time>
      </trkpt>
      <trkpt lat="43.60838" lon="3.71464">
        <ele>177.9</ele>
        <time>2011-01-16T11:40:17Z</time>
      </trkpt>
      <trkpt lat="43.60839" lon="3.71474">
        <ele>178.2</ele>
        <time>2011-01-16T11:40:19Z</time>
      </trkpt>
      <trkpt lat="43.60841" lon="3.71484">
        <ele>178.4</ele>
        <time>2011-01-16T11:40:21Z</time>
      </trkpt>
      <trkpt lat="43.60843" lon="3.71496">
        <ele>178.3</ele>
        <time>2011-01-16T11:40:23Z</time>
      </trkpt>
      <trkpt lat="43.60846" lon="3.71507">
        <ele>178.3</ele>
        <time>2011-01-16T11:40:25Z</time>
      </trkpt>
      <trkpt lat="43.60848" lon="3.71513">
        <ele>178.6</ele>
        <time>2011-01-16T11:40:26Z</time>
      </trkpt>
      <trkpt lat="43.60849" lon="3.71519">
        <ele>178.8</ele>
        <time>2011-01-16T11:40:27Z</time>
      </trkpt>
      <trkpt lat="43.60851" lon="3.71526">
        <ele>179</ele>
        <time>2011-01-16T11:40:28Z</time>
      </trkpt>
      <trkpt lat="43.60852" lon="3.71532">
        <ele>179</ele>
        <time>2011-01-16T11:40:29Z</time>
      </trkpt>
      <trkpt lat="43.60854" lon="3.71539">
        <ele>179</ele>
        <time>2011-01-16T11:40:30Z</time>
      </trkpt>
      <trkpt lat="43.60855" lon="3.71545">
        <ele>179.1</ele>
        <time>2011-01-16T11:40:31Z</time>
      </trkpt>
      <trkpt lat="43.60856" lon="3.71552">
        <ele>178.8</ele>
        <time>2011-01-16T11:40:32Z</time>
      </trkpt>
      <trkpt lat="43.60856" lon="3.71558">
        <ele>178.7</ele>
        <time>2011-01-16T11:40:33Z</time>
      </trkpt>
      <trkpt lat="43.60857" lon="3.71565">
        <ele>178.6</ele>
        <time>2011-01-16T11:40:34Z</time>
      </trkpt>
      <trkpt lat="43.60857" lon="3.71571">
        <ele>178.2</ele>
        <time>2011-01-16T11:40:35Z</time>
      </trkpt>
      <trkpt lat="43.60858" lon="3.71578">
        <ele>178</ele>
        <time>2011-01-16T11:40:36Z</time>
      </trkpt>
      <trkpt lat="43.60858" lon="3.71585">
        <ele>177.8</ele>
        <time>2011-01-16T11:40:37Z</time>
      </trkpt>
      <trkpt lat="43.60859" lon="3.71591">
        <ele>177.8</ele>
        <time>2011-01-16T11:40:38Z</time>
      </trkpt>
      <trkpt lat="43.60859" lon="3.71598">
        <ele>177.8</ele>
        <time>2011-01-16T11:40:39Z</time>
      </trkpt>
      <trkpt lat="43.60859" lon="3.71604">
        <ele>177.9</ele>
        <time>2011-01-16T11:40:40Z</time>
      </trkpt>
      <trkpt lat="43.60859" lon="3.71611">
        <ele>177.9</ele>
        <time>2011-01-16T11:40:41Z</time>
      </trkpt>
      <trkpt lat="43.60859" lon="3.71617">
        <ele>177.6</ele>
        <time>2011-01-16T11:40:42Z</time>
      </trkpt>
      <trkpt lat="43.60859" lon="3.71624">
        <ele>177.4</ele>
        <time>2011-01-16T11:40:43Z</time>
      </trkpt>
      <trkpt lat="43.60858" lon="3.7163">
        <ele>177.2</ele>
        <time>2011-01-16T11:40:44Z</time>
      </trkpt>
      <trkpt lat="43.60858" lon="3.71642">
        <ele>177.2</ele>
        <time>2011-01-16T11:40:46Z</time>
      </trkpt>
      <trkpt lat="43.60858" lon="3.71654">
        <ele>177.1</ele>
        <time>2011-01-16T11:40:48Z</time>
      </trkpt>
      <trkpt lat="43.60857" lon="3.71663">
        <ele>176.9</ele>
        <time>2011-01-16T11:40:50Z</time>
      </trkpt>
      <trkpt lat="43.60856" lon="3.71672">
        <ele>177.1</ele>
        <time>2011-01-16T11:40:52Z</time>
      </trkpt>
      <trkpt lat="43.60855" lon="3.7168">
        <ele>177.5</ele>
        <time>2011-01-16T11:40:54Z</time>
      </trkpt>
      <trkpt lat="43.60853" lon="3.71692">
        <ele>178.1</ele>
        <time>2011-01-16T11:40:57Z</time>
      </trkpt>
      <trkpt lat="43.6085" lon="3.71702">
        <ele>178.3</ele>
        <time>2011-01-16T11:41:00Z</time>
      </trkpt>
      <trkpt lat="43.60841" lon="3.71707">
        <ele>178.5</ele>
        <time>2011-01-16T11:41:03Z</time>
      </trkpt>
      <trkpt lat="43.60835" lon="3.71709">
        <ele>178.1</ele>
        <time>2011-01-16T11:41:05Z</time>
      </trkpt>
      <trkpt lat="43.60826" lon="3.71711">
        <ele>177.6</ele>
        <time>2011-01-16T11:41:08Z</time>
      </trkpt>
      <trkpt lat="43.60818" lon="3.71714">
        <ele>177.7</ele>
        <time>2011-01-16T11:41:11Z</time>
      </trkpt>
      <trkpt lat="43.60812" lon="3.71715">
        <ele>177.9</ele>
        <time>2011-01-16T11:41:13Z</time>
      </trkpt>
      <trkpt lat="43.60803" lon="3.71716">
        <ele>177.7</ele>
        <time>2011-01-16T11:41:16Z</time>
      </trkpt>
      <trkpt lat="43.60794" lon="3.71717">
        <ele>179</ele>
        <time>2011-01-16T11:41:22Z</time>
      </trkpt>
      <trkpt lat="43.60786" lon="3.71716">
        <ele>179.5</ele>
        <time>2011-01-16T11:41:28Z</time>
      </trkpt>
      <trkpt lat="43.60778" lon="3.71716">
        <ele>180.2</ele>
        <time>2011-01-16T11:41:33Z</time>
      </trkpt>
      <trkpt lat="43.60776" lon="3.71717">
        <ele>180</ele>
        <time>2011-01-16T11:41:34Z</time>
      </trkpt>
      <trkpt lat="43.60764" lon="3.71717">
        <ele>180.3</ele>
        <time>2011-01-16T11:41:40Z</time>
      </trkpt>
      <trkpt lat="43.60755" lon="3.71718">
        <ele>180.7</ele>
        <time>2011-01-16T11:41:44Z</time>
      </trkpt>
      <trkpt lat="43.60749" lon="3.71713">
        <ele>181.3</ele>
        <time>2011-01-16T11:41:48Z</time>
      </trkpt>
      <trkpt lat="43.60749" lon="3.71701">
        <ele>181.1</ele>
        <time>2011-01-16T11:41:52Z</time>
      </trkpt>
      <trkpt lat="43.60752" lon="3.71693">
        <ele>180.6</ele>
        <time>2011-01-16T11:41:54Z</time>
      </trkpt>
      <trkpt lat="43.60754" lon="3.71682">
        <ele>180.4</ele>
        <time>2011-01-16T11:41:56Z</time>
      </trkpt>
      <trkpt lat="43.60755" lon="3.71676">
        <ele>180.3</ele>
        <time>2011-01-16T11:41:57Z</time>
      </trkpt>
      <trkpt lat="43.60756" lon="3.71669">
        <ele>179.9</ele>
        <time>2011-01-16T11:41:58Z</time>
      </trkpt>
      <trkpt lat="43.60756" lon="3.71662">
        <ele>179.6</ele>
        <time>2011-01-16T11:41:59Z</time>
      </trkpt>
      <trkpt lat="43.60757" lon="3.71655">
        <ele>179.4</ele>
        <time>2011-01-16T11:42:00Z</time>
      </trkpt>
      <trkpt lat="43.60757" lon="3.71648">
        <ele>178.9</ele>
        <time>2011-01-16T11:42:01Z</time>
      </trkpt>
      <trkpt lat="43.60758" lon="3.71641">
        <ele>178.5</ele>
        <time>2011-01-16T11:42:02Z</time>
      </trkpt>
      <trkpt lat="43.60758" lon="3.71634">
        <ele>178.3</ele>
        <time>2011-01-16T11:42:03Z</time>
      </trkpt>
      <trkpt lat="43.60758" lon="3.71627">
        <ele>178.1</ele>
        <time>2011-01-16T11:42:04Z</time>
      </trkpt>
      <trkpt lat="43.60759" lon="3.71621">
        <ele>177.8</ele>
        <time>2011-01-16T11:42:05Z</time>
      </trkpt>
      <trkpt lat="43.60761" lon="3.71609">
        <ele>177.4</ele>
        <time>2011-01-16T11:42:07Z</time>
      </trkpt>
      <trkpt lat="43.60763" lon="3.71598">
        <ele>177.6</ele>
        <time>2011-01-16T11:42:09Z</time>
      </trkpt>
      <trkpt lat="43.60764" lon="3.71586">
        <ele>177.7</ele>
        <time>2011-01-16T11:42:11Z</time>
      </trkpt>
      <trkpt lat="43.60766" lon="3.71575">
        <ele>177.7</ele>
        <time>2011-01-16T11:42:13Z</time>
      </trkpt>
      <trkpt lat="43.60769" lon="3.71568">
        <ele>178</ele>
        <time>2011-01-16T11:42:15Z</time>
      </trkpt>
      <trkpt lat="43.60774" lon="3.7156">
        <ele>178</ele>
        <time>2011-01-16T11:42:17Z</time>
      </trkpt>
      <trkpt lat="43.60778" lon="3.71551">
        <ele>177.7</ele>
        <time>2011-01-16T11:42:19Z</time>
      </trkpt>
      <trkpt lat="43.60781" lon="3.71541">
        <ele>177.2</ele>
        <time>2011-01-16T11:42:21Z</time>
      </trkpt>
      <trkpt lat="43.60781" lon="3.7153">
        <ele>176.5</ele>
        <time>2011-01-16T11:42:23Z</time>
      </trkpt>
      <trkpt lat="43.6078" lon="3.71518">
        <ele>177.6</ele>
        <time>2011-01-16T11:42:25Z</time>
      </trkpt>
      <trkpt lat="43.60777" lon="3.71507">
        <ele>177.8</ele>
        <time>2011-01-16T11:42:27Z</time>
      </trkpt>
      <trkpt lat="43.60773" lon="3.71499">
        <ele>177.6</ele>
        <time>2011-01-16T11:42:29Z</time>
      </trkpt>
      <trkpt lat="43.60769" lon="3.71491">
        <ele>177.2</ele>
        <time>2011-01-16T11:42:31Z</time>
      </trkpt>
      <trkpt lat="43.60763" lon="3.71485">
        <ele>177.1</ele>
        <time>2011-01-16T11:42:33Z</time>
      </trkpt>
      <trkpt lat="43.60756" lon="3.71481">
        <ele>177.3</ele>
        <time>2011-01-16T11:42:35Z</time>
      </trkpt>
      <trkpt lat="43.60753" lon="3.71481">
        <ele>177.3</ele>
        <time>2011-01-16T11:42:36Z</time>
      </trkpt>
      <trkpt lat="43.60743" lon="3.71479">
        <ele>177.4</ele>
        <time>2011-01-16T11:42:39Z</time>
      </trkpt>
      <trkpt lat="43.60736" lon="3.71477">
        <ele>177</ele>
        <time>2011-01-16T11:42:41Z</time>
      </trkpt>
      <trkpt lat="43.6073" lon="3.71474">
        <ele>177.5</ele>
        <time>2011-01-16T11:42:43Z</time>
      </trkpt>
      <trkpt lat="43.60725" lon="3.7147">
        <ele>178.4</ele>
        <time>2011-01-16T11:42:45Z</time>
      </trkpt>
      <trkpt lat="43.6072" lon="3.71465">
        <ele>178.6</ele>
        <time>2011-01-16T11:42:47Z</time>
      </trkpt>
      <trkpt lat="43.60715" lon="3.7146">
        <ele>179</ele>
        <time>2011-01-16T11:42:49Z</time>
      </trkpt>
      <trkpt lat="43.6071" lon="3.71455">
        <ele>179.4</ele>
        <time>2011-01-16T11:42:51Z</time>
      </trkpt>
      <trkpt lat="43.60703" lon="3.71447">
        <ele>180.2</ele>
        <time>2011-01-16T11:42:54Z</time>
      </trkpt>
      <trkpt lat="43.60698" lon="3.7144">
        <ele>180.7</ele>
        <time>2011-01-16T11:42:57Z</time>
      </trkpt>
      <trkpt lat="43.60694" lon="3.71431">
        <ele>181.5</ele>
        <time>2011-01-16T11:43:00Z</time>
      </trkpt>
      <trkpt lat="43.60689" lon="3.71421">
        <ele>182</ele>
        <time>2011-01-16T11:43:03Z</time>
      </trkpt>
      <trkpt lat="43.60684" lon="3.71429">
        <ele>183.2</ele>
        <time>2011-01-16T11:43:09Z</time>
      </trkpt>
      <trkpt lat="43.60685" lon="3.71441">
        <ele>184.2</ele>
        <time>2011-01-16T11:43:14Z</time>
      </trkpt>
      <trkpt lat="43.60686" lon="3.71453">
        <ele>185.7</ele>
        <time>2011-01-16T11:43:19Z</time>
      </trkpt>
      <trkpt lat="43.60689" lon="3.71463">
        <ele>186.3</ele>
        <time>2011-01-16T11:43:24Z</time>
      </trkpt>
      <trkpt lat="43.60691" lon="3.71474">
        <ele>187.8</ele>
        <time>2011-01-16T11:43:29Z</time>
      </trkpt>
      <trkpt lat="43.60694" lon="3.71485">
        <ele>187.9</ele>
        <time>2011-01-16T11:43:34Z</time>
      </trkpt>
      <trkpt lat="43.60697" lon="3.71496">
        <ele>189</ele>
        <time>2011-01-16T11:43:39Z</time>
      </trkpt>
      <trkpt lat="43.60698" lon="3.71498">
        <ele>189.1</ele>
        <time>2011-01-16T11:43:40Z</time>
      </trkpt>
      <trkpt lat="43.60702" lon="3.71517">
        <ele>191.3</ele>
        <time>2011-01-16T11:43:49Z</time>
      </trkpt>
      <trkpt lat="43.60705" lon="3.71527">
        <ele>192.3</ele>
        <time>2011-01-16T11:43:54Z</time>
      </trkpt>
      <trkpt lat="43.60707" lon="3.71538">
        <ele>192.6</ele>
        <time>2011-01-16T11:43:59Z</time>
      </trkpt>
      <trkpt lat="43.60709" lon="3.7155">
        <ele>193.8</ele>
        <time>2011-01-16T11:44:05Z</time>
      </trkpt>
      <trkpt lat="43.60711" lon="3.71561">
        <ele>195</ele>
        <time>2011-01-16T11:44:10Z</time>
      </trkpt>
      <trkpt lat="43.60711" lon="3.71571">
        <ele>196.4</ele>
        <time>2011-01-16T11:44:14Z</time>
      </trkpt>
      <trkpt lat="43.60712" lon="3.71583">
        <ele>196.2</ele>
        <time>2011-01-16T11:44:19Z</time>
      </trkpt>
      <trkpt lat="43.60712" lon="3.71594">
        <ele>197</ele>
        <time>2011-01-16T11:44:25Z</time>
      </trkpt>
      <trkpt lat="43.6071" lon="3.71605">
        <ele>197.6</ele>
        <time>2011-01-16T11:44:30Z</time>
      </trkpt>
      <trkpt lat="43.60709" lon="3.71616">
        <ele>198.2</ele>
        <time>2011-01-16T11:44:34Z</time>
      </trkpt>
      <trkpt lat="43.60707" lon="3.71628">
        <ele>198</ele>
        <time>2011-01-16T11:44:38Z</time>
      </trkpt>
      <trkpt lat="43.60703" lon="3.71638">
        <ele>198.1</ele>
        <time>2011-01-16T11:44:42Z</time>
      </trkpt>
      <trkpt lat="43.60702" lon="3.7164">
        <ele>198.2</ele>
        <time>2011-01-16T11:44:43Z</time>
      </trkpt>
      <trkpt lat="43.60691" lon="3.71653">
        <ele>200</ele>
        <time>2011-01-16T11:44:50Z</time>
      </trkpt>
      <trkpt lat="43.60684" lon="3.71659">
        <ele>200.1</ele>
        <time>2011-01-16T11:44:54Z</time>
      </trkpt>
      <trkpt lat="43.60678" lon="3.71662">
        <ele>201</ele>
        <time>2011-01-16T11:44:57Z</time>
      </trkpt>
      <trkpt lat="43.60672" lon="3.71665">
        <ele>201.5</ele>
        <time>2011-01-16T11:45:00Z</time>
      </trkpt>
      <trkpt lat="43.60663" lon="3.71669">
        <ele>201.2</ele>
        <time>2011-01-16T11:45:04Z</time>
      </trkpt>
      <trkpt lat="43.60657" lon="3.71671">
        <ele>201.4</ele>
        <time>2011-01-16T11:45:07Z</time>
      </trkpt>
      <trkpt lat="43.6065" lon="3.71673">
        <ele>202.2</ele>
        <time>2011-01-16T11:45:10Z</time>
      </trkpt>
      <trkpt lat="43.60643" lon="3.71676">
        <ele>202.6</ele>
        <time>2011-01-16T11:45:13Z</time>
      </trkpt>
      <trkpt lat="43.60634" lon="3.71679">
        <ele>202.6</ele>
        <time>2011-01-16T11:45:17Z</time>
      </trkpt>
      <trkpt lat="43.60626" lon="3.71684">
        <ele>203.3</ele>
        <time>2011-01-16T11:45:21Z</time>
      </trkpt>
      <trkpt lat="43.60619" lon="3.7169">
        <ele>203.7</ele>
        <time>2011-01-16T11:45:25Z</time>
      </trkpt>
      <trkpt lat="43.60613" lon="3.71697">
        <ele>203.4</ele>
        <time>2011-01-16T11:45:29Z</time>
      </trkpt>
      <trkpt lat="43.60608" lon="3.71706">
        <ele>203.4</ele>
        <time>2011-01-16T11:45:32Z</time>
      </trkpt>
      <trkpt lat="43.60606" lon="3.71715">
        <ele>203.5</ele>
        <time>2011-01-16T11:45:35Z</time>
      </trkpt>
      <trkpt lat="43.60608" lon="3.71725">
        <ele>203.8</ele>
        <time>2011-01-16T11:45:38Z</time>
      </trkpt>
      <trkpt lat="43.60612" lon="3.71733">
        <ele>204.1</ele>
        <time>2011-01-16T11:45:41Z</time>
      </trkpt>
      <trkpt lat="43.60618" lon="3.71742">
        <ele>204.9</ele>
        <time>2011-01-16T11:45:45Z</time>
      </trkpt>
      <trkpt lat="43.60619" lon="3.71745">
        <ele>205.4</ele>
        <time>2011-01-16T11:45:46Z</time>
      </trkpt>
      <trkpt lat="43.60625" lon="3.71758">
        <ele>205.6</ele>
        <time>2011-01-16T11:45:51Z</time>
      </trkpt>
      <trkpt lat="43.60629" lon="3.71767">
        <ele>206.6</ele>
        <time>2011-01-16T11:45:54Z</time>
      </trkpt>
      <trkpt lat="43.60633" lon="3.71775">
        <ele>207.2</ele>
        <time>2011-01-16T11:45:57Z</time>
      </trkpt>
      <trkpt lat="43.60637" lon="3.71783">
        <ele>207.6</ele>
        <time>2011-01-16T11:46:00Z</time>
      </trkpt>
      <trkpt lat="43.60641" lon="3.71792">
        <ele>207.9</ele>
        <time>2011-01-16T11:46:03Z</time>
      </trkpt>
      <trkpt lat="43.60644" lon="3.718">
        <ele>208.2</ele>
        <time>2011-01-16T11:46:06Z</time>
      </trkpt>
      <trkpt lat="43.60649" lon="3.7181">
        <ele>209.9</ele>
        <time>2011-01-16T11:46:10Z</time>
      </trkpt>
      <trkpt lat="43.60648" lon="3.71822">
        <ele>211.4</ele>
        <time>2011-01-16T11:46:16Z</time>
      </trkpt>
      <trkpt lat="43.6064" lon="3.71823">
        <ele>212.4</ele>
        <time>2011-01-16T11:46:22Z</time>
      </trkpt>
      <trkpt lat="43.60632" lon="3.71822">
        <ele>213.8</ele>
        <time>2011-01-16T11:46:27Z</time>
      </trkpt>
      <trkpt lat="43.60625" lon="3.71821">
        <ele>214.6</ele>
        <time>2011-01-16T11:46:31Z</time>
      </trkpt>
      <trkpt lat="43.60617" lon="3.71817">
        <ele>214.2</ele>
        <time>2011-01-16T11:46:35Z</time>
      </trkpt>
      <trkpt lat="43.6061" lon="3.71813">
        <ele>214.3</ele>
        <time>2011-01-16T11:46:39Z</time>
      </trkpt>
      <trkpt lat="43.60602" lon="3.71808">
        <ele>214.6</ele>
        <time>2011-01-16T11:46:43Z</time>
      </trkpt>
      <trkpt lat="43.60594" lon="3.71802">
        <ele>214.8</ele>
        <time>2011-01-16T11:46:47Z</time>
      </trkpt>
      <trkpt lat="43.60592" lon="3.71801">
        <ele>214.8</ele>
        <time>2011-01-16T11:46:48Z</time>
      </trkpt>
      <trkpt lat="43.60582" lon="3.71795">
        <ele>217</ele>
        <time>2011-01-16T11:46:53Z</time>
      </trkpt>
      <trkpt lat="43.60574" lon="3.71789">
        <ele>217.2</ele>
        <time>2011-01-16T11:46:57Z</time>
      </trkpt>
      <trkpt lat="43.60566" lon="3.71785">
        <ele>218.4</ele>
        <time>2011-01-16T11:47:01Z</time>
      </trkpt>
      <trkpt lat="43.60559" lon="3.71781">
        <ele>218.6</ele>
        <time>2011-01-16T11:47:05Z</time>
      </trkpt>
      <trkpt lat="43.60551" lon="3.71777">
        <ele>219.5</ele>
        <time>2011-01-16T11:47:09Z</time>
      </trkpt>
      <trkpt lat="43.60543" lon="3.71772">
        <ele>220.2</ele>
        <time>2011-01-16T11:47:14Z</time>
      </trkpt>
      <trkpt lat="43.60537" lon="3.71768">
        <ele>221.1</ele>
        <time>2011-01-16T11:47:18Z</time>
      </trkpt>
      <trkpt lat="43.6053" lon="3.71763">
        <ele>222.6</ele>
        <time>2011-01-16T11:47:22Z</time>
      </trkpt>
      <trkpt lat="43.60523" lon="3.71758">
        <ele>223.7</ele>
        <time>2011-01-16T11:47:27Z</time>
      </trkpt>
      <trkpt lat="43.60515" lon="3.71755">
        <ele>225.2</ele>
        <time>2011-01-16T11:47:31Z</time>
      </trkpt>
      <trkpt lat="43.60507" lon="3.71756">
        <ele>226.2</ele>
        <time>2011-01-16T11:47:35Z</time>
      </trkpt>
      <trkpt lat="43.60498" lon="3.71758">
        <ele>226.1</ele>
        <time>2011-01-16T11:47:39Z</time>
      </trkpt>
      <trkpt lat="43.60491" lon="3.71761">
        <ele>226.7</ele>
        <time>2011-01-16T11:47:42Z</time>
      </trkpt>
      <trkpt lat="43.60484" lon="3.71763">
        <ele>227</ele>
        <time>2011-01-16T11:47:45Z</time>
      </trkpt>
      <trkpt lat="43.60476" lon="3.71766">
        <ele>227.6</ele>
        <time>2011-01-16T11:47:48Z</time>
      </trkpt>
      <trkpt lat="43.60474" lon="3.71767">
        <ele>227.7</ele>
        <time>2011-01-16T11:47:49Z</time>
      </trkpt>
      <trkpt lat="43.60462" lon="3.71771">
        <ele>227.9</ele>
        <time>2011-01-16T11:47:54Z</time>
      </trkpt>
      <trkpt lat="43.60455" lon="3.71773">
        <ele>228.5</ele>
        <time>2011-01-16T11:47:57Z</time>
      </trkpt>
      <trkpt lat="43.60448" lon="3.71772">
        <ele>229.2</ele>
        <time>2011-01-16T11:48:00Z</time>
      </trkpt>
      <trkpt lat="43.6044" lon="3.71774">
        <ele>230.1</ele>
        <time>2011-01-16T11:48:03Z</time>
      </trkpt>
      <trkpt lat="43.60433" lon="3.71779">
        <ele>230.9</ele>
        <time>2011-01-16T11:48:06Z</time>
      </trkpt>
      <trkpt lat="43.60426" lon="3.71785">
        <ele>231.6</ele>
        <time>2011-01-16T11:48:09Z</time>
      </trkpt>
      <trkpt lat="43.60421" lon="3.7179">
        <ele>232</ele>
        <time>2011-01-16T11:48:11Z</time>
      </trkpt>
      <trkpt lat="43.60416" lon="3.71796">
        <ele>232.1</ele>
        <time>2011-01-16T11:48:13Z</time>
      </trkpt>
      <trkpt lat="43.60412" lon="3.71802">
        <ele>232.4</ele>
        <time>2011-01-16T11:48:15Z</time>
      </trkpt>
      <trkpt lat="43.60407" lon="3.71808">
        <ele>232.8</ele>
        <time>2011-01-16T11:48:17Z</time>
      </trkpt>
      <trkpt lat="43.60401" lon="3.71815">
        <ele>232.8</ele>
        <time>2011-01-16T11:48:19Z</time>
      </trkpt>
      <trkpt lat="43.60396" lon="3.71823">
        <ele>233</ele>
        <time>2011-01-16T11:48:21Z</time>
      </trkpt>
      <trkpt lat="43.60392" lon="3.7183">
        <ele>233.3</ele>
        <time>2011-01-16T11:48:23Z</time>
      </trkpt>
      <trkpt lat="43.60387" lon="3.71837">
        <ele>233.5</ele>
        <time>2011-01-16T11:48:25Z</time>
      </trkpt>
      <trkpt lat="43.60382" lon="3.71844">
        <ele>233.6</ele>
        <time>2011-01-16T11:48:27Z</time>
      </trkpt>
      <trkpt lat="43.60377" lon="3.71854">
        <ele>233.8</ele>
        <time>2011-01-16T11:48:30Z</time>
      </trkpt>
      <trkpt lat="43.60372" lon="3.71862">
        <ele>234.2</ele>
        <time>2011-01-16T11:48:33Z</time>
      </trkpt>
      <trkpt lat="43.60367" lon="3.7187">
        <ele>234.1</ele>
        <time>2011-01-16T11:48:36Z</time>
      </trkpt>
      <trkpt lat="43.60362" lon="3.71878">
        <ele>235.4</ele>
        <time>2011-01-16T11:48:39Z</time>
      </trkpt>
      <trkpt lat="43.60356" lon="3.71885">
        <ele>235.5</ele>
        <time>2011-01-16T11:48:42Z</time>
      </trkpt>
      <trkpt lat="43.60351" lon="3.71893">
        <ele>236.1</ele>
        <time>2011-01-16T11:48:45Z</time>
      </trkpt>
      <trkpt lat="43.60346" lon="3.71901">
        <ele>236.3</ele>
        <time>2011-01-16T11:48:48Z</time>
      </trkpt>
      <trkpt lat="43.6034" lon="3.71909">
        <ele>236.8</ele>
        <time>2011-01-16T11:48:51Z</time>
      </trkpt>
      <trkpt lat="43.60338" lon="3.71912">
        <ele>237</ele>
        <time>2011-01-16T11:48:52Z</time>
      </trkpt>
      <trkpt lat="43.60329" lon="3.71925">
        <ele>238.7</ele>
        <time>2011-01-16T11:48:57Z</time>
      </trkpt>
      <trkpt lat="43.60323" lon="3.71934">
        <ele>239.3</ele>
        <time>2011-01-16T11:49:01Z</time>
      </trkpt>
      <trkpt lat="43.60318" lon="3.71941">
        <ele>239.6</ele>
        <time>2011-01-16T11:49:04Z</time>
      </trkpt>
      <trkpt lat="43.60313" lon="3.71949">
        <ele>240.4</ele>
        <time>2011-01-16T11:49:07Z</time>
      </trkpt>
      <trkpt lat="43.60307" lon="3.71956">
        <ele>240.5</ele>
        <time>2011-01-16T11:49:10Z</time>
      </trkpt>
      <trkpt lat="43.60302" lon="3.71964">
        <ele>241.2</ele>
        <time>2011-01-16T11:49:13Z</time>
      </trkpt>
      <trkpt lat="43.60298" lon="3.71972">
        <ele>242</ele>
        <time>2011-01-16T11:49:16Z</time>
      </trkpt>
      <trkpt lat="43.60292" lon="3.7198">
        <ele>242.1</ele>
        <time>2011-01-16T11:49:19Z</time>
      </trkpt>
      <trkpt lat="43.60286" lon="3.7199">
        <ele>242.1</ele>
        <time>2011-01-16T11:49:22Z</time>
      </trkpt>
      <trkpt lat="43.60281" lon="3.71998">
        <ele>242.8</ele>
        <time>2011-01-16T11:49:25Z</time>
      </trkpt>
      <trkpt lat="43.60276" lon="3.72008">
        <ele>243.3</ele>
        <time>2011-01-16T11:49:28Z</time>
      </trkpt>
      <trkpt lat="43.6027" lon="3.72017">
        <ele>243.6</ele>
        <time>2011-01-16T11:49:31Z</time>
      </trkpt>
      <trkpt lat="43.60266" lon="3.72022">
        <ele>243</ele>
        <time>2011-01-16T11:49:33Z</time>
      </trkpt>
      <trkpt lat="43.60258" lon="3.72027">
        <ele>243.6</ele>
        <time>2011-01-16T11:49:36Z</time>
      </trkpt>
      <trkpt lat="43.60254" lon="3.72018">
        <ele>244.7</ele>
        <time>2011-01-16T11:50:38Z</time>
      </trkpt>
      <trkpt lat="43.60253" lon="3.72015">
        <ele>244.4</ele>
        <time>2011-01-16T11:50:39Z</time>
      </trkpt>
      <trkpt lat="43.60245" lon="3.72003">
        <ele>244.6</ele>
        <time>2011-01-16T11:50:43Z</time>
      </trkpt>
      <trkpt lat="43.60238" lon="3.71998">
        <ele>244.5</ele>
        <time>2011-01-16T11:50:45Z</time>
      </trkpt>
      <trkpt lat="43.60232" lon="3.71997">
        <ele>244.2</ele>
        <time>2011-01-16T11:50:46Z</time>
      </trkpt>
      <trkpt lat="43.60227" lon="3.71998">
        <ele>244</ele>
        <time>2011-01-16T11:50:47Z</time>
      </trkpt>
      <trkpt lat="43.60222" lon="3.72001">
        <ele>242.9</ele>
        <time>2011-01-16T11:50:48Z</time>
      </trkpt>
      <trkpt lat="43.60218" lon="3.72006">
        <ele>242.1</ele>
        <time>2011-01-16T11:50:49Z</time>
      </trkpt>
      <trkpt lat="43.60214" lon="3.7201">
        <ele>241.5</ele>
        <time>2011-01-16T11:50:50Z</time>
      </trkpt>
      <trkpt lat="43.6021" lon="3.72015">
        <ele>241.7</ele>
        <time>2011-01-16T11:50:51Z</time>
      </trkpt>
      <trkpt lat="43.60205" lon="3.72019">
        <ele>241.8</ele>
        <time>2011-01-16T11:50:52Z</time>
      </trkpt>
      <trkpt lat="43.60201" lon="3.72022">
        <ele>241.9</ele>
        <time>2011-01-16T11:50:53Z</time>
      </trkpt>
      <trkpt lat="43.60196" lon="3.72024">
        <ele>242</ele>
        <time>2011-01-16T11:50:54Z</time>
      </trkpt>
      <trkpt lat="43.60191" lon="3.72027">
        <ele>241.1</ele>
        <time>2011-01-16T11:50:55Z</time>
      </trkpt>
      <trkpt lat="43.60185" lon="3.72027">
        <ele>240.5</ele>
        <time>2011-01-16T11:50:56Z</time>
      </trkpt>
      <trkpt lat="43.6018" lon="3.72026">
        <ele>240</ele>
        <time>2011-01-16T11:50:57Z</time>
      </trkpt>
      <trkpt lat="43.60175" lon="3.72025">
        <ele>239.5</ele>
        <time>2011-01-16T11:50:58Z</time>
      </trkpt>
      <trkpt lat="43.60169" lon="3.72022">
        <ele>239.1</ele>
        <time>2011-01-16T11:50:59Z</time>
      </trkpt>
      <trkpt lat="43.60164" lon="3.72021">
        <ele>238.8</ele>
        <time>2011-01-16T11:51:00Z</time>
      </trkpt>
      <trkpt lat="43.60159" lon="3.72021">
        <ele>238.1</ele>
        <time>2011-01-16T11:51:01Z</time>
      </trkpt>
      <trkpt lat="43.60151" lon="3.72026">
        <ele>237.3</ele>
        <time>2011-01-16T11:51:03Z</time>
      </trkpt>
      <trkpt lat="43.60146" lon="3.72035">
        <ele>236.6</ele>
        <time>2011-01-16T11:51:05Z</time>
      </trkpt>
      <trkpt lat="43.60144" lon="3.7204">
        <ele>236.3</ele>
        <time>2011-01-16T11:51:06Z</time>
      </trkpt>
      <trkpt lat="43.60141" lon="3.72046">
        <ele>235.9</ele>
        <time>2011-01-16T11:51:07Z</time>
      </trkpt>
      <trkpt lat="43.60138" lon="3.72056">
        <ele>235.3</ele>
        <time>2011-01-16T11:51:09Z</time>
      </trkpt>
      <trkpt lat="43.60135" lon="3.72062">
        <ele>234.5</ele>
        <time>2011-01-16T11:51:10Z</time>
      </trkpt>
      <trkpt lat="43.60133" lon="3.72067">
        <ele>233.8</ele>
        <time>2011-01-16T11:51:11Z</time>
      </trkpt>
      <trkpt lat="43.6013" lon="3.72073">
        <ele>233.4</ele>
        <time>2011-01-16T11:51:12Z</time>
      </trkpt>
      <trkpt lat="43.60127" lon="3.7208">
        <ele>233</ele>
        <time>2011-01-16T11:51:13Z</time>
      </trkpt>
      <trkpt lat="43.60123" lon="3.72086">
        <ele>232.2</ele>
        <time>2011-01-16T11:51:14Z</time>
      </trkpt>
      <trkpt lat="43.60119" lon="3.72093">
        <ele>231.5</ele>
        <time>2011-01-16T11:51:15Z</time>
      </trkpt>
      <trkpt lat="43.60116" lon="3.72098">
        <ele>231</ele>
        <time>2011-01-16T11:51:16Z</time>
      </trkpt>
      <trkpt lat="43.60111" lon="3.72107">
        <ele>228.3</ele>
        <time>2011-01-16T11:51:18Z</time>
      </trkpt>
      <trkpt lat="43.60107" lon="3.72117">
        <ele>226.2</ele>
        <time>2011-01-16T11:51:20Z</time>
      </trkpt>
      <trkpt lat="43.60104" lon="3.72122">
        <ele>225.3</ele>
        <time>2011-01-16T11:51:21Z</time>
      </trkpt>
      <trkpt lat="43.60101" lon="3.72128">
        <ele>224.6</ele>
        <time>2011-01-16T11:51:22Z</time>
      </trkpt>
      <trkpt lat="43.60099" lon="3.72134">
        <ele>222.9</ele>
        <time>2011-01-16T11:51:23Z</time>
      </trkpt>
      <trkpt lat="43.60096" lon="3.72139">
        <ele>221.6</ele>
        <time>2011-01-16T11:51:24Z</time>
      </trkpt>
      <trkpt lat="43.6009" lon="3.72149">
        <ele>218.4</ele>
        <time>2011-01-16T11:51:26Z</time>
      </trkpt>
      <trkpt lat="43.60086" lon="3.72159">
        <ele>215.6</ele>
        <time>2011-01-16T11:51:28Z</time>
      </trkpt>
      <trkpt lat="43.60084" lon="3.72165">
        <ele>214.7</ele>
        <time>2011-01-16T11:51:29Z</time>
      </trkpt>
      <trkpt lat="43.60081" lon="3.72171">
        <ele>213.3</ele>
        <time>2011-01-16T11:51:30Z</time>
      </trkpt>
      <trkpt lat="43.60078" lon="3.72176">
        <ele>212.2</ele>
        <time>2011-01-16T11:51:31Z</time>
      </trkpt>
      <trkpt lat="43.60074" lon="3.72182">
        <ele>211.4</ele>
        <time>2011-01-16T11:51:32Z</time>
      </trkpt>
      <trkpt lat="43.6007" lon="3.72188">
        <ele>209.7</ele>
        <time>2011-01-16T11:51:33Z</time>
      </trkpt>
      <trkpt lat="43.60066" lon="3.72195">
        <ele>208.3</ele>
        <time>2011-01-16T11:51:34Z</time>
      </trkpt>
      <trkpt lat="43.60062" lon="3.72202">
        <ele>207.3</ele>
        <time>2011-01-16T11:51:35Z</time>
      </trkpt>
      <trkpt lat="43.60058" lon="3.72208">
        <ele>205.3</ele>
        <time>2011-01-16T11:51:36Z</time>
      </trkpt>
      <trkpt lat="43.60055" lon="3.72216">
        <ele>203.8</ele>
        <time>2011-01-16T11:51:37Z</time>
      </trkpt>
      <trkpt lat="43.60051" lon="3.72225">
        <ele>202.7</ele>
        <time>2011-01-16T11:51:38Z</time>
      </trkpt>
      <trkpt lat="43.60047" lon="3.72234">
        <ele>200.6</ele>
        <time>2011-01-16T11:51:39Z</time>
      </trkpt>
      <trkpt lat="43.60044" lon="3.72243">
        <ele>199</ele>
        <time>2011-01-16T11:51:40Z</time>
      </trkpt>
      <trkpt lat="43.60039" lon="3.72253">
        <ele>197.8</ele>
        <time>2011-01-16T11:51:41Z</time>
      </trkpt>
      <trkpt lat="43.60035" lon="3.72262">
        <ele>195.7</ele>
        <time>2011-01-16T11:51:42Z</time>
      </trkpt>
      <trkpt lat="43.60031" lon="3.7227">
        <ele>194.2</ele>
        <time>2011-01-16T11:51:43Z</time>
      </trkpt>
      <trkpt lat="43.6003" lon="3.72279">
        <ele>193</ele>
        <time>2011-01-16T11:51:44Z</time>
      </trkpt>
      <trkpt lat="43.60029" lon="3.72288">
        <ele>192.2</ele>
        <time>2011-01-16T11:51:45Z</time>
      </trkpt>
      <trkpt lat="43.60029" lon="3.72298">
        <ele>190.8</ele>
        <time>2011-01-16T11:51:46Z</time>
      </trkpt>
      <trkpt lat="43.6003" lon="3.72307">
        <ele>189.7</ele>
        <time>2011-01-16T11:51:47Z</time>
      </trkpt>
      <trkpt lat="43.6003" lon="3.72315">
        <ele>188.9</ele>
        <time>2011-01-16T11:51:48Z</time>
      </trkpt>
      <trkpt lat="43.60029" lon="3.72324">
        <ele>187.4</ele>
        <time>2011-01-16T11:51:49Z</time>
      </trkpt>
      <trkpt lat="43.60028" lon="3.72333">
        <ele>186.2</ele>
        <time>2011-01-16T11:51:50Z</time>
      </trkpt>
      <trkpt lat="43.60027" lon="3.72344">
        <ele>185.4</ele>
        <time>2011-01-16T11:51:51Z</time>
      </trkpt>
      <trkpt lat="43.60026" lon="3.72354">
        <ele>183.9</ele>
        <time>2011-01-16T11:51:52Z</time>
      </trkpt>
      <trkpt lat="43.60026" lon="3.72365">
        <ele>182.8</ele>
        <time>2011-01-16T11:51:53Z</time>
      </trkpt>
      <trkpt lat="43.60025" lon="3.72375">
        <ele>181.9</ele>
        <time>2011-01-16T11:51:54Z</time>
      </trkpt>
      <trkpt lat="43.60024" lon="3.72385">
        <ele>180.1</ele>
        <time>2011-01-16T11:51:55Z</time>
      </trkpt>
      <trkpt lat="43.60022" lon="3.72395">
        <ele>178.7</ele>
        <time>2011-01-16T11:51:56Z</time>
      </trkpt>
      <trkpt lat="43.60019" lon="3.72404">
        <ele>177.7</ele>
        <time>2011-01-16T11:51:57Z</time>
      </trkpt>
      <trkpt lat="43.60018" lon="3.72414">
        <ele>176.4</ele>
        <time>2011-01-16T11:51:58Z</time>
      </trkpt>
      <trkpt lat="43.60017" lon="3.72424">
        <ele>175.4</ele>
        <time>2011-01-16T11:51:59Z</time>
      </trkpt>
      <trkpt lat="43.60014" lon="3.72433">
        <ele>174.6</ele>
        <time>2011-01-16T11:52:00Z</time>
      </trkpt>
      <trkpt lat="43.60011" lon="3.72443">
        <ele>174.1</ele>
        <time>2011-01-16T11:52:01Z</time>
      </trkpt>
      <trkpt lat="43.60009" lon="3.72451">
        <ele>172.7</ele>
        <time>2011-01-16T11:52:02Z</time>
      </trkpt>
      <trkpt lat="43.60007" lon="3.72459">
        <ele>171.7</ele>
        <time>2011-01-16T11:52:03Z</time>
      </trkpt>
      <trkpt lat="43.60005" lon="3.72467">
        <ele>170.9</ele>
        <time>2011-01-16T11:52:04Z</time>
      </trkpt>
      <trkpt lat="43.60004" lon="3.72474">
        <ele>169.7</ele>
        <time>2011-01-16T11:52:05Z</time>
      </trkpt>
      <trkpt lat="43.60005" lon="3.72483">
        <ele>168.8</ele>
        <time>2011-01-16T11:52:06Z</time>
      </trkpt>
      <trkpt lat="43.60006" lon="3.72492">
        <ele>168.1</ele>
        <time>2011-01-16T11:52:07Z</time>
      </trkpt>
      <trkpt lat="43.60003" lon="3.72503">
        <ele>165.2</ele>
        <time>2011-01-16T11:52:09Z</time>
      </trkpt>
      <trkpt lat="43.59999" lon="3.72506">
        <ele>164.3</ele>
        <time>2011-01-16T11:52:10Z</time>
      </trkpt>
      <trkpt lat="43.59994" lon="3.72509">
        <ele>163</ele>
        <time>2011-01-16T11:52:11Z</time>
      </trkpt>
      <trkpt lat="43.5999" lon="3.72513">
        <ele>162.1</ele>
        <time>2011-01-16T11:52:12Z</time>
      </trkpt>
      <trkpt lat="43.59986" lon="3.72518">
        <ele>161.4</ele>
        <time>2011-01-16T11:52:13Z</time>
      </trkpt>
      <trkpt lat="43.59981" lon="3.72524">
        <ele>160.7</ele>
        <time>2011-01-16T11:52:14Z</time>
      </trkpt>
      <trkpt lat="43.59978" lon="3.72531">
        <ele>160.1</ele>
        <time>2011-01-16T11:52:15Z</time>
      </trkpt>
      <trkpt lat="43.59976" lon="3.72539">
        <ele>159.7</ele>
        <time>2011-01-16T11:52:16Z</time>
      </trkpt>
      <trkpt lat="43.59974" lon="3.72546">
        <ele>159.2</ele>
        <time>2011-01-16T11:52:17Z</time>
      </trkpt>
      <trkpt lat="43.59971" lon="3.72553">
        <ele>158.8</ele>
        <time>2011-01-16T11:52:18Z</time>
      </trkpt>
      <trkpt lat="43.59967" lon="3.7256">
        <ele>158.6</ele>
        <time>2011-01-16T11:52:19Z</time>
      </trkpt>
      <trkpt lat="43.59963" lon="3.72567">
        <ele>158.4</ele>
        <time>2011-01-16T11:52:20Z</time>
      </trkpt>
      <trkpt lat="43.59959" lon="3.72573">
        <ele>157.5</ele>
        <time>2011-01-16T11:52:21Z</time>
      </trkpt>
      <trkpt lat="43.59953" lon="3.72577">
        <ele>156.8</ele>
        <time>2011-01-16T11:52:22Z</time>
      </trkpt>
      <trkpt lat="43.59946" lon="3.72579">
        <ele>156.3</ele>
        <time>2011-01-16T11:52:23Z</time>
      </trkpt>
      <trkpt lat="43.59941" lon="3.7258">
        <ele>155.3</ele>
        <time>2011-01-16T11:52:24Z</time>
      </trkpt>
      <trkpt lat="43.59936" lon="3.72583">
        <ele>154.5</ele>
        <time>2011-01-16T11:52:25Z</time>
      </trkpt>
      <trkpt lat="43.59931" lon="3.72588">
        <ele>153.9</ele>
        <time>2011-01-16T11:52:26Z</time>
      </trkpt>
      <trkpt lat="43.59928" lon="3.72593">
        <ele>152.8</ele>
        <time>2011-01-16T11:52:27Z</time>
      </trkpt>
      <trkpt lat="43.59924" lon="3.726">
        <ele>151.9</ele>
        <time>2011-01-16T11:52:28Z</time>
      </trkpt>
      <trkpt lat="43.59921" lon="3.72607">
        <ele>151.2</ele>
        <time>2011-01-16T11:52:29Z</time>
      </trkpt>
      <trkpt lat="43.59917" lon="3.72612">
        <ele>151</ele>
        <time>2011-01-16T11:52:30Z</time>
      </trkpt>
      <trkpt lat="43.59912" lon="3.72615">
        <ele>150.8</ele>
        <time>2011-01-16T11:52:31Z</time>
      </trkpt>
      <trkpt lat="43.59907" lon="3.72615">
        <ele>150.7</ele>
        <time>2011-01-16T11:52:32Z</time>
      </trkpt>
      <trkpt lat="43.59902" lon="3.72612">
        <ele>150.2</ele>
        <time>2011-01-16T11:52:33Z</time>
      </trkpt>
      <trkpt lat="43.59898" lon="3.72608">
        <ele>149.8</ele>
        <time>2011-01-16T11:52:34Z</time>
      </trkpt>
      <trkpt lat="43.59894" lon="3.72604">
        <ele>149.5</ele>
        <time>2011-01-16T11:52:35Z</time>
      </trkpt>
      <trkpt lat="43.59889" lon="3.726">
        <ele>149.3</ele>
        <time>2011-01-16T11:52:36Z</time>
      </trkpt>
      <trkpt lat="43.59884" lon="3.72597">
        <ele>149</ele>
        <time>2011-01-16T11:52:37Z</time>
      </trkpt>
      <trkpt lat="43.59879" lon="3.72594">
        <ele>148.9</ele>
        <time>2011-01-16T11:52:38Z</time>
      </trkpt>
      <trkpt lat="43.59873" lon="3.72592">
        <ele>148.7</ele>
        <time>2011-01-16T11:52:39Z</time>
      </trkpt>
      <trkpt lat="43.59867" lon="3.72592">
        <ele>148.3</ele>
        <time>2011-01-16T11:52:40Z</time>
      </trkpt>
      <trkpt lat="43.59862" lon="3.72593">
        <ele>148.1</ele>
        <time>2011-01-16T11:52:41Z</time>
      </trkpt>
      <trkpt lat="43.59856" lon="3.72595">
        <ele>147.8</ele>
        <time>2011-01-16T11:52:42Z</time>
      </trkpt>
      <trkpt lat="43.59851" lon="3.72597">
        <ele>147.8</ele>
        <time>2011-01-16T11:52:43Z</time>
      </trkpt>
      <trkpt lat="43.59845" lon="3.72599">
        <ele>147.8</ele>
        <time>2011-01-16T11:52:44Z</time>
      </trkpt>
      <trkpt lat="43.5984" lon="3.72602">
        <ele>147.8</ele>
        <time>2011-01-16T11:52:45Z</time>
      </trkpt>
      <trkpt lat="43.59835" lon="3.72603">
        <ele>147.4</ele>
        <time>2011-01-16T11:52:46Z</time>
      </trkpt>
      <trkpt lat="43.5983" lon="3.72605">
        <ele>147.2</ele>
        <time>2011-01-16T11:52:47Z</time>
      </trkpt>
      <trkpt lat="43.59826" lon="3.72607">
        <ele>147</ele>
        <time>2011-01-16T11:52:48Z</time>
      </trkpt>
      <trkpt lat="43.59821" lon="3.72609">
        <ele>147.2</ele>
        <time>2011-01-16T11:52:49Z</time>
      </trkpt>
      <trkpt lat="43.59816" lon="3.7261">
        <ele>147.4</ele>
        <time>2011-01-16T11:52:50Z</time>
      </trkpt>
      <trkpt lat="43.59811" lon="3.72611">
        <ele>147.6</ele>
        <time>2011-01-16T11:52:51Z</time>
      </trkpt>
      <trkpt lat="43.59806" lon="3.72612">
        <ele>147.7</ele>
        <time>2011-01-16T11:52:52Z</time>
      </trkpt>
      <trkpt lat="43.59797" lon="3.72613">
        <ele>147.5</ele>
        <time>2011-01-16T11:52:54Z</time>
      </trkpt>
      <trkpt lat="43.59793" lon="3.72614">
        <ele>147.4</ele>
        <time>2011-01-16T11:52:55Z</time>
      </trkpt>
      <trkpt lat="43.59788" lon="3.72616">
        <ele>147.6</ele>
        <time>2011-01-16T11:52:56Z</time>
      </trkpt>
      <trkpt lat="43.59783" lon="3.72617">
        <ele>147.8</ele>
        <time>2011-01-16T11:52:57Z</time>
      </trkpt>
      <trkpt lat="43.59779" lon="3.72618">
        <ele>148</ele>
        <time>2011-01-16T11:52:58Z</time>
      </trkpt>
      <trkpt lat="43.59775" lon="3.72619">
        <ele>147.9</ele>
        <time>2011-01-16T11:52:59Z</time>
      </trkpt>
      <trkpt lat="43.5977" lon="3.72621">
        <ele>147.9</ele>
        <time>2011-01-16T11:53:00Z</time>
      </trkpt>
      <trkpt lat="43.59751" lon="3.72629">
        <ele>148</ele>
        <time>2011-01-16T11:53:04Z</time>
      </trkpt>
      <trkpt lat="43.59736" lon="3.72638">
        <ele>149</ele>
        <time>2011-01-16T11:53:08Z</time>
      </trkpt>
      <trkpt lat="43.5973" lon="3.72641">
        <ele>149.7</ele>
        <time>2011-01-16T11:53:10Z</time>
      </trkpt>
      <trkpt lat="43.59722" lon="3.72645">
        <ele>149.8</ele>
        <time>2011-01-16T11:53:12Z</time>
      </trkpt>
      <trkpt lat="43.59716" lon="3.72649">
        <ele>149.6</ele>
        <time>2011-01-16T11:53:14Z</time>
      </trkpt>
      <trkpt lat="43.59708" lon="3.72654">
        <ele>149.7</ele>
        <time>2011-01-16T11:53:17Z</time>
      </trkpt>
      <trkpt lat="43.59701" lon="3.72658">
        <ele>150.4</ele>
        <time>2011-01-16T11:53:20Z</time>
      </trkpt>
      <trkpt lat="43.59695" lon="3.72663">
        <ele>151.2</ele>
        <time>2011-01-16T11:53:23Z</time>
      </trkpt>
      <trkpt lat="43.59687" lon="3.72668">
        <ele>151.6</ele>
        <time>2011-01-16T11:53:27Z</time>
      </trkpt>
      <trkpt lat="43.5968" lon="3.72672">
        <ele>152</ele>
        <time>2011-01-16T11:53:31Z</time>
      </trkpt>
      <trkpt lat="43.59673" lon="3.72679">
        <ele>153.2</ele>
        <time>2011-01-16T11:53:36Z</time>
      </trkpt>
      <trkpt lat="43.59666" lon="3.72687">
        <ele>152.6</ele>
        <time>2011-01-16T11:53:44Z</time>
      </trkpt>
      <trkpt lat="43.59666" lon="3.72688">
        <ele>152.6</ele>
        <time>2011-01-16T11:53:45Z</time>
      </trkpt>
      <trkpt lat="43.59656" lon="3.72703">
        <ele>151.8</ele>
        <time>2011-01-16T11:53:53Z</time>
      </trkpt>
      <trkpt lat="43.59651" lon="3.7271">
        <ele>152.3</ele>
        <time>2011-01-16T11:53:56Z</time>
      </trkpt>
      <trkpt lat="43.59645" lon="3.72719">
        <ele>152.9</ele>
        <time>2011-01-16T11:53:59Z</time>
      </trkpt>
      <trkpt lat="43.59641" lon="3.72726">
        <ele>152.2</ele>
        <time>2011-01-16T11:54:01Z</time>
      </trkpt>
      <trkpt lat="43.59635" lon="3.72733">
        <ele>151.6</ele>
        <time>2011-01-16T11:54:03Z</time>
      </trkpt>
      <trkpt lat="43.59629" lon="3.72739">
        <ele>151.2</ele>
        <time>2011-01-16T11:54:05Z</time>
      </trkpt>
      <trkpt lat="43.59621" lon="3.72744">
        <ele>150.5</ele>
        <time>2011-01-16T11:54:07Z</time>
      </trkpt>
      <trkpt lat="43.59617" lon="3.72747">
        <ele>150.3</ele>
        <time>2011-01-16T11:54:08Z</time>
      </trkpt>
      <trkpt lat="43.59613" lon="3.72751">
        <ele>149.7</ele>
        <time>2011-01-16T11:54:09Z</time>
      </trkpt>
      <trkpt lat="43.59608" lon="3.72755">
        <ele>149.2</ele>
        <time>2011-01-16T11:54:10Z</time>
      </trkpt>
      <trkpt lat="43.59603" lon="3.72757">
        <ele>148.9</ele>
        <time>2011-01-16T11:54:11Z</time>
      </trkpt>
      <trkpt lat="43.59598" lon="3.72759">
        <ele>148.6</ele>
        <time>2011-01-16T11:54:12Z</time>
      </trkpt>
      <trkpt lat="43.59592" lon="3.7276">
        <ele>148.4</ele>
        <time>2011-01-16T11:54:13Z</time>
      </trkpt>
      <trkpt lat="43.59587" lon="3.7276">
        <ele>148.3</ele>
        <time>2011-01-16T11:54:14Z</time>
      </trkpt>
      <trkpt lat="43.59581" lon="3.7276">
        <ele>148.2</ele>
        <time>2011-01-16T11:54:15Z</time>
      </trkpt>
      <trkpt lat="43.59575" lon="3.72761">
        <ele>147.5</ele>
        <time>2011-01-16T11:54:16Z</time>
      </trkpt>
      <trkpt lat="43.59571" lon="3.72765">
        <ele>147</ele>
        <time>2011-01-16T11:54:17Z</time>
      </trkpt>
      <trkpt lat="43.59566" lon="3.7277">
        <ele>146.6</ele>
        <time>2011-01-16T11:54:18Z</time>
      </trkpt>
      <trkpt lat="43.59561" lon="3.72774">
        <ele>146.3</ele>
        <time>2011-01-16T11:54:19Z</time>
      </trkpt>
      <trkpt lat="43.59557" lon="3.72775">
        <ele>146</ele>
        <time>2011-01-16T11:54:20Z</time>
      </trkpt>
      <trkpt lat="43.59552" lon="3.72775">
        <ele>145.9</ele>
        <time>2011-01-16T11:54:21Z</time>
      </trkpt>
      <trkpt lat="43.59547" lon="3.72775">
        <ele>145.2</ele>
        <time>2011-01-16T11:54:22Z</time>
      </trkpt>
      <trkpt lat="43.59543" lon="3.72775">
        <ele>144.7</ele>
        <time>2011-01-16T11:54:23Z</time>
      </trkpt>
      <trkpt lat="43.59537" lon="3.72774">
        <ele>144.4</ele>
        <time>2011-01-16T11:54:24Z</time>
      </trkpt>
      <trkpt lat="43.59532" lon="3.72772">
        <ele>144.1</ele>
        <time>2011-01-16T11:54:25Z</time>
      </trkpt>
      <trkpt lat="43.59527" lon="3.72769">
        <ele>143.8</ele>
        <time>2011-01-16T11:54:26Z</time>
      </trkpt>
      <trkpt lat="43.59522" lon="3.72766">
        <ele>143.6</ele>
        <time>2011-01-16T11:54:27Z</time>
      </trkpt>
      <trkpt lat="43.59516" lon="3.72764">
        <ele>143.3</ele>
        <time>2011-01-16T11:54:28Z</time>
      </trkpt>
      <trkpt lat="43.59511" lon="3.72765">
        <ele>143.1</ele>
        <time>2011-01-16T11:54:29Z</time>
      </trkpt>
      <trkpt lat="43.59506" lon="3.72768">
        <ele>142.9</ele>
        <time>2011-01-16T11:54:30Z</time>
      </trkpt>
      <trkpt lat="43.59504" lon="3.72774">
        <ele>142.7</ele>
        <time>2011-01-16T11:54:31Z</time>
      </trkpt>
      <trkpt lat="43.59502" lon="3.7278">
        <ele>142.5</ele>
        <time>2011-01-16T11:54:32Z</time>
      </trkpt>
      <trkpt lat="43.595" lon="3.72786">
        <ele>142.4</ele>
        <time>2011-01-16T11:54:33Z</time>
      </trkpt>
      <trkpt lat="43.59498" lon="3.72792">
        <ele>142.3</ele>
        <time>2011-01-16T11:54:34Z</time>
      </trkpt>
      <trkpt lat="43.59494" lon="3.72803">
        <ele>142.2</ele>
        <time>2011-01-16T11:54:36Z</time>
      </trkpt>
      <trkpt lat="43.5949" lon="3.72814">
        <ele>142.2</ele>
        <time>2011-01-16T11:54:38Z</time>
      </trkpt>
      <trkpt lat="43.59487" lon="3.72824">
        <ele>142.3</ele>
        <time>2011-01-16T11:54:40Z</time>
      </trkpt>
      <trkpt lat="43.59485" lon="3.72833">
        <ele>143.4</ele>
        <time>2011-01-16T11:54:42Z</time>
      </trkpt>
      <trkpt lat="43.59482" lon="3.72842">
        <ele>144.4</ele>
        <time>2011-01-16T11:54:44Z</time>
      </trkpt>
      <trkpt lat="43.59479" lon="3.72852">
        <ele>145.2</ele>
        <time>2011-01-16T11:54:46Z</time>
      </trkpt>
      <trkpt lat="43.59477" lon="3.72857">
        <ele>145.5</ele>
        <time>2011-01-16T11:54:47Z</time>
      </trkpt>
      <trkpt lat="43.59472" lon="3.72872">
        <ele>145.4</ele>
        <time>2011-01-16T11:54:50Z</time>
      </trkpt>
      <trkpt lat="43.59467" lon="3.72882">
        <ele>145.9</ele>
        <time>2011-01-16T11:54:52Z</time>
      </trkpt>
      <trkpt lat="43.59463" lon="3.72893">
        <ele>145.9</ele>
        <time>2011-01-16T11:54:54Z</time>
      </trkpt>
      <trkpt lat="43.59459" lon="3.72904">
        <ele>145.9</ele>
        <time>2011-01-16T11:54:56Z</time>
      </trkpt>
      <trkpt lat="43.59456" lon="3.72914">
        <ele>146.7</ele>
        <time>2011-01-16T11:54:58Z</time>
      </trkpt>
      <trkpt lat="43.59454" lon="3.72925">
        <ele>146.8</ele>
        <time>2011-01-16T11:55:00Z</time>
      </trkpt>
      <trkpt lat="43.59453" lon="3.72936">
        <ele>146.7</ele>
        <time>2011-01-16T11:55:02Z</time>
      </trkpt>
      <trkpt lat="43.59453" lon="3.72945">
        <ele>147.4</ele>
        <time>2011-01-16T11:55:04Z</time>
      </trkpt>
      <trkpt lat="43.59453" lon="3.72955">
        <ele>147.9</ele>
        <time>2011-01-16T11:55:06Z</time>
      </trkpt>
      <trkpt lat="43.59453" lon="3.72964">
        <ele>148.9</ele>
        <time>2011-01-16T11:55:08Z</time>
      </trkpt>
      <trkpt lat="43.59453" lon="3.72973">
        <ele>149.3</ele>
        <time>2011-01-16T11:55:10Z</time>
      </trkpt>
      <trkpt lat="43.59454" lon="3.72982">
        <ele>149.3</ele>
        <time>2011-01-16T11:55:12Z</time>
      </trkpt>
      <trkpt lat="43.59457" lon="3.7299">
        <ele>149.7</ele>
        <time>2011-01-16T11:55:14Z</time>
      </trkpt>
      <trkpt lat="43.59462" lon="3.72995">
        <ele>150</ele>
        <time>2011-01-16T11:55:16Z</time>
      </trkpt>
      <trkpt lat="43.59468" lon="3.72998">
        <ele>150.3</ele>
        <time>2011-01-16T11:55:18Z</time>
      </trkpt>
      <trkpt lat="43.59477" lon="3.73001">
        <ele>152.3</ele>
        <time>2011-01-16T11:55:21Z</time>
      </trkpt>
      <trkpt lat="43.59485" lon="3.73003">
        <ele>152.6</ele>
        <time>2011-01-16T11:55:24Z</time>
      </trkpt>
      <trkpt lat="43.59493" lon="3.73006">
        <ele>152.8</ele>
        <time>2011-01-16T11:55:27Z</time>
      </trkpt>
      <trkpt lat="43.59501" lon="3.73009">
        <ele>153.1</ele>
        <time>2011-01-16T11:55:30Z</time>
      </trkpt>
      <trkpt lat="43.5951" lon="3.73013">
        <ele>154.7</ele>
        <time>2011-01-16T11:55:33Z</time>
      </trkpt>
      <trkpt lat="43.59518" lon="3.73017">
        <ele>155.3</ele>
        <time>2011-01-16T11:55:36Z</time>
      </trkpt>
      <trkpt lat="43.59525" lon="3.73022">
        <ele>155.4</ele>
        <time>2011-01-16T11:55:39Z</time>
      </trkpt>
      <trkpt lat="43.5953" lon="3.73031">
        <ele>155.7</ele>
        <time>2011-01-16T11:55:42Z</time>
      </trkpt>
      <trkpt lat="43.59527" lon="3.73042">
        <ele>156.3</ele>
        <time>2011-01-16T11:55:45Z</time>
      </trkpt>
      <trkpt lat="43.59519" lon="3.73047">
        <ele>156.9</ele>
        <time>2011-01-16T11:55:48Z</time>
      </trkpt>
      <trkpt lat="43.59517" lon="3.7305">
        <ele>156.9</ele>
        <time>2011-01-16T11:55:49Z</time>
      </trkpt>
      <trkpt lat="43.59508" lon="3.73055">
        <ele>157.3</ele>
        <time>2011-01-16T11:55:52Z</time>
      </trkpt>
      <trkpt lat="43.59502" lon="3.73059">
        <ele>157.5</ele>
        <time>2011-01-16T11:55:54Z</time>
      </trkpt>
      <trkpt lat="43.59496" lon="3.73063">
        <ele>157.5</ele>
        <time>2011-01-16T11:55:56Z</time>
      </trkpt>
      <trkpt lat="43.5949" lon="3.73067">
        <ele>157.8</ele>
        <time>2011-01-16T11:55:58Z</time>
      </trkpt>
      <trkpt lat="43.59484" lon="3.73071">
        <ele>158.1</ele>
        <time>2011-01-16T11:56:00Z</time>
      </trkpt>
      <trkpt lat="43.59478" lon="3.73075">
        <ele>158</ele>
        <time>2011-01-16T11:56:02Z</time>
      </trkpt>
      <trkpt lat="43.59472" lon="3.73079">
        <ele>158</ele>
        <time>2011-01-16T11:56:04Z</time>
      </trkpt>
      <trkpt lat="43.59465" lon="3.73083">
        <ele>158</ele>
        <time>2011-01-16T11:56:06Z</time>
      </trkpt>
      <trkpt lat="43.59459" lon="3.73086">
        <ele>158.1</ele>
        <time>2011-01-16T11:56:08Z</time>
      </trkpt>
      <trkpt lat="43.59451" lon="3.7309">
        <ele>158.2</ele>
        <time>2011-01-16T11:56:10Z</time>
      </trkpt>
      <trkpt lat="43.59444" lon="3.73093">
        <ele>158.3</ele>
        <time>2011-01-16T11:56:12Z</time>
      </trkpt>
      <trkpt lat="43.59436" lon="3.73097">
        <ele>158.8</ele>
        <time>2011-01-16T11:56:14Z</time>
      </trkpt>
      <trkpt lat="43.59428" lon="3.73101">
        <ele>159.3</ele>
        <time>2011-01-16T11:56:16Z</time>
      </trkpt>
      <trkpt lat="43.59423" lon="3.73104">
        <ele>159.4</ele>
        <time>2011-01-16T11:56:17Z</time>
      </trkpt>
      <trkpt lat="43.59419" lon="3.73105">
        <ele>159.5</ele>
        <time>2011-01-16T11:56:18Z</time>
      </trkpt>
      <trkpt lat="43.59414" lon="3.73107">
        <ele>159.6</ele>
        <time>2011-01-16T11:56:19Z</time>
      </trkpt>
      <trkpt lat="43.5941" lon="3.73109">
        <ele>159.1</ele>
        <time>2011-01-16T11:56:20Z</time>
      </trkpt>
      <trkpt lat="43.59405" lon="3.73111">
        <ele>158.8</ele>
        <time>2011-01-16T11:56:21Z</time>
      </trkpt>
      <trkpt lat="43.594" lon="3.73114">
        <ele>158.5</ele>
        <time>2011-01-16T11:56:22Z</time>
      </trkpt>
      <trkpt lat="43.59394" lon="3.73116">
        <ele>158</ele>
        <time>2011-01-16T11:56:23Z</time>
      </trkpt>
      <trkpt lat="43.59389" lon="3.73118">
        <ele>157.7</ele>
        <time>2011-01-16T11:56:24Z</time>
      </trkpt>
      <trkpt lat="43.59384" lon="3.7312">
        <ele>157.4</ele>
        <time>2011-01-16T11:56:25Z</time>
      </trkpt>
      <trkpt lat="43.59378" lon="3.73122">
        <ele>157.6</ele>
        <time>2011-01-16T11:56:26Z</time>
      </trkpt>
      <trkpt lat="43.59372" lon="3.73124">
        <ele>157.7</ele>
        <time>2011-01-16T11:56:27Z</time>
      </trkpt>
      <trkpt lat="43.59367" lon="3.73125">
        <ele>157.8</ele>
        <time>2011-01-16T11:56:28Z</time>
      </trkpt>
      <trkpt lat="43.59362" lon="3.73126">
        <ele>157.8</ele>
        <time>2011-01-16T11:56:29Z</time>
      </trkpt>
      <trkpt lat="43.59357" lon="3.73128">
        <ele>157.8</ele>
        <time>2011-01-16T11:56:30Z</time>
      </trkpt>
      <trkpt lat="43.59352" lon="3.73129">
        <ele>157.7</ele>
        <time>2011-01-16T11:56:31Z</time>
      </trkpt>
      <trkpt lat="43.59343" lon="3.73131">
        <ele>158.4</ele>
        <time>2011-01-16T11:56:33Z</time>
      </trkpt>
      <trkpt lat="43.59335" lon="3.73133">
        <ele>159.3</ele>
        <time>2011-01-16T11:56:35Z</time>
      </trkpt>
      <trkpt lat="43.59326" lon="3.73135">
        <ele>159.6</ele>
        <time>2011-01-16T11:56:37Z</time>
      </trkpt>
      <trkpt lat="43.59322" lon="3.73136">
        <ele>159.7</ele>
        <time>2011-01-16T11:56:38Z</time>
      </trkpt>
      <trkpt lat="43.59317" lon="3.73137">
        <ele>159.6</ele>
        <time>2011-01-16T11:56:39Z</time>
      </trkpt>
      <trkpt lat="43.59313" lon="3.73138">
        <ele>159.6</ele>
        <time>2011-01-16T11:56:40Z</time>
      </trkpt>
      <trkpt lat="43.59308" lon="3.73139">
        <ele>159.6</ele>
        <time>2011-01-16T11:56:41Z</time>
      </trkpt>
      <trkpt lat="43.59304" lon="3.73141">
        <ele>160</ele>
        <time>2011-01-16T11:56:42Z</time>
      </trkpt>
      <trkpt lat="43.593" lon="3.73145">
        <ele>160.2</ele>
        <time>2011-01-16T11:56:43Z</time>
      </trkpt>
      <trkpt lat="43.59295" lon="3.73156">
        <ele>160.5</ele>
        <time>2011-01-16T11:56:45Z</time>
      </trkpt>
      <trkpt lat="43.59292" lon="3.73167">
        <ele>160.2</ele>
        <time>2011-01-16T11:56:47Z</time>
      </trkpt>
      <trkpt lat="43.5929" lon="3.73173">
        <ele>160</ele>
        <time>2011-01-16T11:56:48Z</time>
      </trkpt>
      <trkpt lat="43.59288" lon="3.73178">
        <ele>160</ele>
        <time>2011-01-16T11:56:49Z</time>
      </trkpt>
      <trkpt lat="43.59285" lon="3.73184">
        <ele>160</ele>
        <time>2011-01-16T11:56:50Z</time>
      </trkpt>
      <trkpt lat="43.59282" lon="3.73189">
        <ele>160</ele>
        <time>2011-01-16T11:56:51Z</time>
      </trkpt>
      <trkpt lat="43.5928" lon="3.73195">
        <ele>160.5</ele>
        <time>2011-01-16T11:56:52Z</time>
      </trkpt>
      <trkpt lat="43.59277" lon="3.73201">
        <ele>160.9</ele>
        <time>2011-01-16T11:56:53Z</time>
      </trkpt>
      <trkpt lat="43.59274" lon="3.73208">
        <ele>161.1</ele>
        <time>2011-01-16T11:56:54Z</time>
      </trkpt>
      <trkpt lat="43.59271" lon="3.73215">
        <ele>160.3</ele>
        <time>2011-01-16T11:56:55Z</time>
      </trkpt>
      <trkpt lat="43.59268" lon="3.73222">
        <ele>159.8</ele>
        <time>2011-01-16T11:56:56Z</time>
      </trkpt>
      <trkpt lat="43.59265" lon="3.73229">
        <ele>159.3</ele>
        <time>2011-01-16T11:56:57Z</time>
      </trkpt>
      <trkpt lat="43.59262" lon="3.73236">
        <ele>158.6</ele>
        <time>2011-01-16T11:56:58Z</time>
      </trkpt>
      <trkpt lat="43.59258" lon="3.73243">
        <ele>158.1</ele>
        <time>2011-01-16T11:56:59Z</time>
      </trkpt>
      <trkpt lat="43.59254" lon="3.7325">
        <ele>157.8</ele>
        <time>2011-01-16T11:57:00Z</time>
      </trkpt>
      <trkpt lat="43.5925" lon="3.73257">
        <ele>157.5</ele>
        <time>2011-01-16T11:57:01Z</time>
      </trkpt>
      <trkpt lat="43.59247" lon="3.73263">
        <ele>156.4</ele>
        <time>2011-01-16T11:57:02Z</time>
      </trkpt>
      <trkpt lat="43.59244" lon="3.73269">
        <ele>155.5</ele>
        <time>2011-01-16T11:57:03Z</time>
      </trkpt>
      <trkpt lat="43.5924" lon="3.73275">
        <ele>154.9</ele>
        <time>2011-01-16T11:57:04Z</time>
      </trkpt>
      <trkpt lat="43.59237" lon="3.7328">
        <ele>153.8</ele>
        <time>2011-01-16T11:57:05Z</time>
      </trkpt>
      <trkpt lat="43.59233" lon="3.73287">
        <ele>152.9</ele>
        <time>2011-01-16T11:57:06Z</time>
      </trkpt>
      <trkpt lat="43.5923" lon="3.73294">
        <ele>152.3</ele>
        <time>2011-01-16T11:57:07Z</time>
      </trkpt>
      <trkpt lat="43.59226" lon="3.73301">
        <ele>150.9</ele>
        <time>2011-01-16T11:57:08Z</time>
      </trkpt>
      <trkpt lat="43.59221" lon="3.73309">
        <ele>149.9</ele>
        <time>2011-01-16T11:57:09Z</time>
      </trkpt>
      <trkpt lat="43.59216" lon="3.73317">
        <ele>149.1</ele>
        <time>2011-01-16T11:57:10Z</time>
      </trkpt>
      <trkpt lat="43.59211" lon="3.73324">
        <ele>147.6</ele>
        <time>2011-01-16T11:57:11Z</time>
      </trkpt>
      <trkpt lat="43.59205" lon="3.73331">
        <ele>146.5</ele>
        <time>2011-01-16T11:57:12Z</time>
      </trkpt>
      <trkpt lat="43.59199" lon="3.73337">
        <ele>145.6</ele>
        <time>2011-01-16T11:57:13Z</time>
      </trkpt>
      <trkpt lat="43.59193" lon="3.73343">
        <ele>144.7</ele>
        <time>2011-01-16T11:57:14Z</time>
      </trkpt>
      <trkpt lat="43.59186" lon="3.73349">
        <ele>144</ele>
        <time>2011-01-16T11:57:15Z</time>
      </trkpt>
      <trkpt lat="43.5918" lon="3.73354">
        <ele>143.5</ele>
        <time>2011-01-16T11:57:16Z</time>
      </trkpt>
      <trkpt lat="43.59173" lon="3.73358">
        <ele>143.2</ele>
        <time>2011-01-16T11:57:17Z</time>
      </trkpt>
      <trkpt lat="43.59166" lon="3.73363">
        <ele>142.6</ele>
        <time>2011-01-16T11:57:18Z</time>
      </trkpt>
      <trkpt lat="43.5916" lon="3.73368">
        <ele>142.2</ele>
        <time>2011-01-16T11:57:19Z</time>
      </trkpt>
      <trkpt lat="43.59154" lon="3.73372">
        <ele>141.9</ele>
        <time>2011-01-16T11:57:20Z</time>
      </trkpt>
      <trkpt lat="43.59148" lon="3.73376">
        <ele>141.6</ele>
        <time>2011-01-16T11:57:21Z</time>
      </trkpt>
      <trkpt lat="43.59142" lon="3.73379">
        <ele>141.4</ele>
        <time>2011-01-16T11:57:22Z</time>
      </trkpt>
      <trkpt lat="43.59136" lon="3.73383">
        <ele>141.2</ele>
        <time>2011-01-16T11:57:23Z</time>
      </trkpt>
      <trkpt lat="43.59129" lon="3.73388">
        <ele>140.7</ele>
        <time>2011-01-16T11:57:24Z</time>
      </trkpt>
      <trkpt lat="43.59123" lon="3.73392">
        <ele>140.4</ele>
        <time>2011-01-16T11:57:25Z</time>
      </trkpt>
      <trkpt lat="43.59116" lon="3.73395">
        <ele>140.1</ele>
        <time>2011-01-16T11:57:26Z</time>
      </trkpt>
      <trkpt lat="43.5911" lon="3.73399">
        <ele>139.7</ele>
        <time>2011-01-16T11:57:27Z</time>
      </trkpt>
      <trkpt lat="43.59103" lon="3.73403">
        <ele>139.4</ele>
        <time>2011-01-16T11:57:28Z</time>
      </trkpt>
      <trkpt lat="43.59098" lon="3.73407">
        <ele>139.2</ele>
        <time>2011-01-16T11:57:29Z</time>
      </trkpt>
      <trkpt lat="43.59092" lon="3.73412">
        <ele>138.9</ele>
        <time>2011-01-16T11:57:30Z</time>
      </trkpt>
      <trkpt lat="43.59087" lon="3.73416">
        <ele>138.6</ele>
        <time>2011-01-16T11:57:31Z</time>
      </trkpt>
      <trkpt lat="43.59081" lon="3.73419">
        <ele>138.4</ele>
        <time>2011-01-16T11:57:32Z</time>
      </trkpt>
      <trkpt lat="43.59075" lon="3.73422">
        <ele>137.9</ele>
        <time>2011-01-16T11:57:33Z</time>
      </trkpt>
      <trkpt lat="43.59069" lon="3.73425">
        <ele>137.6</ele>
        <time>2011-01-16T11:57:34Z</time>
      </trkpt>
      <trkpt lat="43.59063" lon="3.73427">
        <ele>137.4</ele>
        <time>2011-01-16T11:57:35Z</time>
      </trkpt>
      <trkpt lat="43.59057" lon="3.7343">
        <ele>137.2</ele>
        <time>2011-01-16T11:57:36Z</time>
      </trkpt>
      <trkpt lat="43.59051" lon="3.73433">
        <ele>136.9</ele>
        <time>2011-01-16T11:57:37Z</time>
      </trkpt>
      <trkpt lat="43.59044" lon="3.73435">
        <ele>136.8</ele>
        <time>2011-01-16T11:57:38Z</time>
      </trkpt>
      <trkpt lat="43.59038" lon="3.73437">
        <ele>136.6</ele>
        <time>2011-01-16T11:57:39Z</time>
      </trkpt>
      <trkpt lat="43.59031" lon="3.73438">
        <ele>136.4</ele>
        <time>2011-01-16T11:57:40Z</time>
      </trkpt>
      <trkpt lat="43.59025" lon="3.73439">
        <ele>136.2</ele>
        <time>2011-01-16T11:57:41Z</time>
      </trkpt>
      <trkpt lat="43.59018" lon="3.73438">
        <ele>136.1</ele>
        <time>2011-01-16T11:57:42Z</time>
      </trkpt>
      <trkpt lat="43.59012" lon="3.73437">
        <ele>136</ele>
        <time>2011-01-16T11:57:43Z</time>
      </trkpt>
      <trkpt lat="43.59005" lon="3.73436">
        <ele>135.9</ele>
        <time>2011-01-16T11:57:44Z</time>
      </trkpt>
      <trkpt lat="43.58999" lon="3.73435">
        <ele>135.9</ele>
        <time>2011-01-16T11:57:45Z</time>
      </trkpt>
      <trkpt lat="43.58993" lon="3.73435">
        <ele>135.9</ele>
        <time>2011-01-16T11:57:46Z</time>
      </trkpt>
      <trkpt lat="43.58988" lon="3.73435">
        <ele>136</ele>
        <time>2011-01-16T11:57:47Z</time>
      </trkpt>
      <trkpt lat="43.58984" lon="3.73437">
        <ele>136</ele>
        <time>2011-01-16T11:57:48Z</time>
      </trkpt>
      <trkpt lat="43.58979" lon="3.73439">
        <ele>136.3</ele>
        <time>2011-01-16T11:57:49Z</time>
      </trkpt>
      <trkpt lat="43.58974" lon="3.73441">
        <ele>136.6</ele>
        <time>2011-01-16T11:57:50Z</time>
      </trkpt>
      <trkpt lat="43.5897" lon="3.73443">
        <ele>136.7</ele>
        <time>2011-01-16T11:57:51Z</time>
      </trkpt>
      <trkpt lat="43.58962" lon="3.73449">
        <ele>137</ele>
        <time>2011-01-16T11:57:53Z</time>
      </trkpt>
      <trkpt lat="43.58955" lon="3.73456">
        <ele>137.1</ele>
        <time>2011-01-16T11:57:55Z</time>
      </trkpt>
      <trkpt lat="43.5895" lon="3.73461">
        <ele>137.9</ele>
        <time>2011-01-16T11:57:57Z</time>
      </trkpt>
      <trkpt lat="43.58945" lon="3.73468">
        <ele>138.4</ele>
        <time>2011-01-16T11:57:59Z</time>
      </trkpt>
      <trkpt lat="43.58941" lon="3.73475">
        <ele>138.7</ele>
        <time>2011-01-16T11:58:01Z</time>
      </trkpt>
      <trkpt lat="43.58936" lon="3.73482">
        <ele>139.2</ele>
        <time>2011-01-16T11:58:03Z</time>
      </trkpt>
      <trkpt lat="43.58931" lon="3.73488">
        <ele>139.5</ele>
        <time>2011-01-16T11:58:05Z</time>
      </trkpt>
      <trkpt lat="43.58927" lon="3.73496">
        <ele>139.7</ele>
        <time>2011-01-16T11:58:07Z</time>
      </trkpt>
      <trkpt lat="43.58921" lon="3.73504">
        <ele>139.6</ele>
        <time>2011-01-16T11:58:09Z</time>
      </trkpt>
      <trkpt lat="43.58916" lon="3.73512">
        <ele>139.4</ele>
        <time>2011-01-16T11:58:11Z</time>
      </trkpt>
      <trkpt lat="43.58911" lon="3.73521">
        <ele>139.2</ele>
        <time>2011-01-16T11:58:13Z</time>
      </trkpt>
      <trkpt lat="43.58906" lon="3.73529">
        <ele>139.3</ele>
        <time>2011-01-16T11:58:15Z</time>
      </trkpt>
      <trkpt lat="43.58901" lon="3.73537">
        <ele>139.5</ele>
        <time>2011-01-16T11:58:17Z</time>
      </trkpt>
      <trkpt lat="43.58895" lon="3.73546">
        <ele>140.3</ele>
        <time>2011-01-16T11:58:20Z</time>
      </trkpt>
      <trkpt lat="43.58887" lon="3.73545">
        <ele>139.7</ele>
        <time>2011-01-16T11:58:26Z</time>
      </trkpt>
      <trkpt lat="43.5888" lon="3.73549">
        <ele>139.8</ele>
        <time>2011-01-16T11:58:31Z</time>
      </trkpt>
      <trkpt lat="43.58873" lon="3.73555">
        <ele>139.7</ele>
        <time>2011-01-16T11:58:35Z</time>
      </trkpt>
      <trkpt lat="43.58866" lon="3.7356">
        <ele>139.2</ele>
        <time>2011-01-16T11:58:38Z</time>
      </trkpt>
      <trkpt lat="43.58858" lon="3.73564">
        <ele>138.6</ele>
        <time>2011-01-16T11:58:43Z</time>
      </trkpt>
      <trkpt lat="43.58851" lon="3.73571">
        <ele>138</ele>
        <time>2011-01-16T11:58:51Z</time>
      </trkpt>
      <trkpt lat="43.5885" lon="3.73571">
        <ele>138</ele>
        <time>2011-01-16T11:58:52Z</time>
      </trkpt>
      <trkpt lat="43.5884" lon="3.73582">
        <ele>137.4</ele>
        <time>2011-01-16T11:59:14Z</time>
      </trkpt>
      <trkpt lat="43.58834" lon="3.7359">
        <ele>137</ele>
        <time>2011-01-16T11:59:16Z</time>
      </trkpt>
      <trkpt lat="43.5883" lon="3.73595">
        <ele>136.8</ele>
        <time>2011-01-16T11:59:17Z</time>
      </trkpt>
      <trkpt lat="43.58826" lon="3.73599">
        <ele>136.6</ele>
        <time>2011-01-16T11:59:18Z</time>
      </trkpt>
      <trkpt lat="43.58821" lon="3.73603">
        <ele>135.8</ele>
        <time>2011-01-16T11:59:19Z</time>
      </trkpt>
      <trkpt lat="43.58816" lon="3.73608">
        <ele>135.1</ele>
        <time>2011-01-16T11:59:20Z</time>
      </trkpt>
      <trkpt lat="43.58812" lon="3.73614">
        <ele>134.6</ele>
        <time>2011-01-16T11:59:21Z</time>
      </trkpt>
      <trkpt lat="43.58807" lon="3.73619">
        <ele>133.7</ele>
        <time>2011-01-16T11:59:22Z</time>
      </trkpt>
      <trkpt lat="43.58802" lon="3.73624">
        <ele>133</ele>
        <time>2011-01-16T11:59:23Z</time>
      </trkpt>
      <trkpt lat="43.58797" lon="3.73628">
        <ele>132.5</ele>
        <time>2011-01-16T11:59:24Z</time>
      </trkpt>
      <trkpt lat="43.58791" lon="3.73632">
        <ele>131.5</ele>
        <time>2011-01-16T11:59:25Z</time>
      </trkpt>
      <trkpt lat="43.58785" lon="3.73635">
        <ele>130.7</ele>
        <time>2011-01-16T11:59:26Z</time>
      </trkpt>
      <trkpt lat="43.58778" lon="3.73636">
        <ele>130.1</ele>
        <time>2011-01-16T11:59:27Z</time>
      </trkpt>
      <trkpt lat="43.58772" lon="3.73637">
        <ele>129.5</ele>
        <time>2011-01-16T11:59:28Z</time>
      </trkpt>
      <trkpt lat="43.58766" lon="3.73639">
        <ele>129</ele>
        <time>2011-01-16T11:59:29Z</time>
      </trkpt>
      <trkpt lat="43.5876" lon="3.73642">
        <ele>128.6</ele>
        <time>2011-01-16T11:59:30Z</time>
      </trkpt>
      <trkpt lat="43.58755" lon="3.73647">
        <ele>128.3</ele>
        <time>2011-01-16T11:59:31Z</time>
      </trkpt>
      <trkpt lat="43.58749" lon="3.73652">
        <ele>128.1</ele>
        <time>2011-01-16T11:59:32Z</time>
      </trkpt>
      <trkpt lat="43.58744" lon="3.73657">
        <ele>128</ele>
        <time>2011-01-16T11:59:33Z</time>
      </trkpt>
      <trkpt lat="43.58739" lon="3.73661">
        <ele>127.9</ele>
        <time>2011-01-16T11:59:34Z</time>
      </trkpt>
      <trkpt lat="43.58734" lon="3.73661">
        <ele>127.1</ele>
        <time>2011-01-16T11:59:35Z</time>
      </trkpt>
      <trkpt lat="43.58728" lon="3.7366">
        <ele>126.5</ele>
        <time>2011-01-16T11:59:36Z</time>
      </trkpt>
      <trkpt lat="43.58723" lon="3.73658">
        <ele>126.1</ele>
        <time>2011-01-16T11:59:37Z</time>
      </trkpt>
      <trkpt lat="43.58717" lon="3.73655">
        <ele>125.5</ele>
        <time>2011-01-16T11:59:38Z</time>
      </trkpt>
      <trkpt lat="43.58712" lon="3.73652">
        <ele>125</ele>
        <time>2011-01-16T11:59:39Z</time>
      </trkpt>
      <trkpt lat="43.58706" lon="3.73649">
        <ele>124.7</ele>
        <time>2011-01-16T11:59:40Z</time>
      </trkpt>
      <trkpt lat="43.58701" lon="3.73644">
        <ele>124.8</ele>
        <time>2011-01-16T11:59:41Z</time>
      </trkpt>
      <trkpt lat="43.58697" lon="3.7364">
        <ele>124.8</ele>
        <time>2011-01-16T11:59:42Z</time>
      </trkpt>
      <trkpt lat="43.58692" lon="3.73635">
        <ele>124.9</ele>
        <time>2011-01-16T11:59:43Z</time>
      </trkpt>
      <trkpt lat="43.58687" lon="3.73631">
        <ele>125.3</ele>
        <time>2011-01-16T11:59:44Z</time>
      </trkpt>
      <trkpt lat="43.58682" lon="3.73627">
        <ele>125.6</ele>
        <time>2011-01-16T11:59:45Z</time>
      </trkpt>
      <trkpt lat="43.58676" lon="3.73622">
        <ele>125.8</ele>
        <time>2011-01-16T11:59:46Z</time>
      </trkpt>
      <trkpt lat="43.58671" lon="3.73618">
        <ele>126</ele>
        <time>2011-01-16T11:59:47Z</time>
      </trkpt>
      <trkpt lat="43.58665" lon="3.73615">
        <ele>126.1</ele>
        <time>2011-01-16T11:59:48Z</time>
      </trkpt>
      <trkpt lat="43.58659" lon="3.73615">
        <ele>126.2</ele>
        <time>2011-01-16T11:59:49Z</time>
      </trkpt>
      <trkpt lat="43.58651" lon="3.73614">
        <ele>126.3</ele>
        <time>2011-01-16T11:59:50Z</time>
      </trkpt>
      <trkpt lat="43.58645" lon="3.73615">
        <ele>125.9</ele>
        <time>2011-01-16T11:59:51Z</time>
      </trkpt>
      <trkpt lat="43.5864" lon="3.73617">
        <ele>125.6</ele>
        <time>2011-01-16T11:59:52Z</time>
      </trkpt>
      <trkpt lat="43.58636" lon="3.73619">
        <ele>125.4</ele>
        <time>2011-01-16T11:59:53Z</time>
      </trkpt>
      <trkpt lat="43.58626" lon="3.73622">
        <ele>124.9</ele>
        <time>2011-01-16T11:59:57Z</time>
      </trkpt>
      <trkpt lat="43.58618" lon="3.7362">
        <ele>124.9</ele>
        <time>2011-01-16T11:59:59Z</time>
      </trkpt>
      <trkpt lat="43.58611" lon="3.73616">
        <ele>124.7</ele>
        <time>2011-01-16T12:00:01Z</time>
      </trkpt>
      <trkpt lat="43.58603" lon="3.73613">
        <ele>124.1</ele>
        <time>2011-01-16T12:00:04Z</time>
      </trkpt>
      <trkpt lat="43.58595" lon="3.73609">
        <ele>124.5</ele>
        <time>2011-01-16T12:00:07Z</time>
      </trkpt>
      <trkpt lat="43.5859" lon="3.73606">
        <ele>125.3</ele>
        <time>2011-01-16T12:00:09Z</time>
      </trkpt>
      <trkpt lat="43.58582" lon="3.73601">
        <ele>125.6</ele>
        <time>2011-01-16T12:00:11Z</time>
      </trkpt>
      <trkpt lat="43.58575" lon="3.73597">
        <ele>125.6</ele>
        <time>2011-01-16T12:00:13Z</time>
      </trkpt>
      <trkpt lat="43.58566" lon="3.73594">
        <ele>125.5</ele>
        <time>2011-01-16T12:00:15Z</time>
      </trkpt>
      <trkpt lat="43.58557" lon="3.73592">
        <ele>125.4</ele>
        <time>2011-01-16T12:00:17Z</time>
      </trkpt>
      <trkpt lat="43.5855" lon="3.73589">
        <ele>125.3</ele>
        <time>2011-01-16T12:00:19Z</time>
      </trkpt>
      <trkpt lat="43.58543" lon="3.7359">
        <ele>125.4</ele>
        <time>2011-01-16T12:00:21Z</time>
      </trkpt>
      <trkpt lat="43.58538" lon="3.73599">
        <ele>125.4</ele>
        <time>2011-01-16T12:00:23Z</time>
      </trkpt>
      <trkpt lat="43.58535" lon="3.7361">
        <ele>125.4</ele>
        <time>2011-01-16T12:00:25Z</time>
      </trkpt>
      <trkpt lat="43.58533" lon="3.73616">
        <ele>125.4</ele>
        <time>2011-01-16T12:00:26Z</time>
      </trkpt>
      <trkpt lat="43.5853" lon="3.73621">
        <ele>125.5</ele>
        <time>2011-01-16T12:00:27Z</time>
      </trkpt>
      <trkpt lat="43.58525" lon="3.73631">
        <ele>125.5</ele>
        <time>2011-01-16T12:00:29Z</time>
      </trkpt>
      <trkpt lat="43.5852" lon="3.7364">
        <ele>125.4</ele>
        <time>2011-01-16T12:00:31Z</time>
      </trkpt>
      <trkpt lat="43.58515" lon="3.73649">
        <ele>125.3</ele>
        <time>2011-01-16T12:00:33Z</time>
      </trkpt>
      <trkpt lat="43.58511" lon="3.73657">
        <ele>125.6</ele>
        <time>2011-01-16T12:00:35Z</time>
      </trkpt>
      <trkpt lat="43.58506" lon="3.73665">
        <ele>126</ele>
        <time>2011-01-16T12:00:37Z</time>
      </trkpt>
      <trkpt lat="43.58502" lon="3.73673">
        <ele>126.5</ele>
        <time>2011-01-16T12:00:39Z</time>
      </trkpt>
      <trkpt lat="43.58497" lon="3.7368">
        <ele>126.9</ele>
        <time>2011-01-16T12:00:41Z</time>
      </trkpt>
      <trkpt lat="43.58492" lon="3.73687">
        <ele>127.9</ele>
        <time>2011-01-16T12:00:43Z</time>
      </trkpt>
      <trkpt lat="43.58488" lon="3.73694">
        <ele>128.6</ele>
        <time>2011-01-16T12:00:45Z</time>
      </trkpt>
      <trkpt lat="43.58484" lon="3.73701">
        <ele>129</ele>
        <time>2011-01-16T12:00:47Z</time>
      </trkpt>
      <trkpt lat="43.5848" lon="3.73709">
        <ele>129</ele>
        <time>2011-01-16T12:00:49Z</time>
      </trkpt>
      <trkpt lat="43.58477" lon="3.73717">
        <ele>129.3</ele>
        <time>2011-01-16T12:00:51Z</time>
      </trkpt>
      <trkpt lat="43.58473" lon="3.73725">
        <ele>129.7</ele>
        <time>2011-01-16T12:00:53Z</time>
      </trkpt>
      <trkpt lat="43.58469" lon="3.73733">
        <ele>130</ele>
        <time>2011-01-16T12:00:55Z</time>
      </trkpt>
      <trkpt lat="43.58466" lon="3.73738">
        <ele>130.2</ele>
        <time>2011-01-16T12:00:56Z</time>
      </trkpt>
      <trkpt lat="43.5846" lon="3.73747">
        <ele>130.1</ele>
        <time>2011-01-16T12:00:58Z</time>
      </trkpt>
      <trkpt lat="43.58457" lon="3.73752">
        <ele>130</ele>
        <time>2011-01-16T12:00:59Z</time>
      </trkpt>
      <trkpt lat="43.58454" lon="3.73758">
        <ele>129.9</ele>
        <time>2011-01-16T12:01:00Z</time>
      </trkpt>
      <trkpt lat="43.58451" lon="3.73764">
        <ele>129.1</ele>
        <time>2011-01-16T12:01:01Z</time>
      </trkpt>
      <trkpt lat="43.58446" lon="3.7377">
        <ele>128.5</ele>
        <time>2011-01-16T12:01:02Z</time>
      </trkpt>
      <trkpt lat="43.58442" lon="3.73776">
        <ele>128.1</ele>
        <time>2011-01-16T12:01:03Z</time>
      </trkpt>
      <trkpt lat="43.58438" lon="3.73783">
        <ele>127.4</ele>
        <time>2011-01-16T12:01:04Z</time>
      </trkpt>
      <trkpt lat="43.58435" lon="3.73791">
        <ele>126.8</ele>
        <time>2011-01-16T12:01:05Z</time>
      </trkpt>
      <trkpt lat="43.58433" lon="3.738">
        <ele>126.4</ele>
        <time>2011-01-16T12:01:06Z</time>
      </trkpt>
      <trkpt lat="43.58431" lon="3.73809">
        <ele>125.6</ele>
        <time>2011-01-16T12:01:07Z</time>
      </trkpt>
      <trkpt lat="43.5843" lon="3.73818">
        <ele>125</ele>
        <time>2011-01-16T12:01:08Z</time>
      </trkpt>
      <trkpt lat="43.58429" lon="3.73827">
        <ele>124.5</ele>
        <time>2011-01-16T12:01:09Z</time>
      </trkpt>
      <trkpt lat="43.58428" lon="3.73838">
        <ele>124.2</ele>
        <time>2011-01-16T12:01:10Z</time>
      </trkpt>
      <trkpt lat="43.58428" lon="3.73848">
        <ele>123.2</ele>
        <time>2011-01-16T12:01:11Z</time>
      </trkpt>
      <trkpt lat="43.58427" lon="3.73859">
        <ele>122.4</ele>
        <time>2011-01-16T12:01:12Z</time>
      </trkpt>
      <trkpt lat="43.58427" lon="3.7387">
        <ele>121.8</ele>
        <time>2011-01-16T12:01:13Z</time>
      </trkpt>
      <trkpt lat="43.58426" lon="3.73881">
        <ele>120.8</ele>
        <time>2011-01-16T12:01:14Z</time>
      </trkpt>
      <trkpt lat="43.58424" lon="3.73892">
        <ele>120.1</ele>
        <time>2011-01-16T12:01:15Z</time>
      </trkpt>
      <trkpt lat="43.58422" lon="3.73903">
        <ele>119.5</ele>
        <time>2011-01-16T12:01:16Z</time>
      </trkpt>
      <trkpt lat="43.5842" lon="3.73914">
        <ele>118.6</ele>
        <time>2011-01-16T12:01:17Z</time>
      </trkpt>
      <trkpt lat="43.58418" lon="3.73925">
        <ele>118</ele>
        <time>2011-01-16T12:01:18Z</time>
      </trkpt>
      <trkpt lat="43.58417" lon="3.73936">
        <ele>117.5</ele>
        <time>2011-01-16T12:01:19Z</time>
      </trkpt>
      <trkpt lat="43.58416" lon="3.73947">
        <ele>116.7</ele>
        <time>2011-01-16T12:01:20Z</time>
      </trkpt>
      <trkpt lat="43.58414" lon="3.73958">
        <ele>116.1</ele>
        <time>2011-01-16T12:01:21Z</time>
      </trkpt>
      <trkpt lat="43.58411" lon="3.73968">
        <ele>115.7</ele>
        <time>2011-01-16T12:01:22Z</time>
      </trkpt>
      <trkpt lat="43.58407" lon="3.73978">
        <ele>114.5</ele>
        <time>2011-01-16T12:01:23Z</time>
      </trkpt>
      <trkpt lat="43.58403" lon="3.73988">
        <ele>113.7</ele>
        <time>2011-01-16T12:01:24Z</time>
      </trkpt>
      <trkpt lat="43.58398" lon="3.73997">
        <ele>113</ele>
        <time>2011-01-16T12:01:25Z</time>
      </trkpt>
      <trkpt lat="43.58393" lon="3.74006">
        <ele>112.2</ele>
        <time>2011-01-16T12:01:26Z</time>
      </trkpt>
      <trkpt lat="43.58388" lon="3.74015">
        <ele>111.7</ele>
        <time>2011-01-16T12:01:27Z</time>
      </trkpt>
      <trkpt lat="43.58383" lon="3.74024">
        <ele>111.2</ele>
        <time>2011-01-16T12:01:28Z</time>
      </trkpt>
      <trkpt lat="43.58378" lon="3.74032">
        <ele>110.9</ele>
        <time>2011-01-16T12:01:29Z</time>
      </trkpt>
      <trkpt lat="43.58374" lon="3.74041">
        <ele>110.5</ele>
        <time>2011-01-16T12:01:30Z</time>
      </trkpt>
      <trkpt lat="43.58371" lon="3.7405">
        <ele>110.2</ele>
        <time>2011-01-16T12:01:31Z</time>
      </trkpt>
      <trkpt lat="43.58367" lon="3.74058">
        <ele>109.9</ele>
        <time>2011-01-16T12:01:32Z</time>
      </trkpt>
      <trkpt lat="43.58364" lon="3.74066">
        <ele>110.2</ele>
        <time>2011-01-16T12:01:33Z</time>
      </trkpt>
      <trkpt lat="43.5836" lon="3.74073">
        <ele>110.4</ele>
        <time>2011-01-16T12:01:34Z</time>
      </trkpt>
      <trkpt lat="43.58357" lon="3.7408">
        <ele>110.6</ele>
        <time>2011-01-16T12:01:35Z</time>
      </trkpt>
      <trkpt lat="43.58353" lon="3.74086">
        <ele>110.6</ele>
        <time>2011-01-16T12:01:36Z</time>
      </trkpt>
      <trkpt lat="43.58349" lon="3.74092">
        <ele>110.6</ele>
        <time>2011-01-16T12:01:37Z</time>
      </trkpt>
      <trkpt lat="43.58344" lon="3.74098">
        <ele>110.6</ele>
        <time>2011-01-16T12:01:38Z</time>
      </trkpt>
      <trkpt lat="43.5834" lon="3.74103">
        <ele>110.8</ele>
        <time>2011-01-16T12:01:39Z</time>
      </trkpt>
      <trkpt lat="43.58336" lon="3.74108">
        <ele>111</ele>
        <time>2011-01-16T12:01:40Z</time>
      </trkpt>
      <trkpt lat="43.58332" lon="3.74113">
        <ele>111.1</ele>
        <time>2011-01-16T12:01:41Z</time>
      </trkpt>
      <trkpt lat="43.58328" lon="3.74117">
        <ele>111.3</ele>
        <time>2011-01-16T12:01:42Z</time>
      </trkpt>
      <trkpt lat="43.58323" lon="3.74125">
        <ele>111.5</ele>
        <time>2011-01-16T12:01:44Z</time>
      </trkpt>
      <trkpt lat="43.58314" lon="3.74126">
        <ele>112.1</ele>
        <time>2011-01-16T12:01:47Z</time>
      </trkpt>
      <trkpt lat="43.58307" lon="3.74127">
        <ele>112.3</ele>
        <time>2011-01-16T12:01:49Z</time>
      </trkpt>
      <trkpt lat="43.583" lon="3.74132">
        <ele>112.4</ele>
        <time>2011-01-16T12:01:51Z</time>
      </trkpt>
      <trkpt lat="43.58294" lon="3.74139">
        <ele>112.3</ele>
        <time>2011-01-16T12:01:53Z</time>
      </trkpt>
      <trkpt lat="43.58289" lon="3.74146">
        <ele>112</ele>
        <time>2011-01-16T12:01:55Z</time>
      </trkpt>
      <trkpt lat="43.58285" lon="3.74156">
        <ele>111.6</ele>
        <time>2011-01-16T12:01:57Z</time>
      </trkpt>
      <trkpt lat="43.58283" lon="3.74162">
        <ele>111.3</ele>
        <time>2011-01-16T12:01:58Z</time>
      </trkpt>
      <trkpt lat="43.5828" lon="3.74168">
        <ele>111.1</ele>
        <time>2011-01-16T12:01:59Z</time>
      </trkpt>
      <trkpt lat="43.58278" lon="3.74175">
        <ele>111</ele>
        <time>2011-01-16T12:02:00Z</time>
      </trkpt>
      <trkpt lat="43.58276" lon="3.74182">
        <ele>110.8</ele>
        <time>2011-01-16T12:02:01Z</time>
      </trkpt>
      <trkpt lat="43.58274" lon="3.74189">
        <ele>110</ele>
        <time>2011-01-16T12:02:02Z</time>
      </trkpt>
      <trkpt lat="43.58272" lon="3.74197">
        <ele>109.4</ele>
        <time>2011-01-16T12:02:03Z</time>
      </trkpt>
      <trkpt lat="43.5827" lon="3.74206">
        <ele>109</ele>
        <time>2011-01-16T12:02:04Z</time>
      </trkpt>
      <trkpt lat="43.58268" lon="3.74215">
        <ele>108.2</ele>
        <time>2011-01-16T12:02:05Z</time>
      </trkpt>
      <trkpt lat="43.58267" lon="3.74223">
        <ele>107.7</ele>
        <time>2011-01-16T12:02:06Z</time>
      </trkpt>
      <trkpt lat="43.58265" lon="3.74232">
        <ele>107.3</ele>
        <time>2011-01-16T12:02:07Z</time>
      </trkpt>
      <trkpt lat="43.58263" lon="3.74239">
        <ele>107.1</ele>
        <time>2011-01-16T12:02:08Z</time>
      </trkpt>
      <trkpt lat="43.5826" lon="3.74247">
        <ele>107</ele>
        <time>2011-01-16T12:02:09Z</time>
      </trkpt>
      <trkpt lat="43.58258" lon="3.74254">
        <ele>106.9</ele>
        <time>2011-01-16T12:02:10Z</time>
      </trkpt>
      <trkpt lat="43.58256" lon="3.74262">
        <ele>106.5</ele>
        <time>2011-01-16T12:02:11Z</time>
      </trkpt>
      <trkpt lat="43.58253" lon="3.74269">
        <ele>106.2</ele>
        <time>2011-01-16T12:02:12Z</time>
      </trkpt>
      <trkpt lat="43.58251" lon="3.74277">
        <ele>105.9</ele>
        <time>2011-01-16T12:02:13Z</time>
      </trkpt>
      <trkpt lat="43.58249" lon="3.74285">
        <ele>105.4</ele>
        <time>2011-01-16T12:02:14Z</time>
      </trkpt>
      <trkpt lat="43.58246" lon="3.74293">
        <ele>105</ele>
        <time>2011-01-16T12:02:15Z</time>
      </trkpt>
      <trkpt lat="43.58244" lon="3.74301">
        <ele>104.7</ele>
        <time>2011-01-16T12:02:16Z</time>
      </trkpt>
      <trkpt lat="43.58241" lon="3.74309">
        <ele>104.5</ele>
        <time>2011-01-16T12:02:17Z</time>
      </trkpt>
      <trkpt lat="43.58238" lon="3.74317">
        <ele>103.9</ele>
        <time>2011-01-16T12:02:18Z</time>
      </trkpt>
      <trkpt lat="43.58235" lon="3.74325">
        <ele>103.4</ele>
        <time>2011-01-16T12:02:19Z</time>
      </trkpt>
      <trkpt lat="43.58231" lon="3.74333">
        <ele>103.1</ele>
        <time>2011-01-16T12:02:20Z</time>
      </trkpt>
      <trkpt lat="43.58227" lon="3.74341">
        <ele>102.6</ele>
        <time>2011-01-16T12:02:21Z</time>
      </trkpt>
      <trkpt lat="43.58224" lon="3.74349">
        <ele>102.3</ele>
        <time>2011-01-16T12:02:22Z</time>
      </trkpt>
      <trkpt lat="43.5822" lon="3.74357">
        <ele>102</ele>
        <time>2011-01-16T12:02:23Z</time>
      </trkpt>
      <trkpt lat="43.58216" lon="3.74365">
        <ele>101.5</ele>
        <time>2011-01-16T12:02:24Z</time>
      </trkpt>
      <trkpt lat="43.58212" lon="3.74373">
        <ele>101.1</ele>
        <time>2011-01-16T12:02:25Z</time>
      </trkpt>
      <trkpt lat="43.58209" lon="3.74381">
        <ele>100.8</ele>
        <time>2011-01-16T12:02:26Z</time>
      </trkpt>
      <trkpt lat="43.58206" lon="3.7439">
        <ele>100.4</ele>
        <time>2011-01-16T12:02:27Z</time>
      </trkpt>
      <trkpt lat="43.58203" lon="3.74398">
        <ele>100.1</ele>
        <time>2011-01-16T12:02:28Z</time>
      </trkpt>
      <trkpt lat="43.582" lon="3.74407">
        <ele>99.9</ele>
        <time>2011-01-16T12:02:29Z</time>
      </trkpt>
      <trkpt lat="43.58198" lon="3.74415">
        <ele>99.3</ele>
        <time>2011-01-16T12:02:30Z</time>
      </trkpt>
      <trkpt lat="43.58195" lon="3.74422">
        <ele>98.8</ele>
        <time>2011-01-16T12:02:31Z</time>
      </trkpt>
      <trkpt lat="43.58192" lon="3.74429">
        <ele>98.5</ele>
        <time>2011-01-16T12:02:32Z</time>
      </trkpt>
      <trkpt lat="43.58188" lon="3.74436">
        <ele>97.9</ele>
        <time>2011-01-16T12:02:33Z</time>
      </trkpt>
      <trkpt lat="43.58184" lon="3.74442">
        <ele>97.4</ele>
        <time>2011-01-16T12:02:34Z</time>
      </trkpt>
      <trkpt lat="43.5818" lon="3.74447">
        <ele>97</ele>
        <time>2011-01-16T12:02:35Z</time>
      </trkpt>
      <trkpt lat="43.58175" lon="3.74452">
        <ele>96.8</ele>
        <time>2011-01-16T12:02:36Z</time>
      </trkpt>
      <trkpt lat="43.58169" lon="3.74455">
        <ele>96.8</ele>
        <time>2011-01-16T12:02:37Z</time>
      </trkpt>
      <trkpt lat="43.58164" lon="3.74459">
        <ele>96.8</ele>
        <time>2011-01-16T12:02:38Z</time>
      </trkpt>
      <trkpt lat="43.58158" lon="3.74462">
        <ele>96.8</ele>
        <time>2011-01-16T12:02:39Z</time>
      </trkpt>
      <trkpt lat="43.58152" lon="3.74466">
        <ele>96.4</ele>
        <time>2011-01-16T12:02:40Z</time>
      </trkpt>
      <trkpt lat="43.58145" lon="3.74469">
        <ele>96.1</ele>
        <time>2011-01-16T12:02:41Z</time>
      </trkpt>
      <trkpt lat="43.58139" lon="3.74472">
        <ele>95.9</ele>
        <time>2011-01-16T12:02:42Z</time>
      </trkpt>
      <trkpt lat="43.58133" lon="3.74475">
        <ele>95.4</ele>
        <time>2011-01-16T12:02:43Z</time>
      </trkpt>
      <trkpt lat="43.58126" lon="3.74477">
        <ele>95</ele>
        <time>2011-01-16T12:02:44Z</time>
      </trkpt>
      <trkpt lat="43.5812" lon="3.7448">
        <ele>94.8</ele>
        <time>2011-01-16T12:02:45Z</time>
      </trkpt>
      <trkpt lat="43.58113" lon="3.74483">
        <ele>94.3</ele>
        <time>2011-01-16T12:02:46Z</time>
      </trkpt>
      <trkpt lat="43.58108" lon="3.74487">
        <ele>93.9</ele>
        <time>2011-01-16T12:02:47Z</time>
      </trkpt>
      <trkpt lat="43.58102" lon="3.74491">
        <ele>93.6</ele>
        <time>2011-01-16T12:02:48Z</time>
      </trkpt>
      <trkpt lat="43.58097" lon="3.74496">
        <ele>92.9</ele>
        <time>2011-01-16T12:02:49Z</time>
      </trkpt>
      <trkpt lat="43.58092" lon="3.74502">
        <ele>92.4</ele>
        <time>2011-01-16T12:02:50Z</time>
      </trkpt>
      <trkpt lat="43.58087" lon="3.74508">
        <ele>92</ele>
        <time>2011-01-16T12:02:51Z</time>
      </trkpt>
      <trkpt lat="43.58083" lon="3.74513">
        <ele>91.7</ele>
        <time>2011-01-16T12:02:52Z</time>
      </trkpt>
      <trkpt lat="43.58079" lon="3.74519">
        <ele>91.9</ele>
        <time>2011-01-16T12:02:53Z</time>
      </trkpt>
      <trkpt lat="43.58075" lon="3.74524">
        <ele>92.1</ele>
        <time>2011-01-16T12:02:54Z</time>
      </trkpt>
      <trkpt lat="43.58071" lon="3.7453">
        <ele>92.2</ele>
        <time>2011-01-16T12:02:55Z</time>
      </trkpt>
      <trkpt lat="43.58067" lon="3.74534">
        <ele>92.2</ele>
        <time>2011-01-16T12:02:56Z</time>
      </trkpt>
      <trkpt lat="43.58063" lon="3.74539">
        <ele>92.3</ele>
        <time>2011-01-16T12:02:57Z</time>
      </trkpt>
      <trkpt lat="43.58056" lon="3.74545">
        <ele>91.9</ele>
        <time>2011-01-16T12:02:59Z</time>
      </trkpt>
      <trkpt lat="43.58053" lon="3.74546">
        <ele>91.6</ele>
        <time>2011-01-16T12:03:00Z</time>
      </trkpt>
      <trkpt lat="43.58048" lon="3.74549">
        <ele>92.6</ele>
        <time>2011-01-16T12:11:45Z</time>
      </trkpt>
      <trkpt lat="43.58054" lon="3.74565">
        <ele>92.1</ele>
        <time>2011-01-16T12:11:51Z</time>
      </trkpt>
      <trkpt lat="43.58059" lon="3.74574">
        <ele>91.6</ele>
        <time>2011-01-16T12:11:53Z</time>
      </trkpt>
      <trkpt lat="43.58063" lon="3.74584">
        <ele>90.9</ele>
        <time>2011-01-16T12:11:55Z</time>
      </trkpt>
      <trkpt lat="43.58062" lon="3.74596">
        <ele>90.1</ele>
        <time>2011-01-16T12:11:57Z</time>
      </trkpt>
      <trkpt lat="43.58061" lon="3.74603">
        <ele>89.3</ele>
        <time>2011-01-16T12:11:58Z</time>
      </trkpt>
      <trkpt lat="43.5806" lon="3.74611">
        <ele>88.7</ele>
        <time>2011-01-16T12:11:59Z</time>
      </trkpt>
      <trkpt lat="43.58059" lon="3.74617">
        <ele>88.3</ele>
        <time>2011-01-16T12:12:00Z</time>
      </trkpt>
      <trkpt lat="43.58058" lon="3.74629">
        <ele>87.4</ele>
        <time>2011-01-16T12:12:02Z</time>
      </trkpt>
      <trkpt lat="43.58057" lon="3.74639">
        <ele>86.6</ele>
        <time>2011-01-16T12:12:04Z</time>
      </trkpt>
      <trkpt lat="43.5806" lon="3.74647">
        <ele>84.5</ele>
        <time>2011-01-16T12:12:06Z</time>
      </trkpt>
      <trkpt lat="43.58067" lon="3.74652">
        <ele>82.9</ele>
        <time>2011-01-16T12:12:08Z</time>
      </trkpt>
      <trkpt lat="43.58074" lon="3.74657">
        <ele>81.6</ele>
        <time>2011-01-16T12:12:10Z</time>
      </trkpt>
      <trkpt lat="43.58077" lon="3.74667">
        <ele>80.9</ele>
        <time>2011-01-16T12:12:14Z</time>
      </trkpt>
      <trkpt lat="43.58082" lon="3.74674">
        <ele>81.5</ele>
        <time>2011-01-16T12:12:18Z</time>
      </trkpt>
      <trkpt lat="43.58087" lon="3.74681">
        <ele>82.5</ele>
        <time>2011-01-16T12:12:21Z</time>
      </trkpt>
      <trkpt lat="43.58093" lon="3.74689">
        <ele>83</ele>
        <time>2011-01-16T12:12:25Z</time>
      </trkpt>
      <trkpt lat="43.58096" lon="3.747">
        <ele>84</ele>
        <time>2011-01-16T12:12:30Z</time>
      </trkpt>
      <trkpt lat="43.58102" lon="3.74709">
        <ele>84.2</ele>
        <time>2011-01-16T12:14:39Z</time>
      </trkpt>
      <trkpt lat="43.58102" lon="3.74709">
        <ele>84.3</ele>
        <time>2011-01-16T12:14:40Z</time>
      </trkpt>
      <trkpt lat="43.58107" lon="3.74699">
        <ele>84.4</ele>
        <time>2011-01-16T12:17:11Z</time>
      </trkpt>
      <trkpt lat="43.58101" lon="3.74708">
        <ele>85.7</ele>
        <time>2011-01-16T12:19:20Z</time>
      </trkpt>
      <trkpt lat="43.58093" lon="3.74701">
        <ele>85.7</ele>
        <time>2011-01-16T12:20:40Z</time>
      </trkpt>
      <trkpt lat="43.58103" lon="3.74699">
        <ele>85.3</ele>
        <time>2011-01-16T12:24:03Z</time>
      </trkpt>
      <trkpt lat="43.58102" lon="3.74698">
        <ele>86.2</ele>
        <time>2011-01-16T12:25:40Z</time>
      </trkpt>
      <trkpt lat="43.58101" lon="3.74699">
        <ele>86.1</ele>
        <time>2011-01-16T12:25:41Z</time>
      </trkpt>
      <trkpt lat="43.58086" lon="3.74702">
        <ele>85.6</ele>
        <time>2011-01-16T12:32:30Z</time>
      </trkpt>
      <trkpt lat="43.58085" lon="3.74701">
        <ele>85.2</ele>
        <time>2011-01-16T12:32:31Z</time>
      </trkpt>
      <trkpt lat="43.58087" lon="3.747">
        <ele>85.7</ele>
        <time>2011-01-16T12:34:38Z</time>
      </trkpt>
      <trkpt lat="43.58086" lon="3.747">
        <ele>85.8</ele>
        <time>2011-01-16T12:34:39Z</time>
      </trkpt>
      <trkpt lat="43.58096" lon="3.747">
        <ele>85.6</ele>
        <time>2011-01-16T12:37:42Z</time>
      </trkpt>
      <trkpt lat="43.58096" lon="3.74689">
        <ele>87.4</ele>
        <time>2011-01-16T12:53:09Z</time>
      </trkpt>
      <trkpt lat="43.58094" lon="3.74701">
        <ele>87.3</ele>
        <time>2011-01-16T12:55:07Z</time>
      </trkpt>
      <trkpt lat="43.58089" lon="3.74711">
        <ele>87.7</ele>
        <time>2011-01-16T12:58:19Z</time>
      </trkpt>
      <trkpt lat="43.5809" lon="3.74712">
        <ele>87.7</ele>
        <time>2011-01-16T13:00:03Z</time>
      </trkpt>
      <trkpt lat="43.5809" lon="3.74711">
        <ele>87.7</ele>
        <time>2011-01-16T13:00:04Z</time>
      </trkpt>
      <trkpt lat="43.58099" lon="3.74708">
        <ele>87.6</ele>
        <time>2011-01-16T13:07:08Z</time>
      </trkpt>
      <trkpt lat="43.58107" lon="3.74705">
        <ele>87.2</ele>
        <time>2011-01-16T13:12:58Z</time>
      </trkpt>
      <trkpt lat="43.58098" lon="3.74705">
        <ele>87</ele>
        <time>2011-01-16T13:15:42Z</time>
      </trkpt>
      <trkpt lat="43.58098" lon="3.74698">
        <ele>86.9</ele>
        <time>2011-01-16T13:19:08Z</time>
      </trkpt>
      <trkpt lat="43.58098" lon="3.74698">
        <ele>86.8</ele>
        <time>2011-01-16T13:19:09Z</time>
      </trkpt>
      <trkpt lat="43.58097" lon="3.74711">
        <ele>86</ele>
        <time>2011-01-16T13:21:19Z</time>
      </trkpt>
      <trkpt lat="43.58088" lon="3.74706">
        <ele>86.4</ele>
        <time>2011-01-16T13:25:33Z</time>
      </trkpt>
      <trkpt lat="43.58095" lon="3.74698">
        <ele>71</ele>
        <time>2011-01-16T13:30:27Z</time>
      </trkpt>
      <trkpt lat="43.58091" lon="3.7471">
        <ele>73.7</ele>
        <time>2011-01-16T13:35:53Z</time>
      </trkpt>
      <trkpt lat="43.58098" lon="3.74701">
        <ele>73</ele>
        <time>2011-01-16T13:42:44Z</time>
      </trkpt>
      <trkpt lat="43.58089" lon="3.74701">
        <ele>73.3</ele>
        <time>2011-01-16T13:46:39Z</time>
      </trkpt>
      <trkpt lat="43.58088" lon="3.74703">
        <ele>73.8</ele>
        <time>2011-01-16T13:50:37Z</time>
      </trkpt>
      <trkpt lat="43.58089" lon="3.74703">
        <ele>73.7</ele>
        <time>2011-01-16T13:50:38Z</time>
      </trkpt>
      <trkpt lat="43.58096" lon="3.7471">
        <ele>72.3</ele>
        <time>2011-01-16T13:56:00Z</time>
      </trkpt>
      <trkpt lat="43.58091" lon="3.74699">
        <ele>72.7</ele>
        <time>2011-01-16T13:58:57Z</time>
      </trkpt>
      <trkpt lat="43.58086" lon="3.74709">
        <ele>73</ele>
        <time>2011-01-16T14:04:15Z</time>
      </trkpt>
      <trkpt lat="43.58092" lon="3.74699">
        <ele>72.5</ele>
        <time>2011-01-16T14:06:04Z</time>
      </trkpt>
      <trkpt lat="43.58082" lon="3.74702">
        <ele>72.4</ele>
        <time>2011-01-16T14:08:55Z</time>
      </trkpt>
      <trkpt lat="43.58099" lon="3.74691">
        <ele>72.9</ele>
        <time>2011-01-16T14:21:16Z</time>
      </trkpt>
      <trkpt lat="43.58099" lon="3.7469">
        <ele>72.9</ele>
        <time>2011-01-16T14:21:17Z</time>
      </trkpt>
      <trkpt lat="43.58086" lon="3.74705">
        <ele>72.7</ele>
        <time>2011-01-16T14:22:23Z</time>
      </trkpt>
      <trkpt lat="43.58086" lon="3.74706">
        <ele>72.9</ele>
        <time>2011-01-16T14:22:24Z</time>
      </trkpt>
      <trkpt lat="43.58095" lon="3.74704">
        <ele>71.6</ele>
        <time>2011-01-16T14:39:29Z</time>
      </trkpt>
      <trkpt lat="43.58086" lon="3.74705">
        <ele>74.3</ele>
        <time>2011-01-16T14:45:53Z</time>
      </trkpt>
    </trkseg>
  </trk>
</gpx>